<?xml version="1.0" encoding="UTF-8" standalone="no" ?>
<gpx xmlns="http://www.topografix.com/GPX/1/1" xmlns:xsi="http://www.w3.org/2001/XMLSchema-instance" xsi:schemaLocation="http://www.topografix.com/GPX/1/1 http://www.topografix.com/GPX/1/1/gpx.xsd" version="1.1" creator="VisuGPX - https://www.visugpx.com">
  <metadata>
    <name>Champagnat Cyclisme sur route</name>
  </metadata>
  <trk>
    <name><![CDATA[Champagnat Cyclisme sur route_1]]></name>
    <trkseg>
      <trkpt lat="46.48272" lon="5.36839">
        <ele>273.2</ele>
        <time>2022-06-28T12:09:42Z</time>
      </trkpt>
      <trkpt lat="46.48265" lon="5.3683">
        <ele>272.6</ele>
        <time>2022-06-28T12:09:43Z</time>
      </trkpt>
      <trkpt lat="46.48253" lon="5.36817">
        <ele>271.6</ele>
        <time>2022-06-28T12:09:44Z</time>
      </trkpt>
      <trkpt lat="46.48232" lon="5.36799">
        <ele>270.2</ele>
        <time>2022-06-28T12:09:46Z</time>
      </trkpt>
      <trkpt lat="46.48211" lon="5.36781">
        <ele>269.2</ele>
        <time>2022-06-28T12:09:48Z</time>
      </trkpt>
      <trkpt lat="46.48202" lon="5.36774">
        <ele>267.8</ele>
        <time>2022-06-28T12:09:49Z</time>
      </trkpt>
      <trkpt lat="46.4818" lon="5.36755">
        <ele>266.8</ele>
        <time>2022-06-28T12:09:51Z</time>
      </trkpt>
      <trkpt lat="46.48158" lon="5.36738">
        <ele>265.6</ele>
        <time>2022-06-28T12:09:53Z</time>
      </trkpt>
      <trkpt lat="46.48145" lon="5.36728">
        <ele>264.6</ele>
        <time>2022-06-28T12:09:54Z</time>
      </trkpt>
      <trkpt lat="46.48128" lon="5.36717">
        <ele>263</ele>
        <time>2022-06-28T12:09:56Z</time>
      </trkpt>
      <trkpt lat="46.4812" lon="5.36711">
        <ele>262.8</ele>
        <time>2022-06-28T12:09:57Z</time>
      </trkpt>
      <trkpt lat="46.48108" lon="5.36694">
        <ele>260.6</ele>
        <time>2022-06-28T12:09:59Z</time>
      </trkpt>
      <trkpt lat="46.48108" lon="5.36687">
        <ele>260.2</ele>
        <time>2022-06-28T12:10:00Z</time>
      </trkpt>
      <trkpt lat="46.4811" lon="5.36678">
        <ele>259.4</ele>
        <time>2022-06-28T12:10:01Z</time>
      </trkpt>
      <trkpt lat="46.48114" lon="5.3667">
        <ele>258.8</ele>
        <time>2022-06-28T12:10:02Z</time>
      </trkpt>
      <trkpt lat="46.48122" lon="5.36662">
        <ele>258</ele>
        <time>2022-06-28T12:10:03Z</time>
      </trkpt>
      <trkpt lat="46.48168" lon="5.36615">
        <ele>255.4</ele>
        <time>2022-06-28T12:10:10Z</time>
      </trkpt>
      <trkpt lat="46.48184" lon="5.36602">
        <ele>255.2</ele>
        <time>2022-06-28T12:10:12Z</time>
      </trkpt>
      <trkpt lat="46.48193" lon="5.366">
        <ele>255</ele>
        <time>2022-06-28T12:10:13Z</time>
      </trkpt>
      <trkpt lat="46.48209" lon="5.36597">
        <ele>254.6</ele>
        <time>2022-06-28T12:10:15Z</time>
      </trkpt>
      <trkpt lat="46.48216" lon="5.36592">
        <ele>254.6</ele>
        <time>2022-06-28T12:10:16Z</time>
      </trkpt>
      <trkpt lat="46.48221" lon="5.36584">
        <ele>254.4</ele>
        <time>2022-06-28T12:10:17Z</time>
      </trkpt>
      <trkpt lat="46.48228" lon="5.36565">
        <ele>254.2</ele>
        <time>2022-06-28T12:10:19Z</time>
      </trkpt>
      <trkpt lat="46.48238" lon="5.3655">
        <ele>254</ele>
        <time>2022-06-28T12:10:21Z</time>
      </trkpt>
      <trkpt lat="46.48243" lon="5.36544">
        <ele>253.8</ele>
        <time>2022-06-28T12:10:22Z</time>
      </trkpt>
      <trkpt lat="46.48261" lon="5.36524">
        <ele>253.4</ele>
        <time>2022-06-28T12:10:25Z</time>
      </trkpt>
      <trkpt lat="46.48297" lon="5.36483">
        <ele>252.2</ele>
        <time>2022-06-28T12:10:31Z</time>
      </trkpt>
      <trkpt lat="46.48303" lon="5.36476">
        <ele>252.2</ele>
        <time>2022-06-28T12:10:32Z</time>
      </trkpt>
      <trkpt lat="46.48334" lon="5.36442">
        <ele>251.2</ele>
        <time>2022-06-28T12:10:37Z</time>
      </trkpt>
      <trkpt lat="46.4836" lon="5.36414">
        <ele>250.4</ele>
        <time>2022-06-28T12:10:41Z</time>
      </trkpt>
      <trkpt lat="46.48366" lon="5.36407">
        <ele>250.2</ele>
        <time>2022-06-28T12:10:42Z</time>
      </trkpt>
      <trkpt lat="46.48397" lon="5.36374">
        <ele>249</ele>
        <time>2022-06-28T12:10:47Z</time>
      </trkpt>
      <trkpt lat="46.48416" lon="5.36359">
        <ele>248.6</ele>
        <time>2022-06-28T12:10:50Z</time>
      </trkpt>
      <trkpt lat="46.48437" lon="5.36351">
        <ele>248.2</ele>
        <time>2022-06-28T12:10:53Z</time>
      </trkpt>
      <trkpt lat="46.48446" lon="5.36349">
        <ele>248.2</ele>
        <time>2022-06-28T12:10:54Z</time>
      </trkpt>
      <trkpt lat="46.48473" lon="5.36344">
        <ele>248</ele>
        <time>2022-06-28T12:10:58Z</time>
      </trkpt>
      <trkpt lat="46.48515" lon="5.36337">
        <ele>247.6</ele>
        <time>2022-06-28T12:11:04Z</time>
      </trkpt>
      <trkpt lat="46.48576" lon="5.36327">
        <ele>247</ele>
        <time>2022-06-28T12:11:13Z</time>
      </trkpt>
      <trkpt lat="46.48608" lon="5.36322">
        <ele>246.2</ele>
        <time>2022-06-28T12:11:17Z</time>
      </trkpt>
      <trkpt lat="46.48614" lon="5.3632">
        <ele>246</ele>
        <time>2022-06-28T12:11:18Z</time>
      </trkpt>
      <trkpt lat="46.48621" lon="5.36315">
        <ele>245.8</ele>
        <time>2022-06-28T12:11:19Z</time>
      </trkpt>
      <trkpt lat="46.48631" lon="5.36297">
        <ele>245.4</ele>
        <time>2022-06-28T12:11:21Z</time>
      </trkpt>
      <trkpt lat="46.48636" lon="5.3627">
        <ele>244.8</ele>
        <time>2022-06-28T12:11:23Z</time>
      </trkpt>
      <trkpt lat="46.48639" lon="5.36245">
        <ele>243.6</ele>
        <time>2022-06-28T12:11:25Z</time>
      </trkpt>
      <trkpt lat="46.48641" lon="5.3622">
        <ele>242.6</ele>
        <time>2022-06-28T12:11:27Z</time>
      </trkpt>
      <trkpt lat="46.48647" lon="5.36157">
        <ele>241.6</ele>
        <time>2022-06-28T12:11:32Z</time>
      </trkpt>
      <trkpt lat="46.48648" lon="5.36145">
        <ele>241.4</ele>
        <time>2022-06-28T12:11:33Z</time>
      </trkpt>
      <trkpt lat="46.4866" lon="5.36087">
        <ele>240.8</ele>
        <time>2022-06-28T12:11:38Z</time>
      </trkpt>
      <trkpt lat="46.48662" lon="5.36076">
        <ele>240.6</ele>
        <time>2022-06-28T12:11:39Z</time>
      </trkpt>
      <trkpt lat="46.48673" lon="5.36029">
        <ele>240.4</ele>
        <time>2022-06-28T12:11:44Z</time>
      </trkpt>
      <trkpt lat="46.4868" lon="5.35986">
        <ele>241</ele>
        <time>2022-06-28T12:11:49Z</time>
      </trkpt>
      <trkpt lat="46.4868" lon="5.35978">
        <ele>241.2</ele>
        <time>2022-06-28T12:11:50Z</time>
      </trkpt>
      <trkpt lat="46.48681" lon="5.35968">
        <ele>241.2</ele>
        <time>2022-06-28T12:11:51Z</time>
      </trkpt>
      <trkpt lat="46.48686" lon="5.35929">
        <ele>241.6</ele>
        <time>2022-06-28T12:11:55Z</time>
      </trkpt>
      <trkpt lat="46.48688" lon="5.35919">
        <ele>241.8</ele>
        <time>2022-06-28T12:11:56Z</time>
      </trkpt>
      <trkpt lat="46.48704" lon="5.35871">
        <ele>241.4</ele>
        <time>2022-06-28T12:12:01Z</time>
      </trkpt>
      <trkpt lat="46.48719" lon="5.35834">
        <ele>240.6</ele>
        <time>2022-06-28T12:12:05Z</time>
      </trkpt>
      <trkpt lat="46.48727" lon="5.35815">
        <ele>240.4</ele>
        <time>2022-06-28T12:12:07Z</time>
      </trkpt>
      <trkpt lat="46.48747" lon="5.3577">
        <ele>239.4</ele>
        <time>2022-06-28T12:12:12Z</time>
      </trkpt>
      <trkpt lat="46.48752" lon="5.35761">
        <ele>239.2</ele>
        <time>2022-06-28T12:12:13Z</time>
      </trkpt>
      <trkpt lat="46.48779" lon="5.35698">
        <ele>238.8</ele>
        <time>2022-06-28T12:12:20Z</time>
      </trkpt>
      <trkpt lat="46.48787" lon="5.35681">
        <ele>238.6</ele>
        <time>2022-06-28T12:12:22Z</time>
      </trkpt>
      <trkpt lat="46.48808" lon="5.35641">
        <ele>238.4</ele>
        <time>2022-06-28T12:12:27Z</time>
      </trkpt>
      <trkpt lat="46.48812" lon="5.35633">
        <ele>238.4</ele>
        <time>2022-06-28T12:12:28Z</time>
      </trkpt>
      <trkpt lat="46.48824" lon="5.35607">
        <ele>238.4</ele>
        <time>2022-06-28T12:12:31Z</time>
      </trkpt>
      <trkpt lat="46.48841" lon="5.35576">
        <ele>238.6</ele>
        <time>2022-06-28T12:12:35Z</time>
      </trkpt>
      <trkpt lat="46.48852" lon="5.35566">
        <ele>238.6</ele>
        <time>2022-06-28T12:12:37Z</time>
      </trkpt>
      <trkpt lat="46.48878" lon="5.35563">
        <ele>238.6</ele>
        <time>2022-06-28T12:12:41Z</time>
      </trkpt>
      <trkpt lat="46.48898" lon="5.35563">
        <ele>238.4</ele>
        <time>2022-06-28T12:12:44Z</time>
      </trkpt>
      <trkpt lat="46.48908" lon="5.35563">
        <ele>238.4</ele>
        <time>2022-06-28T12:12:46Z</time>
      </trkpt>
      <trkpt lat="46.48935" lon="5.35563">
        <ele>237.6</ele>
        <time>2022-06-28T12:12:50Z</time>
      </trkpt>
      <trkpt lat="46.48951" lon="5.35563">
        <ele>237.2</ele>
        <time>2022-06-28T12:12:52Z</time>
      </trkpt>
      <trkpt lat="46.48985" lon="5.3556">
        <ele>236.4</ele>
        <time>2022-06-28T12:12:56Z</time>
      </trkpt>
      <trkpt lat="46.49002" lon="5.35559">
        <ele>235.8</ele>
        <time>2022-06-28T12:12:58Z</time>
      </trkpt>
      <trkpt lat="46.49046" lon="5.35556">
        <ele>235.4</ele>
        <time>2022-06-28T12:13:04Z</time>
      </trkpt>
      <trkpt lat="46.49084" lon="5.35554">
        <ele>236.4</ele>
        <time>2022-06-28T12:13:10Z</time>
      </trkpt>
      <trkpt lat="46.49094" lon="5.35553">
        <ele>236.6</ele>
        <time>2022-06-28T12:13:12Z</time>
      </trkpt>
      <trkpt lat="46.49104" lon="5.35553">
        <ele>236.8</ele>
        <time>2022-06-28T12:13:14Z</time>
      </trkpt>
      <trkpt lat="46.49107" lon="5.35553">
        <ele>237</ele>
        <time>2022-06-28T12:13:15Z</time>
      </trkpt>
      <trkpt lat="46.49122" lon="5.35553">
        <ele>237.8</ele>
        <time>2022-06-28T12:13:20Z</time>
      </trkpt>
      <trkpt lat="46.49127" lon="5.35553">
        <ele>238</ele>
        <time>2022-06-28T12:13:21Z</time>
      </trkpt>
      <trkpt lat="46.49152" lon="5.35552">
        <ele>238.6</ele>
        <time>2022-06-28T12:13:27Z</time>
      </trkpt>
      <trkpt lat="46.49162" lon="5.35553">
        <ele>239</ele>
        <time>2022-06-28T12:13:29Z</time>
      </trkpt>
      <trkpt lat="46.49183" lon="5.35553">
        <ele>239.8</ele>
        <time>2022-06-28T12:13:35Z</time>
      </trkpt>
      <trkpt lat="46.4921" lon="5.35553">
        <ele>240</ele>
        <time>2022-06-28T12:13:40Z</time>
      </trkpt>
      <trkpt lat="46.49236" lon="5.35553">
        <ele>240</ele>
        <time>2022-06-28T12:13:45Z</time>
      </trkpt>
      <trkpt lat="46.49248" lon="5.35553">
        <ele>240</ele>
        <time>2022-06-28T12:13:47Z</time>
      </trkpt>
      <trkpt lat="46.49259" lon="5.35553">
        <ele>240</ele>
        <time>2022-06-28T12:13:49Z</time>
      </trkpt>
      <trkpt lat="46.49285" lon="5.3555">
        <ele>239.6</ele>
        <time>2022-06-28T12:13:52Z</time>
      </trkpt>
      <trkpt lat="46.49319" lon="5.35551">
        <ele>239</ele>
        <time>2022-06-28T12:13:56Z</time>
      </trkpt>
      <trkpt lat="46.49343" lon="5.35558">
        <ele>238.4</ele>
        <time>2022-06-28T12:13:59Z</time>
      </trkpt>
      <trkpt lat="46.49351" lon="5.3556">
        <ele>238.4</ele>
        <time>2022-06-28T12:14:00Z</time>
      </trkpt>
      <trkpt lat="46.49376" lon="5.35567">
        <ele>238</ele>
        <time>2022-06-28T12:14:03Z</time>
      </trkpt>
      <trkpt lat="46.49407" lon="5.35578">
        <ele>237.6</ele>
        <time>2022-06-28T12:14:07Z</time>
      </trkpt>
      <trkpt lat="46.49453" lon="5.35594">
        <ele>237.2</ele>
        <time>2022-06-28T12:14:13Z</time>
      </trkpt>
      <trkpt lat="46.49485" lon="5.35605">
        <ele>236.8</ele>
        <time>2022-06-28T12:14:17Z</time>
      </trkpt>
      <trkpt lat="46.49526" lon="5.35617">
        <ele>236.2</ele>
        <time>2022-06-28T12:14:22Z</time>
      </trkpt>
      <trkpt lat="46.49551" lon="5.35624">
        <ele>235.8</ele>
        <time>2022-06-28T12:14:25Z</time>
      </trkpt>
      <trkpt lat="46.49591" lon="5.35634">
        <ele>235.2</ele>
        <time>2022-06-28T12:14:30Z</time>
      </trkpt>
      <trkpt lat="46.49614" lon="5.3564">
        <ele>234.6</ele>
        <time>2022-06-28T12:14:33Z</time>
      </trkpt>
      <trkpt lat="46.49649" lon="5.35651">
        <ele>234</ele>
        <time>2022-06-28T12:14:38Z</time>
      </trkpt>
      <trkpt lat="46.49656" lon="5.35653">
        <ele>233.6</ele>
        <time>2022-06-28T12:14:40Z</time>
      </trkpt>
      <trkpt lat="46.49659" lon="5.35652">
        <ele>233.6</ele>
        <time>2022-06-28T12:14:41Z</time>
      </trkpt>
      <trkpt lat="46.49666" lon="5.35646">
        <ele>233</ele>
        <time>2022-06-28T12:14:43Z</time>
      </trkpt>
      <trkpt lat="46.49668" lon="5.3564">
        <ele>232.8</ele>
        <time>2022-06-28T12:14:44Z</time>
      </trkpt>
      <trkpt lat="46.4967" lon="5.35633">
        <ele>232.6</ele>
        <time>2022-06-28T12:14:45Z</time>
      </trkpt>
      <trkpt lat="46.49675" lon="5.35606">
        <ele>232.4</ele>
        <time>2022-06-28T12:14:48Z</time>
      </trkpt>
      <trkpt lat="46.49687" lon="5.35537">
        <ele>232.2</ele>
        <time>2022-06-28T12:14:55Z</time>
      </trkpt>
      <trkpt lat="46.49702" lon="5.35453">
        <ele>232</ele>
        <time>2022-06-28T12:15:03Z</time>
      </trkpt>
      <trkpt lat="46.4971" lon="5.35398">
        <ele>231.6</ele>
        <time>2022-06-28T12:15:08Z</time>
      </trkpt>
      <trkpt lat="46.49714" lon="5.35353">
        <ele>231.2</ele>
        <time>2022-06-28T12:15:12Z</time>
      </trkpt>
      <trkpt lat="46.49711" lon="5.35301">
        <ele>230.8</ele>
        <time>2022-06-28T12:15:17Z</time>
      </trkpt>
      <trkpt lat="46.49707" lon="5.35274">
        <ele>230.8</ele>
        <time>2022-06-28T12:15:20Z</time>
      </trkpt>
      <trkpt lat="46.49703" lon="5.35247">
        <ele>230.8</ele>
        <time>2022-06-28T12:15:23Z</time>
      </trkpt>
      <trkpt lat="46.4969" lon="5.35165">
        <ele>231.4</ele>
        <time>2022-06-28T12:15:32Z</time>
      </trkpt>
      <trkpt lat="46.49679" lon="5.35102">
        <ele>231.2</ele>
        <time>2022-06-28T12:15:38Z</time>
      </trkpt>
      <trkpt lat="46.4967" lon="5.35046">
        <ele>231</ele>
        <time>2022-06-28T12:15:44Z</time>
      </trkpt>
      <trkpt lat="46.49663" lon="5.34987">
        <ele>231.2</ele>
        <time>2022-06-28T12:15:51Z</time>
      </trkpt>
      <trkpt lat="46.49662" lon="5.3498">
        <ele>231.6</ele>
        <time>2022-06-28T12:15:52Z</time>
      </trkpt>
      <trkpt lat="46.49661" lon="5.34972">
        <ele>231.8</ele>
        <time>2022-06-28T12:15:53Z</time>
      </trkpt>
      <trkpt lat="46.4966" lon="5.34957">
        <ele>232.2</ele>
        <time>2022-06-28T12:15:55Z</time>
      </trkpt>
      <trkpt lat="46.49655" lon="5.34926">
        <ele>232.8</ele>
        <time>2022-06-28T12:15:59Z</time>
      </trkpt>
      <trkpt lat="46.49648" lon="5.34886">
        <ele>233</ele>
        <time>2022-06-28T12:16:04Z</time>
      </trkpt>
      <trkpt lat="46.49643" lon="5.34865">
        <ele>233.2</ele>
        <time>2022-06-28T12:16:06Z</time>
      </trkpt>
      <trkpt lat="46.49639" lon="5.34848">
        <ele>233</ele>
        <time>2022-06-28T12:16:08Z</time>
      </trkpt>
      <trkpt lat="46.4963" lon="5.34808">
        <ele>233</ele>
        <time>2022-06-28T12:16:12Z</time>
      </trkpt>
      <trkpt lat="46.49625" lon="5.34751">
        <ele>232.4</ele>
        <time>2022-06-28T12:16:17Z</time>
      </trkpt>
      <trkpt lat="46.49627" lon="5.34714">
        <ele>231.6</ele>
        <time>2022-06-28T12:16:20Z</time>
      </trkpt>
      <trkpt lat="46.49628" lon="5.34702">
        <ele>231.4</ele>
        <time>2022-06-28T12:16:21Z</time>
      </trkpt>
      <trkpt lat="46.49629" lon="5.34689">
        <ele>231</ele>
        <time>2022-06-28T12:16:22Z</time>
      </trkpt>
      <trkpt lat="46.49631" lon="5.34663">
        <ele>230.4</ele>
        <time>2022-06-28T12:16:24Z</time>
      </trkpt>
      <trkpt lat="46.49635" lon="5.34624">
        <ele>229.2</ele>
        <time>2022-06-28T12:16:27Z</time>
      </trkpt>
      <trkpt lat="46.49637" lon="5.3461">
        <ele>229</ele>
        <time>2022-06-28T12:16:28Z</time>
      </trkpt>
      <trkpt lat="46.49642" lon="5.3457">
        <ele>227.8</ele>
        <time>2022-06-28T12:16:31Z</time>
      </trkpt>
      <trkpt lat="46.49647" lon="5.34531">
        <ele>226.8</ele>
        <time>2022-06-28T12:16:34Z</time>
      </trkpt>
      <trkpt lat="46.49652" lon="5.34521">
        <ele>226.6</ele>
        <time>2022-06-28T12:16:35Z</time>
      </trkpt>
      <trkpt lat="46.49654" lon="5.34513">
        <ele>226.4</ele>
        <time>2022-06-28T12:16:36Z</time>
      </trkpt>
      <trkpt lat="46.49663" lon="5.34483">
        <ele>226.4</ele>
        <time>2022-06-28T12:16:39Z</time>
      </trkpt>
      <trkpt lat="46.49669" lon="5.34465">
        <ele>226.4</ele>
        <time>2022-06-28T12:16:41Z</time>
      </trkpt>
      <trkpt lat="46.49676" lon="5.34448">
        <ele>226.4</ele>
        <time>2022-06-28T12:16:43Z</time>
      </trkpt>
      <trkpt lat="46.49679" lon="5.3444">
        <ele>226.4</ele>
        <time>2022-06-28T12:16:44Z</time>
      </trkpt>
      <trkpt lat="46.49688" lon="5.34416">
        <ele>227.4</ele>
        <time>2022-06-28T12:16:47Z</time>
      </trkpt>
      <trkpt lat="46.49691" lon="5.34409">
        <ele>227.6</ele>
        <time>2022-06-28T12:16:48Z</time>
      </trkpt>
      <trkpt lat="46.49694" lon="5.34402">
        <ele>227.8</ele>
        <time>2022-06-28T12:16:49Z</time>
      </trkpt>
      <trkpt lat="46.49703" lon="5.34371">
        <ele>228.4</ele>
        <time>2022-06-28T12:16:53Z</time>
      </trkpt>
      <trkpt lat="46.49707" lon="5.34356">
        <ele>229</ele>
        <time>2022-06-28T12:16:55Z</time>
      </trkpt>
      <trkpt lat="46.49717" lon="5.34325">
        <ele>229.8</ele>
        <time>2022-06-28T12:16:59Z</time>
      </trkpt>
      <trkpt lat="46.4972" lon="5.34317">
        <ele>229.8</ele>
        <time>2022-06-28T12:17:00Z</time>
      </trkpt>
      <trkpt lat="46.49728" lon="5.34303">
        <ele>230</ele>
        <time>2022-06-28T12:17:02Z</time>
      </trkpt>
      <trkpt lat="46.49732" lon="5.34295">
        <ele>230</ele>
        <time>2022-06-28T12:17:03Z</time>
      </trkpt>
      <trkpt lat="46.49755" lon="5.3426">
        <ele>230.6</ele>
        <time>2022-06-28T12:17:08Z</time>
      </trkpt>
      <trkpt lat="46.49774" lon="5.34232">
        <ele>230.6</ele>
        <time>2022-06-28T12:17:12Z</time>
      </trkpt>
      <trkpt lat="46.49783" lon="5.34218">
        <ele>230.6</ele>
        <time>2022-06-28T12:17:14Z</time>
      </trkpt>
      <trkpt lat="46.49799" lon="5.3419">
        <ele>230.6</ele>
        <time>2022-06-28T12:17:18Z</time>
      </trkpt>
      <trkpt lat="46.49807" lon="5.34176">
        <ele>230.6</ele>
        <time>2022-06-28T12:17:20Z</time>
      </trkpt>
      <trkpt lat="46.49832" lon="5.34127">
        <ele>231</ele>
        <time>2022-06-28T12:17:27Z</time>
      </trkpt>
      <trkpt lat="46.49837" lon="5.34119">
        <ele>231</ele>
        <time>2022-06-28T12:17:28Z</time>
      </trkpt>
      <trkpt lat="46.49854" lon="5.34091">
        <ele>231</ele>
        <time>2022-06-28T12:17:32Z</time>
      </trkpt>
      <trkpt lat="46.49876" lon="5.34055">
        <ele>231</ele>
        <time>2022-06-28T12:17:37Z</time>
      </trkpt>
      <trkpt lat="46.49909" lon="5.34014">
        <ele>230.8</ele>
        <time>2022-06-28T12:17:44Z</time>
      </trkpt>
      <trkpt lat="46.49925" lon="5.33995">
        <ele>231</ele>
        <time>2022-06-28T12:17:48Z</time>
      </trkpt>
      <trkpt lat="46.49929" lon="5.3399">
        <ele>231</ele>
        <time>2022-06-28T12:17:49Z</time>
      </trkpt>
      <trkpt lat="46.49933" lon="5.33986">
        <ele>231.4</ele>
        <time>2022-06-28T12:17:50Z</time>
      </trkpt>
      <trkpt lat="46.4994" lon="5.33977">
        <ele>231.6</ele>
        <time>2022-06-28T12:17:52Z</time>
      </trkpt>
      <trkpt lat="46.49947" lon="5.33969">
        <ele>232</ele>
        <time>2022-06-28T12:17:54Z</time>
      </trkpt>
      <trkpt lat="46.49952" lon="5.33964">
        <ele>232.2</ele>
        <time>2022-06-28T12:17:55Z</time>
      </trkpt>
      <trkpt lat="46.49956" lon="5.33959">
        <ele>232.2</ele>
        <time>2022-06-28T12:17:56Z</time>
      </trkpt>
      <trkpt lat="46.49973" lon="5.33939">
        <ele>232.6</ele>
        <time>2022-06-28T12:18:00Z</time>
      </trkpt>
      <trkpt lat="46.50002" lon="5.33906">
        <ele>233.2</ele>
        <time>2022-06-28T12:18:06Z</time>
      </trkpt>
      <trkpt lat="46.50018" lon="5.33886">
        <ele>233.4</ele>
        <time>2022-06-28T12:18:09Z</time>
      </trkpt>
      <trkpt lat="46.50028" lon="5.33874">
        <ele>233.4</ele>
        <time>2022-06-28T12:18:11Z</time>
      </trkpt>
      <trkpt lat="46.50059" lon="5.3384">
        <ele>233</ele>
        <time>2022-06-28T12:18:16Z</time>
      </trkpt>
      <trkpt lat="46.50091" lon="5.33806">
        <ele>232.2</ele>
        <time>2022-06-28T12:18:21Z</time>
      </trkpt>
      <trkpt lat="46.50097" lon="5.338">
        <ele>232</ele>
        <time>2022-06-28T12:18:22Z</time>
      </trkpt>
      <trkpt lat="46.50104" lon="5.33793">
        <ele>231.8</ele>
        <time>2022-06-28T12:18:23Z</time>
      </trkpt>
      <trkpt lat="46.50146" lon="5.33748">
        <ele>231.2</ele>
        <time>2022-06-28T12:18:30Z</time>
      </trkpt>
      <trkpt lat="46.50155" lon="5.33737">
        <ele>231.2</ele>
        <time>2022-06-28T12:18:32Z</time>
      </trkpt>
      <trkpt lat="46.50163" lon="5.33725">
        <ele>231.2</ele>
        <time>2022-06-28T12:18:34Z</time>
      </trkpt>
      <trkpt lat="46.50193" lon="5.33693">
        <ele>231.8</ele>
        <time>2022-06-28T12:18:40Z</time>
      </trkpt>
      <trkpt lat="46.50231" lon="5.33662">
        <ele>232</ele>
        <time>2022-06-28T12:18:45Z</time>
      </trkpt>
      <trkpt lat="46.50267" lon="5.33625">
        <ele>231.4</ele>
        <time>2022-06-28T12:18:51Z</time>
      </trkpt>
      <trkpt lat="46.5029" lon="5.33601">
        <ele>231.2</ele>
        <time>2022-06-28T12:18:55Z</time>
      </trkpt>
      <trkpt lat="46.50306" lon="5.33582">
        <ele>231</ele>
        <time>2022-06-28T12:18:58Z</time>
      </trkpt>
      <trkpt lat="46.50328" lon="5.3356">
        <ele>230.6</ele>
        <time>2022-06-28T12:19:02Z</time>
      </trkpt>
      <trkpt lat="46.50363" lon="5.33522">
        <ele>230.2</ele>
        <time>2022-06-28T12:19:08Z</time>
      </trkpt>
      <trkpt lat="46.50402" lon="5.3348">
        <ele>229.4</ele>
        <time>2022-06-28T12:19:15Z</time>
      </trkpt>
      <trkpt lat="46.5042" lon="5.3346">
        <ele>229.2</ele>
        <time>2022-06-28T12:19:18Z</time>
      </trkpt>
      <trkpt lat="46.50442" lon="5.33429">
        <ele>228.8</ele>
        <time>2022-06-28T12:19:22Z</time>
      </trkpt>
      <trkpt lat="46.50461" lon="5.33389">
        <ele>228.2</ele>
        <time>2022-06-28T12:19:26Z</time>
      </trkpt>
      <trkpt lat="46.50464" lon="5.3338">
        <ele>227.8</ele>
        <time>2022-06-28T12:19:27Z</time>
      </trkpt>
      <trkpt lat="46.50466" lon="5.33355">
        <ele>227.4</ele>
        <time>2022-06-28T12:19:29Z</time>
      </trkpt>
      <trkpt lat="46.50467" lon="5.33334">
        <ele>227.4</ele>
        <time>2022-06-28T12:19:31Z</time>
      </trkpt>
      <trkpt lat="46.50467" lon="5.333">
        <ele>227.2</ele>
        <time>2022-06-28T12:19:34Z</time>
      </trkpt>
      <trkpt lat="46.50466" lon="5.3328">
        <ele>227.4</ele>
        <time>2022-06-28T12:19:36Z</time>
      </trkpt>
      <trkpt lat="46.50466" lon="5.33269">
        <ele>227.4</ele>
        <time>2022-06-28T12:19:37Z</time>
      </trkpt>
      <trkpt lat="46.50465" lon="5.33236">
        <ele>227.6</ele>
        <time>2022-06-28T12:19:40Z</time>
      </trkpt>
      <trkpt lat="46.50463" lon="5.33191">
        <ele>228</ele>
        <time>2022-06-28T12:19:45Z</time>
      </trkpt>
      <trkpt lat="46.50464" lon="5.3314">
        <ele>228</ele>
        <time>2022-06-28T12:19:50Z</time>
      </trkpt>
      <trkpt lat="46.50463" lon="5.33126">
        <ele>227.8</ele>
        <time>2022-06-28T12:19:51Z</time>
      </trkpt>
      <trkpt lat="46.50464" lon="5.33081">
        <ele>227.2</ele>
        <time>2022-06-28T12:19:55Z</time>
      </trkpt>
      <trkpt lat="46.50466" lon="5.33058">
        <ele>226.6</ele>
        <time>2022-06-28T12:19:57Z</time>
      </trkpt>
      <trkpt lat="46.50467" lon="5.33017">
        <ele>225.6</ele>
        <time>2022-06-28T12:20:00Z</time>
      </trkpt>
      <trkpt lat="46.50469" lon="5.32975">
        <ele>224.4</ele>
        <time>2022-06-28T12:20:03Z</time>
      </trkpt>
      <trkpt lat="46.50471" lon="5.3293">
        <ele>222.4</ele>
        <time>2022-06-28T12:20:06Z</time>
      </trkpt>
      <trkpt lat="46.50472" lon="5.32886">
        <ele>221</ele>
        <time>2022-06-28T12:20:09Z</time>
      </trkpt>
      <trkpt lat="46.50473" lon="5.32841">
        <ele>220</ele>
        <time>2022-06-28T12:20:12Z</time>
      </trkpt>
      <trkpt lat="46.50474" lon="5.32797">
        <ele>218.4</ele>
        <time>2022-06-28T12:20:15Z</time>
      </trkpt>
      <trkpt lat="46.50474" lon="5.32769">
        <ele>217.2</ele>
        <time>2022-06-28T12:20:17Z</time>
      </trkpt>
      <trkpt lat="46.50475" lon="5.32729">
        <ele>216.2</ele>
        <time>2022-06-28T12:20:20Z</time>
      </trkpt>
      <trkpt lat="46.50476" lon="5.32702">
        <ele>216</ele>
        <time>2022-06-28T12:20:22Z</time>
      </trkpt>
      <trkpt lat="46.50477" lon="5.32636">
        <ele>215.2</ele>
        <time>2022-06-28T12:20:27Z</time>
      </trkpt>
      <trkpt lat="46.50475" lon="5.32585">
        <ele>214.6</ele>
        <time>2022-06-28T12:20:31Z</time>
      </trkpt>
      <trkpt lat="46.50473" lon="5.32522">
        <ele>213.8</ele>
        <time>2022-06-28T12:20:36Z</time>
      </trkpt>
      <trkpt lat="46.50471" lon="5.32497">
        <ele>213.6</ele>
        <time>2022-06-28T12:20:38Z</time>
      </trkpt>
      <trkpt lat="46.50465" lon="5.32437">
        <ele>212.8</ele>
        <time>2022-06-28T12:20:43Z</time>
      </trkpt>
      <trkpt lat="46.50461" lon="5.32413">
        <ele>212.6</ele>
        <time>2022-06-28T12:20:45Z</time>
      </trkpt>
      <trkpt lat="46.50444" lon="5.32334">
        <ele>212</ele>
        <time>2022-06-28T12:20:52Z</time>
      </trkpt>
      <trkpt lat="46.5044" lon="5.32313">
        <ele>211.8</ele>
        <time>2022-06-28T12:20:54Z</time>
      </trkpt>
      <trkpt lat="46.50438" lon="5.32304">
        <ele>211.8</ele>
        <time>2022-06-28T12:20:55Z</time>
      </trkpt>
      <trkpt lat="46.50431" lon="5.32247">
        <ele>211.8</ele>
        <time>2022-06-28T12:21:00Z</time>
      </trkpt>
      <trkpt lat="46.5043" lon="5.32176">
        <ele>211.6</ele>
        <time>2022-06-28T12:21:06Z</time>
      </trkpt>
      <trkpt lat="46.50433" lon="5.3209">
        <ele>211</ele>
        <time>2022-06-28T12:21:13Z</time>
      </trkpt>
      <trkpt lat="46.50434" lon="5.32064">
        <ele>210.8</ele>
        <time>2022-06-28T12:21:15Z</time>
      </trkpt>
      <trkpt lat="46.50435" lon="5.32002">
        <ele>209.8</ele>
        <time>2022-06-28T12:21:20Z</time>
      </trkpt>
      <trkpt lat="46.50436" lon="5.31977">
        <ele>209.6</ele>
        <time>2022-06-28T12:21:22Z</time>
      </trkpt>
      <trkpt lat="46.50438" lon="5.31893">
        <ele>209.2</ele>
        <time>2022-06-28T12:21:29Z</time>
      </trkpt>
      <trkpt lat="46.50438" lon="5.31882">
        <ele>209</ele>
        <time>2022-06-28T12:21:30Z</time>
      </trkpt>
      <trkpt lat="46.50434" lon="5.31847">
        <ele>208.8</ele>
        <time>2022-06-28T12:21:33Z</time>
      </trkpt>
      <trkpt lat="46.50429" lon="5.31825">
        <ele>208.6</ele>
        <time>2022-06-28T12:21:35Z</time>
      </trkpt>
      <trkpt lat="46.5041" lon="5.3175">
        <ele>208.6</ele>
        <time>2022-06-28T12:21:42Z</time>
      </trkpt>
      <trkpt lat="46.50406" lon="5.3174">
        <ele>208.8</ele>
        <time>2022-06-28T12:21:43Z</time>
      </trkpt>
      <trkpt lat="46.50379" lon="5.31686">
        <ele>208.8</ele>
        <time>2022-06-28T12:21:49Z</time>
      </trkpt>
      <trkpt lat="46.50349" lon="5.31649">
        <ele>208.2</ele>
        <time>2022-06-28T12:21:54Z</time>
      </trkpt>
      <trkpt lat="46.50336" lon="5.31639">
        <ele>208</ele>
        <time>2022-06-28T12:21:56Z</time>
      </trkpt>
      <trkpt lat="46.50303" lon="5.31616">
        <ele>207.4</ele>
        <time>2022-06-28T12:22:01Z</time>
      </trkpt>
      <trkpt lat="46.50257" lon="5.31575">
        <ele>207.2</ele>
        <time>2022-06-28T12:22:08Z</time>
      </trkpt>
      <trkpt lat="46.50229" lon="5.31539">
        <ele>207.2</ele>
        <time>2022-06-28T12:22:13Z</time>
      </trkpt>
      <trkpt lat="46.50211" lon="5.315">
        <ele>207.4</ele>
        <time>2022-06-28T12:22:18Z</time>
      </trkpt>
      <trkpt lat="46.50198" lon="5.31458">
        <ele>209</ele>
        <time>2022-06-28T12:22:24Z</time>
      </trkpt>
      <trkpt lat="46.5019" lon="5.31432">
        <ele>210.2</ele>
        <time>2022-06-28T12:22:28Z</time>
      </trkpt>
      <trkpt lat="46.50181" lon="5.31407">
        <ele>211.2</ele>
        <time>2022-06-28T12:22:32Z</time>
      </trkpt>
      <trkpt lat="46.50171" lon="5.3137">
        <ele>212.6</ele>
        <time>2022-06-28T12:22:38Z</time>
      </trkpt>
      <trkpt lat="46.50167" lon="5.31358">
        <ele>213</ele>
        <time>2022-06-28T12:22:40Z</time>
      </trkpt>
      <trkpt lat="46.50161" lon="5.31338">
        <ele>213.6</ele>
        <time>2022-06-28T12:22:43Z</time>
      </trkpt>
      <trkpt lat="46.50147" lon="5.31296">
        <ele>214.6</ele>
        <time>2022-06-28T12:22:49Z</time>
      </trkpt>
      <trkpt lat="46.50144" lon="5.31288">
        <ele>214.8</ele>
        <time>2022-06-28T12:22:50Z</time>
      </trkpt>
      <trkpt lat="46.50126" lon="5.3124">
        <ele>215.2</ele>
        <time>2022-06-28T12:22:56Z</time>
      </trkpt>
      <trkpt lat="46.50106" lon="5.31186">
        <ele>215</ele>
        <time>2022-06-28T12:23:02Z</time>
      </trkpt>
      <trkpt lat="46.50081" lon="5.31115">
        <ele>214</ele>
        <time>2022-06-28T12:23:09Z</time>
      </trkpt>
      <trkpt lat="46.5006" lon="5.31055">
        <ele>213.8</ele>
        <time>2022-06-28T12:23:16Z</time>
      </trkpt>
      <trkpt lat="46.50046" lon="5.31011">
        <ele>214.2</ele>
        <time>2022-06-28T12:23:23Z</time>
      </trkpt>
      <trkpt lat="46.50039" lon="5.3099">
        <ele>215</ele>
        <time>2022-06-28T12:23:27Z</time>
      </trkpt>
      <trkpt lat="46.50035" lon="5.30977">
        <ele>215.6</ele>
        <time>2022-06-28T12:23:29Z</time>
      </trkpt>
      <trkpt lat="46.50034" lon="5.30972">
        <ele>216.2</ele>
        <time>2022-06-28T12:23:30Z</time>
      </trkpt>
      <trkpt lat="46.50024" lon="5.30944">
        <ele>217</ele>
        <time>2022-06-28T12:23:35Z</time>
      </trkpt>
      <trkpt lat="46.50022" lon="5.30938">
        <ele>217.4</ele>
        <time>2022-06-28T12:23:36Z</time>
      </trkpt>
      <trkpt lat="46.5002" lon="5.30933">
        <ele>217.4</ele>
        <time>2022-06-28T12:23:37Z</time>
      </trkpt>
      <trkpt lat="46.50014" lon="5.30918">
        <ele>218.6</ele>
        <time>2022-06-28T12:23:40Z</time>
      </trkpt>
      <trkpt lat="46.50006" lon="5.30897">
        <ele>219.6</ele>
        <time>2022-06-28T12:23:44Z</time>
      </trkpt>
      <trkpt lat="46.50002" lon="5.30886">
        <ele>220</ele>
        <time>2022-06-28T12:23:46Z</time>
      </trkpt>
      <trkpt lat="46.49993" lon="5.30863">
        <ele>221</ele>
        <time>2022-06-28T12:23:50Z</time>
      </trkpt>
      <trkpt lat="46.49983" lon="5.30834">
        <ele>222</ele>
        <time>2022-06-28T12:23:55Z</time>
      </trkpt>
      <trkpt lat="46.49981" lon="5.30828">
        <ele>222.2</ele>
        <time>2022-06-28T12:23:56Z</time>
      </trkpt>
      <trkpt lat="46.49979" lon="5.30822">
        <ele>222.4</ele>
        <time>2022-06-28T12:23:57Z</time>
      </trkpt>
      <trkpt lat="46.49969" lon="5.30785">
        <ele>223.2</ele>
        <time>2022-06-28T12:24:03Z</time>
      </trkpt>
      <trkpt lat="46.49964" lon="5.30759">
        <ele>223.6</ele>
        <time>2022-06-28T12:24:07Z</time>
      </trkpt>
      <trkpt lat="46.49958" lon="5.30724">
        <ele>224.4</ele>
        <time>2022-06-28T12:24:12Z</time>
      </trkpt>
      <trkpt lat="46.49949" lon="5.30674">
        <ele>225.2</ele>
        <time>2022-06-28T12:24:18Z</time>
      </trkpt>
      <trkpt lat="46.49939" lon="5.30614">
        <ele>224.8</ele>
        <time>2022-06-28T12:24:24Z</time>
      </trkpt>
      <trkpt lat="46.49936" lon="5.3058">
        <ele>223.6</ele>
        <time>2022-06-28T12:24:27Z</time>
      </trkpt>
      <trkpt lat="46.49936" lon="5.30555">
        <ele>223</ele>
        <time>2022-06-28T12:24:29Z</time>
      </trkpt>
      <trkpt lat="46.49945" lon="5.30509">
        <ele>222.6</ele>
        <time>2022-06-28T12:24:33Z</time>
      </trkpt>
      <trkpt lat="46.49949" lon="5.30498">
        <ele>222.2</ele>
        <time>2022-06-28T12:24:34Z</time>
      </trkpt>
      <trkpt lat="46.49953" lon="5.30487">
        <ele>222</ele>
        <time>2022-06-28T12:24:35Z</time>
      </trkpt>
      <trkpt lat="46.49964" lon="5.30468">
        <ele>221.2</ele>
        <time>2022-06-28T12:24:37Z</time>
      </trkpt>
      <trkpt lat="46.49991" lon="5.30437">
        <ele>220.6</ele>
        <time>2022-06-28T12:24:41Z</time>
      </trkpt>
      <trkpt lat="46.50014" lon="5.30419">
        <ele>219.8</ele>
        <time>2022-06-28T12:24:44Z</time>
      </trkpt>
      <trkpt lat="46.50042" lon="5.30395">
        <ele>218.6</ele>
        <time>2022-06-28T12:24:48Z</time>
      </trkpt>
      <trkpt lat="46.50059" lon="5.30372">
        <ele>217.6</ele>
        <time>2022-06-28T12:24:51Z</time>
      </trkpt>
      <trkpt lat="46.50064" lon="5.30364">
        <ele>217.2</ele>
        <time>2022-06-28T12:24:52Z</time>
      </trkpt>
      <trkpt lat="46.50078" lon="5.3033">
        <ele>217</ele>
        <time>2022-06-28T12:24:56Z</time>
      </trkpt>
      <trkpt lat="46.50081" lon="5.30322">
        <ele>217</ele>
        <time>2022-06-28T12:24:57Z</time>
      </trkpt>
      <trkpt lat="46.50089" lon="5.30272">
        <ele>217.8</ele>
        <time>2022-06-28T12:25:03Z</time>
      </trkpt>
      <trkpt lat="46.50089" lon="5.30263">
        <ele>218</ele>
        <time>2022-06-28T12:25:04Z</time>
      </trkpt>
      <trkpt lat="46.50089" lon="5.30245">
        <ele>218.2</ele>
        <time>2022-06-28T12:25:06Z</time>
      </trkpt>
      <trkpt lat="46.5009" lon="5.30236">
        <ele>218.2</ele>
        <time>2022-06-28T12:25:07Z</time>
      </trkpt>
      <trkpt lat="46.5009" lon="5.30216">
        <ele>218.4</ele>
        <time>2022-06-28T12:25:09Z</time>
      </trkpt>
      <trkpt lat="46.50092" lon="5.302">
        <ele>218.6</ele>
        <time>2022-06-28T12:25:11Z</time>
      </trkpt>
      <trkpt lat="46.50091" lon="5.3018">
        <ele>219.2</ele>
        <time>2022-06-28T12:25:13Z</time>
      </trkpt>
      <trkpt lat="46.50091" lon="5.30161">
        <ele>219.4</ele>
        <time>2022-06-28T12:25:15Z</time>
      </trkpt>
      <trkpt lat="46.50092" lon="5.30109">
        <ele>219.8</ele>
        <time>2022-06-28T12:25:21Z</time>
      </trkpt>
      <trkpt lat="46.50093" lon="5.30084">
        <ele>220</ele>
        <time>2022-06-28T12:25:24Z</time>
      </trkpt>
      <trkpt lat="46.50092" lon="5.30033">
        <ele>220.8</ele>
        <time>2022-06-28T12:25:30Z</time>
      </trkpt>
      <trkpt lat="46.50092" lon="5.30024">
        <ele>220.8</ele>
        <time>2022-06-28T12:25:31Z</time>
      </trkpt>
      <trkpt lat="46.50081" lon="5.29962">
        <ele>220.6</ele>
        <time>2022-06-28T12:25:38Z</time>
      </trkpt>
      <trkpt lat="46.50078" lon="5.29953">
        <ele>220.6</ele>
        <time>2022-06-28T12:25:39Z</time>
      </trkpt>
      <trkpt lat="46.50063" lon="5.2992">
        <ele>220.4</ele>
        <time>2022-06-28T12:25:43Z</time>
      </trkpt>
      <trkpt lat="46.50054" lon="5.29904">
        <ele>220.2</ele>
        <time>2022-06-28T12:25:45Z</time>
      </trkpt>
      <trkpt lat="46.50036" lon="5.29885">
        <ele>220</ele>
        <time>2022-06-28T12:25:48Z</time>
      </trkpt>
      <trkpt lat="46.50025" lon="5.29872">
        <ele>219.8</ele>
        <time>2022-06-28T12:25:50Z</time>
      </trkpt>
      <trkpt lat="46.50022" lon="5.29864">
        <ele>219.8</ele>
        <time>2022-06-28T12:25:51Z</time>
      </trkpt>
      <trkpt lat="46.50021" lon="5.29855">
        <ele>219.6</ele>
        <time>2022-06-28T12:25:52Z</time>
      </trkpt>
      <trkpt lat="46.50027" lon="5.29838">
        <ele>219.6</ele>
        <time>2022-06-28T12:25:54Z</time>
      </trkpt>
      <trkpt lat="46.50048" lon="5.29811">
        <ele>219.4</ele>
        <time>2022-06-28T12:25:58Z</time>
      </trkpt>
      <trkpt lat="46.50054" lon="5.29806">
        <ele>219.2</ele>
        <time>2022-06-28T12:25:59Z</time>
      </trkpt>
      <trkpt lat="46.5006" lon="5.29803">
        <ele>219.2</ele>
        <time>2022-06-28T12:26:00Z</time>
      </trkpt>
      <trkpt lat="46.50074" lon="5.29798">
        <ele>219.2</ele>
        <time>2022-06-28T12:26:02Z</time>
      </trkpt>
      <trkpt lat="46.5008" lon="5.29795">
        <ele>219.2</ele>
        <time>2022-06-28T12:26:03Z</time>
      </trkpt>
      <trkpt lat="46.50102" lon="5.29787">
        <ele>219.8</ele>
        <time>2022-06-28T12:26:07Z</time>
      </trkpt>
      <trkpt lat="46.50121" lon="5.29779">
        <ele>220.2</ele>
        <time>2022-06-28T12:26:11Z</time>
      </trkpt>
      <trkpt lat="46.50125" lon="5.29778">
        <ele>220.4</ele>
        <time>2022-06-28T12:26:12Z</time>
      </trkpt>
      <trkpt lat="46.50134" lon="5.29776">
        <ele>221</ele>
        <time>2022-06-28T12:26:14Z</time>
      </trkpt>
      <trkpt lat="46.50148" lon="5.29771">
        <ele>221.6</ele>
        <time>2022-06-28T12:26:17Z</time>
      </trkpt>
      <trkpt lat="46.50159" lon="5.29769">
        <ele>222</ele>
        <time>2022-06-28T12:26:19Z</time>
      </trkpt>
      <trkpt lat="46.50164" lon="5.29769">
        <ele>222</ele>
        <time>2022-06-28T12:26:20Z</time>
      </trkpt>
      <trkpt lat="46.50181" lon="5.2977">
        <ele>222.6</ele>
        <time>2022-06-28T12:26:23Z</time>
      </trkpt>
      <trkpt lat="46.50192" lon="5.29771">
        <ele>222.8</ele>
        <time>2022-06-28T12:26:25Z</time>
      </trkpt>
      <trkpt lat="46.50209" lon="5.29772">
        <ele>223.4</ele>
        <time>2022-06-28T12:26:28Z</time>
      </trkpt>
      <trkpt lat="46.50215" lon="5.29772">
        <ele>223.4</ele>
        <time>2022-06-28T12:26:29Z</time>
      </trkpt>
      <trkpt lat="46.50251" lon="5.29768">
        <ele>224</ele>
        <time>2022-06-28T12:26:35Z</time>
      </trkpt>
      <trkpt lat="46.50279" lon="5.29758">
        <ele>224.4</ele>
        <time>2022-06-28T12:26:40Z</time>
      </trkpt>
      <trkpt lat="46.50316" lon="5.29743">
        <ele>224.8</ele>
        <time>2022-06-28T12:26:47Z</time>
      </trkpt>
      <trkpt lat="46.5037" lon="5.2972">
        <ele>225.4</ele>
        <time>2022-06-28T12:26:58Z</time>
      </trkpt>
      <trkpt lat="46.50382" lon="5.29714">
        <ele>225.6</ele>
        <time>2022-06-28T12:27:00Z</time>
      </trkpt>
      <trkpt lat="46.50419" lon="5.29691">
        <ele>225.6</ele>
        <time>2022-06-28T12:27:07Z</time>
      </trkpt>
      <trkpt lat="46.50464" lon="5.2966">
        <ele>225.4</ele>
        <time>2022-06-28T12:27:15Z</time>
      </trkpt>
      <trkpt lat="46.50515" lon="5.29624">
        <ele>225</ele>
        <time>2022-06-28T12:27:24Z</time>
      </trkpt>
      <trkpt lat="46.5052" lon="5.29621">
        <ele>225</ele>
        <time>2022-06-28T12:27:25Z</time>
      </trkpt>
      <trkpt lat="46.5057" lon="5.29583">
        <ele>225.2</ele>
        <time>2022-06-28T12:27:34Z</time>
      </trkpt>
      <trkpt lat="46.50575" lon="5.29579">
        <ele>225.2</ele>
        <time>2022-06-28T12:27:35Z</time>
      </trkpt>
      <trkpt lat="46.50626" lon="5.29539">
        <ele>224.8</ele>
        <time>2022-06-28T12:27:44Z</time>
      </trkpt>
      <trkpt lat="46.50638" lon="5.29532">
        <ele>224.8</ele>
        <time>2022-06-28T12:27:46Z</time>
      </trkpt>
      <trkpt lat="46.50644" lon="5.29529">
        <ele>224.6</ele>
        <time>2022-06-28T12:27:47Z</time>
      </trkpt>
      <trkpt lat="46.50659" lon="5.29526">
        <ele>224.4</ele>
        <time>2022-06-28T12:27:49Z</time>
      </trkpt>
      <trkpt lat="46.50664" lon="5.29527">
        <ele>224.2</ele>
        <time>2022-06-28T12:27:50Z</time>
      </trkpt>
      <trkpt lat="46.50671" lon="5.29528">
        <ele>224.2</ele>
        <time>2022-06-28T12:27:51Z</time>
      </trkpt>
      <trkpt lat="46.50699" lon="5.2954">
        <ele>223.8</ele>
        <time>2022-06-28T12:27:55Z</time>
      </trkpt>
      <trkpt lat="46.5072" lon="5.2955">
        <ele>223.4</ele>
        <time>2022-06-28T12:27:58Z</time>
      </trkpt>
      <trkpt lat="46.50759" lon="5.29565">
        <ele>222.4</ele>
        <time>2022-06-28T12:28:03Z</time>
      </trkpt>
      <trkpt lat="46.50794" lon="5.29568">
        <ele>221.2</ele>
        <time>2022-06-28T12:28:07Z</time>
      </trkpt>
      <trkpt lat="46.50803" lon="5.29568">
        <ele>221</ele>
        <time>2022-06-28T12:28:08Z</time>
      </trkpt>
      <trkpt lat="46.50821" lon="5.29569">
        <ele>219.8</ele>
        <time>2022-06-28T12:28:10Z</time>
      </trkpt>
      <trkpt lat="46.5086" lon="5.29573">
        <ele>218.6</ele>
        <time>2022-06-28T12:28:14Z</time>
      </trkpt>
      <trkpt lat="46.5087" lon="5.29574">
        <ele>218.2</ele>
        <time>2022-06-28T12:28:15Z</time>
      </trkpt>
      <trkpt lat="46.50889" lon="5.29575">
        <ele>217.2</ele>
        <time>2022-06-28T12:28:17Z</time>
      </trkpt>
      <trkpt lat="46.50899" lon="5.29573">
        <ele>216.6</ele>
        <time>2022-06-28T12:28:18Z</time>
      </trkpt>
      <trkpt lat="46.50907" lon="5.2957">
        <ele>216</ele>
        <time>2022-06-28T12:28:19Z</time>
      </trkpt>
      <trkpt lat="46.50925" lon="5.29559">
        <ele>215.2</ele>
        <time>2022-06-28T12:28:21Z</time>
      </trkpt>
      <trkpt lat="46.50935" lon="5.29552">
        <ele>215</ele>
        <time>2022-06-28T12:28:22Z</time>
      </trkpt>
      <trkpt lat="46.50944" lon="5.29545">
        <ele>214.6</ele>
        <time>2022-06-28T12:28:23Z</time>
      </trkpt>
      <trkpt lat="46.50954" lon="5.29538">
        <ele>213.4</ele>
        <time>2022-06-28T12:28:24Z</time>
      </trkpt>
      <trkpt lat="46.50983" lon="5.29514">
        <ele>212.4</ele>
        <time>2022-06-28T12:28:27Z</time>
      </trkpt>
      <trkpt lat="46.50995" lon="5.29505">
        <ele>211.2</ele>
        <time>2022-06-28T12:28:28Z</time>
      </trkpt>
      <trkpt lat="46.51015" lon="5.29489">
        <ele>210</ele>
        <time>2022-06-28T12:28:30Z</time>
      </trkpt>
      <trkpt lat="46.51032" lon="5.29475">
        <ele>208.4</ele>
        <time>2022-06-28T12:28:32Z</time>
      </trkpt>
      <trkpt lat="46.51054" lon="5.2946">
        <ele>206.8</ele>
        <time>2022-06-28T12:28:34Z</time>
      </trkpt>
      <trkpt lat="46.51075" lon="5.29449">
        <ele>205.8</ele>
        <time>2022-06-28T12:28:36Z</time>
      </trkpt>
      <trkpt lat="46.51083" lon="5.29446">
        <ele>205.2</ele>
        <time>2022-06-28T12:28:37Z</time>
      </trkpt>
      <trkpt lat="46.51113" lon="5.29436">
        <ele>204</ele>
        <time>2022-06-28T12:28:40Z</time>
      </trkpt>
      <trkpt lat="46.51122" lon="5.29433">
        <ele>203.8</ele>
        <time>2022-06-28T12:28:41Z</time>
      </trkpt>
      <trkpt lat="46.51178" lon="5.29417">
        <ele>203.4</ele>
        <time>2022-06-28T12:28:47Z</time>
      </trkpt>
      <trkpt lat="46.51187" lon="5.29415">
        <ele>203.2</ele>
        <time>2022-06-28T12:28:48Z</time>
      </trkpt>
      <trkpt lat="46.51212" lon="5.29408">
        <ele>203</ele>
        <time>2022-06-28T12:28:51Z</time>
      </trkpt>
      <trkpt lat="46.51252" lon="5.29399">
        <ele>202</ele>
        <time>2022-06-28T12:28:56Z</time>
      </trkpt>
      <trkpt lat="46.51292" lon="5.29384">
        <ele>201.6</ele>
        <time>2022-06-28T12:29:01Z</time>
      </trkpt>
      <trkpt lat="46.51341" lon="5.29355">
        <ele>201.8</ele>
        <time>2022-06-28T12:29:08Z</time>
      </trkpt>
      <trkpt lat="46.51369" lon="5.29328">
        <ele>201.8</ele>
        <time>2022-06-28T12:29:13Z</time>
      </trkpt>
      <trkpt lat="46.51374" lon="5.29321">
        <ele>201.8</ele>
        <time>2022-06-28T12:29:14Z</time>
      </trkpt>
      <trkpt lat="46.51391" lon="5.2929">
        <ele>201.8</ele>
        <time>2022-06-28T12:29:18Z</time>
      </trkpt>
      <trkpt lat="46.51418" lon="5.29246">
        <ele>202</ele>
        <time>2022-06-28T12:29:24Z</time>
      </trkpt>
      <trkpt lat="46.5144" lon="5.2921">
        <ele>202</ele>
        <time>2022-06-28T12:29:29Z</time>
      </trkpt>
      <trkpt lat="46.51443" lon="5.29201">
        <ele>202</ele>
        <time>2022-06-28T12:29:30Z</time>
      </trkpt>
      <trkpt lat="46.51455" lon="5.2915">
        <ele>202</ele>
        <time>2022-06-28T12:29:35Z</time>
      </trkpt>
      <trkpt lat="46.51469" lon="5.29065">
        <ele>201.6</ele>
        <time>2022-06-28T12:29:43Z</time>
      </trkpt>
      <trkpt lat="46.5148" lon="5.29">
        <ele>201.2</ele>
        <time>2022-06-28T12:29:49Z</time>
      </trkpt>
      <trkpt lat="46.51483" lon="5.28978">
        <ele>201</ele>
        <time>2022-06-28T12:29:51Z</time>
      </trkpt>
      <trkpt lat="46.51497" lon="5.289">
        <ele>200.2</ele>
        <time>2022-06-28T12:29:58Z</time>
      </trkpt>
      <trkpt lat="46.51499" lon="5.28889">
        <ele>200</ele>
        <time>2022-06-28T12:29:59Z</time>
      </trkpt>
      <trkpt lat="46.51503" lon="5.28868">
        <ele>200</ele>
        <time>2022-06-28T12:30:01Z</time>
      </trkpt>
      <trkpt lat="46.51508" lon="5.28836">
        <ele>199.8</ele>
        <time>2022-06-28T12:30:04Z</time>
      </trkpt>
      <trkpt lat="46.51515" lon="5.28817">
        <ele>199.8</ele>
        <time>2022-06-28T12:30:06Z</time>
      </trkpt>
      <trkpt lat="46.51518" lon="5.28808">
        <ele>199.8</ele>
        <time>2022-06-28T12:30:07Z</time>
      </trkpt>
      <trkpt lat="46.51547" lon="5.28753">
        <ele>200</ele>
        <time>2022-06-28T12:30:14Z</time>
      </trkpt>
      <trkpt lat="46.51581" lon="5.2869">
        <ele>200.6</ele>
        <time>2022-06-28T12:30:23Z</time>
      </trkpt>
      <trkpt lat="46.51585" lon="5.28683">
        <ele>200.8</ele>
        <time>2022-06-28T12:30:24Z</time>
      </trkpt>
      <trkpt lat="46.51593" lon="5.28671">
        <ele>200.8</ele>
        <time>2022-06-28T12:30:26Z</time>
      </trkpt>
      <trkpt lat="46.51603" lon="5.28663">
        <ele>201</ele>
        <time>2022-06-28T12:30:28Z</time>
      </trkpt>
      <trkpt lat="46.51614" lon="5.28658">
        <ele>201.2</ele>
        <time>2022-06-28T12:30:30Z</time>
      </trkpt>
      <trkpt lat="46.51624" lon="5.28656">
        <ele>201.4</ele>
        <time>2022-06-28T12:30:32Z</time>
      </trkpt>
      <trkpt lat="46.51661" lon="5.2865">
        <ele>202.2</ele>
        <time>2022-06-28T12:30:39Z</time>
      </trkpt>
      <trkpt lat="46.51666" lon="5.28649">
        <ele>202.6</ele>
        <time>2022-06-28T12:30:40Z</time>
      </trkpt>
      <trkpt lat="46.51691" lon="5.28645">
        <ele>203.4</ele>
        <time>2022-06-28T12:30:45Z</time>
      </trkpt>
      <trkpt lat="46.51708" lon="5.28645">
        <ele>203.6</ele>
        <time>2022-06-28T12:30:48Z</time>
      </trkpt>
      <trkpt lat="46.51723" lon="5.28649">
        <ele>204</ele>
        <time>2022-06-28T12:30:51Z</time>
      </trkpt>
      <trkpt lat="46.51729" lon="5.28653">
        <ele>204.4</ele>
        <time>2022-06-28T12:30:52Z</time>
      </trkpt>
      <trkpt lat="46.51734" lon="5.28657">
        <ele>204.4</ele>
        <time>2022-06-28T12:30:53Z</time>
      </trkpt>
      <trkpt lat="46.51766" lon="5.28683">
        <ele>205.2</ele>
        <time>2022-06-28T12:31:00Z</time>
      </trkpt>
      <trkpt lat="46.51772" lon="5.28688">
        <ele>205.4</ele>
        <time>2022-06-28T12:31:01Z</time>
      </trkpt>
      <trkpt lat="46.51778" lon="5.2869">
        <ele>205.6</ele>
        <time>2022-06-28T12:31:02Z</time>
      </trkpt>
      <trkpt lat="46.51789" lon="5.28693">
        <ele>205.4</ele>
        <time>2022-06-28T12:31:04Z</time>
      </trkpt>
      <trkpt lat="46.51796" lon="5.28693">
        <ele>205.4</ele>
        <time>2022-06-28T12:31:05Z</time>
      </trkpt>
      <trkpt lat="46.51839" lon="5.28701">
        <ele>205.2</ele>
        <time>2022-06-28T12:31:12Z</time>
      </trkpt>
      <trkpt lat="46.51876" lon="5.28727">
        <ele>204.8</ele>
        <time>2022-06-28T12:31:18Z</time>
      </trkpt>
      <trkpt lat="46.51899" lon="5.28744">
        <ele>204.6</ele>
        <time>2022-06-28T12:31:22Z</time>
      </trkpt>
      <trkpt lat="46.51906" lon="5.28747">
        <ele>204.6</ele>
        <time>2022-06-28T12:31:23Z</time>
      </trkpt>
      <trkpt lat="46.51913" lon="5.28749">
        <ele>204.4</ele>
        <time>2022-06-28T12:31:24Z</time>
      </trkpt>
      <trkpt lat="46.51966" lon="5.28754">
        <ele>203.6</ele>
        <time>2022-06-28T12:31:32Z</time>
      </trkpt>
      <trkpt lat="46.51979" lon="5.28752">
        <ele>203</ele>
        <time>2022-06-28T12:31:34Z</time>
      </trkpt>
      <trkpt lat="46.51995" lon="5.28748">
        <ele>202.4</ele>
        <time>2022-06-28T12:31:36Z</time>
      </trkpt>
      <trkpt lat="46.52001" lon="5.28744">
        <ele>202.2</ele>
        <time>2022-06-28T12:31:37Z</time>
      </trkpt>
      <trkpt lat="46.52013" lon="5.28737">
        <ele>201.8</ele>
        <time>2022-06-28T12:31:39Z</time>
      </trkpt>
      <trkpt lat="46.52035" lon="5.28725">
        <ele>201.4</ele>
        <time>2022-06-28T12:31:42Z</time>
      </trkpt>
      <trkpt lat="46.52041" lon="5.28723">
        <ele>201.2</ele>
        <time>2022-06-28T12:31:43Z</time>
      </trkpt>
      <trkpt lat="46.52048" lon="5.28721">
        <ele>201.2</ele>
        <time>2022-06-28T12:31:44Z</time>
      </trkpt>
      <trkpt lat="46.52096" lon="5.28711">
        <ele>200.4</ele>
        <time>2022-06-28T12:31:51Z</time>
      </trkpt>
      <trkpt lat="46.52103" lon="5.28709">
        <ele>200.2</ele>
        <time>2022-06-28T12:31:52Z</time>
      </trkpt>
      <trkpt lat="46.52148" lon="5.28694">
        <ele>200.2</ele>
        <time>2022-06-28T12:31:59Z</time>
      </trkpt>
      <trkpt lat="46.52192" lon="5.28677">
        <ele>199.6</ele>
        <time>2022-06-28T12:32:06Z</time>
      </trkpt>
      <trkpt lat="46.52205" lon="5.28672">
        <ele>199.4</ele>
        <time>2022-06-28T12:32:08Z</time>
      </trkpt>
      <trkpt lat="46.52235" lon="5.28665">
        <ele>199.4</ele>
        <time>2022-06-28T12:32:13Z</time>
      </trkpt>
      <trkpt lat="46.52278" lon="5.28661">
        <ele>200.2</ele>
        <time>2022-06-28T12:32:21Z</time>
      </trkpt>
      <trkpt lat="46.52288" lon="5.2866">
        <ele>200.6</ele>
        <time>2022-06-28T12:32:23Z</time>
      </trkpt>
      <trkpt lat="46.52322" lon="5.28657">
        <ele>201.4</ele>
        <time>2022-06-28T12:32:30Z</time>
      </trkpt>
      <trkpt lat="46.52327" lon="5.28656">
        <ele>201.6</ele>
        <time>2022-06-28T12:32:31Z</time>
      </trkpt>
      <trkpt lat="46.52354" lon="5.28652">
        <ele>202.4</ele>
        <time>2022-06-28T12:32:37Z</time>
      </trkpt>
      <trkpt lat="46.52362" lon="5.28651">
        <ele>202.6</ele>
        <time>2022-06-28T12:32:39Z</time>
      </trkpt>
      <trkpt lat="46.52388" lon="5.28648">
        <ele>203.4</ele>
        <time>2022-06-28T12:32:45Z</time>
      </trkpt>
      <trkpt lat="46.52392" lon="5.28647">
        <ele>203.6</ele>
        <time>2022-06-28T12:32:46Z</time>
      </trkpt>
      <trkpt lat="46.52417" lon="5.28642">
        <ele>205.2</ele>
        <time>2022-06-28T12:32:52Z</time>
      </trkpt>
      <trkpt lat="46.52421" lon="5.2864">
        <ele>206</ele>
        <time>2022-06-28T12:32:53Z</time>
      </trkpt>
      <trkpt lat="46.5243" lon="5.28638">
        <ele>206.4</ele>
        <time>2022-06-28T12:32:55Z</time>
      </trkpt>
      <trkpt lat="46.52437" lon="5.28637">
        <ele>206.6</ele>
        <time>2022-06-28T12:32:57Z</time>
      </trkpt>
      <trkpt lat="46.52446" lon="5.28635">
        <ele>206.8</ele>
        <time>2022-06-28T12:32:59Z</time>
      </trkpt>
      <trkpt lat="46.5245" lon="5.28635">
        <ele>207</ele>
        <time>2022-06-28T12:33:00Z</time>
      </trkpt>
      <trkpt lat="46.52459" lon="5.28634">
        <ele>207.6</ele>
        <time>2022-06-28T12:33:02Z</time>
      </trkpt>
      <trkpt lat="46.52483" lon="5.28628">
        <ele>208.4</ele>
        <time>2022-06-28T12:33:08Z</time>
      </trkpt>
      <trkpt lat="46.52486" lon="5.28627">
        <ele>208.6</ele>
        <time>2022-06-28T12:33:09Z</time>
      </trkpt>
      <trkpt lat="46.52494" lon="5.28625">
        <ele>209</ele>
        <time>2022-06-28T12:33:11Z</time>
      </trkpt>
      <trkpt lat="46.52502" lon="5.28625">
        <ele>209.6</ele>
        <time>2022-06-28T12:33:13Z</time>
      </trkpt>
      <trkpt lat="46.52511" lon="5.28624">
        <ele>210.2</ele>
        <time>2022-06-28T12:33:15Z</time>
      </trkpt>
      <trkpt lat="46.52523" lon="5.28621">
        <ele>210.6</ele>
        <time>2022-06-28T12:33:18Z</time>
      </trkpt>
      <trkpt lat="46.52541" lon="5.28616">
        <ele>211.8</ele>
        <time>2022-06-28T12:33:22Z</time>
      </trkpt>
      <trkpt lat="46.52545" lon="5.28616">
        <ele>212</ele>
        <time>2022-06-28T12:33:23Z</time>
      </trkpt>
      <trkpt lat="46.52563" lon="5.28613">
        <ele>212.8</ele>
        <time>2022-06-28T12:33:27Z</time>
      </trkpt>
      <trkpt lat="46.52585" lon="5.28609">
        <ele>213.8</ele>
        <time>2022-06-28T12:33:32Z</time>
      </trkpt>
      <trkpt lat="46.52593" lon="5.28609">
        <ele>214</ele>
        <time>2022-06-28T12:33:34Z</time>
      </trkpt>
      <trkpt lat="46.52619" lon="5.28613">
        <ele>214.8</ele>
        <time>2022-06-28T12:33:40Z</time>
      </trkpt>
      <trkpt lat="46.52627" lon="5.28616">
        <ele>215.2</ele>
        <time>2022-06-28T12:33:42Z</time>
      </trkpt>
      <trkpt lat="46.52662" lon="5.28628">
        <ele>216.2</ele>
        <time>2022-06-28T12:33:50Z</time>
      </trkpt>
      <trkpt lat="46.52693" lon="5.28627">
        <ele>216.6</ele>
        <time>2022-06-28T12:33:56Z</time>
      </trkpt>
      <trkpt lat="46.52705" lon="5.28625">
        <ele>216.8</ele>
        <time>2022-06-28T12:33:58Z</time>
      </trkpt>
      <trkpt lat="46.52733" lon="5.28619">
        <ele>217</ele>
        <time>2022-06-28T12:34:03Z</time>
      </trkpt>
      <trkpt lat="46.52739" lon="5.28618">
        <ele>217</ele>
        <time>2022-06-28T12:34:04Z</time>
      </trkpt>
      <trkpt lat="46.52744" lon="5.28616">
        <ele>217</ele>
        <time>2022-06-28T12:34:05Z</time>
      </trkpt>
      <trkpt lat="46.5276" lon="5.28614">
        <ele>217.2</ele>
        <time>2022-06-28T12:34:08Z</time>
      </trkpt>
      <trkpt lat="46.52765" lon="5.28613">
        <ele>217.2</ele>
        <time>2022-06-28T12:34:09Z</time>
      </trkpt>
      <trkpt lat="46.5277" lon="5.28612">
        <ele>217.4</ele>
        <time>2022-06-28T12:34:10Z</time>
      </trkpt>
      <trkpt lat="46.52786" lon="5.28608">
        <ele>217.6</ele>
        <time>2022-06-28T12:34:13Z</time>
      </trkpt>
      <trkpt lat="46.52798" lon="5.28604">
        <ele>218</ele>
        <time>2022-06-28T12:34:16Z</time>
      </trkpt>
      <trkpt lat="46.52824" lon="5.286">
        <ele>218.4</ele>
        <time>2022-06-28T12:34:21Z</time>
      </trkpt>
      <trkpt lat="46.52828" lon="5.28599">
        <ele>218.6</ele>
        <time>2022-06-28T12:34:22Z</time>
      </trkpt>
      <trkpt lat="46.52863" lon="5.28592">
        <ele>218.8</ele>
        <time>2022-06-28T12:34:28Z</time>
      </trkpt>
      <trkpt lat="46.52877" lon="5.28589">
        <ele>218.8</ele>
        <time>2022-06-28T12:34:30Z</time>
      </trkpt>
      <trkpt lat="46.52908" lon="5.28583">
        <ele>219</ele>
        <time>2022-06-28T12:34:35Z</time>
      </trkpt>
      <trkpt lat="46.52914" lon="5.28582">
        <ele>219.2</ele>
        <time>2022-06-28T12:34:36Z</time>
      </trkpt>
      <trkpt lat="46.52944" lon="5.28577">
        <ele>219.4</ele>
        <time>2022-06-28T12:34:41Z</time>
      </trkpt>
      <trkpt lat="46.52978" lon="5.28571">
        <ele>218.8</ele>
        <time>2022-06-28T12:34:46Z</time>
      </trkpt>
      <trkpt lat="46.53016" lon="5.28564">
        <ele>218.6</ele>
        <time>2022-06-28T12:34:51Z</time>
      </trkpt>
      <trkpt lat="46.53055" lon="5.28557">
        <ele>218.2</ele>
        <time>2022-06-28T12:34:56Z</time>
      </trkpt>
      <trkpt lat="46.53077" lon="5.28553">
        <ele>217.4</ele>
        <time>2022-06-28T12:34:59Z</time>
      </trkpt>
      <trkpt lat="46.53084" lon="5.28552">
        <ele>217</ele>
        <time>2022-06-28T12:35:00Z</time>
      </trkpt>
      <trkpt lat="46.53113" lon="5.28547">
        <ele>216.6</ele>
        <time>2022-06-28T12:35:04Z</time>
      </trkpt>
      <trkpt lat="46.53119" lon="5.28545">
        <ele>216.4</ele>
        <time>2022-06-28T12:35:05Z</time>
      </trkpt>
      <trkpt lat="46.53126" lon="5.28543">
        <ele>216.2</ele>
        <time>2022-06-28T12:35:06Z</time>
      </trkpt>
      <trkpt lat="46.53162" lon="5.28534">
        <ele>215.4</ele>
        <time>2022-06-28T12:35:11Z</time>
      </trkpt>
      <trkpt lat="46.53168" lon="5.28533">
        <ele>215</ele>
        <time>2022-06-28T12:35:12Z</time>
      </trkpt>
      <trkpt lat="46.53196" lon="5.28528">
        <ele>214.4</ele>
        <time>2022-06-28T12:35:15Z</time>
      </trkpt>
      <trkpt lat="46.53214" lon="5.28526">
        <ele>214</ele>
        <time>2022-06-28T12:35:17Z</time>
      </trkpt>
      <trkpt lat="46.53243" lon="5.28524">
        <ele>213</ele>
        <time>2022-06-28T12:35:20Z</time>
      </trkpt>
      <trkpt lat="46.53261" lon="5.28524">
        <ele>211.8</ele>
        <time>2022-06-28T12:35:22Z</time>
      </trkpt>
      <trkpt lat="46.53291" lon="5.28524">
        <ele>210.2</ele>
        <time>2022-06-28T12:35:25Z</time>
      </trkpt>
      <trkpt lat="46.53311" lon="5.28526">
        <ele>209.4</ele>
        <time>2022-06-28T12:35:27Z</time>
      </trkpt>
      <trkpt lat="46.5332" lon="5.28529">
        <ele>209</ele>
        <time>2022-06-28T12:35:28Z</time>
      </trkpt>
      <trkpt lat="46.53328" lon="5.28532">
        <ele>208.8</ele>
        <time>2022-06-28T12:35:29Z</time>
      </trkpt>
      <trkpt lat="46.53368" lon="5.28557">
        <ele>208.6</ele>
        <time>2022-06-28T12:35:35Z</time>
      </trkpt>
      <trkpt lat="46.53395" lon="5.28577">
        <ele>210.2</ele>
        <time>2022-06-28T12:35:40Z</time>
      </trkpt>
      <trkpt lat="46.53399" lon="5.28579">
        <ele>210.4</ele>
        <time>2022-06-28T12:35:41Z</time>
      </trkpt>
      <trkpt lat="46.53415" lon="5.2859">
        <ele>211.2</ele>
        <time>2022-06-28T12:35:45Z</time>
      </trkpt>
      <trkpt lat="46.53423" lon="5.28595">
        <ele>211.6</ele>
        <time>2022-06-28T12:35:47Z</time>
      </trkpt>
      <trkpt lat="46.53432" lon="5.28599">
        <ele>212.2</ele>
        <time>2022-06-28T12:35:49Z</time>
      </trkpt>
      <trkpt lat="46.53454" lon="5.28605">
        <ele>213.4</ele>
        <time>2022-06-28T12:35:54Z</time>
      </trkpt>
      <trkpt lat="46.53474" lon="5.28605">
        <ele>214.6</ele>
        <time>2022-06-28T12:35:58Z</time>
      </trkpt>
      <trkpt lat="46.53479" lon="5.28605">
        <ele>215</ele>
        <time>2022-06-28T12:35:59Z</time>
      </trkpt>
      <trkpt lat="46.53487" lon="5.28606">
        <ele>215.6</ele>
        <time>2022-06-28T12:36:01Z</time>
      </trkpt>
      <trkpt lat="46.5351" lon="5.28607">
        <ele>216.8</ele>
        <time>2022-06-28T12:36:05Z</time>
      </trkpt>
      <trkpt lat="46.53522" lon="5.28607">
        <ele>217</ele>
        <time>2022-06-28T12:36:07Z</time>
      </trkpt>
      <trkpt lat="46.53544" lon="5.28609">
        <ele>217.8</ele>
        <time>2022-06-28T12:36:11Z</time>
      </trkpt>
      <trkpt lat="46.53565" lon="5.28609">
        <ele>218.2</ele>
        <time>2022-06-28T12:36:15Z</time>
      </trkpt>
      <trkpt lat="46.5357" lon="5.2861">
        <ele>218.4</ele>
        <time>2022-06-28T12:36:16Z</time>
      </trkpt>
      <trkpt lat="46.5361" lon="5.28613">
        <ele>218.8</ele>
        <time>2022-06-28T12:36:23Z</time>
      </trkpt>
      <trkpt lat="46.53616" lon="5.28614">
        <ele>219</ele>
        <time>2022-06-28T12:36:24Z</time>
      </trkpt>
      <trkpt lat="46.53646" lon="5.28615">
        <ele>219.4</ele>
        <time>2022-06-28T12:36:30Z</time>
      </trkpt>
      <trkpt lat="46.5367" lon="5.28615">
        <ele>220</ele>
        <time>2022-06-28T12:36:35Z</time>
      </trkpt>
      <trkpt lat="46.5368" lon="5.28616">
        <ele>220.2</ele>
        <time>2022-06-28T12:36:37Z</time>
      </trkpt>
      <trkpt lat="46.53712" lon="5.28618">
        <ele>220.8</ele>
        <time>2022-06-28T12:36:43Z</time>
      </trkpt>
      <trkpt lat="46.53749" lon="5.2862">
        <ele>221</ele>
        <time>2022-06-28T12:36:49Z</time>
      </trkpt>
      <trkpt lat="46.53804" lon="5.28627">
        <ele>221</ele>
        <time>2022-06-28T12:36:57Z</time>
      </trkpt>
      <trkpt lat="46.53843" lon="5.28632">
        <ele>221.2</ele>
        <time>2022-06-28T12:37:03Z</time>
      </trkpt>
      <trkpt lat="46.53902" lon="5.28634">
        <ele>221</ele>
        <time>2022-06-28T12:37:12Z</time>
      </trkpt>
      <trkpt lat="46.53909" lon="5.28634">
        <ele>221</ele>
        <time>2022-06-28T12:37:13Z</time>
      </trkpt>
      <trkpt lat="46.53944" lon="5.28636">
        <ele>220.6</ele>
        <time>2022-06-28T12:37:18Z</time>
      </trkpt>
      <trkpt lat="46.54" lon="5.2864">
        <ele>219.6</ele>
        <time>2022-06-28T12:37:26Z</time>
      </trkpt>
      <trkpt lat="46.54012" lon="5.28642">
        <ele>219.2</ele>
        <time>2022-06-28T12:37:28Z</time>
      </trkpt>
      <trkpt lat="46.54069" lon="5.28647">
        <ele>218.4</ele>
        <time>2022-06-28T12:37:36Z</time>
      </trkpt>
      <trkpt lat="46.54074" lon="5.28648">
        <ele>218.2</ele>
        <time>2022-06-28T12:37:37Z</time>
      </trkpt>
      <trkpt lat="46.54088" lon="5.2865">
        <ele>218</ele>
        <time>2022-06-28T12:37:39Z</time>
      </trkpt>
      <trkpt lat="46.54144" lon="5.2865">
        <ele>217.6</ele>
        <time>2022-06-28T12:37:47Z</time>
      </trkpt>
      <trkpt lat="46.54159" lon="5.28647">
        <ele>217.4</ele>
        <time>2022-06-28T12:37:49Z</time>
      </trkpt>
      <trkpt lat="46.54176" lon="5.28642">
        <ele>217.2</ele>
        <time>2022-06-28T12:37:51Z</time>
      </trkpt>
      <trkpt lat="46.54202" lon="5.28631">
        <ele>216</ele>
        <time>2022-06-28T12:37:54Z</time>
      </trkpt>
      <trkpt lat="46.54219" lon="5.28621">
        <ele>215.4</ele>
        <time>2022-06-28T12:37:56Z</time>
      </trkpt>
      <trkpt lat="46.54227" lon="5.28615">
        <ele>215</ele>
        <time>2022-06-28T12:37:57Z</time>
      </trkpt>
      <trkpt lat="46.54245" lon="5.28602">
        <ele>213.2</ele>
        <time>2022-06-28T12:37:59Z</time>
      </trkpt>
      <trkpt lat="46.54262" lon="5.2859">
        <ele>212.6</ele>
        <time>2022-06-28T12:38:01Z</time>
      </trkpt>
      <trkpt lat="46.5428" lon="5.28578">
        <ele>211.6</ele>
        <time>2022-06-28T12:38:03Z</time>
      </trkpt>
      <trkpt lat="46.54301" lon="5.28561">
        <ele>210.2</ele>
        <time>2022-06-28T12:38:06Z</time>
      </trkpt>
      <trkpt lat="46.54334" lon="5.28535">
        <ele>209.2</ele>
        <time>2022-06-28T12:38:10Z</time>
      </trkpt>
      <trkpt lat="46.54352" lon="5.28521">
        <ele>208.2</ele>
        <time>2022-06-28T12:38:12Z</time>
      </trkpt>
      <trkpt lat="46.54368" lon="5.28508">
        <ele>207</ele>
        <time>2022-06-28T12:38:14Z</time>
      </trkpt>
      <trkpt lat="46.54401" lon="5.28481">
        <ele>205.8</ele>
        <time>2022-06-28T12:38:18Z</time>
      </trkpt>
      <trkpt lat="46.54415" lon="5.28468">
        <ele>205.2</ele>
        <time>2022-06-28T12:38:20Z</time>
      </trkpt>
      <trkpt lat="46.54422" lon="5.28462">
        <ele>205</ele>
        <time>2022-06-28T12:38:21Z</time>
      </trkpt>
      <trkpt lat="46.54436" lon="5.28454">
        <ele>204.8</ele>
        <time>2022-06-28T12:38:23Z</time>
      </trkpt>
      <trkpt lat="46.54444" lon="5.28452">
        <ele>204.6</ele>
        <time>2022-06-28T12:38:24Z</time>
      </trkpt>
      <trkpt lat="46.54452" lon="5.28451">
        <ele>204.4</ele>
        <time>2022-06-28T12:38:25Z</time>
      </trkpt>
      <trkpt lat="46.54477" lon="5.28452">
        <ele>204.2</ele>
        <time>2022-06-28T12:38:28Z</time>
      </trkpt>
      <trkpt lat="46.545" lon="5.28453">
        <ele>203.6</ele>
        <time>2022-06-28T12:38:31Z</time>
      </trkpt>
      <trkpt lat="46.54521" lon="5.28451">
        <ele>203.2</ele>
        <time>2022-06-28T12:38:34Z</time>
      </trkpt>
      <trkpt lat="46.54565" lon="5.28453">
        <ele>203</ele>
        <time>2022-06-28T12:38:40Z</time>
      </trkpt>
      <trkpt lat="46.54596" lon="5.28458">
        <ele>196.4</ele>
        <time>2022-06-28T12:38:45Z</time>
      </trkpt>
      <trkpt lat="46.54637" lon="5.28452">
        <ele>203.6</ele>
        <time>2022-06-28T12:38:52Z</time>
      </trkpt>
      <trkpt lat="46.54673" lon="5.28437">
        <ele>204</ele>
        <time>2022-06-28T12:38:59Z</time>
      </trkpt>
      <trkpt lat="46.54712" lon="5.28415">
        <ele>205</ele>
        <time>2022-06-28T12:39:07Z</time>
      </trkpt>
      <trkpt lat="46.54747" lon="5.28403">
        <ele>205.8</ele>
        <time>2022-06-28T12:39:14Z</time>
      </trkpt>
      <trkpt lat="46.54752" lon="5.284">
        <ele>206.2</ele>
        <time>2022-06-28T12:39:15Z</time>
      </trkpt>
      <trkpt lat="46.5476" lon="5.28393">
        <ele>206.6</ele>
        <time>2022-06-28T12:39:17Z</time>
      </trkpt>
      <trkpt lat="46.54768" lon="5.28384">
        <ele>207.2</ele>
        <time>2022-06-28T12:39:19Z</time>
      </trkpt>
      <trkpt lat="46.54771" lon="5.28378">
        <ele>207.6</ele>
        <time>2022-06-28T12:39:20Z</time>
      </trkpt>
      <trkpt lat="46.54779" lon="5.28368">
        <ele>207.8</ele>
        <time>2022-06-28T12:39:22Z</time>
      </trkpt>
      <trkpt lat="46.54788" lon="5.28361">
        <ele>208.2</ele>
        <time>2022-06-28T12:39:24Z</time>
      </trkpt>
      <trkpt lat="46.54799" lon="5.28361">
        <ele>208.6</ele>
        <time>2022-06-28T12:39:26Z</time>
      </trkpt>
      <trkpt lat="46.54803" lon="5.28363">
        <ele>208.6</ele>
        <time>2022-06-28T12:39:27Z</time>
      </trkpt>
      <trkpt lat="46.54834" lon="5.28384">
        <ele>209.2</ele>
        <time>2022-06-28T12:39:33Z</time>
      </trkpt>
      <trkpt lat="46.54873" lon="5.2841">
        <ele>208.2</ele>
        <time>2022-06-28T12:39:39Z</time>
      </trkpt>
      <trkpt lat="46.54886" lon="5.28421">
        <ele>207.6</ele>
        <time>2022-06-28T12:39:41Z</time>
      </trkpt>
      <trkpt lat="46.54905" lon="5.28437">
        <ele>207</ele>
        <time>2022-06-28T12:39:44Z</time>
      </trkpt>
      <trkpt lat="46.54911" lon="5.28441">
        <ele>206.8</ele>
        <time>2022-06-28T12:39:45Z</time>
      </trkpt>
      <trkpt lat="46.54918" lon="5.28444">
        <ele>206.4</ele>
        <time>2022-06-28T12:39:46Z</time>
      </trkpt>
      <trkpt lat="46.54959" lon="5.28465">
        <ele>205.6</ele>
        <time>2022-06-28T12:39:52Z</time>
      </trkpt>
      <trkpt lat="46.54966" lon="5.2847">
        <ele>205.2</ele>
        <time>2022-06-28T12:39:53Z</time>
      </trkpt>
      <trkpt lat="46.54979" lon="5.28484">
        <ele>204.8</ele>
        <time>2022-06-28T12:39:55Z</time>
      </trkpt>
      <trkpt lat="46.54984" lon="5.28492">
        <ele>204.4</ele>
        <time>2022-06-28T12:39:56Z</time>
      </trkpt>
      <trkpt lat="46.54989" lon="5.28501">
        <ele>204.2</ele>
        <time>2022-06-28T12:39:57Z</time>
      </trkpt>
      <trkpt lat="46.55005" lon="5.28528">
        <ele>203.6</ele>
        <time>2022-06-28T12:40:00Z</time>
      </trkpt>
      <trkpt lat="46.55015" lon="5.28547">
        <ele>203</ele>
        <time>2022-06-28T12:40:02Z</time>
      </trkpt>
      <trkpt lat="46.5502" lon="5.28556">
        <ele>202.8</ele>
        <time>2022-06-28T12:40:03Z</time>
      </trkpt>
      <trkpt lat="46.55036" lon="5.28584">
        <ele>202</ele>
        <time>2022-06-28T12:40:06Z</time>
      </trkpt>
      <trkpt lat="46.55057" lon="5.28622">
        <ele>201</ele>
        <time>2022-06-28T12:40:10Z</time>
      </trkpt>
      <trkpt lat="46.55078" lon="5.28661">
        <ele>199.6</ele>
        <time>2022-06-28T12:40:14Z</time>
      </trkpt>
      <trkpt lat="46.55102" lon="5.28706">
        <ele>199</ele>
        <time>2022-06-28T12:40:19Z</time>
      </trkpt>
      <trkpt lat="46.55133" lon="5.28752">
        <ele>198.8</ele>
        <time>2022-06-28T12:40:25Z</time>
      </trkpt>
      <trkpt lat="46.55143" lon="5.28768">
        <ele>198.8</ele>
        <time>2022-06-28T12:40:27Z</time>
      </trkpt>
      <trkpt lat="46.55151" lon="5.28786">
        <ele>198.6</ele>
        <time>2022-06-28T12:40:29Z</time>
      </trkpt>
      <trkpt lat="46.55154" lon="5.28807">
        <ele>198.6</ele>
        <time>2022-06-28T12:40:31Z</time>
      </trkpt>
      <trkpt lat="46.55153" lon="5.28818">
        <ele>198.4</ele>
        <time>2022-06-28T12:40:32Z</time>
      </trkpt>
      <trkpt lat="46.55145" lon="5.28903">
        <ele>198</ele>
        <time>2022-06-28T12:40:40Z</time>
      </trkpt>
      <trkpt lat="46.55144" lon="5.28913">
        <ele>197.8</ele>
        <time>2022-06-28T12:40:41Z</time>
      </trkpt>
      <trkpt lat="46.55145" lon="5.28934">
        <ele>198</ele>
        <time>2022-06-28T12:40:43Z</time>
      </trkpt>
      <trkpt lat="46.55149" lon="5.28952">
        <ele>198.2</ele>
        <time>2022-06-28T12:40:45Z</time>
      </trkpt>
      <trkpt lat="46.55152" lon="5.28961">
        <ele>198.4</ele>
        <time>2022-06-28T12:40:46Z</time>
      </trkpt>
      <trkpt lat="46.55163" lon="5.28983">
        <ele>198.4</ele>
        <time>2022-06-28T12:40:49Z</time>
      </trkpt>
      <trkpt lat="46.55182" lon="5.29017">
        <ele>199.6</ele>
        <time>2022-06-28T12:40:55Z</time>
      </trkpt>
      <trkpt lat="46.55185" lon="5.29022">
        <ele>199.8</ele>
        <time>2022-06-28T12:40:56Z</time>
      </trkpt>
      <trkpt lat="46.55197" lon="5.29042">
        <ele>200.8</ele>
        <time>2022-06-28T12:41:00Z</time>
      </trkpt>
      <trkpt lat="46.55209" lon="5.29061">
        <ele>202</ele>
        <time>2022-06-28T12:41:04Z</time>
      </trkpt>
      <trkpt lat="46.55211" lon="5.29065">
        <ele>202.2</ele>
        <time>2022-06-28T12:41:05Z</time>
      </trkpt>
      <trkpt lat="46.55221" lon="5.29084">
        <ele>203.4</ele>
        <time>2022-06-28T12:41:09Z</time>
      </trkpt>
      <trkpt lat="46.55226" lon="5.29092">
        <ele>204</ele>
        <time>2022-06-28T12:41:11Z</time>
      </trkpt>
      <trkpt lat="46.55228" lon="5.29096">
        <ele>204.6</ele>
        <time>2022-06-28T12:41:12Z</time>
      </trkpt>
      <trkpt lat="46.55238" lon="5.29113">
        <ele>205.6</ele>
        <time>2022-06-28T12:41:16Z</time>
      </trkpt>
      <trkpt lat="46.55245" lon="5.29125">
        <ele>206.4</ele>
        <time>2022-06-28T12:41:19Z</time>
      </trkpt>
      <trkpt lat="46.55251" lon="5.29133">
        <ele>207</ele>
        <time>2022-06-28T12:41:21Z</time>
      </trkpt>
      <trkpt lat="46.55264" lon="5.2915">
        <ele>208</ele>
        <time>2022-06-28T12:41:26Z</time>
      </trkpt>
      <trkpt lat="46.55273" lon="5.29162">
        <ele>208.8</ele>
        <time>2022-06-28T12:41:29Z</time>
      </trkpt>
      <trkpt lat="46.55276" lon="5.29166">
        <ele>209.2</ele>
        <time>2022-06-28T12:41:30Z</time>
      </trkpt>
      <trkpt lat="46.55286" lon="5.29192">
        <ele>210.2</ele>
        <time>2022-06-28T12:41:35Z</time>
      </trkpt>
      <trkpt lat="46.55286" lon="5.29204">
        <ele>210.6</ele>
        <time>2022-06-28T12:41:37Z</time>
      </trkpt>
      <trkpt lat="46.55284" lon="5.29222">
        <ele>211</ele>
        <time>2022-06-28T12:41:40Z</time>
      </trkpt>
      <trkpt lat="46.5528" lon="5.29234">
        <ele>211.2</ele>
        <time>2022-06-28T12:41:42Z</time>
      </trkpt>
      <trkpt lat="46.55278" lon="5.2924">
        <ele>211.2</ele>
        <time>2022-06-28T12:41:43Z</time>
      </trkpt>
      <trkpt lat="46.55274" lon="5.29257">
        <ele>211.6</ele>
        <time>2022-06-28T12:41:46Z</time>
      </trkpt>
      <trkpt lat="46.55272" lon="5.29263">
        <ele>211.8</ele>
        <time>2022-06-28T12:41:47Z</time>
      </trkpt>
      <trkpt lat="46.55267" lon="5.2928">
        <ele>212.2</ele>
        <time>2022-06-28T12:41:50Z</time>
      </trkpt>
      <trkpt lat="46.55262" lon="5.29296">
        <ele>212.8</ele>
        <time>2022-06-28T12:41:53Z</time>
      </trkpt>
      <trkpt lat="46.55257" lon="5.29313">
        <ele>213.6</ele>
        <time>2022-06-28T12:41:56Z</time>
      </trkpt>
      <trkpt lat="46.55254" lon="5.29331">
        <ele>214</ele>
        <time>2022-06-28T12:41:59Z</time>
      </trkpt>
      <trkpt lat="46.55251" lon="5.29343">
        <ele>214.8</ele>
        <time>2022-06-28T12:42:01Z</time>
      </trkpt>
      <trkpt lat="46.55249" lon="5.29354">
        <ele>215.6</ele>
        <time>2022-06-28T12:42:03Z</time>
      </trkpt>
      <trkpt lat="46.55247" lon="5.29366">
        <ele>216</ele>
        <time>2022-06-28T12:42:05Z</time>
      </trkpt>
      <trkpt lat="46.55247" lon="5.29372">
        <ele>216.2</ele>
        <time>2022-06-28T12:42:06Z</time>
      </trkpt>
      <trkpt lat="46.5525" lon="5.29392">
        <ele>216.8</ele>
        <time>2022-06-28T12:42:09Z</time>
      </trkpt>
      <trkpt lat="46.55253" lon="5.29405">
        <ele>217</ele>
        <time>2022-06-28T12:42:11Z</time>
      </trkpt>
      <trkpt lat="46.55259" lon="5.29429">
        <ele>217.2</ele>
        <time>2022-06-28T12:42:14Z</time>
      </trkpt>
      <trkpt lat="46.55272" lon="5.29476">
        <ele>216.8</ele>
        <time>2022-06-28T12:42:19Z</time>
      </trkpt>
      <trkpt lat="46.55282" lon="5.29493">
        <ele>216.4</ele>
        <time>2022-06-28T12:42:21Z</time>
      </trkpt>
      <trkpt lat="46.55288" lon="5.295">
        <ele>216.2</ele>
        <time>2022-06-28T12:42:22Z</time>
      </trkpt>
      <trkpt lat="46.55296" lon="5.29505">
        <ele>215.8</ele>
        <time>2022-06-28T12:42:23Z</time>
      </trkpt>
      <trkpt lat="46.55312" lon="5.29511">
        <ele>215</ele>
        <time>2022-06-28T12:42:25Z</time>
      </trkpt>
      <trkpt lat="46.5532" lon="5.29512">
        <ele>214.6</ele>
        <time>2022-06-28T12:42:26Z</time>
      </trkpt>
      <trkpt lat="46.55354" lon="5.29517">
        <ele>213.4</ele>
        <time>2022-06-28T12:42:30Z</time>
      </trkpt>
      <trkpt lat="46.55377" lon="5.29522">
        <ele>213</ele>
        <time>2022-06-28T12:42:33Z</time>
      </trkpt>
      <trkpt lat="46.55425" lon="5.29546">
        <ele>212.2</ele>
        <time>2022-06-28T12:42:40Z</time>
      </trkpt>
      <trkpt lat="46.55477" lon="5.29583">
        <ele>211.8</ele>
        <time>2022-06-28T12:42:48Z</time>
      </trkpt>
      <trkpt lat="46.55525" lon="5.29619">
        <ele>212.4</ele>
        <time>2022-06-28T12:42:56Z</time>
      </trkpt>
      <trkpt lat="46.55536" lon="5.29628">
        <ele>212.6</ele>
        <time>2022-06-28T12:42:58Z</time>
      </trkpt>
      <trkpt lat="46.55587" lon="5.29662">
        <ele>213.2</ele>
        <time>2022-06-28T12:43:07Z</time>
      </trkpt>
      <trkpt lat="46.55599" lon="5.29668">
        <ele>213.2</ele>
        <time>2022-06-28T12:43:09Z</time>
      </trkpt>
      <trkpt lat="46.55639" lon="5.29687">
        <ele>213.6</ele>
        <time>2022-06-28T12:43:16Z</time>
      </trkpt>
      <trkpt lat="46.5565" lon="5.29692">
        <ele>213.8</ele>
        <time>2022-06-28T12:43:18Z</time>
      </trkpt>
      <trkpt lat="46.55684" lon="5.29696">
        <ele>214.4</ele>
        <time>2022-06-28T12:43:24Z</time>
      </trkpt>
      <trkpt lat="46.557" lon="5.29696">
        <ele>214.6</ele>
        <time>2022-06-28T12:43:27Z</time>
      </trkpt>
      <trkpt lat="46.55719" lon="5.29699">
        <ele>215.4</ele>
        <time>2022-06-28T12:43:31Z</time>
      </trkpt>
      <trkpt lat="46.55729" lon="5.29702">
        <ele>215.6</ele>
        <time>2022-06-28T12:43:33Z</time>
      </trkpt>
      <trkpt lat="46.55755" lon="5.29717">
        <ele>216.4</ele>
        <time>2022-06-28T12:43:39Z</time>
      </trkpt>
      <trkpt lat="46.5576" lon="5.2972">
        <ele>216.8</ele>
        <time>2022-06-28T12:43:40Z</time>
      </trkpt>
      <trkpt lat="46.55772" lon="5.29731">
        <ele>218.2</ele>
        <time>2022-06-28T12:43:43Z</time>
      </trkpt>
      <trkpt lat="46.55784" lon="5.29746">
        <ele>218.8</ele>
        <time>2022-06-28T12:43:46Z</time>
      </trkpt>
      <trkpt lat="46.55804" lon="5.29775">
        <ele>219.2</ele>
        <time>2022-06-28T12:43:51Z</time>
      </trkpt>
      <trkpt lat="46.55812" lon="5.29787">
        <ele>219.6</ele>
        <time>2022-06-28T12:43:53Z</time>
      </trkpt>
      <trkpt lat="46.55847" lon="5.29836">
        <ele>220.2</ele>
        <time>2022-06-28T12:44:02Z</time>
      </trkpt>
      <trkpt lat="46.55874" lon="5.29874">
        <ele>220.4</ele>
        <time>2022-06-28T12:44:08Z</time>
      </trkpt>
      <trkpt lat="46.55908" lon="5.2992">
        <ele>219.2</ele>
        <time>2022-06-28T12:44:14Z</time>
      </trkpt>
      <trkpt lat="46.55914" lon="5.29927">
        <ele>218.8</ele>
        <time>2022-06-28T12:44:15Z</time>
      </trkpt>
      <trkpt lat="46.55932" lon="5.29952">
        <ele>218.2</ele>
        <time>2022-06-28T12:44:18Z</time>
      </trkpt>
      <trkpt lat="46.55957" lon="5.29984">
        <ele>216.8</ele>
        <time>2022-06-28T12:44:22Z</time>
      </trkpt>
      <trkpt lat="46.55963" lon="5.29992">
        <ele>216.6</ele>
        <time>2022-06-28T12:44:23Z</time>
      </trkpt>
      <trkpt lat="46.55994" lon="5.30034">
        <ele>216.4</ele>
        <time>2022-06-28T12:44:29Z</time>
      </trkpt>
      <trkpt lat="46.56022" lon="5.30072">
        <ele>217.6</ele>
        <time>2022-06-28T12:44:36Z</time>
      </trkpt>
      <trkpt lat="46.56038" lon="5.30091">
        <ele>218</ele>
        <time>2022-06-28T12:44:40Z</time>
      </trkpt>
      <trkpt lat="46.56049" lon="5.30105">
        <ele>218.8</ele>
        <time>2022-06-28T12:44:43Z</time>
      </trkpt>
      <trkpt lat="46.56056" lon="5.30115">
        <ele>219.4</ele>
        <time>2022-06-28T12:44:45Z</time>
      </trkpt>
      <trkpt lat="46.56073" lon="5.30139">
        <ele>220.4</ele>
        <time>2022-06-28T12:44:50Z</time>
      </trkpt>
      <trkpt lat="46.56077" lon="5.30145">
        <ele>220.6</ele>
        <time>2022-06-28T12:44:51Z</time>
      </trkpt>
      <trkpt lat="46.56089" lon="5.3016">
        <ele>221.6</ele>
        <time>2022-06-28T12:44:54Z</time>
      </trkpt>
      <trkpt lat="46.56114" lon="5.30194">
        <ele>221.8</ele>
        <time>2022-06-28T12:45:00Z</time>
      </trkpt>
      <trkpt lat="46.56145" lon="5.30237">
        <ele>222</ele>
        <time>2022-06-28T12:45:08Z</time>
      </trkpt>
      <trkpt lat="46.56188" lon="5.30295">
        <ele>222.2</ele>
        <time>2022-06-28T12:45:18Z</time>
      </trkpt>
      <trkpt lat="46.56216" lon="5.30343">
        <ele>222.6</ele>
        <time>2022-06-28T12:45:25Z</time>
      </trkpt>
      <trkpt lat="46.56231" lon="5.30371">
        <ele>222.8</ele>
        <time>2022-06-28T12:45:29Z</time>
      </trkpt>
      <trkpt lat="46.56244" lon="5.30389">
        <ele>223.2</ele>
        <time>2022-06-28T12:45:32Z</time>
      </trkpt>
      <trkpt lat="46.56279" lon="5.30439">
        <ele>223.2</ele>
        <time>2022-06-28T12:45:40Z</time>
      </trkpt>
      <trkpt lat="46.56323" lon="5.30497">
        <ele>223.2</ele>
        <time>2022-06-28T12:45:50Z</time>
      </trkpt>
      <trkpt lat="46.56363" lon="5.30553">
        <ele>223.6</ele>
        <time>2022-06-28T12:45:59Z</time>
      </trkpt>
      <trkpt lat="46.56372" lon="5.30565">
        <ele>223.6</ele>
        <time>2022-06-28T12:46:01Z</time>
      </trkpt>
      <trkpt lat="46.56405" lon="5.30613">
        <ele>222.8</ele>
        <time>2022-06-28T12:46:09Z</time>
      </trkpt>
      <trkpt lat="46.56407" lon="5.30618">
        <ele>222.8</ele>
        <time>2022-06-28T12:46:10Z</time>
      </trkpt>
      <trkpt lat="46.5641" lon="5.30627">
        <ele>222.6</ele>
        <time>2022-06-28T12:46:12Z</time>
      </trkpt>
      <trkpt lat="46.56414" lon="5.30628">
        <ele>222.4</ele>
        <time>2022-06-28T12:46:13Z</time>
      </trkpt>
      <trkpt lat="46.56433" lon="5.30627">
        <ele>222</ele>
        <time>2022-06-28T12:46:17Z</time>
      </trkpt>
      <trkpt lat="46.56445" lon="5.30625">
        <ele>221.8</ele>
        <time>2022-06-28T12:46:19Z</time>
      </trkpt>
      <trkpt lat="46.56459" lon="5.30622">
        <ele>221.6</ele>
        <time>2022-06-28T12:46:21Z</time>
      </trkpt>
      <trkpt lat="46.56511" lon="5.30609">
        <ele>221.6</ele>
        <time>2022-06-28T12:46:28Z</time>
      </trkpt>
      <trkpt lat="46.56571" lon="5.30601">
        <ele>222</ele>
        <time>2022-06-28T12:46:36Z</time>
      </trkpt>
      <trkpt lat="46.56628" lon="5.30606">
        <ele>222</ele>
        <time>2022-06-28T12:46:44Z</time>
      </trkpt>
      <trkpt lat="46.5667" lon="5.30626">
        <ele>222</ele>
        <time>2022-06-28T12:46:50Z</time>
      </trkpt>
      <trkpt lat="46.56708" lon="5.30659">
        <ele>221.6</ele>
        <time>2022-06-28T12:46:56Z</time>
      </trkpt>
      <trkpt lat="46.56734" lon="5.30698">
        <ele>221</ele>
        <time>2022-06-28T12:47:01Z</time>
      </trkpt>
      <trkpt lat="46.56739" lon="5.30707">
        <ele>220.8</ele>
        <time>2022-06-28T12:47:02Z</time>
      </trkpt>
      <trkpt lat="46.56774" lon="5.30778">
        <ele>220</ele>
        <time>2022-06-28T12:47:10Z</time>
      </trkpt>
      <trkpt lat="46.56778" lon="5.30787">
        <ele>219.8</ele>
        <time>2022-06-28T12:47:11Z</time>
      </trkpt>
      <trkpt lat="46.56789" lon="5.30817">
        <ele>219.4</ele>
        <time>2022-06-28T12:47:14Z</time>
      </trkpt>
      <trkpt lat="46.56792" lon="5.30827">
        <ele>219.2</ele>
        <time>2022-06-28T12:47:15Z</time>
      </trkpt>
      <trkpt lat="46.56796" lon="5.30849">
        <ele>219</ele>
        <time>2022-06-28T12:47:17Z</time>
      </trkpt>
      <trkpt lat="46.56803" lon="5.3089">
        <ele>218.2</ele>
        <time>2022-06-28T12:47:21Z</time>
      </trkpt>
      <trkpt lat="46.56808" lon="5.30921">
        <ele>217.8</ele>
        <time>2022-06-28T12:47:24Z</time>
      </trkpt>
      <trkpt lat="46.56809" lon="5.30952">
        <ele>217.6</ele>
        <time>2022-06-28T12:47:27Z</time>
      </trkpt>
      <trkpt lat="46.56805" lon="5.31028">
        <ele>217</ele>
        <time>2022-06-28T12:47:35Z</time>
      </trkpt>
      <trkpt lat="46.56806" lon="5.31047">
        <ele>217</ele>
        <time>2022-06-28T12:47:37Z</time>
      </trkpt>
      <trkpt lat="46.56809" lon="5.31066">
        <ele>216.8</ele>
        <time>2022-06-28T12:47:39Z</time>
      </trkpt>
      <trkpt lat="46.56811" lon="5.31075">
        <ele>216.8</ele>
        <time>2022-06-28T12:47:40Z</time>
      </trkpt>
      <trkpt lat="46.56823" lon="5.31108">
        <ele>217</ele>
        <time>2022-06-28T12:47:44Z</time>
      </trkpt>
      <trkpt lat="46.56841" lon="5.31134">
        <ele>217.6</ele>
        <time>2022-06-28T12:47:48Z</time>
      </trkpt>
      <trkpt lat="46.56846" lon="5.31139">
        <ele>217.6</ele>
        <time>2022-06-28T12:47:49Z</time>
      </trkpt>
      <trkpt lat="46.56863" lon="5.31152">
        <ele>217.8</ele>
        <time>2022-06-28T12:47:52Z</time>
      </trkpt>
      <trkpt lat="46.56874" lon="5.31157">
        <ele>218</ele>
        <time>2022-06-28T12:47:54Z</time>
      </trkpt>
      <trkpt lat="46.56908" lon="5.31162">
        <ele>218.6</ele>
        <time>2022-06-28T12:48:00Z</time>
      </trkpt>
      <trkpt lat="46.56923" lon="5.31165">
        <ele>219</ele>
        <time>2022-06-28T12:48:03Z</time>
      </trkpt>
      <trkpt lat="46.5694" lon="5.31172">
        <ele>219</ele>
        <time>2022-06-28T12:48:06Z</time>
      </trkpt>
      <trkpt lat="46.56972" lon="5.31201">
        <ele>219.4</ele>
        <time>2022-06-28T12:48:13Z</time>
      </trkpt>
      <trkpt lat="46.57018" lon="5.31241">
        <ele>220</ele>
        <time>2022-06-28T12:48:23Z</time>
      </trkpt>
      <trkpt lat="46.57027" lon="5.3125">
        <ele>220.2</ele>
        <time>2022-06-28T12:48:25Z</time>
      </trkpt>
      <trkpt lat="46.5706" lon="5.31278">
        <ele>220.8</ele>
        <time>2022-06-28T12:48:32Z</time>
      </trkpt>
      <trkpt lat="46.57085" lon="5.31295">
        <ele>221.2</ele>
        <time>2022-06-28T12:48:37Z</time>
      </trkpt>
      <trkpt lat="46.57091" lon="5.31296">
        <ele>221.2</ele>
        <time>2022-06-28T12:48:38Z</time>
      </trkpt>
      <trkpt lat="46.57127" lon="5.313">
        <ele>221.8</ele>
        <time>2022-06-28T12:48:45Z</time>
      </trkpt>
      <trkpt lat="46.5714" lon="5.31302">
        <ele>222.2</ele>
        <time>2022-06-28T12:48:48Z</time>
      </trkpt>
      <trkpt lat="46.5716" lon="5.31305">
        <ele>222.6</ele>
        <time>2022-06-28T12:48:52Z</time>
      </trkpt>
      <trkpt lat="46.5717" lon="5.3131">
        <ele>223.2</ele>
        <time>2022-06-28T12:48:54Z</time>
      </trkpt>
      <trkpt lat="46.57174" lon="5.31313">
        <ele>223.2</ele>
        <time>2022-06-28T12:48:55Z</time>
      </trkpt>
      <trkpt lat="46.57183" lon="5.31321">
        <ele>223.6</ele>
        <time>2022-06-28T12:48:57Z</time>
      </trkpt>
      <trkpt lat="46.57196" lon="5.31334">
        <ele>224.4</ele>
        <time>2022-06-28T12:49:00Z</time>
      </trkpt>
      <trkpt lat="46.57215" lon="5.31362">
        <ele>225.4</ele>
        <time>2022-06-28T12:49:05Z</time>
      </trkpt>
      <trkpt lat="46.57218" lon="5.31369">
        <ele>225.6</ele>
        <time>2022-06-28T12:49:06Z</time>
      </trkpt>
      <trkpt lat="46.57229" lon="5.31405">
        <ele>226.4</ele>
        <time>2022-06-28T12:49:11Z</time>
      </trkpt>
      <trkpt lat="46.57234" lon="5.31426">
        <ele>226.6</ele>
        <time>2022-06-28T12:49:14Z</time>
      </trkpt>
      <trkpt lat="46.57245" lon="5.31461">
        <ele>227.2</ele>
        <time>2022-06-28T12:49:19Z</time>
      </trkpt>
      <trkpt lat="46.57248" lon="5.31468">
        <ele>227.2</ele>
        <time>2022-06-28T12:49:20Z</time>
      </trkpt>
      <trkpt lat="46.57265" lon="5.31498">
        <ele>227.6</ele>
        <time>2022-06-28T12:49:25Z</time>
      </trkpt>
      <trkpt lat="46.57269" lon="5.31504">
        <ele>227.8</ele>
        <time>2022-06-28T12:49:26Z</time>
      </trkpt>
      <trkpt lat="46.57297" lon="5.31545">
        <ele>228.2</ele>
        <time>2022-06-28T12:49:33Z</time>
      </trkpt>
      <trkpt lat="46.57335" lon="5.31598">
        <ele>228.2</ele>
        <time>2022-06-28T12:49:42Z</time>
      </trkpt>
      <trkpt lat="46.57347" lon="5.31608">
        <ele>228.2</ele>
        <time>2022-06-28T12:49:44Z</time>
      </trkpt>
      <trkpt lat="46.57359" lon="5.31615">
        <ele>228.2</ele>
        <time>2022-06-28T12:49:46Z</time>
      </trkpt>
      <trkpt lat="46.57365" lon="5.31617">
        <ele>228</ele>
        <time>2022-06-28T12:49:47Z</time>
      </trkpt>
      <trkpt lat="46.57411" lon="5.3162">
        <ele>227.8</ele>
        <time>2022-06-28T12:49:54Z</time>
      </trkpt>
      <trkpt lat="46.57463" lon="5.31616">
        <ele>227.6</ele>
        <time>2022-06-28T12:50:02Z</time>
      </trkpt>
      <trkpt lat="46.575" lon="5.31616">
        <ele>227.2</ele>
        <time>2022-06-28T12:50:08Z</time>
      </trkpt>
      <trkpt lat="46.57513" lon="5.3162">
        <ele>227.4</ele>
        <time>2022-06-28T12:50:10Z</time>
      </trkpt>
      <trkpt lat="46.57571" lon="5.31643">
        <ele>227.4</ele>
        <time>2022-06-28T12:50:19Z</time>
      </trkpt>
      <trkpt lat="46.57577" lon="5.31646">
        <ele>227.4</ele>
        <time>2022-06-28T12:50:20Z</time>
      </trkpt>
      <trkpt lat="46.57634" lon="5.31669">
        <ele>227.2</ele>
        <time>2022-06-28T12:50:29Z</time>
      </trkpt>
      <trkpt lat="46.57641" lon="5.31671">
        <ele>227.2</ele>
        <time>2022-06-28T12:50:30Z</time>
      </trkpt>
      <trkpt lat="46.57698" lon="5.31695">
        <ele>227.2</ele>
        <time>2022-06-28T12:50:39Z</time>
      </trkpt>
      <trkpt lat="46.57734" lon="5.31709">
        <ele>226.8</ele>
        <time>2022-06-28T12:50:44Z</time>
      </trkpt>
      <trkpt lat="46.57754" lon="5.31718">
        <ele>226.6</ele>
        <time>2022-06-28T12:50:47Z</time>
      </trkpt>
      <trkpt lat="46.5781" lon="5.31741">
        <ele>226</ele>
        <time>2022-06-28T12:50:55Z</time>
      </trkpt>
      <trkpt lat="46.57822" lon="5.31747">
        <ele>226</ele>
        <time>2022-06-28T12:50:57Z</time>
      </trkpt>
      <trkpt lat="46.57863" lon="5.31764">
        <ele>225.6</ele>
        <time>2022-06-28T12:51:03Z</time>
      </trkpt>
      <trkpt lat="46.5792" lon="5.31787">
        <ele>225.2</ele>
        <time>2022-06-28T12:51:11Z</time>
      </trkpt>
      <trkpt lat="46.57955" lon="5.31804">
        <ele>225</ele>
        <time>2022-06-28T12:51:16Z</time>
      </trkpt>
      <trkpt lat="46.57982" lon="5.31818">
        <ele>224.6</ele>
        <time>2022-06-28T12:51:20Z</time>
      </trkpt>
      <trkpt lat="46.58022" lon="5.31848">
        <ele>224.2</ele>
        <time>2022-06-28T12:51:26Z</time>
      </trkpt>
      <trkpt lat="46.5805" lon="5.31873">
        <ele>224</ele>
        <time>2022-06-28T12:51:30Z</time>
      </trkpt>
      <trkpt lat="46.58057" lon="5.31878">
        <ele>223.6</ele>
        <time>2022-06-28T12:51:31Z</time>
      </trkpt>
      <trkpt lat="46.58069" lon="5.31888">
        <ele>223</ele>
        <time>2022-06-28T12:51:33Z</time>
      </trkpt>
      <trkpt lat="46.581" lon="5.31907">
        <ele>222.4</ele>
        <time>2022-06-28T12:51:37Z</time>
      </trkpt>
      <trkpt lat="46.5812" lon="5.31916">
        <ele>221.8</ele>
        <time>2022-06-28T12:51:40Z</time>
      </trkpt>
      <trkpt lat="46.58143" lon="5.31926">
        <ele>221.6</ele>
        <time>2022-06-28T12:51:43Z</time>
      </trkpt>
      <trkpt lat="46.5818" lon="5.31941">
        <ele>220.8</ele>
        <time>2022-06-28T12:51:48Z</time>
      </trkpt>
      <trkpt lat="46.58214" lon="5.31955">
        <ele>219.8</ele>
        <time>2022-06-28T12:51:52Z</time>
      </trkpt>
      <trkpt lat="46.58248" lon="5.31967">
        <ele>218.6</ele>
        <time>2022-06-28T12:51:56Z</time>
      </trkpt>
      <trkpt lat="46.58264" lon="5.3197">
        <ele>218</ele>
        <time>2022-06-28T12:51:58Z</time>
      </trkpt>
      <trkpt lat="46.58289" lon="5.31972">
        <ele>217.6</ele>
        <time>2022-06-28T12:52:01Z</time>
      </trkpt>
      <trkpt lat="46.58321" lon="5.31975">
        <ele>217.2</ele>
        <time>2022-06-28T12:52:05Z</time>
      </trkpt>
      <trkpt lat="46.58345" lon="5.31984">
        <ele>216.6</ele>
        <time>2022-06-28T12:52:08Z</time>
      </trkpt>
      <trkpt lat="46.58351" lon="5.31988">
        <ele>216.4</ele>
        <time>2022-06-28T12:52:09Z</time>
      </trkpt>
      <trkpt lat="46.5836" lon="5.31993">
        <ele>216.2</ele>
        <time>2022-06-28T12:52:10Z</time>
      </trkpt>
      <trkpt lat="46.58399" lon="5.32008">
        <ele>215.2</ele>
        <time>2022-06-28T12:52:15Z</time>
      </trkpt>
      <trkpt lat="46.58456" lon="5.32013">
        <ele>214</ele>
        <time>2022-06-28T12:52:22Z</time>
      </trkpt>
      <trkpt lat="46.58492" lon="5.32021">
        <ele>212.8</ele>
        <time>2022-06-28T12:52:26Z</time>
      </trkpt>
      <trkpt lat="46.5851" lon="5.32024">
        <ele>212</ele>
        <time>2022-06-28T12:52:28Z</time>
      </trkpt>
      <trkpt lat="46.58518" lon="5.32025">
        <ele>211.4</ele>
        <time>2022-06-28T12:52:29Z</time>
      </trkpt>
      <trkpt lat="46.58553" lon="5.32022">
        <ele>210.6</ele>
        <time>2022-06-28T12:52:33Z</time>
      </trkpt>
      <trkpt lat="46.58562" lon="5.32023">
        <ele>210.4</ele>
        <time>2022-06-28T12:52:34Z</time>
      </trkpt>
      <trkpt lat="46.58578" lon="5.3203">
        <ele>210</ele>
        <time>2022-06-28T12:52:36Z</time>
      </trkpt>
      <trkpt lat="46.58599" lon="5.32048">
        <ele>209.4</ele>
        <time>2022-06-28T12:52:39Z</time>
      </trkpt>
      <trkpt lat="46.58644" lon="5.32077">
        <ele>208.4</ele>
        <time>2022-06-28T12:52:45Z</time>
      </trkpt>
      <trkpt lat="46.58652" lon="5.32081">
        <ele>208</ele>
        <time>2022-06-28T12:52:46Z</time>
      </trkpt>
      <trkpt lat="46.58693" lon="5.321">
        <ele>207.2</ele>
        <time>2022-06-28T12:52:51Z</time>
      </trkpt>
      <trkpt lat="46.5871" lon="5.32104">
        <ele>206.6</ele>
        <time>2022-06-28T12:52:53Z</time>
      </trkpt>
      <trkpt lat="46.58727" lon="5.32106">
        <ele>206.2</ele>
        <time>2022-06-28T12:52:55Z</time>
      </trkpt>
      <trkpt lat="46.5876" lon="5.32107">
        <ele>206</ele>
        <time>2022-06-28T12:52:59Z</time>
      </trkpt>
      <trkpt lat="46.58818" lon="5.32096">
        <ele>205.4</ele>
        <time>2022-06-28T12:53:06Z</time>
      </trkpt>
      <trkpt lat="46.58855" lon="5.3209">
        <ele>205.2</ele>
        <time>2022-06-28T12:53:11Z</time>
      </trkpt>
      <trkpt lat="46.58861" lon="5.3209">
        <ele>205.2</ele>
        <time>2022-06-28T12:53:12Z</time>
      </trkpt>
      <trkpt lat="46.58866" lon="5.32091">
        <ele>205</ele>
        <time>2022-06-28T12:53:13Z</time>
      </trkpt>
      <trkpt lat="46.58872" lon="5.32095">
        <ele>205</ele>
        <time>2022-06-28T12:53:14Z</time>
      </trkpt>
      <trkpt lat="46.58877" lon="5.32099">
        <ele>204.8</ele>
        <time>2022-06-28T12:53:15Z</time>
      </trkpt>
      <trkpt lat="46.58885" lon="5.32112">
        <ele>204.4</ele>
        <time>2022-06-28T12:53:17Z</time>
      </trkpt>
      <trkpt lat="46.58891" lon="5.32122">
        <ele>204.4</ele>
        <time>2022-06-28T12:53:18Z</time>
      </trkpt>
      <trkpt lat="46.58896" lon="5.32132">
        <ele>204.2</ele>
        <time>2022-06-28T12:53:19Z</time>
      </trkpt>
      <trkpt lat="46.58901" lon="5.32143">
        <ele>204.2</ele>
        <time>2022-06-28T12:53:20Z</time>
      </trkpt>
      <trkpt lat="46.58911" lon="5.32177">
        <ele>204</ele>
        <time>2022-06-28T12:53:23Z</time>
      </trkpt>
      <trkpt lat="46.58921" lon="5.32196">
        <ele>204</ele>
        <time>2022-06-28T12:53:25Z</time>
      </trkpt>
      <trkpt lat="46.58926" lon="5.32203">
        <ele>204</ele>
        <time>2022-06-28T12:53:26Z</time>
      </trkpt>
      <trkpt lat="46.58933" lon="5.32209">
        <ele>204</ele>
        <time>2022-06-28T12:53:27Z</time>
      </trkpt>
      <trkpt lat="46.58949" lon="5.32216">
        <ele>204</ele>
        <time>2022-06-28T12:53:29Z</time>
      </trkpt>
      <trkpt lat="46.58979" lon="5.32219">
        <ele>204</ele>
        <time>2022-06-28T12:53:33Z</time>
      </trkpt>
      <trkpt lat="46.58985" lon="5.32219">
        <ele>203.8</ele>
        <time>2022-06-28T12:53:34Z</time>
      </trkpt>
      <trkpt lat="46.58992" lon="5.32218">
        <ele>203.8</ele>
        <time>2022-06-28T12:53:35Z</time>
      </trkpt>
      <trkpt lat="46.59014" lon="5.3221">
        <ele>203.4</ele>
        <time>2022-06-28T12:53:38Z</time>
      </trkpt>
      <trkpt lat="46.5902" lon="5.32207">
        <ele>203.2</ele>
        <time>2022-06-28T12:53:39Z</time>
      </trkpt>
      <trkpt lat="46.59033" lon="5.32204">
        <ele>203</ele>
        <time>2022-06-28T12:53:41Z</time>
      </trkpt>
      <trkpt lat="46.59045" lon="5.32204">
        <ele>202.8</ele>
        <time>2022-06-28T12:53:43Z</time>
      </trkpt>
      <trkpt lat="46.59066" lon="5.32205">
        <ele>202.6</ele>
        <time>2022-06-28T12:53:46Z</time>
      </trkpt>
      <trkpt lat="46.59085" lon="5.32213">
        <ele>202.6</ele>
        <time>2022-06-28T12:53:48Z</time>
      </trkpt>
      <trkpt lat="46.5912" lon="5.32243">
        <ele>202.8</ele>
        <time>2022-06-28T12:53:55Z</time>
      </trkpt>
      <trkpt lat="46.5916" lon="5.32279">
        <ele>202.8</ele>
        <time>2022-06-28T12:54:02Z</time>
      </trkpt>
      <trkpt lat="46.59198" lon="5.32314">
        <ele>202.8</ele>
        <time>2022-06-28T12:54:08Z</time>
      </trkpt>
      <trkpt lat="46.59239" lon="5.3236">
        <ele>202.8</ele>
        <time>2022-06-28T12:54:16Z</time>
      </trkpt>
      <trkpt lat="46.59287" lon="5.32409">
        <ele>202.8</ele>
        <time>2022-06-28T12:54:25Z</time>
      </trkpt>
      <trkpt lat="46.59301" lon="5.32424">
        <ele>202.8</ele>
        <time>2022-06-28T12:54:28Z</time>
      </trkpt>
      <trkpt lat="46.59312" lon="5.32433">
        <ele>203</ele>
        <time>2022-06-28T12:54:30Z</time>
      </trkpt>
      <trkpt lat="46.5935" lon="5.32462">
        <ele>203.4</ele>
        <time>2022-06-28T12:54:37Z</time>
      </trkpt>
      <trkpt lat="46.59392" lon="5.32486">
        <ele>204</ele>
        <time>2022-06-28T12:54:45Z</time>
      </trkpt>
      <trkpt lat="46.59406" lon="5.32492">
        <ele>204.4</ele>
        <time>2022-06-28T12:54:48Z</time>
      </trkpt>
      <trkpt lat="46.5941" lon="5.32494">
        <ele>205</ele>
        <time>2022-06-28T12:54:49Z</time>
      </trkpt>
      <trkpt lat="46.59421" lon="5.32498">
        <ele>205.4</ele>
        <time>2022-06-28T12:54:51Z</time>
      </trkpt>
      <trkpt lat="46.59435" lon="5.32502">
        <ele>206.2</ele>
        <time>2022-06-28T12:54:54Z</time>
      </trkpt>
      <trkpt lat="46.59443" lon="5.32504">
        <ele>206.8</ele>
        <time>2022-06-28T12:54:56Z</time>
      </trkpt>
      <trkpt lat="46.59451" lon="5.32502">
        <ele>207.2</ele>
        <time>2022-06-28T12:54:58Z</time>
      </trkpt>
      <trkpt lat="46.59455" lon="5.32501">
        <ele>207.4</ele>
        <time>2022-06-28T12:54:59Z</time>
      </trkpt>
      <trkpt lat="46.59463" lon="5.32498">
        <ele>207.8</ele>
        <time>2022-06-28T12:55:01Z</time>
      </trkpt>
      <trkpt lat="46.59466" lon="5.32495">
        <ele>208.6</ele>
        <time>2022-06-28T12:55:03Z</time>
      </trkpt>
      <trkpt lat="46.59482" lon="5.32475">
        <ele>209.4</ele>
        <time>2022-06-28T12:55:07Z</time>
      </trkpt>
      <trkpt lat="46.59486" lon="5.32471">
        <ele>209.8</ele>
        <time>2022-06-28T12:55:08Z</time>
      </trkpt>
      <trkpt lat="46.59493" lon="5.32464">
        <ele>210.2</ele>
        <time>2022-06-28T12:55:10Z</time>
      </trkpt>
      <trkpt lat="46.59501" lon="5.3246">
        <ele>210.4</ele>
        <time>2022-06-28T12:55:12Z</time>
      </trkpt>
      <trkpt lat="46.59505" lon="5.32459">
        <ele>210.6</ele>
        <time>2022-06-28T12:55:13Z</time>
      </trkpt>
      <trkpt lat="46.59509" lon="5.32459">
        <ele>210.8</ele>
        <time>2022-06-28T12:55:14Z</time>
      </trkpt>
      <trkpt lat="46.59525" lon="5.32462">
        <ele>211.6</ele>
        <time>2022-06-28T12:55:18Z</time>
      </trkpt>
      <trkpt lat="46.59528" lon="5.32465">
        <ele>212</ele>
        <time>2022-06-28T12:55:19Z</time>
      </trkpt>
      <trkpt lat="46.59539" lon="5.32477">
        <ele>212.6</ele>
        <time>2022-06-28T12:55:22Z</time>
      </trkpt>
      <trkpt lat="46.59541" lon="5.32481">
        <ele>212.8</ele>
        <time>2022-06-28T12:55:23Z</time>
      </trkpt>
      <trkpt lat="46.59548" lon="5.32494">
        <ele>213</ele>
        <time>2022-06-28T12:55:25Z</time>
      </trkpt>
      <trkpt lat="46.59556" lon="5.32521">
        <ele>213.4</ele>
        <time>2022-06-28T12:55:29Z</time>
      </trkpt>
      <trkpt lat="46.59558" lon="5.32529">
        <ele>213.6</ele>
        <time>2022-06-28T12:55:30Z</time>
      </trkpt>
      <trkpt lat="46.59566" lon="5.32543">
        <ele>213.6</ele>
        <time>2022-06-28T12:55:32Z</time>
      </trkpt>
      <trkpt lat="46.59579" lon="5.32553">
        <ele>213.6</ele>
        <time>2022-06-28T12:55:34Z</time>
      </trkpt>
      <trkpt lat="46.59585" lon="5.32556">
        <ele>213.4</ele>
        <time>2022-06-28T12:55:35Z</time>
      </trkpt>
      <trkpt lat="46.59641" lon="5.32572">
        <ele>213.2</ele>
        <time>2022-06-28T12:55:44Z</time>
      </trkpt>
      <trkpt lat="46.59689" lon="5.32587">
        <ele>214</ele>
        <time>2022-06-28T12:55:52Z</time>
      </trkpt>
      <trkpt lat="46.59699" lon="5.3259">
        <ele>214.2</ele>
        <time>2022-06-28T12:55:54Z</time>
      </trkpt>
      <trkpt lat="46.59732" lon="5.326">
        <ele>215</ele>
        <time>2022-06-28T12:56:00Z</time>
      </trkpt>
      <trkpt lat="46.59738" lon="5.32601">
        <ele>215.2</ele>
        <time>2022-06-28T12:56:01Z</time>
      </trkpt>
      <trkpt lat="46.59759" lon="5.32598">
        <ele>215.4</ele>
        <time>2022-06-28T12:56:05Z</time>
      </trkpt>
      <trkpt lat="46.5977" lon="5.32594">
        <ele>215.6</ele>
        <time>2022-06-28T12:56:07Z</time>
      </trkpt>
      <trkpt lat="46.59799" lon="5.3258">
        <ele>216.6</ele>
        <time>2022-06-28T12:56:13Z</time>
      </trkpt>
      <trkpt lat="46.59811" lon="5.32573">
        <ele>217.2</ele>
        <time>2022-06-28T12:56:16Z</time>
      </trkpt>
      <trkpt lat="46.59828" lon="5.32565">
        <ele>217.6</ele>
        <time>2022-06-28T12:56:20Z</time>
      </trkpt>
      <trkpt lat="46.59845" lon="5.32558">
        <ele>218.8</ele>
        <time>2022-06-28T12:56:24Z</time>
      </trkpt>
      <trkpt lat="46.59849" lon="5.32557">
        <ele>219</ele>
        <time>2022-06-28T12:56:25Z</time>
      </trkpt>
      <trkpt lat="46.5986" lon="5.32556">
        <ele>219.2</ele>
        <time>2022-06-28T12:56:27Z</time>
      </trkpt>
      <trkpt lat="46.59868" lon="5.32557">
        <ele>219.8</ele>
        <time>2022-06-28T12:56:29Z</time>
      </trkpt>
      <trkpt lat="46.59874" lon="5.32559">
        <ele>219.8</ele>
        <time>2022-06-28T12:56:30Z</time>
      </trkpt>
      <trkpt lat="46.59884" lon="5.32564">
        <ele>220.2</ele>
        <time>2022-06-28T12:56:32Z</time>
      </trkpt>
      <trkpt lat="46.599" lon="5.32577">
        <ele>220.8</ele>
        <time>2022-06-28T12:56:35Z</time>
      </trkpt>
      <trkpt lat="46.59945" lon="5.32619">
        <ele>220.2</ele>
        <time>2022-06-28T12:56:43Z</time>
      </trkpt>
      <trkpt lat="46.59996" lon="5.32663">
        <ele>219</ele>
        <time>2022-06-28T12:56:51Z</time>
      </trkpt>
      <trkpt lat="46.60004" lon="5.32668">
        <ele>218.6</ele>
        <time>2022-06-28T12:56:52Z</time>
      </trkpt>
      <trkpt lat="46.60018" lon="5.32673">
        <ele>218.4</ele>
        <time>2022-06-28T12:56:54Z</time>
      </trkpt>
      <trkpt lat="46.60026" lon="5.32675">
        <ele>218.2</ele>
        <time>2022-06-28T12:56:55Z</time>
      </trkpt>
      <trkpt lat="46.60034" lon="5.32675">
        <ele>218</ele>
        <time>2022-06-28T12:56:56Z</time>
      </trkpt>
      <trkpt lat="46.60041" lon="5.32674">
        <ele>218</ele>
        <time>2022-06-28T12:56:57Z</time>
      </trkpt>
      <trkpt lat="46.60055" lon="5.3267">
        <ele>217.2</ele>
        <time>2022-06-28T12:56:59Z</time>
      </trkpt>
      <trkpt lat="46.60072" lon="5.32661">
        <ele>216.8</ele>
        <time>2022-06-28T12:57:01Z</time>
      </trkpt>
      <trkpt lat="46.60102" lon="5.32644">
        <ele>216.2</ele>
        <time>2022-06-28T12:57:05Z</time>
      </trkpt>
      <trkpt lat="46.60117" lon="5.32639">
        <ele>215.8</ele>
        <time>2022-06-28T12:57:07Z</time>
      </trkpt>
      <trkpt lat="46.60123" lon="5.32638">
        <ele>215.6</ele>
        <time>2022-06-28T12:57:08Z</time>
      </trkpt>
      <trkpt lat="46.60131" lon="5.32638">
        <ele>215.4</ele>
        <time>2022-06-28T12:57:09Z</time>
      </trkpt>
      <trkpt lat="46.60146" lon="5.32639">
        <ele>214.6</ele>
        <time>2022-06-28T12:57:11Z</time>
      </trkpt>
      <trkpt lat="46.60176" lon="5.32645">
        <ele>214</ele>
        <time>2022-06-28T12:57:15Z</time>
      </trkpt>
      <trkpt lat="46.60197" lon="5.3265">
        <ele>213.8</ele>
        <time>2022-06-28T12:57:18Z</time>
      </trkpt>
      <trkpt lat="46.60217" lon="5.32659">
        <ele>213.6</ele>
        <time>2022-06-28T12:57:21Z</time>
      </trkpt>
      <trkpt lat="46.60248" lon="5.32683">
        <ele>213.4</ele>
        <time>2022-06-28T12:57:26Z</time>
      </trkpt>
      <trkpt lat="46.60272" lon="5.32701">
        <ele>213.2</ele>
        <time>2022-06-28T12:57:30Z</time>
      </trkpt>
      <trkpt lat="46.60285" lon="5.32705">
        <ele>213.2</ele>
        <time>2022-06-28T12:57:32Z</time>
      </trkpt>
      <trkpt lat="46.60305" lon="5.32699">
        <ele>213.2</ele>
        <time>2022-06-28T12:57:35Z</time>
      </trkpt>
      <trkpt lat="46.6035" lon="5.3268">
        <ele>213.8</ele>
        <time>2022-06-28T12:57:43Z</time>
      </trkpt>
      <trkpt lat="46.60369" lon="5.32675">
        <ele>214</ele>
        <time>2022-06-28T12:57:46Z</time>
      </trkpt>
      <trkpt lat="46.60386" lon="5.32675">
        <ele>214.8</ele>
        <time>2022-06-28T12:57:49Z</time>
      </trkpt>
      <trkpt lat="46.60391" lon="5.32676">
        <ele>214.8</ele>
        <time>2022-06-28T12:57:50Z</time>
      </trkpt>
      <trkpt lat="46.60419" lon="5.32678">
        <ele>215.6</ele>
        <time>2022-06-28T12:57:55Z</time>
      </trkpt>
      <trkpt lat="46.60424" lon="5.32676">
        <ele>215.8</ele>
        <time>2022-06-28T12:57:56Z</time>
      </trkpt>
      <trkpt lat="46.60429" lon="5.32672">
        <ele>216</ele>
        <time>2022-06-28T12:57:57Z</time>
      </trkpt>
      <trkpt lat="46.6044" lon="5.32662">
        <ele>216.2</ele>
        <time>2022-06-28T12:58:00Z</time>
      </trkpt>
      <trkpt lat="46.60453" lon="5.32646">
        <ele>216.6</ele>
        <time>2022-06-28T12:58:02Z</time>
      </trkpt>
      <trkpt lat="46.6047" lon="5.32628">
        <ele>217</ele>
        <time>2022-06-28T12:58:06Z</time>
      </trkpt>
      <trkpt lat="46.60485" lon="5.32618">
        <ele>217.4</ele>
        <time>2022-06-28T12:58:09Z</time>
      </trkpt>
      <trkpt lat="46.60496" lon="5.32615">
        <ele>217.8</ele>
        <time>2022-06-28T12:58:11Z</time>
      </trkpt>
      <trkpt lat="46.60505" lon="5.32613">
        <ele>218</ele>
        <time>2022-06-28T12:58:13Z</time>
      </trkpt>
      <trkpt lat="46.60518" lon="5.32611">
        <ele>219</ele>
        <time>2022-06-28T12:58:16Z</time>
      </trkpt>
      <trkpt lat="46.60523" lon="5.3261">
        <ele>219.4</ele>
        <time>2022-06-28T12:58:17Z</time>
      </trkpt>
      <trkpt lat="46.60539" lon="5.32609">
        <ele>220.2</ele>
        <time>2022-06-28T12:58:21Z</time>
      </trkpt>
      <trkpt lat="46.60549" lon="5.3261">
        <ele>220.8</ele>
        <time>2022-06-28T12:58:24Z</time>
      </trkpt>
      <trkpt lat="46.60553" lon="5.32619">
        <ele>221.2</ele>
        <time>2022-06-28T12:58:26Z</time>
      </trkpt>
      <trkpt lat="46.60553" lon="5.32624">
        <ele>221.4</ele>
        <time>2022-06-28T12:58:27Z</time>
      </trkpt>
      <trkpt lat="46.60553" lon="5.32657">
        <ele>222</ele>
        <time>2022-06-28T12:58:31Z</time>
      </trkpt>
      <trkpt lat="46.60552" lon="5.32733">
        <ele>222.2</ele>
        <time>2022-06-28T12:58:39Z</time>
      </trkpt>
      <trkpt lat="46.60553" lon="5.32789">
        <ele>221.8</ele>
        <time>2022-06-28T12:58:44Z</time>
      </trkpt>
      <trkpt lat="46.60553" lon="5.32868">
        <ele>220.6</ele>
        <time>2022-06-28T12:58:51Z</time>
      </trkpt>
      <trkpt lat="46.60553" lon="5.32882">
        <ele>220.2</ele>
        <time>2022-06-28T12:58:52Z</time>
      </trkpt>
      <trkpt lat="46.60553" lon="5.32958">
        <ele>219.2</ele>
        <time>2022-06-28T12:58:59Z</time>
      </trkpt>
      <trkpt lat="46.60553" lon="5.32987">
        <ele>219</ele>
        <time>2022-06-28T12:59:02Z</time>
      </trkpt>
      <trkpt lat="46.60553" lon="5.33016">
        <ele>219</ele>
        <time>2022-06-28T12:59:05Z</time>
      </trkpt>
      <trkpt lat="46.60553" lon="5.33052">
        <ele>219.2</ele>
        <time>2022-06-28T12:59:09Z</time>
      </trkpt>
      <trkpt lat="46.60552" lon="5.33096">
        <ele>220.2</ele>
        <time>2022-06-28T12:59:14Z</time>
      </trkpt>
      <trkpt lat="46.60551" lon="5.33113">
        <ele>220.8</ele>
        <time>2022-06-28T12:59:16Z</time>
      </trkpt>
      <trkpt lat="46.60551" lon="5.33136">
        <ele>221.6</ele>
        <time>2022-06-28T12:59:20Z</time>
      </trkpt>
      <trkpt lat="46.60546" lon="5.33178">
        <ele>222.2</ele>
        <time>2022-06-28T12:59:24Z</time>
      </trkpt>
      <trkpt lat="46.60538" lon="5.33216">
        <ele>222.8</ele>
        <time>2022-06-28T12:59:28Z</time>
      </trkpt>
      <trkpt lat="46.60535" lon="5.33227">
        <ele>222.8</ele>
        <time>2022-06-28T12:59:29Z</time>
      </trkpt>
      <trkpt lat="46.60515" lon="5.33307">
        <ele>222.6</ele>
        <time>2022-06-28T12:59:37Z</time>
      </trkpt>
      <trkpt lat="46.60501" lon="5.33374">
        <ele>222.6</ele>
        <time>2022-06-28T12:59:44Z</time>
      </trkpt>
      <trkpt lat="46.60491" lon="5.33412">
        <ele>223.8</ele>
        <time>2022-06-28T12:59:49Z</time>
      </trkpt>
      <trkpt lat="46.60489" lon="5.33421">
        <ele>223.8</ele>
        <time>2022-06-28T12:59:50Z</time>
      </trkpt>
      <trkpt lat="46.60484" lon="5.33438">
        <ele>224</ele>
        <time>2022-06-28T12:59:52Z</time>
      </trkpt>
      <trkpt lat="46.60478" lon="5.33462">
        <ele>224</ele>
        <time>2022-06-28T12:59:55Z</time>
      </trkpt>
      <trkpt lat="46.60459" lon="5.33539">
        <ele>224.6</ele>
        <time>2022-06-28T13:00:04Z</time>
      </trkpt>
      <trkpt lat="46.60457" lon="5.33548">
        <ele>224.6</ele>
        <time>2022-06-28T13:00:05Z</time>
      </trkpt>
      <trkpt lat="46.60442" lon="5.33619">
        <ele>224.4</ele>
        <time>2022-06-28T13:00:13Z</time>
      </trkpt>
      <trkpt lat="46.60433" lon="5.33694">
        <ele>224.2</ele>
        <time>2022-06-28T13:00:21Z</time>
      </trkpt>
      <trkpt lat="46.60426" lon="5.33772">
        <ele>224</ele>
        <time>2022-06-28T13:00:29Z</time>
      </trkpt>
      <trkpt lat="46.60426" lon="5.33782">
        <ele>224</ele>
        <time>2022-06-28T13:00:30Z</time>
      </trkpt>
      <trkpt lat="46.60419" lon="5.33868">
        <ele>224</ele>
        <time>2022-06-28T13:00:39Z</time>
      </trkpt>
      <trkpt lat="46.60419" lon="5.33878">
        <ele>224</ele>
        <time>2022-06-28T13:00:40Z</time>
      </trkpt>
      <trkpt lat="46.60422" lon="5.33943">
        <ele>224.4</ele>
        <time>2022-06-28T13:00:47Z</time>
      </trkpt>
      <trkpt lat="46.60425" lon="5.33961">
        <ele>224.6</ele>
        <time>2022-06-28T13:00:49Z</time>
      </trkpt>
      <trkpt lat="46.60428" lon="5.33979">
        <ele>225</ele>
        <time>2022-06-28T13:00:51Z</time>
      </trkpt>
      <trkpt lat="46.60435" lon="5.34023">
        <ele>225</ele>
        <time>2022-06-28T13:00:56Z</time>
      </trkpt>
      <trkpt lat="46.60445" lon="5.34064">
        <ele>225</ele>
        <time>2022-06-28T13:01:01Z</time>
      </trkpt>
      <trkpt lat="46.60448" lon="5.34072">
        <ele>225</ele>
        <time>2022-06-28T13:01:02Z</time>
      </trkpt>
      <trkpt lat="46.60451" lon="5.3408">
        <ele>225</ele>
        <time>2022-06-28T13:01:03Z</time>
      </trkpt>
      <trkpt lat="46.60467" lon="5.34108">
        <ele>225.2</ele>
        <time>2022-06-28T13:01:07Z</time>
      </trkpt>
      <trkpt lat="46.60504" lon="5.34169">
        <ele>225.2</ele>
        <time>2022-06-28T13:01:15Z</time>
      </trkpt>
      <trkpt lat="46.60511" lon="5.34188">
        <ele>225</ele>
        <time>2022-06-28T13:01:17Z</time>
      </trkpt>
      <trkpt lat="46.60515" lon="5.3421">
        <ele>224.8</ele>
        <time>2022-06-28T13:01:19Z</time>
      </trkpt>
      <trkpt lat="46.60519" lon="5.34275">
        <ele>224.2</ele>
        <time>2022-06-28T13:01:24Z</time>
      </trkpt>
      <trkpt lat="46.60519" lon="5.34289">
        <ele>223.8</ele>
        <time>2022-06-28T13:01:25Z</time>
      </trkpt>
      <trkpt lat="46.60521" lon="5.34332">
        <ele>222.2</ele>
        <time>2022-06-28T13:01:28Z</time>
      </trkpt>
      <trkpt lat="46.60524" lon="5.34392">
        <ele>221.2</ele>
        <time>2022-06-28T13:01:32Z</time>
      </trkpt>
      <trkpt lat="46.60525" lon="5.34423">
        <ele>220.2</ele>
        <time>2022-06-28T13:01:34Z</time>
      </trkpt>
      <trkpt lat="46.60528" lon="5.34469">
        <ele>218.4</ele>
        <time>2022-06-28T13:01:37Z</time>
      </trkpt>
      <trkpt lat="46.6053" lon="5.34515">
        <ele>217.2</ele>
        <time>2022-06-28T13:01:40Z</time>
      </trkpt>
      <trkpt lat="46.6053" lon="5.34529">
        <ele>216.8</ele>
        <time>2022-06-28T13:01:41Z</time>
      </trkpt>
      <trkpt lat="46.60531" lon="5.34544">
        <ele>216</ele>
        <time>2022-06-28T13:01:42Z</time>
      </trkpt>
      <trkpt lat="46.60533" lon="5.34598">
        <ele>214.6</ele>
        <time>2022-06-28T13:01:46Z</time>
      </trkpt>
      <trkpt lat="46.60534" lon="5.3461">
        <ele>214.6</ele>
        <time>2022-06-28T13:01:47Z</time>
      </trkpt>
      <trkpt lat="46.60538" lon="5.34681">
        <ele>214</ele>
        <time>2022-06-28T13:01:53Z</time>
      </trkpt>
      <trkpt lat="46.60542" lon="5.34766">
        <ele>213.8</ele>
        <time>2022-06-28T13:02:00Z</time>
      </trkpt>
      <trkpt lat="46.60543" lon="5.34778">
        <ele>213.8</ele>
        <time>2022-06-28T13:02:01Z</time>
      </trkpt>
      <trkpt lat="46.60543" lon="5.34791">
        <ele>213.6</ele>
        <time>2022-06-28T13:02:02Z</time>
      </trkpt>
      <trkpt lat="46.60545" lon="5.34838">
        <ele>212.6</ele>
        <time>2022-06-28T13:02:06Z</time>
      </trkpt>
      <trkpt lat="46.60547" lon="5.34878">
        <ele>211.8</ele>
        <time>2022-06-28T13:02:09Z</time>
      </trkpt>
      <trkpt lat="46.60548" lon="5.3489">
        <ele>211.6</ele>
        <time>2022-06-28T13:02:10Z</time>
      </trkpt>
      <trkpt lat="46.60551" lon="5.34963">
        <ele>210.6</ele>
        <time>2022-06-28T13:02:16Z</time>
      </trkpt>
      <trkpt lat="46.60552" lon="5.34985">
        <ele>210.6</ele>
        <time>2022-06-28T13:02:18Z</time>
      </trkpt>
      <trkpt lat="46.60556" lon="5.35057">
        <ele>211</ele>
        <time>2022-06-28T13:02:25Z</time>
      </trkpt>
      <trkpt lat="46.60558" lon="5.35086">
        <ele>211.8</ele>
        <time>2022-06-28T13:02:28Z</time>
      </trkpt>
      <trkpt lat="46.60559" lon="5.3514">
        <ele>212.6</ele>
        <time>2022-06-28T13:02:33Z</time>
      </trkpt>
      <trkpt lat="46.60558" lon="5.35151">
        <ele>212.8</ele>
        <time>2022-06-28T13:02:34Z</time>
      </trkpt>
      <trkpt lat="46.60554" lon="5.35172">
        <ele>213.2</ele>
        <time>2022-06-28T13:02:36Z</time>
      </trkpt>
      <trkpt lat="46.60551" lon="5.35182">
        <ele>213.4</ele>
        <time>2022-06-28T13:02:37Z</time>
      </trkpt>
      <trkpt lat="46.60547" lon="5.35193">
        <ele>213.4</ele>
        <time>2022-06-28T13:02:38Z</time>
      </trkpt>
      <trkpt lat="46.60533" lon="5.35224">
        <ele>213.4</ele>
        <time>2022-06-28T13:02:41Z</time>
      </trkpt>
      <trkpt lat="46.60495" lon="5.35285">
        <ele>212.6</ele>
        <time>2022-06-28T13:02:47Z</time>
      </trkpt>
      <trkpt lat="46.60476" lon="5.35315">
        <ele>211.6</ele>
        <time>2022-06-28T13:02:50Z</time>
      </trkpt>
      <trkpt lat="46.60464" lon="5.35333">
        <ele>210.6</ele>
        <time>2022-06-28T13:02:52Z</time>
      </trkpt>
      <trkpt lat="46.60447" lon="5.35359">
        <ele>210</ele>
        <time>2022-06-28T13:02:55Z</time>
      </trkpt>
      <trkpt lat="46.60409" lon="5.35415">
        <ele>209.8</ele>
        <time>2022-06-28T13:03:02Z</time>
      </trkpt>
      <trkpt lat="46.60368" lon="5.35475">
        <ele>210.2</ele>
        <time>2022-06-28T13:03:10Z</time>
      </trkpt>
      <trkpt lat="46.6034" lon="5.35518">
        <ele>210</ele>
        <time>2022-06-28T13:03:16Z</time>
      </trkpt>
      <trkpt lat="46.60331" lon="5.35534">
        <ele>210</ele>
        <time>2022-06-28T13:03:18Z</time>
      </trkpt>
      <trkpt lat="46.60309" lon="5.35598">
        <ele>209.8</ele>
        <time>2022-06-28T13:03:25Z</time>
      </trkpt>
      <trkpt lat="46.60304" lon="5.35658">
        <ele>210</ele>
        <time>2022-06-28T13:03:31Z</time>
      </trkpt>
      <trkpt lat="46.60305" lon="5.35698">
        <ele>210</ele>
        <time>2022-06-28T13:03:35Z</time>
      </trkpt>
      <trkpt lat="46.60308" lon="5.35717">
        <ele>210</ele>
        <time>2022-06-28T13:03:37Z</time>
      </trkpt>
      <trkpt lat="46.60319" lon="5.35778">
        <ele>210.4</ele>
        <time>2022-06-28T13:03:44Z</time>
      </trkpt>
      <trkpt lat="46.60329" lon="5.35844">
        <ele>211.6</ele>
        <time>2022-06-28T13:03:52Z</time>
      </trkpt>
      <trkpt lat="46.60335" lon="5.35876">
        <ele>211.8</ele>
        <time>2022-06-28T13:03:56Z</time>
      </trkpt>
      <trkpt lat="46.60336" lon="5.35886">
        <ele>212</ele>
        <time>2022-06-28T13:03:57Z</time>
      </trkpt>
      <trkpt lat="46.60337" lon="5.35896">
        <ele>212</ele>
        <time>2022-06-28T13:03:58Z</time>
      </trkpt>
      <trkpt lat="46.6034" lon="5.35934">
        <ele>212.4</ele>
        <time>2022-06-28T13:04:02Z</time>
      </trkpt>
      <trkpt lat="46.60341" lon="5.35954">
        <ele>213</ele>
        <time>2022-06-28T13:04:04Z</time>
      </trkpt>
      <trkpt lat="46.60335" lon="5.36022">
        <ele>213.2</ele>
        <time>2022-06-28T13:04:11Z</time>
      </trkpt>
      <trkpt lat="46.60319" lon="5.36091">
        <ele>213.2</ele>
        <time>2022-06-28T13:04:18Z</time>
      </trkpt>
      <trkpt lat="46.60297" lon="5.36163">
        <ele>212.6</ele>
        <time>2022-06-28T13:04:25Z</time>
      </trkpt>
      <trkpt lat="46.60283" lon="5.36215">
        <ele>212</ele>
        <time>2022-06-28T13:04:30Z</time>
      </trkpt>
      <trkpt lat="46.60275" lon="5.36247">
        <ele>211.4</ele>
        <time>2022-06-28T13:04:33Z</time>
      </trkpt>
      <trkpt lat="46.60267" lon="5.3629">
        <ele>211</ele>
        <time>2022-06-28T13:04:37Z</time>
      </trkpt>
      <trkpt lat="46.60266" lon="5.36314">
        <ele>210.8</ele>
        <time>2022-06-28T13:04:39Z</time>
      </trkpt>
      <trkpt lat="46.60257" lon="5.36344">
        <ele>210.8</ele>
        <time>2022-06-28T13:04:42Z</time>
      </trkpt>
      <trkpt lat="46.60252" lon="5.36371">
        <ele>210.8</ele>
        <time>2022-06-28T13:04:45Z</time>
      </trkpt>
      <trkpt lat="46.60252" lon="5.36423">
        <ele>211.6</ele>
        <time>2022-06-28T13:04:51Z</time>
      </trkpt>
      <trkpt lat="46.60255" lon="5.36438">
        <ele>212</ele>
        <time>2022-06-28T13:04:53Z</time>
      </trkpt>
      <trkpt lat="46.60262" lon="5.36467">
        <ele>212.6</ele>
        <time>2022-06-28T13:04:57Z</time>
      </trkpt>
      <trkpt lat="46.6027" lon="5.36486">
        <ele>213</ele>
        <time>2022-06-28T13:05:00Z</time>
      </trkpt>
      <trkpt lat="46.60279" lon="5.36503">
        <ele>213.6</ele>
        <time>2022-06-28T13:05:03Z</time>
      </trkpt>
      <trkpt lat="46.60294" lon="5.36522">
        <ele>214.2</ele>
        <time>2022-06-28T13:05:07Z</time>
      </trkpt>
      <trkpt lat="46.60306" lon="5.36535">
        <ele>214.6</ele>
        <time>2022-06-28T13:05:10Z</time>
      </trkpt>
      <trkpt lat="46.6031" lon="5.36539">
        <ele>215</ele>
        <time>2022-06-28T13:05:11Z</time>
      </trkpt>
      <trkpt lat="46.60318" lon="5.36547">
        <ele>215.2</ele>
        <time>2022-06-28T13:05:13Z</time>
      </trkpt>
      <trkpt lat="46.60322" lon="5.36549">
        <ele>215.6</ele>
        <time>2022-06-28T13:05:14Z</time>
      </trkpt>
      <trkpt lat="46.60326" lon="5.36549">
        <ele>215.6</ele>
        <time>2022-06-28T13:05:15Z</time>
      </trkpt>
      <trkpt lat="46.6033" lon="5.36548">
        <ele>215.8</ele>
        <time>2022-06-28T13:05:16Z</time>
      </trkpt>
      <trkpt lat="46.60336" lon="5.36541">
        <ele>216</ele>
        <time>2022-06-28T13:05:18Z</time>
      </trkpt>
      <trkpt lat="46.60341" lon="5.36534">
        <ele>216</ele>
        <time>2022-06-28T13:05:20Z</time>
      </trkpt>
      <trkpt lat="46.60343" lon="5.3653">
        <ele>216.4</ele>
        <time>2022-06-28T13:05:22Z</time>
      </trkpt>
      <trkpt lat="46.60343" lon="5.3653">
        <ele>216.2</ele>
        <time>2022-06-28T13:05:27Z</time>
      </trkpt>
      <trkpt lat="46.6034" lon="5.36536">
        <ele>215.8</ele>
        <time>2022-06-28T13:06:06Z</time>
      </trkpt>
      <trkpt lat="46.60339" lon="5.3654">
        <ele>215.8</ele>
        <time>2022-06-28T13:06:07Z</time>
      </trkpt>
      <trkpt lat="46.60345" lon="5.36568">
        <ele>215.8</ele>
        <time>2022-06-28T13:06:12Z</time>
      </trkpt>
      <trkpt lat="46.60352" lon="5.36577">
        <ele>215.8</ele>
        <time>2022-06-28T13:06:14Z</time>
      </trkpt>
      <trkpt lat="46.60364" lon="5.3659">
        <ele>216.6</ele>
        <time>2022-06-28T13:06:17Z</time>
      </trkpt>
      <trkpt lat="46.60368" lon="5.36594">
        <ele>216.8</ele>
        <time>2022-06-28T13:06:18Z</time>
      </trkpt>
      <trkpt lat="46.60391" lon="5.36619">
        <ele>217.4</ele>
        <time>2022-06-28T13:06:24Z</time>
      </trkpt>
      <trkpt lat="46.60395" lon="5.36624">
        <ele>217.6</ele>
        <time>2022-06-28T13:06:25Z</time>
      </trkpt>
      <trkpt lat="46.60399" lon="5.36628">
        <ele>217.8</ele>
        <time>2022-06-28T13:06:26Z</time>
      </trkpt>
      <trkpt lat="46.60407" lon="5.36638">
        <ele>218.4</ele>
        <time>2022-06-28T13:06:28Z</time>
      </trkpt>
      <trkpt lat="46.60414" lon="5.36649">
        <ele>218.8</ele>
        <time>2022-06-28T13:06:30Z</time>
      </trkpt>
      <trkpt lat="46.60417" lon="5.36656">
        <ele>219</ele>
        <time>2022-06-28T13:06:31Z</time>
      </trkpt>
      <trkpt lat="46.60421" lon="5.36662">
        <ele>219.2</ele>
        <time>2022-06-28T13:06:32Z</time>
      </trkpt>
      <trkpt lat="46.60436" lon="5.36701">
        <ele>219.8</ele>
        <time>2022-06-28T13:06:37Z</time>
      </trkpt>
      <trkpt lat="46.60447" lon="5.36753">
        <ele>219.8</ele>
        <time>2022-06-28T13:06:43Z</time>
      </trkpt>
      <trkpt lat="46.60451" lon="5.36812">
        <ele>219.2</ele>
        <time>2022-06-28T13:06:49Z</time>
      </trkpt>
      <trkpt lat="46.60452" lon="5.3688">
        <ele>218</ele>
        <time>2022-06-28T13:06:55Z</time>
      </trkpt>
      <trkpt lat="46.60445" lon="5.36942">
        <ele>217</ele>
        <time>2022-06-28T13:07:00Z</time>
      </trkpt>
      <trkpt lat="46.6044" lon="5.36982">
        <ele>216</ele>
        <time>2022-06-28T13:07:03Z</time>
      </trkpt>
      <trkpt lat="46.60432" lon="5.37034">
        <ele>214.6</ele>
        <time>2022-06-28T13:07:07Z</time>
      </trkpt>
      <trkpt lat="46.60427" lon="5.3707">
        <ele>213.6</ele>
        <time>2022-06-28T13:07:10Z</time>
      </trkpt>
      <trkpt lat="46.60423" lon="5.37103">
        <ele>213.2</ele>
        <time>2022-06-28T13:07:13Z</time>
      </trkpt>
      <trkpt lat="46.60416" lon="5.37161">
        <ele>213</ele>
        <time>2022-06-28T13:07:19Z</time>
      </trkpt>
      <trkpt lat="46.60411" lon="5.37214">
        <ele>214</ele>
        <time>2022-06-28T13:07:25Z</time>
      </trkpt>
      <trkpt lat="46.60408" lon="5.37234">
        <ele>214.2</ele>
        <time>2022-06-28T13:07:27Z</time>
      </trkpt>
      <trkpt lat="46.60401" lon="5.37267">
        <ele>214.6</ele>
        <time>2022-06-28T13:07:31Z</time>
      </trkpt>
      <trkpt lat="46.60394" lon="5.37288">
        <ele>215</ele>
        <time>2022-06-28T13:07:34Z</time>
      </trkpt>
      <trkpt lat="46.60388" lon="5.37301">
        <ele>215.6</ele>
        <time>2022-06-28T13:07:36Z</time>
      </trkpt>
      <trkpt lat="46.60381" lon="5.37312">
        <ele>216.2</ele>
        <time>2022-06-28T13:07:38Z</time>
      </trkpt>
      <trkpt lat="46.60374" lon="5.3732">
        <ele>216.4</ele>
        <time>2022-06-28T13:07:40Z</time>
      </trkpt>
      <trkpt lat="46.6037" lon="5.37323">
        <ele>216.4</ele>
        <time>2022-06-28T13:07:41Z</time>
      </trkpt>
      <trkpt lat="46.60362" lon="5.37327">
        <ele>216.6</ele>
        <time>2022-06-28T13:07:43Z</time>
      </trkpt>
      <trkpt lat="46.60349" lon="5.37332">
        <ele>218</ele>
        <time>2022-06-28T13:07:46Z</time>
      </trkpt>
      <trkpt lat="46.6034" lon="5.37336">
        <ele>218.2</ele>
        <time>2022-06-28T13:07:48Z</time>
      </trkpt>
      <trkpt lat="46.60335" lon="5.37338">
        <ele>219.2</ele>
        <time>2022-06-28T13:07:49Z</time>
      </trkpt>
      <trkpt lat="46.60321" lon="5.37341">
        <ele>220</ele>
        <time>2022-06-28T13:07:52Z</time>
      </trkpt>
      <trkpt lat="46.60313" lon="5.37343">
        <ele>220.4</ele>
        <time>2022-06-28T13:07:54Z</time>
      </trkpt>
      <trkpt lat="46.603" lon="5.37346">
        <ele>221.2</ele>
        <time>2022-06-28T13:07:57Z</time>
      </trkpt>
      <trkpt lat="46.60296" lon="5.37346">
        <ele>221.6</ele>
        <time>2022-06-28T13:07:58Z</time>
      </trkpt>
      <trkpt lat="46.60287" lon="5.37348">
        <ele>222</ele>
        <time>2022-06-28T13:08:00Z</time>
      </trkpt>
      <trkpt lat="46.60278" lon="5.3735">
        <ele>222.6</ele>
        <time>2022-06-28T13:08:02Z</time>
      </trkpt>
      <trkpt lat="46.60269" lon="5.37355">
        <ele>223.4</ele>
        <time>2022-06-28T13:08:04Z</time>
      </trkpt>
      <trkpt lat="46.60265" lon="5.37359">
        <ele>223.6</ele>
        <time>2022-06-28T13:08:05Z</time>
      </trkpt>
      <trkpt lat="46.6026" lon="5.37365">
        <ele>223.8</ele>
        <time>2022-06-28T13:08:06Z</time>
      </trkpt>
      <trkpt lat="46.60251" lon="5.37386">
        <ele>224.2</ele>
        <time>2022-06-28T13:08:09Z</time>
      </trkpt>
      <trkpt lat="46.60234" lon="5.37432">
        <ele>224.2</ele>
        <time>2022-06-28T13:08:14Z</time>
      </trkpt>
      <trkpt lat="46.60218" lon="5.37489">
        <ele>222.8</ele>
        <time>2022-06-28T13:08:19Z</time>
      </trkpt>
      <trkpt lat="46.60215" lon="5.37505">
        <ele>222.4</ele>
        <time>2022-06-28T13:08:20Z</time>
      </trkpt>
      <trkpt lat="46.60209" lon="5.37529">
        <ele>221.6</ele>
        <time>2022-06-28T13:08:22Z</time>
      </trkpt>
      <trkpt lat="46.602" lon="5.37572">
        <ele>220.4</ele>
        <time>2022-06-28T13:08:25Z</time>
      </trkpt>
      <trkpt lat="46.60197" lon="5.37586">
        <ele>220</ele>
        <time>2022-06-28T13:08:26Z</time>
      </trkpt>
      <trkpt lat="46.60194" lon="5.37601">
        <ele>219</ele>
        <time>2022-06-28T13:08:27Z</time>
      </trkpt>
      <trkpt lat="46.60189" lon="5.37633">
        <ele>217.6</ele>
        <time>2022-06-28T13:08:29Z</time>
      </trkpt>
      <trkpt lat="46.60181" lon="5.37673">
        <ele>216.6</ele>
        <time>2022-06-28T13:08:32Z</time>
      </trkpt>
      <trkpt lat="46.60178" lon="5.37691">
        <ele>216.4</ele>
        <time>2022-06-28T13:08:33Z</time>
      </trkpt>
      <trkpt lat="46.60168" lon="5.37749">
        <ele>215.4</ele>
        <time>2022-06-28T13:08:37Z</time>
      </trkpt>
      <trkpt lat="46.6016" lon="5.37791">
        <ele>214.4</ele>
        <time>2022-06-28T13:08:40Z</time>
      </trkpt>
      <trkpt lat="46.60158" lon="5.37801">
        <ele>214</ele>
        <time>2022-06-28T13:08:41Z</time>
      </trkpt>
      <trkpt lat="46.60144" lon="5.37874">
        <ele>213.8</ele>
        <time>2022-06-28T13:08:47Z</time>
      </trkpt>
      <trkpt lat="46.60132" lon="5.37935">
        <ele>214</ele>
        <time>2022-06-28T13:08:53Z</time>
      </trkpt>
      <trkpt lat="46.6012" lon="5.37996">
        <ele>215</ele>
        <time>2022-06-28T13:09:00Z</time>
      </trkpt>
      <trkpt lat="46.60111" lon="5.38046">
        <ele>215.4</ele>
        <time>2022-06-28T13:09:06Z</time>
      </trkpt>
      <trkpt lat="46.60105" lon="5.38083">
        <ele>215.8</ele>
        <time>2022-06-28T13:09:10Z</time>
      </trkpt>
      <trkpt lat="46.60096" lon="5.38162">
        <ele>216.4</ele>
        <time>2022-06-28T13:09:18Z</time>
      </trkpt>
      <trkpt lat="46.60094" lon="5.38192">
        <ele>216.2</ele>
        <time>2022-06-28T13:09:21Z</time>
      </trkpt>
      <trkpt lat="46.60091" lon="5.38272">
        <ele>215.6</ele>
        <time>2022-06-28T13:09:29Z</time>
      </trkpt>
      <trkpt lat="46.60091" lon="5.38282">
        <ele>215.4</ele>
        <time>2022-06-28T13:09:30Z</time>
      </trkpt>
      <trkpt lat="46.60092" lon="5.38366">
        <ele>214.8</ele>
        <time>2022-06-28T13:09:39Z</time>
      </trkpt>
      <trkpt lat="46.60092" lon="5.38449">
        <ele>215.6</ele>
        <time>2022-06-28T13:09:48Z</time>
      </trkpt>
      <trkpt lat="46.60092" lon="5.38458">
        <ele>215.6</ele>
        <time>2022-06-28T13:09:49Z</time>
      </trkpt>
      <trkpt lat="46.60089" lon="5.38536">
        <ele>215.4</ele>
        <time>2022-06-28T13:09:57Z</time>
      </trkpt>
      <trkpt lat="46.60081" lon="5.38599">
        <ele>215</ele>
        <time>2022-06-28T13:10:03Z</time>
      </trkpt>
      <trkpt lat="46.60068" lon="5.38653">
        <ele>214.6</ele>
        <time>2022-06-28T13:10:08Z</time>
      </trkpt>
      <trkpt lat="46.60061" lon="5.38683">
        <ele>214.2</ele>
        <time>2022-06-28T13:10:11Z</time>
      </trkpt>
      <trkpt lat="46.60048" lon="5.38742">
        <ele>214.4</ele>
        <time>2022-06-28T13:10:17Z</time>
      </trkpt>
      <trkpt lat="46.60038" lon="5.38783">
        <ele>215.2</ele>
        <time>2022-06-28T13:10:23Z</time>
      </trkpt>
      <trkpt lat="46.60036" lon="5.38788">
        <ele>215.4</ele>
        <time>2022-06-28T13:10:24Z</time>
      </trkpt>
      <trkpt lat="46.60032" lon="5.388">
        <ele>215.8</ele>
        <time>2022-06-28T13:10:26Z</time>
      </trkpt>
      <trkpt lat="46.60026" lon="5.38818">
        <ele>216.8</ele>
        <time>2022-06-28T13:10:29Z</time>
      </trkpt>
      <trkpt lat="46.60025" lon="5.38824">
        <ele>217.2</ele>
        <time>2022-06-28T13:10:30Z</time>
      </trkpt>
      <trkpt lat="46.60017" lon="5.38846">
        <ele>218.4</ele>
        <time>2022-06-28T13:10:34Z</time>
      </trkpt>
      <trkpt lat="46.60011" lon="5.38861">
        <ele>219.2</ele>
        <time>2022-06-28T13:10:37Z</time>
      </trkpt>
      <trkpt lat="46.60008" lon="5.38867">
        <ele>219.4</ele>
        <time>2022-06-28T13:10:38Z</time>
      </trkpt>
      <trkpt lat="46.6" lon="5.38889">
        <ele>220.8</ele>
        <time>2022-06-28T13:10:42Z</time>
      </trkpt>
      <trkpt lat="46.59994" lon="5.38905">
        <ele>221.8</ele>
        <time>2022-06-28T13:10:45Z</time>
      </trkpt>
      <trkpt lat="46.59992" lon="5.38911">
        <ele>222.2</ele>
        <time>2022-06-28T13:10:46Z</time>
      </trkpt>
      <trkpt lat="46.59988" lon="5.38928">
        <ele>223</ele>
        <time>2022-06-28T13:10:49Z</time>
      </trkpt>
      <trkpt lat="46.59983" lon="5.38952">
        <ele>224</ele>
        <time>2022-06-28T13:10:53Z</time>
      </trkpt>
      <trkpt lat="46.59981" lon="5.38965">
        <ele>224.8</ele>
        <time>2022-06-28T13:10:55Z</time>
      </trkpt>
      <trkpt lat="46.59979" lon="5.38979">
        <ele>225</ele>
        <time>2022-06-28T13:10:57Z</time>
      </trkpt>
      <trkpt lat="46.59977" lon="5.38992">
        <ele>225.4</ele>
        <time>2022-06-28T13:10:59Z</time>
      </trkpt>
      <trkpt lat="46.59975" lon="5.39011">
        <ele>226</ele>
        <time>2022-06-28T13:11:02Z</time>
      </trkpt>
      <trkpt lat="46.59974" lon="5.39018">
        <ele>226.2</ele>
        <time>2022-06-28T13:11:03Z</time>
      </trkpt>
      <trkpt lat="46.59969" lon="5.39058">
        <ele>227</ele>
        <time>2022-06-28T13:11:09Z</time>
      </trkpt>
      <trkpt lat="46.59967" lon="5.39071">
        <ele>227.2</ele>
        <time>2022-06-28T13:11:11Z</time>
      </trkpt>
      <trkpt lat="46.59965" lon="5.39089">
        <ele>227.4</ele>
        <time>2022-06-28T13:11:14Z</time>
      </trkpt>
      <trkpt lat="46.59961" lon="5.39101">
        <ele>227.8</ele>
        <time>2022-06-28T13:11:16Z</time>
      </trkpt>
      <trkpt lat="46.59954" lon="5.39111">
        <ele>228.2</ele>
        <time>2022-06-28T13:11:18Z</time>
      </trkpt>
      <trkpt lat="46.59941" lon="5.39133">
        <ele>229</ele>
        <time>2022-06-28T13:11:22Z</time>
      </trkpt>
      <trkpt lat="46.59938" lon="5.39139">
        <ele>229.4</ele>
        <time>2022-06-28T13:11:23Z</time>
      </trkpt>
      <trkpt lat="46.59925" lon="5.39164">
        <ele>230</ele>
        <time>2022-06-28T13:11:27Z</time>
      </trkpt>
      <trkpt lat="46.59924" lon="5.39172">
        <ele>230</ele>
        <time>2022-06-28T13:11:28Z</time>
      </trkpt>
      <trkpt lat="46.59925" lon="5.3918">
        <ele>230.2</ele>
        <time>2022-06-28T13:11:29Z</time>
      </trkpt>
      <trkpt lat="46.59932" lon="5.39189">
        <ele>230.2</ele>
        <time>2022-06-28T13:11:31Z</time>
      </trkpt>
      <trkpt lat="46.59938" lon="5.39189">
        <ele>230.2</ele>
        <time>2022-06-28T13:11:32Z</time>
      </trkpt>
      <trkpt lat="46.59952" lon="5.39191">
        <ele>230.2</ele>
        <time>2022-06-28T13:11:34Z</time>
      </trkpt>
      <trkpt lat="46.59995" lon="5.39201">
        <ele>228.8</ele>
        <time>2022-06-28T13:11:40Z</time>
      </trkpt>
      <trkpt lat="46.60002" lon="5.39205">
        <ele>228.8</ele>
        <time>2022-06-28T13:11:41Z</time>
      </trkpt>
      <trkpt lat="46.60015" lon="5.39214">
        <ele>228.6</ele>
        <time>2022-06-28T13:11:43Z</time>
      </trkpt>
      <trkpt lat="46.60027" lon="5.39227">
        <ele>228.2</ele>
        <time>2022-06-28T13:11:45Z</time>
      </trkpt>
      <trkpt lat="46.60037" lon="5.39245">
        <ele>227.8</ele>
        <time>2022-06-28T13:11:47Z</time>
      </trkpt>
      <trkpt lat="46.60045" lon="5.39268">
        <ele>227.4</ele>
        <time>2022-06-28T13:11:49Z</time>
      </trkpt>
      <trkpt lat="46.60049" lon="5.39293">
        <ele>227</ele>
        <time>2022-06-28T13:11:51Z</time>
      </trkpt>
      <trkpt lat="46.6005" lon="5.3932">
        <ele>226.6</ele>
        <time>2022-06-28T13:11:53Z</time>
      </trkpt>
      <trkpt lat="46.60048" lon="5.39348">
        <ele>225.8</ele>
        <time>2022-06-28T13:11:55Z</time>
      </trkpt>
      <trkpt lat="46.60044" lon="5.39375">
        <ele>224.6</ele>
        <time>2022-06-28T13:11:57Z</time>
      </trkpt>
      <trkpt lat="46.60037" lon="5.39413">
        <ele>223.4</ele>
        <time>2022-06-28T13:12:00Z</time>
      </trkpt>
      <trkpt lat="46.60032" lon="5.39446">
        <ele>222.8</ele>
        <time>2022-06-28T13:12:03Z</time>
      </trkpt>
      <trkpt lat="46.60033" lon="5.39467">
        <ele>222.6</ele>
        <time>2022-06-28T13:12:05Z</time>
      </trkpt>
      <trkpt lat="46.60036" lon="5.39488">
        <ele>222.6</ele>
        <time>2022-06-28T13:12:07Z</time>
      </trkpt>
      <trkpt lat="46.60042" lon="5.39509">
        <ele>222.6</ele>
        <time>2022-06-28T13:12:09Z</time>
      </trkpt>
      <trkpt lat="46.60051" lon="5.3953">
        <ele>222.4</ele>
        <time>2022-06-28T13:12:11Z</time>
      </trkpt>
      <trkpt lat="46.60065" lon="5.3956">
        <ele>222.2</ele>
        <time>2022-06-28T13:12:14Z</time>
      </trkpt>
      <trkpt lat="46.60081" lon="5.39595">
        <ele>221.4</ele>
        <time>2022-06-28T13:12:17Z</time>
      </trkpt>
      <trkpt lat="46.60084" lon="5.39606">
        <ele>221</ele>
        <time>2022-06-28T13:12:18Z</time>
      </trkpt>
      <trkpt lat="46.60089" lon="5.39631">
        <ele>220.6</ele>
        <time>2022-06-28T13:12:20Z</time>
      </trkpt>
      <trkpt lat="46.60089" lon="5.39644">
        <ele>220.2</ele>
        <time>2022-06-28T13:12:21Z</time>
      </trkpt>
      <trkpt lat="46.60087" lon="5.39658">
        <ele>219.8</ele>
        <time>2022-06-28T13:12:22Z</time>
      </trkpt>
      <trkpt lat="46.6008" lon="5.39683">
        <ele>218.8</ele>
        <time>2022-06-28T13:12:24Z</time>
      </trkpt>
      <trkpt lat="46.60065" lon="5.39718">
        <ele>217.4</ele>
        <time>2022-06-28T13:12:27Z</time>
      </trkpt>
      <trkpt lat="46.60063" lon="5.39732">
        <ele>216.8</ele>
        <time>2022-06-28T13:12:28Z</time>
      </trkpt>
      <trkpt lat="46.60064" lon="5.39745">
        <ele>216.4</ele>
        <time>2022-06-28T13:12:29Z</time>
      </trkpt>
      <trkpt lat="46.6007" lon="5.39771">
        <ele>215.8</ele>
        <time>2022-06-28T13:12:31Z</time>
      </trkpt>
      <trkpt lat="46.60084" lon="5.39805">
        <ele>215.4</ele>
        <time>2022-06-28T13:12:34Z</time>
      </trkpt>
      <trkpt lat="46.6009" lon="5.39815">
        <ele>215.2</ele>
        <time>2022-06-28T13:12:35Z</time>
      </trkpt>
      <trkpt lat="46.60096" lon="5.39824">
        <ele>214.8</ele>
        <time>2022-06-28T13:12:36Z</time>
      </trkpt>
      <trkpt lat="46.60131" lon="5.39858">
        <ele>214.2</ele>
        <time>2022-06-28T13:12:41Z</time>
      </trkpt>
      <trkpt lat="46.60138" lon="5.39864">
        <ele>214.2</ele>
        <time>2022-06-28T13:12:42Z</time>
      </trkpt>
      <trkpt lat="46.60164" lon="5.39889">
        <ele>214</ele>
        <time>2022-06-28T13:12:46Z</time>
      </trkpt>
      <trkpt lat="46.60169" lon="5.39896">
        <ele>214</ele>
        <time>2022-06-28T13:12:47Z</time>
      </trkpt>
      <trkpt lat="46.60174" lon="5.39904">
        <ele>214</ele>
        <time>2022-06-28T13:12:48Z</time>
      </trkpt>
      <trkpt lat="46.60181" lon="5.39922">
        <ele>214</ele>
        <time>2022-06-28T13:12:50Z</time>
      </trkpt>
      <trkpt lat="46.60186" lon="5.39959">
        <ele>214.2</ele>
        <time>2022-06-28T13:12:54Z</time>
      </trkpt>
      <trkpt lat="46.60186" lon="5.39967">
        <ele>214.2</ele>
        <time>2022-06-28T13:12:55Z</time>
      </trkpt>
      <trkpt lat="46.60186" lon="5.40001">
        <ele>214.6</ele>
        <time>2022-06-28T13:12:59Z</time>
      </trkpt>
      <trkpt lat="46.60188" lon="5.40043">
        <ele>215.2</ele>
        <time>2022-06-28T13:13:04Z</time>
      </trkpt>
      <trkpt lat="46.60188" lon="5.40052">
        <ele>215.4</ele>
        <time>2022-06-28T13:13:05Z</time>
      </trkpt>
      <trkpt lat="46.60188" lon="5.40111">
        <ele>216.4</ele>
        <time>2022-06-28T13:13:12Z</time>
      </trkpt>
      <trkpt lat="46.60187" lon="5.40119">
        <ele>216.6</ele>
        <time>2022-06-28T13:13:13Z</time>
      </trkpt>
      <trkpt lat="46.60178" lon="5.4017">
        <ele>217.4</ele>
        <time>2022-06-28T13:13:19Z</time>
      </trkpt>
      <trkpt lat="46.60172" lon="5.40197">
        <ele>218</ele>
        <time>2022-06-28T13:13:22Z</time>
      </trkpt>
      <trkpt lat="46.60172" lon="5.40217">
        <ele>218</ele>
        <time>2022-06-28T13:13:24Z</time>
      </trkpt>
      <trkpt lat="46.60176" lon="5.40237">
        <ele>218.2</ele>
        <time>2022-06-28T13:13:26Z</time>
      </trkpt>
      <trkpt lat="46.60182" lon="5.40255">
        <ele>218.2</ele>
        <time>2022-06-28T13:13:28Z</time>
      </trkpt>
      <trkpt lat="46.60207" lon="5.40319">
        <ele>218.4</ele>
        <time>2022-06-28T13:13:36Z</time>
      </trkpt>
      <trkpt lat="46.60211" lon="5.40335">
        <ele>218.6</ele>
        <time>2022-06-28T13:13:38Z</time>
      </trkpt>
      <trkpt lat="46.60218" lon="5.40367">
        <ele>219</ele>
        <time>2022-06-28T13:13:42Z</time>
      </trkpt>
      <trkpt lat="46.6022" lon="5.40385">
        <ele>219.2</ele>
        <time>2022-06-28T13:13:44Z</time>
      </trkpt>
      <trkpt lat="46.60219" lon="5.40416">
        <ele>219.2</ele>
        <time>2022-06-28T13:13:47Z</time>
      </trkpt>
      <trkpt lat="46.60217" lon="5.40478">
        <ele>218</ele>
        <time>2022-06-28T13:13:52Z</time>
      </trkpt>
      <trkpt lat="46.60221" lon="5.40503">
        <ele>217</ele>
        <time>2022-06-28T13:13:54Z</time>
      </trkpt>
      <trkpt lat="46.60227" lon="5.40528">
        <ele>216.4</ele>
        <time>2022-06-28T13:13:56Z</time>
      </trkpt>
      <trkpt lat="46.60234" lon="5.40564">
        <ele>215.4</ele>
        <time>2022-06-28T13:13:59Z</time>
      </trkpt>
      <trkpt lat="46.60235" lon="5.40588">
        <ele>214.8</ele>
        <time>2022-06-28T13:14:01Z</time>
      </trkpt>
      <trkpt lat="46.60231" lon="5.40611">
        <ele>214.6</ele>
        <time>2022-06-28T13:14:03Z</time>
      </trkpt>
      <trkpt lat="46.60227" lon="5.40622">
        <ele>214.4</ele>
        <time>2022-06-28T13:14:04Z</time>
      </trkpt>
      <trkpt lat="46.60223" lon="5.40632">
        <ele>214.2</ele>
        <time>2022-06-28T13:14:05Z</time>
      </trkpt>
      <trkpt lat="46.60207" lon="5.40659">
        <ele>214</ele>
        <time>2022-06-28T13:14:08Z</time>
      </trkpt>
      <trkpt lat="46.60178" lon="5.40712">
        <ele>213.6</ele>
        <time>2022-06-28T13:14:14Z</time>
      </trkpt>
      <trkpt lat="46.60175" lon="5.40723">
        <ele>213.4</ele>
        <time>2022-06-28T13:14:15Z</time>
      </trkpt>
      <trkpt lat="46.60173" lon="5.40734">
        <ele>213.4</ele>
        <time>2022-06-28T13:14:16Z</time>
      </trkpt>
      <trkpt lat="46.60171" lon="5.40754">
        <ele>213.2</ele>
        <time>2022-06-28T13:14:18Z</time>
      </trkpt>
      <trkpt lat="46.60171" lon="5.40767">
        <ele>213.2</ele>
        <time>2022-06-28T13:14:19Z</time>
      </trkpt>
      <trkpt lat="46.60173" lon="5.40778">
        <ele>213.2</ele>
        <time>2022-06-28T13:14:20Z</time>
      </trkpt>
      <trkpt lat="46.60178" lon="5.40799">
        <ele>213</ele>
        <time>2022-06-28T13:14:22Z</time>
      </trkpt>
      <trkpt lat="46.60187" lon="5.40816">
        <ele>213</ele>
        <time>2022-06-28T13:14:24Z</time>
      </trkpt>
      <trkpt lat="46.60198" lon="5.40829">
        <ele>213</ele>
        <time>2022-06-28T13:14:26Z</time>
      </trkpt>
      <trkpt lat="46.60234" lon="5.4086">
        <ele>213.2</ele>
        <time>2022-06-28T13:14:32Z</time>
      </trkpt>
      <trkpt lat="46.60272" lon="5.40889">
        <ele>213.8</ele>
        <time>2022-06-28T13:14:39Z</time>
      </trkpt>
      <trkpt lat="46.60277" lon="5.40893">
        <ele>214</ele>
        <time>2022-06-28T13:14:40Z</time>
      </trkpt>
      <trkpt lat="46.60294" lon="5.40912">
        <ele>214.4</ele>
        <time>2022-06-28T13:14:44Z</time>
      </trkpt>
      <trkpt lat="46.60298" lon="5.40916">
        <ele>214.6</ele>
        <time>2022-06-28T13:14:45Z</time>
      </trkpt>
      <trkpt lat="46.60302" lon="5.40927">
        <ele>214.8</ele>
        <time>2022-06-28T13:14:47Z</time>
      </trkpt>
      <trkpt lat="46.60303" lon="5.40933">
        <ele>215</ele>
        <time>2022-06-28T13:14:48Z</time>
      </trkpt>
      <trkpt lat="46.60301" lon="5.40938">
        <ele>215.4</ele>
        <time>2022-06-28T13:14:49Z</time>
      </trkpt>
      <trkpt lat="46.60298" lon="5.40942">
        <ele>215.6</ele>
        <time>2022-06-28T13:14:50Z</time>
      </trkpt>
      <trkpt lat="46.60295" lon="5.40946">
        <ele>215.8</ele>
        <time>2022-06-28T13:14:51Z</time>
      </trkpt>
      <trkpt lat="46.60291" lon="5.40952">
        <ele>216</ele>
        <time>2022-06-28T13:14:52Z</time>
      </trkpt>
      <trkpt lat="46.60279" lon="5.40975">
        <ele>216.4</ele>
        <time>2022-06-28T13:14:55Z</time>
      </trkpt>
      <trkpt lat="46.6025" lon="5.41036">
        <ele>215.6</ele>
        <time>2022-06-28T13:15:02Z</time>
      </trkpt>
      <trkpt lat="46.60218" lon="5.41111">
        <ele>215.2</ele>
        <time>2022-06-28T13:15:10Z</time>
      </trkpt>
      <trkpt lat="46.60214" lon="5.4112">
        <ele>215.2</ele>
        <time>2022-06-28T13:15:11Z</time>
      </trkpt>
      <trkpt lat="46.60196" lon="5.41165">
        <ele>215.2</ele>
        <time>2022-06-28T13:15:16Z</time>
      </trkpt>
      <trkpt lat="46.6019" lon="5.41183">
        <ele>215.2</ele>
        <time>2022-06-28T13:15:18Z</time>
      </trkpt>
      <trkpt lat="46.6018" lon="5.41223">
        <ele>215.4</ele>
        <time>2022-06-28T13:15:23Z</time>
      </trkpt>
      <trkpt lat="46.60177" lon="5.41264">
        <ele>215.8</ele>
        <time>2022-06-28T13:15:28Z</time>
      </trkpt>
      <trkpt lat="46.60178" lon="5.41295">
        <ele>216.8</ele>
        <time>2022-06-28T13:15:32Z</time>
      </trkpt>
      <trkpt lat="46.60177" lon="5.41313">
        <ele>217.2</ele>
        <time>2022-06-28T13:15:34Z</time>
      </trkpt>
      <trkpt lat="46.60175" lon="5.41332">
        <ele>218</ele>
        <time>2022-06-28T13:15:36Z</time>
      </trkpt>
      <trkpt lat="46.60172" lon="5.4138">
        <ele>218.6</ele>
        <time>2022-06-28T13:15:41Z</time>
      </trkpt>
      <trkpt lat="46.60164" lon="5.41458">
        <ele>218.6</ele>
        <time>2022-06-28T13:15:49Z</time>
      </trkpt>
      <trkpt lat="46.60151" lon="5.415">
        <ele>218.4</ele>
        <time>2022-06-28T13:15:53Z</time>
      </trkpt>
      <trkpt lat="46.6015" lon="5.41511">
        <ele>218.2</ele>
        <time>2022-06-28T13:15:54Z</time>
      </trkpt>
      <trkpt lat="46.6015" lon="5.41523">
        <ele>217.8</ele>
        <time>2022-06-28T13:15:55Z</time>
      </trkpt>
      <trkpt lat="46.60154" lon="5.41545">
        <ele>217.4</ele>
        <time>2022-06-28T13:15:57Z</time>
      </trkpt>
      <trkpt lat="46.60159" lon="5.41565">
        <ele>217.2</ele>
        <time>2022-06-28T13:15:59Z</time>
      </trkpt>
      <trkpt lat="46.60161" lon="5.41576">
        <ele>217</ele>
        <time>2022-06-28T13:16:00Z</time>
      </trkpt>
      <trkpt lat="46.60162" lon="5.41586">
        <ele>217</ele>
        <time>2022-06-28T13:16:01Z</time>
      </trkpt>
      <trkpt lat="46.60162" lon="5.41596">
        <ele>216.8</ele>
        <time>2022-06-28T13:16:02Z</time>
      </trkpt>
      <trkpt lat="46.60161" lon="5.41606">
        <ele>216.6</ele>
        <time>2022-06-28T13:16:03Z</time>
      </trkpt>
      <trkpt lat="46.60158" lon="5.41627">
        <ele>216.8</ele>
        <time>2022-06-28T13:16:05Z</time>
      </trkpt>
      <trkpt lat="46.60147" lon="5.41705">
        <ele>216.6</ele>
        <time>2022-06-28T13:16:12Z</time>
      </trkpt>
      <trkpt lat="46.60145" lon="5.41716">
        <ele>216.4</ele>
        <time>2022-06-28T13:16:13Z</time>
      </trkpt>
      <trkpt lat="46.6014" lon="5.41749">
        <ele>216.2</ele>
        <time>2022-06-28T13:16:16Z</time>
      </trkpt>
      <trkpt lat="46.60133" lon="5.4178">
        <ele>216</ele>
        <time>2022-06-28T13:16:19Z</time>
      </trkpt>
      <trkpt lat="46.6012" lon="5.41853">
        <ele>217</ele>
        <time>2022-06-28T13:16:27Z</time>
      </trkpt>
      <trkpt lat="46.60119" lon="5.41863">
        <ele>217.2</ele>
        <time>2022-06-28T13:16:28Z</time>
      </trkpt>
      <trkpt lat="46.60119" lon="5.41907">
        <ele>217.8</ele>
        <time>2022-06-28T13:16:33Z</time>
      </trkpt>
      <trkpt lat="46.60119" lon="5.41941">
        <ele>218.4</ele>
        <time>2022-06-28T13:16:37Z</time>
      </trkpt>
      <trkpt lat="46.60118" lon="5.41966">
        <ele>218.6</ele>
        <time>2022-06-28T13:16:40Z</time>
      </trkpt>
      <trkpt lat="46.60115" lon="5.41997">
        <ele>219.6</ele>
        <time>2022-06-28T13:16:44Z</time>
      </trkpt>
      <trkpt lat="46.60114" lon="5.42006">
        <ele>219.8</ele>
        <time>2022-06-28T13:16:45Z</time>
      </trkpt>
      <trkpt lat="46.60112" lon="5.42014">
        <ele>220.2</ele>
        <time>2022-06-28T13:16:46Z</time>
      </trkpt>
      <trkpt lat="46.60109" lon="5.42029">
        <ele>220.6</ele>
        <time>2022-06-28T13:16:48Z</time>
      </trkpt>
      <trkpt lat="46.60107" lon="5.42036">
        <ele>220.8</ele>
        <time>2022-06-28T13:16:49Z</time>
      </trkpt>
      <trkpt lat="46.60101" lon="5.42049">
        <ele>221</ele>
        <time>2022-06-28T13:16:51Z</time>
      </trkpt>
      <trkpt lat="46.6009" lon="5.42064">
        <ele>221.6</ele>
        <time>2022-06-28T13:16:54Z</time>
      </trkpt>
      <trkpt lat="46.60085" lon="5.42066">
        <ele>221.6</ele>
        <time>2022-06-28T13:16:55Z</time>
      </trkpt>
      <trkpt lat="46.6008" lon="5.42068">
        <ele>222.4</ele>
        <time>2022-06-28T13:16:56Z</time>
      </trkpt>
      <trkpt lat="46.60069" lon="5.42068">
        <ele>223</ele>
        <time>2022-06-28T13:16:58Z</time>
      </trkpt>
      <trkpt lat="46.60063" lon="5.42068">
        <ele>223.2</ele>
        <time>2022-06-28T13:16:59Z</time>
      </trkpt>
      <trkpt lat="46.60021" lon="5.42061">
        <ele>224</ele>
        <time>2022-06-28T13:17:06Z</time>
      </trkpt>
      <trkpt lat="46.60014" lon="5.42064">
        <ele>224</ele>
        <time>2022-06-28T13:17:07Z</time>
      </trkpt>
      <trkpt lat="46.60009" lon="5.42069">
        <ele>224</ele>
        <time>2022-06-28T13:17:08Z</time>
      </trkpt>
      <trkpt lat="46.60005" lon="5.42074">
        <ele>224.2</ele>
        <time>2022-06-28T13:17:09Z</time>
      </trkpt>
      <trkpt lat="46.6" lon="5.42081">
        <ele>224.2</ele>
        <time>2022-06-28T13:17:10Z</time>
      </trkpt>
      <trkpt lat="46.59989" lon="5.421">
        <ele>224.2</ele>
        <time>2022-06-28T13:17:13Z</time>
      </trkpt>
      <trkpt lat="46.59966" lon="5.42139">
        <ele>224</ele>
        <time>2022-06-28T13:17:19Z</time>
      </trkpt>
      <trkpt lat="46.59946" lon="5.42199">
        <ele>225</ele>
        <time>2022-06-28T13:17:27Z</time>
      </trkpt>
      <trkpt lat="46.59944" lon="5.42207">
        <ele>225.2</ele>
        <time>2022-06-28T13:17:28Z</time>
      </trkpt>
      <trkpt lat="46.59937" lon="5.42232">
        <ele>225.6</ele>
        <time>2022-06-28T13:17:31Z</time>
      </trkpt>
      <trkpt lat="46.59926" lon="5.42274">
        <ele>225.8</ele>
        <time>2022-06-28T13:17:36Z</time>
      </trkpt>
      <trkpt lat="46.59919" lon="5.42299">
        <ele>226.4</ele>
        <time>2022-06-28T13:17:39Z</time>
      </trkpt>
      <trkpt lat="46.59906" lon="5.42345">
        <ele>226.6</ele>
        <time>2022-06-28T13:17:45Z</time>
      </trkpt>
      <trkpt lat="46.59889" lon="5.4241">
        <ele>227</ele>
        <time>2022-06-28T13:17:54Z</time>
      </trkpt>
      <trkpt lat="46.59885" lon="5.42423">
        <ele>227.4</ele>
        <time>2022-06-28T13:17:56Z</time>
      </trkpt>
      <trkpt lat="46.59881" lon="5.42441">
        <ele>228.4</ele>
        <time>2022-06-28T13:17:59Z</time>
      </trkpt>
      <trkpt lat="46.5988" lon="5.42447">
        <ele>229</ele>
        <time>2022-06-28T13:18:00Z</time>
      </trkpt>
      <trkpt lat="46.59879" lon="5.42453">
        <ele>229.6</ele>
        <time>2022-06-28T13:18:01Z</time>
      </trkpt>
      <trkpt lat="46.59878" lon="5.42482">
        <ele>231</ele>
        <time>2022-06-28T13:18:05Z</time>
      </trkpt>
      <trkpt lat="46.59874" lon="5.42518">
        <ele>231.6</ele>
        <time>2022-06-28T13:18:10Z</time>
      </trkpt>
      <trkpt lat="46.59871" lon="5.42534">
        <ele>231.8</ele>
        <time>2022-06-28T13:18:12Z</time>
      </trkpt>
      <trkpt lat="46.59864" lon="5.42562">
        <ele>231.6</ele>
        <time>2022-06-28T13:18:15Z</time>
      </trkpt>
      <trkpt lat="46.59857" lon="5.4259">
        <ele>232</ele>
        <time>2022-06-28T13:18:18Z</time>
      </trkpt>
      <trkpt lat="46.5985" lon="5.42617">
        <ele>232.2</ele>
        <time>2022-06-28T13:18:21Z</time>
      </trkpt>
      <trkpt lat="46.59828" lon="5.42699">
        <ele>232.6</ele>
        <time>2022-06-28T13:18:29Z</time>
      </trkpt>
      <trkpt lat="46.59821" lon="5.42718">
        <ele>232.4</ele>
        <time>2022-06-28T13:18:31Z</time>
      </trkpt>
      <trkpt lat="46.59812" lon="5.42733">
        <ele>232.6</ele>
        <time>2022-06-28T13:18:33Z</time>
      </trkpt>
      <trkpt lat="46.59799" lon="5.42743">
        <ele>232.6</ele>
        <time>2022-06-28T13:18:35Z</time>
      </trkpt>
      <trkpt lat="46.59792" lon="5.42745">
        <ele>232.6</ele>
        <time>2022-06-28T13:18:36Z</time>
      </trkpt>
      <trkpt lat="46.59779" lon="5.42751">
        <ele>232.8</ele>
        <time>2022-06-28T13:18:38Z</time>
      </trkpt>
      <trkpt lat="46.59767" lon="5.42761">
        <ele>233</ele>
        <time>2022-06-28T13:18:40Z</time>
      </trkpt>
      <trkpt lat="46.59758" lon="5.42777">
        <ele>233</ele>
        <time>2022-06-28T13:18:42Z</time>
      </trkpt>
      <trkpt lat="46.59746" lon="5.42802">
        <ele>233.2</ele>
        <time>2022-06-28T13:18:45Z</time>
      </trkpt>
      <trkpt lat="46.59717" lon="5.42858">
        <ele>234</ele>
        <time>2022-06-28T13:18:52Z</time>
      </trkpt>
      <trkpt lat="46.59707" lon="5.42872">
        <ele>234</ele>
        <time>2022-06-28T13:18:54Z</time>
      </trkpt>
      <trkpt lat="46.59702" lon="5.42878">
        <ele>234</ele>
        <time>2022-06-28T13:18:55Z</time>
      </trkpt>
      <trkpt lat="46.59691" lon="5.42889">
        <ele>234.2</ele>
        <time>2022-06-28T13:18:57Z</time>
      </trkpt>
      <trkpt lat="46.59678" lon="5.42907">
        <ele>234.6</ele>
        <time>2022-06-28T13:19:00Z</time>
      </trkpt>
      <trkpt lat="46.59671" lon="5.4292">
        <ele>234.8</ele>
        <time>2022-06-28T13:19:02Z</time>
      </trkpt>
      <trkpt lat="46.59668" lon="5.42926">
        <ele>235.2</ele>
        <time>2022-06-28T13:19:03Z</time>
      </trkpt>
      <trkpt lat="46.59656" lon="5.42944">
        <ele>235.8</ele>
        <time>2022-06-28T13:19:06Z</time>
      </trkpt>
      <trkpt lat="46.59651" lon="5.42948">
        <ele>236</ele>
        <time>2022-06-28T13:19:07Z</time>
      </trkpt>
      <trkpt lat="46.59645" lon="5.4295">
        <ele>236.2</ele>
        <time>2022-06-28T13:19:08Z</time>
      </trkpt>
      <trkpt lat="46.59634" lon="5.42951">
        <ele>236.4</ele>
        <time>2022-06-28T13:19:10Z</time>
      </trkpt>
      <trkpt lat="46.59623" lon="5.42945">
        <ele>236.6</ele>
        <time>2022-06-28T13:19:12Z</time>
      </trkpt>
      <trkpt lat="46.59614" lon="5.42938">
        <ele>236.8</ele>
        <time>2022-06-28T13:19:14Z</time>
      </trkpt>
      <trkpt lat="46.59603" lon="5.42929">
        <ele>237.2</ele>
        <time>2022-06-28T13:19:16Z</time>
      </trkpt>
      <trkpt lat="46.59572" lon="5.42899">
        <ele>237.6</ele>
        <time>2022-06-28T13:19:21Z</time>
      </trkpt>
      <trkpt lat="46.59536" lon="5.42883">
        <ele>237.6</ele>
        <time>2022-06-28T13:19:26Z</time>
      </trkpt>
      <trkpt lat="46.59522" lon="5.4288">
        <ele>237.4</ele>
        <time>2022-06-28T13:19:28Z</time>
      </trkpt>
      <trkpt lat="46.59508" lon="5.42882">
        <ele>237.2</ele>
        <time>2022-06-28T13:19:30Z</time>
      </trkpt>
      <trkpt lat="46.59494" lon="5.42889">
        <ele>237</ele>
        <time>2022-06-28T13:19:32Z</time>
      </trkpt>
      <trkpt lat="46.59488" lon="5.42895">
        <ele>237</ele>
        <time>2022-06-28T13:19:33Z</time>
      </trkpt>
      <trkpt lat="46.59483" lon="5.42902">
        <ele>237</ele>
        <time>2022-06-28T13:19:34Z</time>
      </trkpt>
      <trkpt lat="46.59475" lon="5.42917">
        <ele>236.8</ele>
        <time>2022-06-28T13:19:36Z</time>
      </trkpt>
      <trkpt lat="46.5947" lon="5.42927">
        <ele>236.8</ele>
        <time>2022-06-28T13:19:37Z</time>
      </trkpt>
      <trkpt lat="46.59437" lon="5.42989">
        <ele>237.4</ele>
        <time>2022-06-28T13:19:45Z</time>
      </trkpt>
      <trkpt lat="46.59409" lon="5.43031">
        <ele>238.2</ele>
        <time>2022-06-28T13:19:51Z</time>
      </trkpt>
      <trkpt lat="46.59387" lon="5.43069">
        <ele>238.8</ele>
        <time>2022-06-28T13:19:56Z</time>
      </trkpt>
      <trkpt lat="46.59365" lon="5.43125">
        <ele>238.8</ele>
        <time>2022-06-28T13:20:02Z</time>
      </trkpt>
      <trkpt lat="46.59342" lon="5.4319">
        <ele>237.4</ele>
        <time>2022-06-28T13:20:08Z</time>
      </trkpt>
      <trkpt lat="46.59336" lon="5.4321">
        <ele>237</ele>
        <time>2022-06-28T13:20:10Z</time>
      </trkpt>
      <trkpt lat="46.59325" lon="5.43257">
        <ele>236.4</ele>
        <time>2022-06-28T13:20:14Z</time>
      </trkpt>
      <trkpt lat="46.59317" lon="5.43287">
        <ele>236.2</ele>
        <time>2022-06-28T13:20:17Z</time>
      </trkpt>
      <trkpt lat="46.59313" lon="5.43295">
        <ele>236.2</ele>
        <time>2022-06-28T13:20:18Z</time>
      </trkpt>
      <trkpt lat="46.59297" lon="5.43331">
        <ele>236.2</ele>
        <time>2022-06-28T13:20:23Z</time>
      </trkpt>
      <trkpt lat="46.59288" lon="5.43349">
        <ele>237</ele>
        <time>2022-06-28T13:20:26Z</time>
      </trkpt>
      <trkpt lat="46.59281" lon="5.43357">
        <ele>237.8</ele>
        <time>2022-06-28T13:20:28Z</time>
      </trkpt>
      <trkpt lat="46.5927" lon="5.43361">
        <ele>238.2</ele>
        <time>2022-06-28T13:20:30Z</time>
      </trkpt>
      <trkpt lat="46.59265" lon="5.43364">
        <ele>238.4</ele>
        <time>2022-06-28T13:20:31Z</time>
      </trkpt>
      <trkpt lat="46.59259" lon="5.43368">
        <ele>238.6</ele>
        <time>2022-06-28T13:20:32Z</time>
      </trkpt>
      <trkpt lat="46.59218" lon="5.43389">
        <ele>239.4</ele>
        <time>2022-06-28T13:20:38Z</time>
      </trkpt>
      <trkpt lat="46.59198" lon="5.43403">
        <ele>239.6</ele>
        <time>2022-06-28T13:20:41Z</time>
      </trkpt>
      <trkpt lat="46.59191" lon="5.43407">
        <ele>239.6</ele>
        <time>2022-06-28T13:20:42Z</time>
      </trkpt>
      <trkpt lat="46.59184" lon="5.43411">
        <ele>239.8</ele>
        <time>2022-06-28T13:20:43Z</time>
      </trkpt>
      <trkpt lat="46.59163" lon="5.43421">
        <ele>239.8</ele>
        <time>2022-06-28T13:20:46Z</time>
      </trkpt>
      <trkpt lat="46.59149" lon="5.43423">
        <ele>240.2</ele>
        <time>2022-06-28T13:20:48Z</time>
      </trkpt>
      <trkpt lat="46.59135" lon="5.43423">
        <ele>240.6</ele>
        <time>2022-06-28T13:20:50Z</time>
      </trkpt>
      <trkpt lat="46.59085" lon="5.43427">
        <ele>240.8</ele>
        <time>2022-06-28T13:20:57Z</time>
      </trkpt>
      <trkpt lat="46.59031" lon="5.43439">
        <ele>240.8</ele>
        <time>2022-06-28T13:21:05Z</time>
      </trkpt>
      <trkpt lat="46.59018" lon="5.43443">
        <ele>240.8</ele>
        <time>2022-06-28T13:21:07Z</time>
      </trkpt>
      <trkpt lat="46.58964" lon="5.4347">
        <ele>240.8</ele>
        <time>2022-06-28T13:21:15Z</time>
      </trkpt>
      <trkpt lat="46.58951" lon="5.4348">
        <ele>240.8</ele>
        <time>2022-06-28T13:21:17Z</time>
      </trkpt>
      <trkpt lat="46.58939" lon="5.43494">
        <ele>240.6</ele>
        <time>2022-06-28T13:21:19Z</time>
      </trkpt>
      <trkpt lat="46.58933" lon="5.43502">
        <ele>240.6</ele>
        <time>2022-06-28T13:21:20Z</time>
      </trkpt>
      <trkpt lat="46.58914" lon="5.43539">
        <ele>240.6</ele>
        <time>2022-06-28T13:21:24Z</time>
      </trkpt>
      <trkpt lat="46.58882" lon="5.43603">
        <ele>240.4</ele>
        <time>2022-06-28T13:21:31Z</time>
      </trkpt>
      <trkpt lat="46.58864" lon="5.43639">
        <ele>240.2</ele>
        <time>2022-06-28T13:21:35Z</time>
      </trkpt>
      <trkpt lat="46.58827" lon="5.43707">
        <ele>240.2</ele>
        <time>2022-06-28T13:21:43Z</time>
      </trkpt>
      <trkpt lat="46.58792" lon="5.43772">
        <ele>241</ele>
        <time>2022-06-28T13:21:51Z</time>
      </trkpt>
      <trkpt lat="46.58789" lon="5.43779">
        <ele>241</ele>
        <time>2022-06-28T13:21:52Z</time>
      </trkpt>
      <trkpt lat="46.58775" lon="5.43808">
        <ele>241.8</ele>
        <time>2022-06-28T13:21:56Z</time>
      </trkpt>
      <trkpt lat="46.58769" lon="5.43822">
        <ele>242.4</ele>
        <time>2022-06-28T13:21:58Z</time>
      </trkpt>
      <trkpt lat="46.58765" lon="5.43828">
        <ele>242.4</ele>
        <time>2022-06-28T13:21:59Z</time>
      </trkpt>
      <trkpt lat="46.58753" lon="5.43845">
        <ele>242.6</ele>
        <time>2022-06-28T13:22:02Z</time>
      </trkpt>
      <trkpt lat="46.58744" lon="5.43855">
        <ele>243.2</ele>
        <time>2022-06-28T13:22:04Z</time>
      </trkpt>
      <trkpt lat="46.58725" lon="5.43874">
        <ele>243.8</ele>
        <time>2022-06-28T13:22:08Z</time>
      </trkpt>
      <trkpt lat="46.5872" lon="5.43879">
        <ele>244.2</ele>
        <time>2022-06-28T13:22:09Z</time>
      </trkpt>
      <trkpt lat="46.58715" lon="5.43884">
        <ele>244.2</ele>
        <time>2022-06-28T13:22:10Z</time>
      </trkpt>
      <trkpt lat="46.58679" lon="5.4392">
        <ele>244.6</ele>
        <time>2022-06-28T13:22:17Z</time>
      </trkpt>
      <trkpt lat="46.58645" lon="5.43945">
        <ele>244.8</ele>
        <time>2022-06-28T13:22:23Z</time>
      </trkpt>
      <trkpt lat="46.58601" lon="5.43969">
        <ele>245</ele>
        <time>2022-06-28T13:22:30Z</time>
      </trkpt>
      <trkpt lat="46.58551" lon="5.43997">
        <ele>244</ele>
        <time>2022-06-28T13:22:37Z</time>
      </trkpt>
      <trkpt lat="46.58543" lon="5.44001">
        <ele>243.8</ele>
        <time>2022-06-28T13:22:38Z</time>
      </trkpt>
      <trkpt lat="46.58513" lon="5.44019">
        <ele>242.6</ele>
        <time>2022-06-28T13:22:42Z</time>
      </trkpt>
      <trkpt lat="46.58492" lon="5.44033">
        <ele>241.8</ele>
        <time>2022-06-28T13:22:45Z</time>
      </trkpt>
      <trkpt lat="46.58485" lon="5.44039">
        <ele>241.6</ele>
        <time>2022-06-28T13:22:46Z</time>
      </trkpt>
      <trkpt lat="46.58479" lon="5.44046">
        <ele>241.6</ele>
        <time>2022-06-28T13:22:47Z</time>
      </trkpt>
      <trkpt lat="46.58468" lon="5.44058">
        <ele>241</ele>
        <time>2022-06-28T13:22:49Z</time>
      </trkpt>
      <trkpt lat="46.58454" lon="5.4406">
        <ele>240.8</ele>
        <time>2022-06-28T13:22:51Z</time>
      </trkpt>
      <trkpt lat="46.58447" lon="5.44057">
        <ele>240.6</ele>
        <time>2022-06-28T13:22:52Z</time>
      </trkpt>
      <trkpt lat="46.58421" lon="5.44046">
        <ele>239.4</ele>
        <time>2022-06-28T13:22:56Z</time>
      </trkpt>
      <trkpt lat="46.58414" lon="5.44045">
        <ele>239.4</ele>
        <time>2022-06-28T13:22:57Z</time>
      </trkpt>
      <trkpt lat="46.5837" lon="5.44038">
        <ele>239.6</ele>
        <time>2022-06-28T13:23:03Z</time>
      </trkpt>
      <trkpt lat="46.58363" lon="5.44038">
        <ele>239.6</ele>
        <time>2022-06-28T13:23:04Z</time>
      </trkpt>
      <trkpt lat="46.58308" lon="5.44031">
        <ele>240.4</ele>
        <time>2022-06-28T13:23:12Z</time>
      </trkpt>
      <trkpt lat="46.58295" lon="5.4403">
        <ele>240.6</ele>
        <time>2022-06-28T13:23:14Z</time>
      </trkpt>
      <trkpt lat="46.58264" lon="5.44026">
        <ele>241</ele>
        <time>2022-06-28T13:23:19Z</time>
      </trkpt>
      <trkpt lat="46.58252" lon="5.44021">
        <ele>241.4</ele>
        <time>2022-06-28T13:23:21Z</time>
      </trkpt>
      <trkpt lat="46.58243" lon="5.4401">
        <ele>241.6</ele>
        <time>2022-06-28T13:23:23Z</time>
      </trkpt>
      <trkpt lat="46.58239" lon="5.44003">
        <ele>241.6</ele>
        <time>2022-06-28T13:23:24Z</time>
      </trkpt>
      <trkpt lat="46.58218" lon="5.43964">
        <ele>242.2</ele>
        <time>2022-06-28T13:23:29Z</time>
      </trkpt>
      <trkpt lat="46.58192" lon="5.43896">
        <ele>242.2</ele>
        <time>2022-06-28T13:23:36Z</time>
      </trkpt>
      <trkpt lat="46.58169" lon="5.43815">
        <ele>241.8</ele>
        <time>2022-06-28T13:23:44Z</time>
      </trkpt>
      <trkpt lat="46.58166" lon="5.43804">
        <ele>241.8</ele>
        <time>2022-06-28T13:23:45Z</time>
      </trkpt>
      <trkpt lat="46.5815" lon="5.43721">
        <ele>242</ele>
        <time>2022-06-28T13:23:53Z</time>
      </trkpt>
      <trkpt lat="46.58146" lon="5.43702">
        <ele>242</ele>
        <time>2022-06-28T13:23:55Z</time>
      </trkpt>
      <trkpt lat="46.58139" lon="5.43664">
        <ele>242.2</ele>
        <time>2022-06-28T13:23:59Z</time>
      </trkpt>
      <trkpt lat="46.58134" lon="5.43635">
        <ele>242.2</ele>
        <time>2022-06-28T13:24:02Z</time>
      </trkpt>
      <trkpt lat="46.58125" lon="5.4358">
        <ele>243</ele>
        <time>2022-06-28T13:24:08Z</time>
      </trkpt>
      <trkpt lat="46.5812" lon="5.43554">
        <ele>243.2</ele>
        <time>2022-06-28T13:24:11Z</time>
      </trkpt>
      <trkpt lat="46.5811" lon="5.43504">
        <ele>243.8</ele>
        <time>2022-06-28T13:24:17Z</time>
      </trkpt>
      <trkpt lat="46.58108" lon="5.43487">
        <ele>244</ele>
        <time>2022-06-28T13:24:19Z</time>
      </trkpt>
      <trkpt lat="46.58095" lon="5.43411">
        <ele>244.4</ele>
        <time>2022-06-28T13:24:27Z</time>
      </trkpt>
      <trkpt lat="46.58083" lon="5.43338">
        <ele>244.8</ele>
        <time>2022-06-28T13:24:35Z</time>
      </trkpt>
      <trkpt lat="46.58077" lon="5.43294">
        <ele>245.2</ele>
        <time>2022-06-28T13:24:40Z</time>
      </trkpt>
      <trkpt lat="46.58073" lon="5.43268">
        <ele>245.2</ele>
        <time>2022-06-28T13:24:43Z</time>
      </trkpt>
      <trkpt lat="46.5806" lon="5.43224">
        <ele>245.6</ele>
        <time>2022-06-28T13:24:48Z</time>
      </trkpt>
      <trkpt lat="46.58036" lon="5.43163">
        <ele>245.8</ele>
        <time>2022-06-28T13:24:55Z</time>
      </trkpt>
      <trkpt lat="46.58031" lon="5.43155">
        <ele>245.6</ele>
        <time>2022-06-28T13:24:56Z</time>
      </trkpt>
      <trkpt lat="46.58012" lon="5.4313">
        <ele>245.4</ele>
        <time>2022-06-28T13:25:00Z</time>
      </trkpt>
      <trkpt lat="46.57986" lon="5.43096">
        <ele>245.2</ele>
        <time>2022-06-28T13:25:05Z</time>
      </trkpt>
      <trkpt lat="46.57977" lon="5.43081">
        <ele>245.2</ele>
        <time>2022-06-28T13:25:07Z</time>
      </trkpt>
      <trkpt lat="46.57948" lon="5.43033">
        <ele>245.6</ele>
        <time>2022-06-28T13:25:14Z</time>
      </trkpt>
      <trkpt lat="46.57944" lon="5.43029">
        <ele>245.6</ele>
        <time>2022-06-28T13:25:15Z</time>
      </trkpt>
      <trkpt lat="46.5794" lon="5.43027">
        <ele>245.6</ele>
        <time>2022-06-28T13:25:16Z</time>
      </trkpt>
      <trkpt lat="46.57936" lon="5.43029">
        <ele>245.2</ele>
        <time>2022-06-28T13:25:18Z</time>
      </trkpt>
      <trkpt lat="46.57935" lon="5.43029">
        <ele>245</ele>
        <time>2022-06-28T13:25:21Z</time>
      </trkpt>
      <trkpt lat="46.57931" lon="5.43033">
        <ele>244.6</ele>
        <time>2022-06-28T13:25:30Z</time>
      </trkpt>
      <trkpt lat="46.5793" lon="5.4304">
        <ele>244.6</ele>
        <time>2022-06-28T13:25:32Z</time>
      </trkpt>
      <trkpt lat="46.57929" lon="5.43062">
        <ele>244.6</ele>
        <time>2022-06-28T13:25:36Z</time>
      </trkpt>
      <trkpt lat="46.57928" lon="5.43105">
        <ele>245.2</ele>
        <time>2022-06-28T13:25:42Z</time>
      </trkpt>
      <trkpt lat="46.57926" lon="5.43163">
        <ele>246.4</ele>
        <time>2022-06-28T13:25:49Z</time>
      </trkpt>
      <trkpt lat="46.57925" lon="5.43168">
        <ele>246.6</ele>
        <time>2022-06-28T13:25:50Z</time>
      </trkpt>
      <trkpt lat="46.57918" lon="5.43202">
        <ele>247.4</ele>
        <time>2022-06-28T13:25:55Z</time>
      </trkpt>
      <trkpt lat="46.57916" lon="5.43208">
        <ele>247.6</ele>
        <time>2022-06-28T13:25:56Z</time>
      </trkpt>
      <trkpt lat="46.57904" lon="5.43244">
        <ele>248.6</ele>
        <time>2022-06-28T13:26:02Z</time>
      </trkpt>
      <trkpt lat="46.57897" lon="5.43261">
        <ele>249</ele>
        <time>2022-06-28T13:26:05Z</time>
      </trkpt>
      <trkpt lat="46.5789" lon="5.43278">
        <ele>249.6</ele>
        <time>2022-06-28T13:26:08Z</time>
      </trkpt>
      <trkpt lat="46.57875" lon="5.43312">
        <ele>250.6</ele>
        <time>2022-06-28T13:26:14Z</time>
      </trkpt>
      <trkpt lat="46.57863" lon="5.4334">
        <ele>251.8</ele>
        <time>2022-06-28T13:26:19Z</time>
      </trkpt>
      <trkpt lat="46.57853" lon="5.43364">
        <ele>252.6</ele>
        <time>2022-06-28T13:26:23Z</time>
      </trkpt>
      <trkpt lat="46.57849" lon="5.43375">
        <ele>253</ele>
        <time>2022-06-28T13:26:25Z</time>
      </trkpt>
      <trkpt lat="46.57833" lon="5.4341">
        <ele>254</ele>
        <time>2022-06-28T13:26:31Z</time>
      </trkpt>
      <trkpt lat="46.57826" lon="5.43428">
        <ele>254.2</ele>
        <time>2022-06-28T13:26:34Z</time>
      </trkpt>
      <trkpt lat="46.57822" lon="5.4344">
        <ele>255.2</ele>
        <time>2022-06-28T13:26:36Z</time>
      </trkpt>
      <trkpt lat="46.57813" lon="5.4347">
        <ele>256.2</ele>
        <time>2022-06-28T13:26:41Z</time>
      </trkpt>
      <trkpt lat="46.5781" lon="5.43482">
        <ele>256.4</ele>
        <time>2022-06-28T13:26:43Z</time>
      </trkpt>
      <trkpt lat="46.57795" lon="5.43529">
        <ele>257.6</ele>
        <time>2022-06-28T13:26:51Z</time>
      </trkpt>
      <trkpt lat="46.57791" lon="5.43541">
        <ele>257.8</ele>
        <time>2022-06-28T13:26:53Z</time>
      </trkpt>
      <trkpt lat="46.57783" lon="5.43564">
        <ele>258.6</ele>
        <time>2022-06-28T13:26:57Z</time>
      </trkpt>
      <trkpt lat="46.57773" lon="5.43593">
        <ele>260</ele>
        <time>2022-06-28T13:27:02Z</time>
      </trkpt>
      <trkpt lat="46.57769" lon="5.43605">
        <ele>260.6</ele>
        <time>2022-06-28T13:27:04Z</time>
      </trkpt>
      <trkpt lat="46.57763" lon="5.43621">
        <ele>261</ele>
        <time>2022-06-28T13:27:07Z</time>
      </trkpt>
      <trkpt lat="46.57746" lon="5.4366">
        <ele>262</ele>
        <time>2022-06-28T13:27:14Z</time>
      </trkpt>
      <trkpt lat="46.57728" lon="5.43696">
        <ele>263.6</ele>
        <time>2022-06-28T13:27:21Z</time>
      </trkpt>
      <trkpt lat="46.57722" lon="5.43706">
        <ele>264</ele>
        <time>2022-06-28T13:27:23Z</time>
      </trkpt>
      <trkpt lat="46.57709" lon="5.43722">
        <ele>264.6</ele>
        <time>2022-06-28T13:27:27Z</time>
      </trkpt>
      <trkpt lat="46.57697" lon="5.43732">
        <ele>265.2</ele>
        <time>2022-06-28T13:27:30Z</time>
      </trkpt>
      <trkpt lat="46.57693" lon="5.43735">
        <ele>265.4</ele>
        <time>2022-06-28T13:27:31Z</time>
      </trkpt>
      <trkpt lat="46.57679" lon="5.43741">
        <ele>265.8</ele>
        <time>2022-06-28T13:27:34Z</time>
      </trkpt>
      <trkpt lat="46.57675" lon="5.43743">
        <ele>266</ele>
        <time>2022-06-28T13:27:35Z</time>
      </trkpt>
      <trkpt lat="46.57651" lon="5.4376">
        <ele>266.4</ele>
        <time>2022-06-28T13:27:40Z</time>
      </trkpt>
      <trkpt lat="46.57623" lon="5.43792">
        <ele>266.4</ele>
        <time>2022-06-28T13:27:46Z</time>
      </trkpt>
      <trkpt lat="46.57611" lon="5.43807">
        <ele>266.4</ele>
        <time>2022-06-28T13:27:49Z</time>
      </trkpt>
      <trkpt lat="46.57604" lon="5.43812">
        <ele>266.4</ele>
        <time>2022-06-28T13:27:51Z</time>
      </trkpt>
      <trkpt lat="46.57601" lon="5.43813">
        <ele>266.2</ele>
        <time>2022-06-28T13:27:53Z</time>
      </trkpt>
      <trkpt lat="46.576" lon="5.43812">
        <ele>266</ele>
        <time>2022-06-28T13:27:54Z</time>
      </trkpt>
      <trkpt lat="46.57595" lon="5.43811">
        <ele>265.8</ele>
        <time>2022-06-28T13:27:59Z</time>
      </trkpt>
      <trkpt lat="46.57593" lon="5.43808">
        <ele>265.8</ele>
        <time>2022-06-28T13:28:00Z</time>
      </trkpt>
      <trkpt lat="46.5758" lon="5.43794">
        <ele>265.8</ele>
        <time>2022-06-28T13:28:04Z</time>
      </trkpt>
      <trkpt lat="46.57576" lon="5.43789">
        <ele>265.8</ele>
        <time>2022-06-28T13:28:05Z</time>
      </trkpt>
      <trkpt lat="46.57566" lon="5.43786">
        <ele>266</ele>
        <time>2022-06-28T13:28:07Z</time>
      </trkpt>
      <trkpt lat="46.57557" lon="5.43791">
        <ele>266.2</ele>
        <time>2022-06-28T13:28:09Z</time>
      </trkpt>
      <trkpt lat="46.57548" lon="5.43798">
        <ele>266.4</ele>
        <time>2022-06-28T13:28:11Z</time>
      </trkpt>
      <trkpt lat="46.57545" lon="5.43801">
        <ele>266.8</ele>
        <time>2022-06-28T13:28:12Z</time>
      </trkpt>
      <trkpt lat="46.5754" lon="5.43805">
        <ele>267</ele>
        <time>2022-06-28T13:28:13Z</time>
      </trkpt>
      <trkpt lat="46.57521" lon="5.43823">
        <ele>267.8</ele>
        <time>2022-06-28T13:28:18Z</time>
      </trkpt>
      <trkpt lat="46.57505" lon="5.43837">
        <ele>268.8</ele>
        <time>2022-06-28T13:28:22Z</time>
      </trkpt>
      <trkpt lat="46.57501" lon="5.43839">
        <ele>269.2</ele>
        <time>2022-06-28T13:28:23Z</time>
      </trkpt>
      <trkpt lat="46.57498" lon="5.43839">
        <ele>269.4</ele>
        <time>2022-06-28T13:28:24Z</time>
      </trkpt>
      <trkpt lat="46.57493" lon="5.43839">
        <ele>269.6</ele>
        <time>2022-06-28T13:28:25Z</time>
      </trkpt>
      <trkpt lat="46.57482" lon="5.43839">
        <ele>270.4</ele>
        <time>2022-06-28T13:28:28Z</time>
      </trkpt>
      <trkpt lat="46.57477" lon="5.43839">
        <ele>270.6</ele>
        <time>2022-06-28T13:28:29Z</time>
      </trkpt>
      <trkpt lat="46.57473" lon="5.43839">
        <ele>271</ele>
        <time>2022-06-28T13:28:30Z</time>
      </trkpt>
      <trkpt lat="46.57466" lon="5.43839">
        <ele>271.6</ele>
        <time>2022-06-28T13:28:32Z</time>
      </trkpt>
      <trkpt lat="46.57451" lon="5.43837">
        <ele>272.6</ele>
        <time>2022-06-28T13:28:36Z</time>
      </trkpt>
      <trkpt lat="46.57432" lon="5.43833">
        <ele>273.8</ele>
        <time>2022-06-28T13:28:41Z</time>
      </trkpt>
      <trkpt lat="46.57406" lon="5.43834">
        <ele>275</ele>
        <time>2022-06-28T13:28:47Z</time>
      </trkpt>
      <trkpt lat="46.57402" lon="5.43835">
        <ele>275.2</ele>
        <time>2022-06-28T13:28:48Z</time>
      </trkpt>
      <trkpt lat="46.57397" lon="5.43836">
        <ele>275.4</ele>
        <time>2022-06-28T13:28:49Z</time>
      </trkpt>
      <trkpt lat="46.57379" lon="5.43843">
        <ele>275.8</ele>
        <time>2022-06-28T13:28:53Z</time>
      </trkpt>
      <trkpt lat="46.57374" lon="5.43844">
        <ele>276.2</ele>
        <time>2022-06-28T13:28:54Z</time>
      </trkpt>
      <trkpt lat="46.57354" lon="5.43847">
        <ele>276.4</ele>
        <time>2022-06-28T13:28:58Z</time>
      </trkpt>
      <trkpt lat="46.57345" lon="5.43845">
        <ele>276.6</ele>
        <time>2022-06-28T13:29:00Z</time>
      </trkpt>
      <trkpt lat="46.57335" lon="5.43843">
        <ele>276.8</ele>
        <time>2022-06-28T13:29:02Z</time>
      </trkpt>
      <trkpt lat="46.57326" lon="5.43841">
        <ele>277</ele>
        <time>2022-06-28T13:29:04Z</time>
      </trkpt>
      <trkpt lat="46.57316" lon="5.43839">
        <ele>277.2</ele>
        <time>2022-06-28T13:29:06Z</time>
      </trkpt>
      <trkpt lat="46.57302" lon="5.43838">
        <ele>277.8</ele>
        <time>2022-06-28T13:29:09Z</time>
      </trkpt>
      <trkpt lat="46.57289" lon="5.43838">
        <ele>278.4</ele>
        <time>2022-06-28T13:29:12Z</time>
      </trkpt>
      <trkpt lat="46.57274" lon="5.43838">
        <ele>278.8</ele>
        <time>2022-06-28T13:29:15Z</time>
      </trkpt>
      <trkpt lat="46.57267" lon="5.43832">
        <ele>279</ele>
        <time>2022-06-28T13:29:17Z</time>
      </trkpt>
      <trkpt lat="46.57261" lon="5.43824">
        <ele>279.4</ele>
        <time>2022-06-28T13:29:19Z</time>
      </trkpt>
      <trkpt lat="46.57255" lon="5.4381">
        <ele>279.8</ele>
        <time>2022-06-28T13:29:22Z</time>
      </trkpt>
      <trkpt lat="46.57244" lon="5.43799">
        <ele>280</ele>
        <time>2022-06-28T13:29:25Z</time>
      </trkpt>
      <trkpt lat="46.57238" lon="5.43791">
        <ele>280.4</ele>
        <time>2022-06-28T13:29:27Z</time>
      </trkpt>
      <trkpt lat="46.57235" lon="5.43787">
        <ele>280.6</ele>
        <time>2022-06-28T13:29:28Z</time>
      </trkpt>
      <trkpt lat="46.57217" lon="5.43772">
        <ele>281.2</ele>
        <time>2022-06-28T13:29:33Z</time>
      </trkpt>
      <trkpt lat="46.57212" lon="5.43771">
        <ele>281.2</ele>
        <time>2022-06-28T13:29:34Z</time>
      </trkpt>
      <trkpt lat="46.57208" lon="5.43772">
        <ele>281.4</ele>
        <time>2022-06-28T13:29:35Z</time>
      </trkpt>
      <trkpt lat="46.57204" lon="5.43775">
        <ele>281.4</ele>
        <time>2022-06-28T13:29:36Z</time>
      </trkpt>
      <trkpt lat="46.57202" lon="5.43781">
        <ele>281.6</ele>
        <time>2022-06-28T13:29:37Z</time>
      </trkpt>
      <trkpt lat="46.57198" lon="5.438">
        <ele>282</ele>
        <time>2022-06-28T13:29:40Z</time>
      </trkpt>
      <trkpt lat="46.57196" lon="5.43813">
        <ele>282.2</ele>
        <time>2022-06-28T13:29:42Z</time>
      </trkpt>
      <trkpt lat="46.57195" lon="5.4382">
        <ele>282.2</ele>
        <time>2022-06-28T13:29:43Z</time>
      </trkpt>
      <trkpt lat="46.57195" lon="5.43827">
        <ele>282.6</ele>
        <time>2022-06-28T13:29:44Z</time>
      </trkpt>
      <trkpt lat="46.57194" lon="5.43858">
        <ele>283.2</ele>
        <time>2022-06-28T13:29:48Z</time>
      </trkpt>
      <trkpt lat="46.57189" lon="5.43873">
        <ele>283.2</ele>
        <time>2022-06-28T13:29:50Z</time>
      </trkpt>
      <trkpt lat="46.57181" lon="5.43884">
        <ele>283.4</ele>
        <time>2022-06-28T13:29:52Z</time>
      </trkpt>
      <trkpt lat="46.57171" lon="5.43895">
        <ele>283.2</ele>
        <time>2022-06-28T13:29:54Z</time>
      </trkpt>
      <trkpt lat="46.57159" lon="5.43901">
        <ele>283.2</ele>
        <time>2022-06-28T13:29:56Z</time>
      </trkpt>
      <trkpt lat="46.57147" lon="5.43903">
        <ele>283</ele>
        <time>2022-06-28T13:29:58Z</time>
      </trkpt>
      <trkpt lat="46.57133" lon="5.43901">
        <ele>282.8</ele>
        <time>2022-06-28T13:30:00Z</time>
      </trkpt>
      <trkpt lat="46.57089" lon="5.43883">
        <ele>282</ele>
        <time>2022-06-28T13:30:07Z</time>
      </trkpt>
      <trkpt lat="46.57061" lon="5.43873">
        <ele>281.8</ele>
        <time>2022-06-28T13:30:12Z</time>
      </trkpt>
      <trkpt lat="46.57056" lon="5.43871">
        <ele>281.8</ele>
        <time>2022-06-28T13:30:13Z</time>
      </trkpt>
      <trkpt lat="46.57027" lon="5.43863">
        <ele>282.6</ele>
        <time>2022-06-28T13:30:19Z</time>
      </trkpt>
      <trkpt lat="46.57011" lon="5.4386">
        <ele>283.2</ele>
        <time>2022-06-28T13:30:23Z</time>
      </trkpt>
      <trkpt lat="46.57007" lon="5.4386">
        <ele>283.6</ele>
        <time>2022-06-28T13:30:24Z</time>
      </trkpt>
      <trkpt lat="46.56998" lon="5.43859">
        <ele>284.4</ele>
        <time>2022-06-28T13:30:26Z</time>
      </trkpt>
      <trkpt lat="46.5699" lon="5.43858">
        <ele>284.8</ele>
        <time>2022-06-28T13:30:28Z</time>
      </trkpt>
      <trkpt lat="46.56978" lon="5.43858">
        <ele>285.6</ele>
        <time>2022-06-28T13:30:31Z</time>
      </trkpt>
      <trkpt lat="46.5697" lon="5.43859">
        <ele>286.2</ele>
        <time>2022-06-28T13:30:33Z</time>
      </trkpt>
      <trkpt lat="46.5695" lon="5.4386">
        <ele>287.6</ele>
        <time>2022-06-28T13:30:38Z</time>
      </trkpt>
      <trkpt lat="46.56934" lon="5.43862">
        <ele>288.6</ele>
        <time>2022-06-28T13:30:42Z</time>
      </trkpt>
      <trkpt lat="46.56919" lon="5.43864">
        <ele>289.8</ele>
        <time>2022-06-28T13:30:46Z</time>
      </trkpt>
      <trkpt lat="46.56908" lon="5.43864">
        <ele>290.6</ele>
        <time>2022-06-28T13:30:49Z</time>
      </trkpt>
      <trkpt lat="46.56901" lon="5.43865">
        <ele>291</ele>
        <time>2022-06-28T13:30:51Z</time>
      </trkpt>
      <trkpt lat="46.56886" lon="5.43867">
        <ele>292.2</ele>
        <time>2022-06-28T13:30:55Z</time>
      </trkpt>
      <trkpt lat="46.56879" lon="5.43867">
        <ele>292.4</ele>
        <time>2022-06-28T13:30:57Z</time>
      </trkpt>
      <trkpt lat="46.56865" lon="5.43868">
        <ele>293.2</ele>
        <time>2022-06-28T13:31:01Z</time>
      </trkpt>
      <trkpt lat="46.56847" lon="5.4387">
        <ele>294.2</ele>
        <time>2022-06-28T13:31:06Z</time>
      </trkpt>
      <trkpt lat="46.56837" lon="5.43872">
        <ele>295</ele>
        <time>2022-06-28T13:31:09Z</time>
      </trkpt>
      <trkpt lat="46.5683" lon="5.43873">
        <ele>295.4</ele>
        <time>2022-06-28T13:31:11Z</time>
      </trkpt>
      <trkpt lat="46.56813" lon="5.43874">
        <ele>296.6</ele>
        <time>2022-06-28T13:31:16Z</time>
      </trkpt>
      <trkpt lat="46.56799" lon="5.43876">
        <ele>297.2</ele>
        <time>2022-06-28T13:31:20Z</time>
      </trkpt>
      <trkpt lat="46.56788" lon="5.43876">
        <ele>297.6</ele>
        <time>2022-06-28T13:31:23Z</time>
      </trkpt>
      <trkpt lat="46.5677" lon="5.43879">
        <ele>298.8</ele>
        <time>2022-06-28T13:31:28Z</time>
      </trkpt>
      <trkpt lat="46.56762" lon="5.43883">
        <ele>299.2</ele>
        <time>2022-06-28T13:31:30Z</time>
      </trkpt>
      <trkpt lat="46.56749" lon="5.43891">
        <ele>300</ele>
        <time>2022-06-28T13:31:34Z</time>
      </trkpt>
      <trkpt lat="46.56743" lon="5.43897">
        <ele>300.4</ele>
        <time>2022-06-28T13:31:36Z</time>
      </trkpt>
      <trkpt lat="46.56735" lon="5.43908">
        <ele>301.2</ele>
        <time>2022-06-28T13:31:39Z</time>
      </trkpt>
      <trkpt lat="46.56726" lon="5.43924">
        <ele>302.2</ele>
        <time>2022-06-28T13:31:43Z</time>
      </trkpt>
      <trkpt lat="46.56719" lon="5.43946">
        <ele>303.4</ele>
        <time>2022-06-28T13:31:48Z</time>
      </trkpt>
      <trkpt lat="46.56717" lon="5.43957">
        <ele>303.8</ele>
        <time>2022-06-28T13:31:50Z</time>
      </trkpt>
      <trkpt lat="46.56716" lon="5.43973">
        <ele>304.8</ele>
        <time>2022-06-28T13:31:53Z</time>
      </trkpt>
      <trkpt lat="46.56719" lon="5.4399">
        <ele>305.2</ele>
        <time>2022-06-28T13:31:56Z</time>
      </trkpt>
      <trkpt lat="46.56726" lon="5.44009">
        <ele>306</ele>
        <time>2022-06-28T13:32:00Z</time>
      </trkpt>
      <trkpt lat="46.5673" lon="5.44017">
        <ele>306.4</ele>
        <time>2022-06-28T13:32:02Z</time>
      </trkpt>
      <trkpt lat="46.56739" lon="5.44028">
        <ele>307</ele>
        <time>2022-06-28T13:32:05Z</time>
      </trkpt>
      <trkpt lat="46.56752" lon="5.44046">
        <ele>308</ele>
        <time>2022-06-28T13:32:10Z</time>
      </trkpt>
      <trkpt lat="46.56754" lon="5.4405">
        <ele>308.4</ele>
        <time>2022-06-28T13:32:11Z</time>
      </trkpt>
      <trkpt lat="46.56764" lon="5.44075">
        <ele>309.4</ele>
        <time>2022-06-28T13:32:17Z</time>
      </trkpt>
      <trkpt lat="46.56766" lon="5.44081">
        <ele>309.8</ele>
        <time>2022-06-28T13:32:18Z</time>
      </trkpt>
      <trkpt lat="46.5677" lon="5.44106">
        <ele>311</ele>
        <time>2022-06-28T13:32:23Z</time>
      </trkpt>
      <trkpt lat="46.56771" lon="5.44115">
        <ele>311.2</ele>
        <time>2022-06-28T13:32:25Z</time>
      </trkpt>
      <trkpt lat="46.56775" lon="5.44142">
        <ele>312.4</ele>
        <time>2022-06-28T13:32:30Z</time>
      </trkpt>
      <trkpt lat="46.56779" lon="5.44166">
        <ele>313.2</ele>
        <time>2022-06-28T13:32:35Z</time>
      </trkpt>
      <trkpt lat="46.5678" lon="5.44171">
        <ele>313.4</ele>
        <time>2022-06-28T13:32:36Z</time>
      </trkpt>
      <trkpt lat="46.56782" lon="5.44195">
        <ele>314.8</ele>
        <time>2022-06-28T13:32:41Z</time>
      </trkpt>
      <trkpt lat="46.56783" lon="5.44219">
        <ele>316</ele>
        <time>2022-06-28T13:32:46Z</time>
      </trkpt>
      <trkpt lat="46.56785" lon="5.44238">
        <ele>317</ele>
        <time>2022-06-28T13:32:50Z</time>
      </trkpt>
      <trkpt lat="46.56785" lon="5.44243">
        <ele>317.4</ele>
        <time>2022-06-28T13:32:51Z</time>
      </trkpt>
      <trkpt lat="46.56787" lon="5.44264">
        <ele>318.6</ele>
        <time>2022-06-28T13:32:56Z</time>
      </trkpt>
      <trkpt lat="46.56789" lon="5.44272">
        <ele>319.2</ele>
        <time>2022-06-28T13:32:58Z</time>
      </trkpt>
      <trkpt lat="46.56789" lon="5.44281">
        <ele>320</ele>
        <time>2022-06-28T13:33:00Z</time>
      </trkpt>
      <trkpt lat="46.56792" lon="5.44301">
        <ele>321</ele>
        <time>2022-06-28T13:33:05Z</time>
      </trkpt>
      <trkpt lat="46.56794" lon="5.44309">
        <ele>321.4</ele>
        <time>2022-06-28T13:33:07Z</time>
      </trkpt>
      <trkpt lat="46.56797" lon="5.44324">
        <ele>322.2</ele>
        <time>2022-06-28T13:33:11Z</time>
      </trkpt>
      <trkpt lat="46.568" lon="5.44336">
        <ele>323.4</ele>
        <time>2022-06-28T13:33:14Z</time>
      </trkpt>
      <trkpt lat="46.56803" lon="5.44345">
        <ele>323.8</ele>
        <time>2022-06-28T13:33:16Z</time>
      </trkpt>
      <trkpt lat="46.56807" lon="5.44367">
        <ele>324.6</ele>
        <time>2022-06-28T13:33:21Z</time>
      </trkpt>
      <trkpt lat="46.56807" lon="5.44372">
        <ele>324.8</ele>
        <time>2022-06-28T13:33:22Z</time>
      </trkpt>
      <trkpt lat="46.5681" lon="5.44388">
        <ele>325.8</ele>
        <time>2022-06-28T13:33:26Z</time>
      </trkpt>
      <trkpt lat="46.56813" lon="5.44398">
        <ele>326.2</ele>
        <time>2022-06-28T13:33:28Z</time>
      </trkpt>
      <trkpt lat="46.5682" lon="5.44419">
        <ele>327.2</ele>
        <time>2022-06-28T13:33:32Z</time>
      </trkpt>
      <trkpt lat="46.56821" lon="5.44423">
        <ele>327.4</ele>
        <time>2022-06-28T13:33:33Z</time>
      </trkpt>
      <trkpt lat="46.56837" lon="5.44452">
        <ele>328.2</ele>
        <time>2022-06-28T13:33:39Z</time>
      </trkpt>
      <trkpt lat="46.5684" lon="5.44456">
        <ele>328.2</ele>
        <time>2022-06-28T13:33:40Z</time>
      </trkpt>
      <trkpt lat="46.5686" lon="5.44493">
        <ele>329.4</ele>
        <time>2022-06-28T13:33:48Z</time>
      </trkpt>
      <trkpt lat="46.56884" lon="5.44533">
        <ele>330.2</ele>
        <time>2022-06-28T13:33:57Z</time>
      </trkpt>
      <trkpt lat="46.56887" lon="5.44536">
        <ele>330.6</ele>
        <time>2022-06-28T13:33:58Z</time>
      </trkpt>
      <trkpt lat="46.56904" lon="5.44555">
        <ele>331.6</ele>
        <time>2022-06-28T13:34:04Z</time>
      </trkpt>
      <trkpt lat="46.56919" lon="5.44576">
        <ele>332.8</ele>
        <time>2022-06-28T13:34:10Z</time>
      </trkpt>
      <trkpt lat="46.56921" lon="5.4458">
        <ele>332.8</ele>
        <time>2022-06-28T13:34:11Z</time>
      </trkpt>
      <trkpt lat="46.56932" lon="5.44597">
        <ele>334</ele>
        <time>2022-06-28T13:34:16Z</time>
      </trkpt>
      <trkpt lat="46.56941" lon="5.44612">
        <ele>335</ele>
        <time>2022-06-28T13:34:20Z</time>
      </trkpt>
      <trkpt lat="46.56943" lon="5.44615">
        <ele>335.2</ele>
        <time>2022-06-28T13:34:21Z</time>
      </trkpt>
      <trkpt lat="46.5696" lon="5.4464">
        <ele>336.6</ele>
        <time>2022-06-28T13:34:28Z</time>
      </trkpt>
      <trkpt lat="46.56979" lon="5.44669">
        <ele>337.6</ele>
        <time>2022-06-28T13:34:35Z</time>
      </trkpt>
      <trkpt lat="46.56987" lon="5.44681">
        <ele>337.8</ele>
        <time>2022-06-28T13:34:38Z</time>
      </trkpt>
      <trkpt lat="46.57" lon="5.44702">
        <ele>338.6</ele>
        <time>2022-06-28T13:34:44Z</time>
      </trkpt>
      <trkpt lat="46.57001" lon="5.44705">
        <ele>338.8</ele>
        <time>2022-06-28T13:34:45Z</time>
      </trkpt>
      <trkpt lat="46.57005" lon="5.44716">
        <ele>340</ele>
        <time>2022-06-28T13:34:49Z</time>
      </trkpt>
      <trkpt lat="46.57006" lon="5.44718">
        <ele>340.2</ele>
        <time>2022-06-28T13:34:50Z</time>
      </trkpt>
      <trkpt lat="46.5701" lon="5.4473">
        <ele>341</ele>
        <time>2022-06-28T13:34:54Z</time>
      </trkpt>
      <trkpt lat="46.57012" lon="5.44733">
        <ele>341.2</ele>
        <time>2022-06-28T13:34:55Z</time>
      </trkpt>
      <trkpt lat="46.5702" lon="5.44745">
        <ele>342</ele>
        <time>2022-06-28T13:34:58Z</time>
      </trkpt>
      <trkpt lat="46.57023" lon="5.44755">
        <ele>342.4</ele>
        <time>2022-06-28T13:35:00Z</time>
      </trkpt>
      <trkpt lat="46.57036" lon="5.4477">
        <ele>343.4</ele>
        <time>2022-06-28T13:35:03Z</time>
      </trkpt>
      <trkpt lat="46.57042" lon="5.44781">
        <ele>343.8</ele>
        <time>2022-06-28T13:35:05Z</time>
      </trkpt>
      <trkpt lat="46.5705" lon="5.44801">
        <ele>344.4</ele>
        <time>2022-06-28T13:35:09Z</time>
      </trkpt>
      <trkpt lat="46.57054" lon="5.44812">
        <ele>344.8</ele>
        <time>2022-06-28T13:35:11Z</time>
      </trkpt>
      <trkpt lat="46.57062" lon="5.44828">
        <ele>345.8</ele>
        <time>2022-06-28T13:35:14Z</time>
      </trkpt>
      <trkpt lat="46.5707" lon="5.44846">
        <ele>346.8</ele>
        <time>2022-06-28T13:35:18Z</time>
      </trkpt>
      <trkpt lat="46.57073" lon="5.44851">
        <ele>347</ele>
        <time>2022-06-28T13:35:19Z</time>
      </trkpt>
      <trkpt lat="46.57077" lon="5.44866">
        <ele>347.4</ele>
        <time>2022-06-28T13:35:22Z</time>
      </trkpt>
      <trkpt lat="46.57077" lon="5.4487">
        <ele>347.6</ele>
        <time>2022-06-28T13:35:23Z</time>
      </trkpt>
      <trkpt lat="46.57078" lon="5.44882">
        <ele>348</ele>
        <time>2022-06-28T13:35:25Z</time>
      </trkpt>
      <trkpt lat="46.57079" lon="5.44909">
        <ele>349</ele>
        <time>2022-06-28T13:35:30Z</time>
      </trkpt>
      <trkpt lat="46.57079" lon="5.44916">
        <ele>349.6</ele>
        <time>2022-06-28T13:35:31Z</time>
      </trkpt>
      <trkpt lat="46.5708" lon="5.44928">
        <ele>350.2</ele>
        <time>2022-06-28T13:35:33Z</time>
      </trkpt>
      <trkpt lat="46.57081" lon="5.44938">
        <ele>350.6</ele>
        <time>2022-06-28T13:35:35Z</time>
      </trkpt>
      <trkpt lat="46.57084" lon="5.44948">
        <ele>350.4</ele>
        <time>2022-06-28T13:35:37Z</time>
      </trkpt>
      <trkpt lat="46.57086" lon="5.44953">
        <ele>350.6</ele>
        <time>2022-06-28T13:35:38Z</time>
      </trkpt>
      <trkpt lat="46.57091" lon="5.44962">
        <ele>350.8</ele>
        <time>2022-06-28T13:35:40Z</time>
      </trkpt>
      <trkpt lat="46.57097" lon="5.4497">
        <ele>350.8</ele>
        <time>2022-06-28T13:35:42Z</time>
      </trkpt>
      <trkpt lat="46.57101" lon="5.44975">
        <ele>350.8</ele>
        <time>2022-06-28T13:35:43Z</time>
      </trkpt>
      <trkpt lat="46.57125" lon="5.45">
        <ele>351</ele>
        <time>2022-06-28T13:35:48Z</time>
      </trkpt>
      <trkpt lat="46.57135" lon="5.45012">
        <ele>351</ele>
        <time>2022-06-28T13:35:50Z</time>
      </trkpt>
      <trkpt lat="46.57142" lon="5.45023">
        <ele>351</ele>
        <time>2022-06-28T13:35:52Z</time>
      </trkpt>
      <trkpt lat="46.57146" lon="5.45028">
        <ele>351.2</ele>
        <time>2022-06-28T13:35:53Z</time>
      </trkpt>
      <trkpt lat="46.57152" lon="5.45034">
        <ele>351.2</ele>
        <time>2022-06-28T13:35:55Z</time>
      </trkpt>
      <trkpt lat="46.57156" lon="5.45035">
        <ele>351.4</ele>
        <time>2022-06-28T13:35:56Z</time>
      </trkpt>
      <trkpt lat="46.57166" lon="5.45035">
        <ele>351.4</ele>
        <time>2022-06-28T13:35:58Z</time>
      </trkpt>
      <trkpt lat="46.57176" lon="5.45032">
        <ele>351.6</ele>
        <time>2022-06-28T13:36:00Z</time>
      </trkpt>
      <trkpt lat="46.57196" lon="5.45014">
        <ele>351.8</ele>
        <time>2022-06-28T13:36:04Z</time>
      </trkpt>
      <trkpt lat="46.57226" lon="5.44987">
        <ele>351.8</ele>
        <time>2022-06-28T13:36:10Z</time>
      </trkpt>
      <trkpt lat="46.57262" lon="5.44953">
        <ele>351.2</ele>
        <time>2022-06-28T13:36:17Z</time>
      </trkpt>
      <trkpt lat="46.5729" lon="5.44937">
        <ele>351.4</ele>
        <time>2022-06-28T13:36:22Z</time>
      </trkpt>
      <trkpt lat="46.57295" lon="5.44936">
        <ele>351.4</ele>
        <time>2022-06-28T13:36:23Z</time>
      </trkpt>
      <trkpt lat="46.57328" lon="5.44933">
        <ele>351.6</ele>
        <time>2022-06-28T13:36:29Z</time>
      </trkpt>
      <trkpt lat="46.57334" lon="5.44935">
        <ele>351.6</ele>
        <time>2022-06-28T13:36:30Z</time>
      </trkpt>
      <trkpt lat="46.57339" lon="5.44938">
        <ele>351.6</ele>
        <time>2022-06-28T13:36:31Z</time>
      </trkpt>
      <trkpt lat="46.57348" lon="5.44947">
        <ele>351.6</ele>
        <time>2022-06-28T13:36:33Z</time>
      </trkpt>
      <trkpt lat="46.57351" lon="5.44952">
        <ele>351.8</ele>
        <time>2022-06-28T13:36:34Z</time>
      </trkpt>
      <trkpt lat="46.57355" lon="5.44958">
        <ele>352</ele>
        <time>2022-06-28T13:36:35Z</time>
      </trkpt>
      <trkpt lat="46.57357" lon="5.44965">
        <ele>352.2</ele>
        <time>2022-06-28T13:36:36Z</time>
      </trkpt>
      <trkpt lat="46.57362" lon="5.44979">
        <ele>352.4</ele>
        <time>2022-06-28T13:36:38Z</time>
      </trkpt>
      <trkpt lat="46.57363" lon="5.44986">
        <ele>352.4</ele>
        <time>2022-06-28T13:36:39Z</time>
      </trkpt>
      <trkpt lat="46.57366" lon="5.44999">
        <ele>352.8</ele>
        <time>2022-06-28T13:36:41Z</time>
      </trkpt>
      <trkpt lat="46.57367" lon="5.45022">
        <ele>353.2</ele>
        <time>2022-06-28T13:36:44Z</time>
      </trkpt>
      <trkpt lat="46.57368" lon="5.45038">
        <ele>353.6</ele>
        <time>2022-06-28T13:36:46Z</time>
      </trkpt>
      <trkpt lat="46.57366" lon="5.45054">
        <ele>353.8</ele>
        <time>2022-06-28T13:36:48Z</time>
      </trkpt>
      <trkpt lat="46.57364" lon="5.45061">
        <ele>354</ele>
        <time>2022-06-28T13:36:49Z</time>
      </trkpt>
      <trkpt lat="46.57362" lon="5.45068">
        <ele>354.2</ele>
        <time>2022-06-28T13:36:50Z</time>
      </trkpt>
      <trkpt lat="46.5735" lon="5.451">
        <ele>354.8</ele>
        <time>2022-06-28T13:36:55Z</time>
      </trkpt>
      <trkpt lat="46.57345" lon="5.45118">
        <ele>355.2</ele>
        <time>2022-06-28T13:36:58Z</time>
      </trkpt>
      <trkpt lat="46.57338" lon="5.45142">
        <ele>356.2</ele>
        <time>2022-06-28T13:37:02Z</time>
      </trkpt>
      <trkpt lat="46.57336" lon="5.45148">
        <ele>356.4</ele>
        <time>2022-06-28T13:37:03Z</time>
      </trkpt>
      <trkpt lat="46.57324" lon="5.45184">
        <ele>357.4</ele>
        <time>2022-06-28T13:37:09Z</time>
      </trkpt>
      <trkpt lat="46.57323" lon="5.4519">
        <ele>357.6</ele>
        <time>2022-06-28T13:37:10Z</time>
      </trkpt>
      <trkpt lat="46.57317" lon="5.45222">
        <ele>358.6</ele>
        <time>2022-06-28T13:37:15Z</time>
      </trkpt>
      <trkpt lat="46.57314" lon="5.4524">
        <ele>359</ele>
        <time>2022-06-28T13:37:18Z</time>
      </trkpt>
      <trkpt lat="46.57311" lon="5.45259">
        <ele>359.8</ele>
        <time>2022-06-28T13:37:21Z</time>
      </trkpt>
      <trkpt lat="46.57308" lon="5.4528">
        <ele>360.8</ele>
        <time>2022-06-28T13:37:25Z</time>
      </trkpt>
      <trkpt lat="46.57308" lon="5.45312">
        <ele>361.4</ele>
        <time>2022-06-28T13:37:30Z</time>
      </trkpt>
      <trkpt lat="46.5731" lon="5.45325">
        <ele>361.8</ele>
        <time>2022-06-28T13:37:32Z</time>
      </trkpt>
      <trkpt lat="46.57315" lon="5.45345">
        <ele>362.2</ele>
        <time>2022-06-28T13:37:35Z</time>
      </trkpt>
      <trkpt lat="46.57322" lon="5.45364">
        <ele>362.8</ele>
        <time>2022-06-28T13:37:38Z</time>
      </trkpt>
      <trkpt lat="46.57323" lon="5.4537">
        <ele>363</ele>
        <time>2022-06-28T13:37:39Z</time>
      </trkpt>
      <trkpt lat="46.57326" lon="5.45383">
        <ele>363.2</ele>
        <time>2022-06-28T13:37:41Z</time>
      </trkpt>
      <trkpt lat="46.5733" lon="5.45403">
        <ele>363.2</ele>
        <time>2022-06-28T13:37:44Z</time>
      </trkpt>
      <trkpt lat="46.57337" lon="5.45436">
        <ele>363.8</ele>
        <time>2022-06-28T13:37:49Z</time>
      </trkpt>
      <trkpt lat="46.57338" lon="5.45443">
        <ele>364</ele>
        <time>2022-06-28T13:37:50Z</time>
      </trkpt>
      <trkpt lat="46.57342" lon="5.45467">
        <ele>364.8</ele>
        <time>2022-06-28T13:37:54Z</time>
      </trkpt>
      <trkpt lat="46.57343" lon="5.45473">
        <ele>364.8</ele>
        <time>2022-06-28T13:37:55Z</time>
      </trkpt>
      <trkpt lat="46.57343" lon="5.45478">
        <ele>365</ele>
        <time>2022-06-28T13:37:56Z</time>
      </trkpt>
      <trkpt lat="46.57348" lon="5.45507">
        <ele>366.4</ele>
        <time>2022-06-28T13:38:01Z</time>
      </trkpt>
      <trkpt lat="46.57354" lon="5.45537">
        <ele>367.6</ele>
        <time>2022-06-28T13:38:06Z</time>
      </trkpt>
      <trkpt lat="46.57357" lon="5.45566">
        <ele>368.6</ele>
        <time>2022-06-28T13:38:11Z</time>
      </trkpt>
      <trkpt lat="46.57356" lon="5.45592">
        <ele>369.2</ele>
        <time>2022-06-28T13:38:15Z</time>
      </trkpt>
      <trkpt lat="46.57352" lon="5.45609">
        <ele>369.8</ele>
        <time>2022-06-28T13:38:18Z</time>
      </trkpt>
      <trkpt lat="46.57349" lon="5.45628">
        <ele>370</ele>
        <time>2022-06-28T13:38:21Z</time>
      </trkpt>
      <trkpt lat="46.57344" lon="5.45652">
        <ele>370.2</ele>
        <time>2022-06-28T13:38:25Z</time>
      </trkpt>
      <trkpt lat="46.57339" lon="5.45663">
        <ele>370.6</ele>
        <time>2022-06-28T13:38:27Z</time>
      </trkpt>
      <trkpt lat="46.57334" lon="5.45673">
        <ele>371</ele>
        <time>2022-06-28T13:38:29Z</time>
      </trkpt>
      <trkpt lat="46.57326" lon="5.45679">
        <ele>371.2</ele>
        <time>2022-06-28T13:38:31Z</time>
      </trkpt>
      <trkpt lat="46.57314" lon="5.45683">
        <ele>371.6</ele>
        <time>2022-06-28T13:38:34Z</time>
      </trkpt>
      <trkpt lat="46.57305" lon="5.45684">
        <ele>372</ele>
        <time>2022-06-28T13:38:36Z</time>
      </trkpt>
      <trkpt lat="46.57293" lon="5.45681">
        <ele>372.4</ele>
        <time>2022-06-28T13:38:39Z</time>
      </trkpt>
      <trkpt lat="46.57288" lon="5.45679">
        <ele>372.8</ele>
        <time>2022-06-28T13:38:40Z</time>
      </trkpt>
      <trkpt lat="46.5728" lon="5.45676">
        <ele>373.2</ele>
        <time>2022-06-28T13:38:42Z</time>
      </trkpt>
      <trkpt lat="46.57269" lon="5.45671">
        <ele>373.8</ele>
        <time>2022-06-28T13:38:45Z</time>
      </trkpt>
      <trkpt lat="46.57254" lon="5.45664">
        <ele>374.8</ele>
        <time>2022-06-28T13:38:49Z</time>
      </trkpt>
      <trkpt lat="46.5725" lon="5.45663">
        <ele>375.2</ele>
        <time>2022-06-28T13:38:50Z</time>
      </trkpt>
      <trkpt lat="46.57231" lon="5.45657">
        <ele>375.8</ele>
        <time>2022-06-28T13:38:55Z</time>
      </trkpt>
      <trkpt lat="46.57216" lon="5.45653">
        <ele>377</ele>
        <time>2022-06-28T13:38:59Z</time>
      </trkpt>
      <trkpt lat="46.57212" lon="5.45653">
        <ele>377.2</ele>
        <time>2022-06-28T13:39:00Z</time>
      </trkpt>
      <trkpt lat="46.57199" lon="5.45654">
        <ele>378.2</ele>
        <time>2022-06-28T13:39:03Z</time>
      </trkpt>
      <trkpt lat="46.57185" lon="5.45657">
        <ele>379.4</ele>
        <time>2022-06-28T13:39:06Z</time>
      </trkpt>
      <trkpt lat="46.57177" lon="5.4566">
        <ele>379.8</ele>
        <time>2022-06-28T13:39:08Z</time>
      </trkpt>
      <trkpt lat="46.57173" lon="5.45662">
        <ele>380</ele>
        <time>2022-06-28T13:39:09Z</time>
      </trkpt>
      <trkpt lat="46.57165" lon="5.45668">
        <ele>380.4</ele>
        <time>2022-06-28T13:39:11Z</time>
      </trkpt>
      <trkpt lat="46.57154" lon="5.45678">
        <ele>380.6</ele>
        <time>2022-06-28T13:39:14Z</time>
      </trkpt>
      <trkpt lat="46.57136" lon="5.45696">
        <ele>381.4</ele>
        <time>2022-06-28T13:39:20Z</time>
      </trkpt>
      <trkpt lat="46.57133" lon="5.45699">
        <ele>381.6</ele>
        <time>2022-06-28T13:39:21Z</time>
      </trkpt>
      <trkpt lat="46.57126" lon="5.45707">
        <ele>382.6</ele>
        <time>2022-06-28T13:39:24Z</time>
      </trkpt>
      <trkpt lat="46.57112" lon="5.45721">
        <ele>383.6</ele>
        <time>2022-06-28T13:39:29Z</time>
      </trkpt>
      <trkpt lat="46.57109" lon="5.45724">
        <ele>383.8</ele>
        <time>2022-06-28T13:39:30Z</time>
      </trkpt>
      <trkpt lat="46.57097" lon="5.45736">
        <ele>384.8</ele>
        <time>2022-06-28T13:39:34Z</time>
      </trkpt>
      <trkpt lat="46.5708" lon="5.45752">
        <ele>385.6</ele>
        <time>2022-06-28T13:39:39Z</time>
      </trkpt>
      <trkpt lat="46.57077" lon="5.45755">
        <ele>385.8</ele>
        <time>2022-06-28T13:39:40Z</time>
      </trkpt>
      <trkpt lat="46.57059" lon="5.45763">
        <ele>386.8</ele>
        <time>2022-06-28T13:39:45Z</time>
      </trkpt>
      <trkpt lat="46.57055" lon="5.45762">
        <ele>387</ele>
        <time>2022-06-28T13:39:46Z</time>
      </trkpt>
      <trkpt lat="46.57036" lon="5.45757">
        <ele>388</ele>
        <time>2022-06-28T13:39:51Z</time>
      </trkpt>
      <trkpt lat="46.57021" lon="5.45748">
        <ele>389.2</ele>
        <time>2022-06-28T13:39:55Z</time>
      </trkpt>
      <trkpt lat="46.57002" lon="5.45738">
        <ele>390</ele>
        <time>2022-06-28T13:40:00Z</time>
      </trkpt>
      <trkpt lat="46.56994" lon="5.45734">
        <ele>390.4</ele>
        <time>2022-06-28T13:40:02Z</time>
      </trkpt>
      <trkpt lat="46.56975" lon="5.45724">
        <ele>391</ele>
        <time>2022-06-28T13:40:07Z</time>
      </trkpt>
      <trkpt lat="46.56959" lon="5.45717">
        <ele>391.8</ele>
        <time>2022-06-28T13:40:11Z</time>
      </trkpt>
      <trkpt lat="46.56947" lon="5.4571">
        <ele>392.2</ele>
        <time>2022-06-28T13:40:14Z</time>
      </trkpt>
      <trkpt lat="46.56923" lon="5.45699">
        <ele>393.2</ele>
        <time>2022-06-28T13:40:20Z</time>
      </trkpt>
      <trkpt lat="46.56919" lon="5.45697">
        <ele>393.2</ele>
        <time>2022-06-28T13:40:21Z</time>
      </trkpt>
      <trkpt lat="46.56903" lon="5.45688">
        <ele>394</ele>
        <time>2022-06-28T13:40:25Z</time>
      </trkpt>
      <trkpt lat="46.56899" lon="5.45685">
        <ele>394</ele>
        <time>2022-06-28T13:40:26Z</time>
      </trkpt>
      <trkpt lat="46.56895" lon="5.45681">
        <ele>394.4</ele>
        <time>2022-06-28T13:40:27Z</time>
      </trkpt>
      <trkpt lat="46.56889" lon="5.45673">
        <ele>394.6</ele>
        <time>2022-06-28T13:40:29Z</time>
      </trkpt>
      <trkpt lat="46.56884" lon="5.45664">
        <ele>395.2</ele>
        <time>2022-06-28T13:40:31Z</time>
      </trkpt>
      <trkpt lat="46.56882" lon="5.45658">
        <ele>395.4</ele>
        <time>2022-06-28T13:40:32Z</time>
      </trkpt>
      <trkpt lat="46.56876" lon="5.45641">
        <ele>396</ele>
        <time>2022-06-28T13:40:35Z</time>
      </trkpt>
      <trkpt lat="46.56869" lon="5.45624">
        <ele>396.6</ele>
        <time>2022-06-28T13:40:38Z</time>
      </trkpt>
      <trkpt lat="46.56866" lon="5.45619">
        <ele>396.8</ele>
        <time>2022-06-28T13:40:39Z</time>
      </trkpt>
      <trkpt lat="46.5686" lon="5.45609">
        <ele>397.4</ele>
        <time>2022-06-28T13:40:41Z</time>
      </trkpt>
      <trkpt lat="46.56856" lon="5.45605">
        <ele>397.6</ele>
        <time>2022-06-28T13:40:42Z</time>
      </trkpt>
      <trkpt lat="46.56852" lon="5.45602">
        <ele>397.8</ele>
        <time>2022-06-28T13:40:43Z</time>
      </trkpt>
      <trkpt lat="46.56837" lon="5.4559">
        <ele>398.8</ele>
        <time>2022-06-28T13:40:47Z</time>
      </trkpt>
      <trkpt lat="46.56826" lon="5.45581">
        <ele>399.6</ele>
        <time>2022-06-28T13:40:50Z</time>
      </trkpt>
      <trkpt lat="46.56819" lon="5.45575">
        <ele>399.8</ele>
        <time>2022-06-28T13:40:52Z</time>
      </trkpt>
      <trkpt lat="46.56801" lon="5.45562">
        <ele>400.8</ele>
        <time>2022-06-28T13:40:57Z</time>
      </trkpt>
      <trkpt lat="46.56797" lon="5.4556">
        <ele>401</ele>
        <time>2022-06-28T13:40:58Z</time>
      </trkpt>
      <trkpt lat="46.56789" lon="5.45558">
        <ele>401.8</ele>
        <time>2022-06-28T13:41:00Z</time>
      </trkpt>
      <trkpt lat="46.56785" lon="5.45556">
        <ele>401.8</ele>
        <time>2022-06-28T13:41:01Z</time>
      </trkpt>
      <trkpt lat="46.56765" lon="5.45557">
        <ele>403.2</ele>
        <time>2022-06-28T13:41:06Z</time>
      </trkpt>
      <trkpt lat="46.56749" lon="5.45564">
        <ele>404.2</ele>
        <time>2022-06-28T13:41:10Z</time>
      </trkpt>
      <trkpt lat="46.56738" lon="5.45571">
        <ele>405.2</ele>
        <time>2022-06-28T13:41:13Z</time>
      </trkpt>
      <trkpt lat="46.56717" lon="5.45581">
        <ele>406.6</ele>
        <time>2022-06-28T13:41:18Z</time>
      </trkpt>
      <trkpt lat="46.5671" lon="5.45583">
        <ele>406.8</ele>
        <time>2022-06-28T13:41:20Z</time>
      </trkpt>
      <trkpt lat="46.56703" lon="5.45585">
        <ele>407.4</ele>
        <time>2022-06-28T13:41:22Z</time>
      </trkpt>
      <trkpt lat="46.56686" lon="5.45586">
        <ele>408.2</ele>
        <time>2022-06-28T13:41:26Z</time>
      </trkpt>
      <trkpt lat="46.56682" lon="5.45588">
        <ele>408.6</ele>
        <time>2022-06-28T13:41:27Z</time>
      </trkpt>
      <trkpt lat="46.56665" lon="5.45593">
        <ele>409.4</ele>
        <time>2022-06-28T13:41:31Z</time>
      </trkpt>
      <trkpt lat="46.56662" lon="5.45595">
        <ele>409.8</ele>
        <time>2022-06-28T13:41:32Z</time>
      </trkpt>
      <trkpt lat="46.56652" lon="5.456">
        <ele>410.2</ele>
        <time>2022-06-28T13:41:35Z</time>
      </trkpt>
      <trkpt lat="46.56639" lon="5.45613">
        <ele>410.8</ele>
        <time>2022-06-28T13:41:38Z</time>
      </trkpt>
      <trkpt lat="46.56624" lon="5.45629">
        <ele>411.6</ele>
        <time>2022-06-28T13:41:42Z</time>
      </trkpt>
      <trkpt lat="46.56619" lon="5.45634">
        <ele>411.8</ele>
        <time>2022-06-28T13:41:43Z</time>
      </trkpt>
      <trkpt lat="46.56605" lon="5.45643">
        <ele>412.6</ele>
        <time>2022-06-28T13:41:48Z</time>
      </trkpt>
      <trkpt lat="46.56601" lon="5.45645">
        <ele>412.8</ele>
        <time>2022-06-28T13:41:49Z</time>
      </trkpt>
      <trkpt lat="46.56576" lon="5.45655">
        <ele>414.2</ele>
        <time>2022-06-28T13:41:55Z</time>
      </trkpt>
      <trkpt lat="46.56555" lon="5.45654">
        <ele>415.2</ele>
        <time>2022-06-28T13:42:00Z</time>
      </trkpt>
      <trkpt lat="46.56536" lon="5.45649">
        <ele>416.4</ele>
        <time>2022-06-28T13:42:05Z</time>
      </trkpt>
      <trkpt lat="46.56528" lon="5.45648">
        <ele>416.6</ele>
        <time>2022-06-28T13:42:07Z</time>
      </trkpt>
      <trkpt lat="46.56512" lon="5.45658">
        <ele>417</ele>
        <time>2022-06-28T13:42:11Z</time>
      </trkpt>
      <trkpt lat="46.56509" lon="5.45662">
        <ele>417.4</ele>
        <time>2022-06-28T13:42:12Z</time>
      </trkpt>
      <trkpt lat="46.56503" lon="5.45683">
        <ele>418</ele>
        <time>2022-06-28T13:42:16Z</time>
      </trkpt>
      <trkpt lat="46.56503" lon="5.45689">
        <ele>418</ele>
        <time>2022-06-28T13:42:17Z</time>
      </trkpt>
      <trkpt lat="46.56505" lon="5.45699">
        <ele>418.2</ele>
        <time>2022-06-28T13:42:19Z</time>
      </trkpt>
      <trkpt lat="46.56506" lon="5.45705">
        <ele>418.4</ele>
        <time>2022-06-28T13:42:20Z</time>
      </trkpt>
      <trkpt lat="46.56509" lon="5.4571">
        <ele>418.6</ele>
        <time>2022-06-28T13:42:21Z</time>
      </trkpt>
      <trkpt lat="46.56512" lon="5.45721">
        <ele>418.8</ele>
        <time>2022-06-28T13:42:23Z</time>
      </trkpt>
      <trkpt lat="46.56514" lon="5.45726">
        <ele>419</ele>
        <time>2022-06-28T13:42:24Z</time>
      </trkpt>
      <trkpt lat="46.56517" lon="5.45731">
        <ele>419.2</ele>
        <time>2022-06-28T13:42:25Z</time>
      </trkpt>
      <trkpt lat="46.5652" lon="5.45737">
        <ele>419.4</ele>
        <time>2022-06-28T13:42:26Z</time>
      </trkpt>
      <trkpt lat="46.56522" lon="5.45742">
        <ele>419.6</ele>
        <time>2022-06-28T13:42:27Z</time>
      </trkpt>
      <trkpt lat="46.56523" lon="5.45748">
        <ele>419.8</ele>
        <time>2022-06-28T13:42:28Z</time>
      </trkpt>
      <trkpt lat="46.56535" lon="5.45779">
        <ele>420.4</ele>
        <time>2022-06-28T13:42:34Z</time>
      </trkpt>
      <trkpt lat="46.56537" lon="5.45783">
        <ele>420.6</ele>
        <time>2022-06-28T13:42:35Z</time>
      </trkpt>
      <trkpt lat="46.5656" lon="5.45807">
        <ele>421.6</ele>
        <time>2022-06-28T13:42:40Z</time>
      </trkpt>
      <trkpt lat="46.56565" lon="5.45811">
        <ele>421.8</ele>
        <time>2022-06-28T13:42:41Z</time>
      </trkpt>
      <trkpt lat="46.5657" lon="5.45813">
        <ele>422.2</ele>
        <time>2022-06-28T13:42:42Z</time>
      </trkpt>
      <trkpt lat="46.56579" lon="5.45818">
        <ele>422.6</ele>
        <time>2022-06-28T13:42:44Z</time>
      </trkpt>
      <trkpt lat="46.56592" lon="5.45822">
        <ele>423</ele>
        <time>2022-06-28T13:42:47Z</time>
      </trkpt>
      <trkpt lat="46.56601" lon="5.45825">
        <ele>423.6</ele>
        <time>2022-06-28T13:42:49Z</time>
      </trkpt>
      <trkpt lat="46.5662" lon="5.45836">
        <ele>424.6</ele>
        <time>2022-06-28T13:42:53Z</time>
      </trkpt>
      <trkpt lat="46.56625" lon="5.45838">
        <ele>424.6</ele>
        <time>2022-06-28T13:42:54Z</time>
      </trkpt>
      <trkpt lat="46.56638" lon="5.45847">
        <ele>425.8</ele>
        <time>2022-06-28T13:42:58Z</time>
      </trkpt>
      <trkpt lat="46.56651" lon="5.45859">
        <ele>427</ele>
        <time>2022-06-28T13:43:03Z</time>
      </trkpt>
      <trkpt lat="46.5666" lon="5.45866">
        <ele>427.6</ele>
        <time>2022-06-28T13:43:06Z</time>
      </trkpt>
      <trkpt lat="46.56668" lon="5.45874">
        <ele>428.2</ele>
        <time>2022-06-28T13:43:09Z</time>
      </trkpt>
      <trkpt lat="46.56683" lon="5.45886">
        <ele>428.8</ele>
        <time>2022-06-28T13:43:13Z</time>
      </trkpt>
      <trkpt lat="46.5669" lon="5.45893">
        <ele>429</ele>
        <time>2022-06-28T13:43:15Z</time>
      </trkpt>
      <trkpt lat="46.5671" lon="5.45911">
        <ele>430</ele>
        <time>2022-06-28T13:43:20Z</time>
      </trkpt>
      <trkpt lat="46.56716" lon="5.45915">
        <ele>430.4</ele>
        <time>2022-06-28T13:43:21Z</time>
      </trkpt>
      <trkpt lat="46.56735" lon="5.45936">
        <ele>431</ele>
        <time>2022-06-28T13:43:26Z</time>
      </trkpt>
      <trkpt lat="46.56748" lon="5.45953">
        <ele>431.8</ele>
        <time>2022-06-28T13:43:30Z</time>
      </trkpt>
      <trkpt lat="46.56751" lon="5.45957">
        <ele>432.2</ele>
        <time>2022-06-28T13:43:31Z</time>
      </trkpt>
      <trkpt lat="46.56766" lon="5.45978">
        <ele>433.2</ele>
        <time>2022-06-28T13:43:36Z</time>
      </trkpt>
      <trkpt lat="46.56773" lon="5.45986">
        <ele>433.8</ele>
        <time>2022-06-28T13:43:38Z</time>
      </trkpt>
      <trkpt lat="46.56786" lon="5.46003">
        <ele>434.2</ele>
        <time>2022-06-28T13:43:42Z</time>
      </trkpt>
      <trkpt lat="46.56801" lon="5.46024">
        <ele>435.4</ele>
        <time>2022-06-28T13:43:47Z</time>
      </trkpt>
      <trkpt lat="46.56808" lon="5.46034">
        <ele>435.8</ele>
        <time>2022-06-28T13:43:49Z</time>
      </trkpt>
      <trkpt lat="46.56817" lon="5.46047">
        <ele>436.2</ele>
        <time>2022-06-28T13:43:52Z</time>
      </trkpt>
      <trkpt lat="46.56823" lon="5.46058">
        <ele>436.6</ele>
        <time>2022-06-28T13:43:54Z</time>
      </trkpt>
      <trkpt lat="46.5683" lon="5.46072">
        <ele>437.2</ele>
        <time>2022-06-28T13:43:57Z</time>
      </trkpt>
      <trkpt lat="46.56832" lon="5.46077">
        <ele>437.6</ele>
        <time>2022-06-28T13:43:58Z</time>
      </trkpt>
      <trkpt lat="46.56839" lon="5.46093">
        <ele>438.8</ele>
        <time>2022-06-28T13:44:01Z</time>
      </trkpt>
      <trkpt lat="46.56846" lon="5.46115">
        <ele>439.4</ele>
        <time>2022-06-28T13:44:05Z</time>
      </trkpt>
      <trkpt lat="46.56853" lon="5.46132">
        <ele>440</ele>
        <time>2022-06-28T13:44:08Z</time>
      </trkpt>
      <trkpt lat="46.5686" lon="5.46148">
        <ele>440.8</ele>
        <time>2022-06-28T13:44:11Z</time>
      </trkpt>
      <trkpt lat="46.56862" lon="5.46153">
        <ele>440.8</ele>
        <time>2022-06-28T13:44:12Z</time>
      </trkpt>
      <trkpt lat="46.56869" lon="5.46165">
        <ele>441.4</ele>
        <time>2022-06-28T13:44:15Z</time>
      </trkpt>
      <trkpt lat="46.5688" lon="5.46181">
        <ele>442</ele>
        <time>2022-06-28T13:44:19Z</time>
      </trkpt>
      <trkpt lat="46.56892" lon="5.46195">
        <ele>443</ele>
        <time>2022-06-28T13:44:23Z</time>
      </trkpt>
      <trkpt lat="46.56904" lon="5.46211">
        <ele>443.8</ele>
        <time>2022-06-28T13:44:27Z</time>
      </trkpt>
      <trkpt lat="46.56906" lon="5.46216">
        <ele>444</ele>
        <time>2022-06-28T13:44:28Z</time>
      </trkpt>
      <trkpt lat="46.5691" lon="5.46229">
        <ele>445</ele>
        <time>2022-06-28T13:44:31Z</time>
      </trkpt>
      <trkpt lat="46.56914" lon="5.46238">
        <ele>445.4</ele>
        <time>2022-06-28T13:44:33Z</time>
      </trkpt>
      <trkpt lat="46.5692" lon="5.46251">
        <ele>446.2</ele>
        <time>2022-06-28T13:44:36Z</time>
      </trkpt>
      <trkpt lat="46.56924" lon="5.4626">
        <ele>446.4</ele>
        <time>2022-06-28T13:44:38Z</time>
      </trkpt>
      <trkpt lat="46.56934" lon="5.46279">
        <ele>447.2</ele>
        <time>2022-06-28T13:44:42Z</time>
      </trkpt>
      <trkpt lat="46.56942" lon="5.46293">
        <ele>447.6</ele>
        <time>2022-06-28T13:44:45Z</time>
      </trkpt>
      <trkpt lat="46.56949" lon="5.46301">
        <ele>447.8</ele>
        <time>2022-06-28T13:44:47Z</time>
      </trkpt>
      <trkpt lat="46.56958" lon="5.46316">
        <ele>448.6</ele>
        <time>2022-06-28T13:44:51Z</time>
      </trkpt>
      <trkpt lat="46.56966" lon="5.46324">
        <ele>449</ele>
        <time>2022-06-28T13:44:53Z</time>
      </trkpt>
      <trkpt lat="46.56977" lon="5.46339">
        <ele>449.6</ele>
        <time>2022-06-28T13:44:57Z</time>
      </trkpt>
      <trkpt lat="46.56981" lon="5.46349">
        <ele>450</ele>
        <time>2022-06-28T13:44:59Z</time>
      </trkpt>
      <trkpt lat="46.56988" lon="5.46364">
        <ele>451</ele>
        <time>2022-06-28T13:45:03Z</time>
      </trkpt>
      <trkpt lat="46.57001" lon="5.46382">
        <ele>451.4</ele>
        <time>2022-06-28T13:45:07Z</time>
      </trkpt>
      <trkpt lat="46.5701" lon="5.46396">
        <ele>452</ele>
        <time>2022-06-28T13:45:10Z</time>
      </trkpt>
      <trkpt lat="46.57022" lon="5.46416">
        <ele>452.6</ele>
        <time>2022-06-28T13:45:14Z</time>
      </trkpt>
      <trkpt lat="46.57024" lon="5.4642">
        <ele>453</ele>
        <time>2022-06-28T13:45:15Z</time>
      </trkpt>
      <trkpt lat="46.57032" lon="5.46443">
        <ele>453.6</ele>
        <time>2022-06-28T13:45:19Z</time>
      </trkpt>
      <trkpt lat="46.57035" lon="5.46456">
        <ele>454</ele>
        <time>2022-06-28T13:45:21Z</time>
      </trkpt>
      <trkpt lat="46.5704" lon="5.46487">
        <ele>455.4</ele>
        <time>2022-06-28T13:45:26Z</time>
      </trkpt>
      <trkpt lat="46.57041" lon="5.46493">
        <ele>455.8</ele>
        <time>2022-06-28T13:45:27Z</time>
      </trkpt>
      <trkpt lat="46.57042" lon="5.46503">
        <ele>456.2</ele>
        <time>2022-06-28T13:45:29Z</time>
      </trkpt>
      <trkpt lat="46.57043" lon="5.46539">
        <ele>457.2</ele>
        <time>2022-06-28T13:45:35Z</time>
      </trkpt>
      <trkpt lat="46.57043" lon="5.46545">
        <ele>457.4</ele>
        <time>2022-06-28T13:45:36Z</time>
      </trkpt>
      <trkpt lat="46.57051" lon="5.46581">
        <ele>458.4</ele>
        <time>2022-06-28T13:45:42Z</time>
      </trkpt>
      <trkpt lat="46.57062" lon="5.46602">
        <ele>459.4</ele>
        <time>2022-06-28T13:45:47Z</time>
      </trkpt>
      <trkpt lat="46.57079" lon="5.46621">
        <ele>460.6</ele>
        <time>2022-06-28T13:45:52Z</time>
      </trkpt>
      <trkpt lat="46.57097" lon="5.46641">
        <ele>461.8</ele>
        <time>2022-06-28T13:45:57Z</time>
      </trkpt>
      <trkpt lat="46.571" lon="5.46644">
        <ele>462</ele>
        <time>2022-06-28T13:45:58Z</time>
      </trkpt>
      <trkpt lat="46.57104" lon="5.46649">
        <ele>462.4</ele>
        <time>2022-06-28T13:45:59Z</time>
      </trkpt>
      <trkpt lat="46.57109" lon="5.46658">
        <ele>462.8</ele>
        <time>2022-06-28T13:46:01Z</time>
      </trkpt>
      <trkpt lat="46.57112" lon="5.46664">
        <ele>463</ele>
        <time>2022-06-28T13:46:02Z</time>
      </trkpt>
      <trkpt lat="46.57114" lon="5.4667">
        <ele>463</ele>
        <time>2022-06-28T13:46:03Z</time>
      </trkpt>
      <trkpt lat="46.57117" lon="5.4669">
        <ele>463.6</ele>
        <time>2022-06-28T13:46:06Z</time>
      </trkpt>
      <trkpt lat="46.57118" lon="5.46702">
        <ele>464.2</ele>
        <time>2022-06-28T13:46:08Z</time>
      </trkpt>
      <trkpt lat="46.57118" lon="5.46715">
        <ele>464.4</ele>
        <time>2022-06-28T13:46:10Z</time>
      </trkpt>
      <trkpt lat="46.57119" lon="5.46733">
        <ele>465.4</ele>
        <time>2022-06-28T13:46:13Z</time>
      </trkpt>
      <trkpt lat="46.57119" lon="5.46739">
        <ele>465.4</ele>
        <time>2022-06-28T13:46:14Z</time>
      </trkpt>
      <trkpt lat="46.57122" lon="5.4676">
        <ele>466.2</ele>
        <time>2022-06-28T13:46:17Z</time>
      </trkpt>
      <trkpt lat="46.57122" lon="5.46765">
        <ele>466.4</ele>
        <time>2022-06-28T13:46:18Z</time>
      </trkpt>
      <trkpt lat="46.57123" lon="5.46771">
        <ele>466.4</ele>
        <time>2022-06-28T13:46:19Z</time>
      </trkpt>
      <trkpt lat="46.57124" lon="5.4678">
        <ele>466.6</ele>
        <time>2022-06-28T13:46:20Z</time>
      </trkpt>
      <trkpt lat="46.57125" lon="5.46786">
        <ele>466.8</ele>
        <time>2022-06-28T13:46:21Z</time>
      </trkpt>
      <trkpt lat="46.57127" lon="5.46799">
        <ele>467.2</ele>
        <time>2022-06-28T13:46:23Z</time>
      </trkpt>
      <trkpt lat="46.57129" lon="5.46811">
        <ele>467.6</ele>
        <time>2022-06-28T13:46:25Z</time>
      </trkpt>
      <trkpt lat="46.57131" lon="5.4683">
        <ele>467.8</ele>
        <time>2022-06-28T13:46:28Z</time>
      </trkpt>
      <trkpt lat="46.57132" lon="5.46841">
        <ele>468.2</ele>
        <time>2022-06-28T13:46:30Z</time>
      </trkpt>
      <trkpt lat="46.57135" lon="5.46847">
        <ele>468.4</ele>
        <time>2022-06-28T13:46:31Z</time>
      </trkpt>
      <trkpt lat="46.57139" lon="5.46852">
        <ele>468.6</ele>
        <time>2022-06-28T13:46:32Z</time>
      </trkpt>
      <trkpt lat="46.57143" lon="5.46861">
        <ele>468.8</ele>
        <time>2022-06-28T13:46:34Z</time>
      </trkpt>
      <trkpt lat="46.5715" lon="5.4687">
        <ele>469.4</ele>
        <time>2022-06-28T13:46:36Z</time>
      </trkpt>
      <trkpt lat="46.57159" lon="5.4688">
        <ele>469.8</ele>
        <time>2022-06-28T13:46:38Z</time>
      </trkpt>
      <trkpt lat="46.57168" lon="5.46899">
        <ele>470.6</ele>
        <time>2022-06-28T13:46:42Z</time>
      </trkpt>
      <trkpt lat="46.57169" lon="5.46904">
        <ele>471.2</ele>
        <time>2022-06-28T13:46:43Z</time>
      </trkpt>
      <trkpt lat="46.57174" lon="5.46923">
        <ele>472.2</ele>
        <time>2022-06-28T13:46:47Z</time>
      </trkpt>
      <trkpt lat="46.57175" lon="5.46928">
        <ele>472.2</ele>
        <time>2022-06-28T13:46:48Z</time>
      </trkpt>
      <trkpt lat="46.57176" lon="5.4694">
        <ele>473.2</ele>
        <time>2022-06-28T13:46:51Z</time>
      </trkpt>
      <trkpt lat="46.57184" lon="5.46951">
        <ele>474.2</ele>
        <time>2022-06-28T13:46:53Z</time>
      </trkpt>
      <trkpt lat="46.57186" lon="5.46957">
        <ele>474.2</ele>
        <time>2022-06-28T13:46:54Z</time>
      </trkpt>
      <trkpt lat="46.572" lon="5.4698">
        <ele>475.4</ele>
        <time>2022-06-28T13:46:59Z</time>
      </trkpt>
      <trkpt lat="46.57202" lon="5.46985">
        <ele>475.6</ele>
        <time>2022-06-28T13:47:00Z</time>
      </trkpt>
      <trkpt lat="46.57213" lon="5.47">
        <ele>476.2</ele>
        <time>2022-06-28T13:47:03Z</time>
      </trkpt>
      <trkpt lat="46.57218" lon="5.47009">
        <ele>476.6</ele>
        <time>2022-06-28T13:47:05Z</time>
      </trkpt>
      <trkpt lat="46.57223" lon="5.4702">
        <ele>477.2</ele>
        <time>2022-06-28T13:47:08Z</time>
      </trkpt>
      <trkpt lat="46.57225" lon="5.47027">
        <ele>477.6</ele>
        <time>2022-06-28T13:47:10Z</time>
      </trkpt>
      <trkpt lat="46.57228" lon="5.47038">
        <ele>478.2</ele>
        <time>2022-06-28T13:47:13Z</time>
      </trkpt>
      <trkpt lat="46.57231" lon="5.47046">
        <ele>479.2</ele>
        <time>2022-06-28T13:47:16Z</time>
      </trkpt>
      <trkpt lat="46.57235" lon="5.47052">
        <ele>479.6</ele>
        <time>2022-06-28T13:47:18Z</time>
      </trkpt>
      <trkpt lat="46.5724" lon="5.47062">
        <ele>480.4</ele>
        <time>2022-06-28T13:47:22Z</time>
      </trkpt>
      <trkpt lat="46.57241" lon="5.47064">
        <ele>480.8</ele>
        <time>2022-06-28T13:47:23Z</time>
      </trkpt>
      <trkpt lat="46.57243" lon="5.47066">
        <ele>481.2</ele>
        <time>2022-06-28T13:47:25Z</time>
      </trkpt>
      <trkpt lat="46.57246" lon="5.47069">
        <ele>481.4</ele>
        <time>2022-06-28T13:47:26Z</time>
      </trkpt>
      <trkpt lat="46.57248" lon="5.47072">
        <ele>481.8</ele>
        <time>2022-06-28T13:47:27Z</time>
      </trkpt>
      <trkpt lat="46.57258" lon="5.47087">
        <ele>482.8</ele>
        <time>2022-06-28T13:47:32Z</time>
      </trkpt>
      <trkpt lat="46.57261" lon="5.4709">
        <ele>482.8</ele>
        <time>2022-06-28T13:47:33Z</time>
      </trkpt>
      <trkpt lat="46.57281" lon="5.47103">
        <ele>483.6</ele>
        <time>2022-06-28T13:47:37Z</time>
      </trkpt>
      <trkpt lat="46.57284" lon="5.47107">
        <ele>483.8</ele>
        <time>2022-06-28T13:47:38Z</time>
      </trkpt>
      <trkpt lat="46.57297" lon="5.47118">
        <ele>484.6</ele>
        <time>2022-06-28T13:47:41Z</time>
      </trkpt>
      <trkpt lat="46.57299" lon="5.4712">
        <ele>484.8</ele>
        <time>2022-06-28T13:47:42Z</time>
      </trkpt>
      <trkpt lat="46.57313" lon="5.47133">
        <ele>485.8</ele>
        <time>2022-06-28T13:47:46Z</time>
      </trkpt>
      <trkpt lat="46.57323" lon="5.47144">
        <ele>486.2</ele>
        <time>2022-06-28T13:47:49Z</time>
      </trkpt>
      <trkpt lat="46.57337" lon="5.47164">
        <ele>486.8</ele>
        <time>2022-06-28T13:47:54Z</time>
      </trkpt>
      <trkpt lat="46.5734" lon="5.47168">
        <ele>487.2</ele>
        <time>2022-06-28T13:47:55Z</time>
      </trkpt>
      <trkpt lat="46.57349" lon="5.4718">
        <ele>488.2</ele>
        <time>2022-06-28T13:47:58Z</time>
      </trkpt>
      <trkpt lat="46.57357" lon="5.47193">
        <ele>489.2</ele>
        <time>2022-06-28T13:48:01Z</time>
      </trkpt>
      <trkpt lat="46.5736" lon="5.47199">
        <ele>489.2</ele>
        <time>2022-06-28T13:48:02Z</time>
      </trkpt>
      <trkpt lat="46.5737" lon="5.47218">
        <ele>489.8</ele>
        <time>2022-06-28T13:48:06Z</time>
      </trkpt>
      <trkpt lat="46.57378" lon="5.47233">
        <ele>490.6</ele>
        <time>2022-06-28T13:48:09Z</time>
      </trkpt>
      <trkpt lat="46.57389" lon="5.47258">
        <ele>491.6</ele>
        <time>2022-06-28T13:48:14Z</time>
      </trkpt>
      <trkpt lat="46.5739" lon="5.47263">
        <ele>491.8</ele>
        <time>2022-06-28T13:48:15Z</time>
      </trkpt>
      <trkpt lat="46.57395" lon="5.47284">
        <ele>492.6</ele>
        <time>2022-06-28T13:48:19Z</time>
      </trkpt>
      <trkpt lat="46.57399" lon="5.47295">
        <ele>493.2</ele>
        <time>2022-06-28T13:48:21Z</time>
      </trkpt>
      <trkpt lat="46.57408" lon="5.47323">
        <ele>493.6</ele>
        <time>2022-06-28T13:48:25Z</time>
      </trkpt>
      <trkpt lat="46.57413" lon="5.47335">
        <ele>493.6</ele>
        <time>2022-06-28T13:48:27Z</time>
      </trkpt>
      <trkpt lat="46.57416" lon="5.47343">
        <ele>493.8</ele>
        <time>2022-06-28T13:48:28Z</time>
      </trkpt>
      <trkpt lat="46.57424" lon="5.4737">
        <ele>493.8</ele>
        <time>2022-06-28T13:48:31Z</time>
      </trkpt>
      <trkpt lat="46.57428" lon="5.47393">
        <ele>493.4</ele>
        <time>2022-06-28T13:48:34Z</time>
      </trkpt>
      <trkpt lat="46.57431" lon="5.47417">
        <ele>493.2</ele>
        <time>2022-06-28T13:48:37Z</time>
      </trkpt>
      <trkpt lat="46.57431" lon="5.4743">
        <ele>493.2</ele>
        <time>2022-06-28T13:48:39Z</time>
      </trkpt>
      <trkpt lat="46.5743" lon="5.4745">
        <ele>493.2</ele>
        <time>2022-06-28T13:48:41Z</time>
      </trkpt>
      <trkpt lat="46.57419" lon="5.47483">
        <ele>492.8</ele>
        <time>2022-06-28T13:48:44Z</time>
      </trkpt>
      <trkpt lat="46.57415" lon="5.47492">
        <ele>492.6</ele>
        <time>2022-06-28T13:48:45Z</time>
      </trkpt>
      <trkpt lat="46.5741" lon="5.47504">
        <ele>492</ele>
        <time>2022-06-28T13:48:46Z</time>
      </trkpt>
      <trkpt lat="46.574" lon="5.47542">
        <ele>490.6</ele>
        <time>2022-06-28T13:48:49Z</time>
      </trkpt>
      <trkpt lat="46.57398" lon="5.47555">
        <ele>490.2</ele>
        <time>2022-06-28T13:48:50Z</time>
      </trkpt>
      <trkpt lat="46.57396" lon="5.47572">
        <ele>489.4</ele>
        <time>2022-06-28T13:48:51Z</time>
      </trkpt>
      <trkpt lat="46.57394" lon="5.47599">
        <ele>489</ele>
        <time>2022-06-28T13:48:53Z</time>
      </trkpt>
      <trkpt lat="46.57389" lon="5.47638">
        <ele>488.2</ele>
        <time>2022-06-28T13:48:56Z</time>
      </trkpt>
      <trkpt lat="46.57385" lon="5.47654">
        <ele>487.8</ele>
        <time>2022-06-28T13:48:57Z</time>
      </trkpt>
      <trkpt lat="46.57382" lon="5.47664">
        <ele>487.4</ele>
        <time>2022-06-28T13:48:58Z</time>
      </trkpt>
      <trkpt lat="46.57373" lon="5.47691">
        <ele>487</ele>
        <time>2022-06-28T13:49:00Z</time>
      </trkpt>
      <trkpt lat="46.57364" lon="5.47718">
        <ele>486</ele>
        <time>2022-06-28T13:49:02Z</time>
      </trkpt>
      <trkpt lat="46.5736" lon="5.47732">
        <ele>485.6</ele>
        <time>2022-06-28T13:49:03Z</time>
      </trkpt>
      <trkpt lat="46.57355" lon="5.47745">
        <ele>484.2</ele>
        <time>2022-06-28T13:49:04Z</time>
      </trkpt>
      <trkpt lat="46.57334" lon="5.4778">
        <ele>483</ele>
        <time>2022-06-28T13:49:07Z</time>
      </trkpt>
      <trkpt lat="46.57321" lon="5.47795">
        <ele>482</ele>
        <time>2022-06-28T13:49:09Z</time>
      </trkpt>
      <trkpt lat="46.57315" lon="5.47806">
        <ele>481.8</ele>
        <time>2022-06-28T13:49:10Z</time>
      </trkpt>
      <trkpt lat="46.5731" lon="5.47818">
        <ele>480.6</ele>
        <time>2022-06-28T13:49:11Z</time>
      </trkpt>
      <trkpt lat="46.57306" lon="5.47832">
        <ele>479.4</ele>
        <time>2022-06-28T13:49:12Z</time>
      </trkpt>
      <trkpt lat="46.57304" lon="5.47846">
        <ele>479</ele>
        <time>2022-06-28T13:49:13Z</time>
      </trkpt>
      <trkpt lat="46.57305" lon="5.47863">
        <ele>478.2</ele>
        <time>2022-06-28T13:49:14Z</time>
      </trkpt>
      <trkpt lat="46.57311" lon="5.47888">
        <ele>477.4</ele>
        <time>2022-06-28T13:49:16Z</time>
      </trkpt>
      <trkpt lat="46.57312" lon="5.47895">
        <ele>477.2</ele>
        <time>2022-06-28T13:49:17Z</time>
      </trkpt>
      <trkpt lat="46.57319" lon="5.47903">
        <ele>476.6</ele>
        <time>2022-06-28T13:49:18Z</time>
      </trkpt>
      <trkpt lat="46.57327" lon="5.47911">
        <ele>476</ele>
        <time>2022-06-28T13:49:20Z</time>
      </trkpt>
      <trkpt lat="46.57338" lon="5.47918">
        <ele>475.6</ele>
        <time>2022-06-28T13:49:22Z</time>
      </trkpt>
      <trkpt lat="46.57366" lon="5.47936">
        <ele>475.2</ele>
        <time>2022-06-28T13:49:26Z</time>
      </trkpt>
      <trkpt lat="46.57372" lon="5.47941">
        <ele>475.2</ele>
        <time>2022-06-28T13:49:27Z</time>
      </trkpt>
      <trkpt lat="46.5738" lon="5.47945">
        <ele>475.2</ele>
        <time>2022-06-28T13:49:29Z</time>
      </trkpt>
      <trkpt lat="46.57399" lon="5.47953">
        <ele>475.4</ele>
        <time>2022-06-28T13:49:33Z</time>
      </trkpt>
      <trkpt lat="46.57404" lon="5.47955">
        <ele>475.6</ele>
        <time>2022-06-28T13:49:34Z</time>
      </trkpt>
      <trkpt lat="46.5741" lon="5.47957">
        <ele>475.6</ele>
        <time>2022-06-28T13:49:35Z</time>
      </trkpt>
      <trkpt lat="46.57419" lon="5.47965">
        <ele>476</ele>
        <time>2022-06-28T13:49:37Z</time>
      </trkpt>
      <trkpt lat="46.57421" lon="5.47967">
        <ele>476.2</ele>
        <time>2022-06-28T13:49:38Z</time>
      </trkpt>
      <trkpt lat="46.57442" lon="5.47987">
        <ele>476.6</ele>
        <time>2022-06-28T13:49:43Z</time>
      </trkpt>
      <trkpt lat="46.57485" lon="5.48018">
        <ele>476.4</ele>
        <time>2022-06-28T13:49:48Z</time>
      </trkpt>
      <trkpt lat="46.57501" lon="5.48036">
        <ele>476.4</ele>
        <time>2022-06-28T13:49:51Z</time>
      </trkpt>
      <trkpt lat="46.57508" lon="5.48047">
        <ele>476.6</ele>
        <time>2022-06-28T13:49:53Z</time>
      </trkpt>
      <trkpt lat="46.57533" lon="5.48074">
        <ele>477</ele>
        <time>2022-06-28T13:49:57Z</time>
      </trkpt>
      <trkpt lat="46.57548" lon="5.48098">
        <ele>477.8</ele>
        <time>2022-06-28T13:50:01Z</time>
      </trkpt>
      <trkpt lat="46.57553" lon="5.48103">
        <ele>478</ele>
        <time>2022-06-28T13:50:02Z</time>
      </trkpt>
      <trkpt lat="46.57582" lon="5.48135">
        <ele>478.6</ele>
        <time>2022-06-28T13:50:07Z</time>
      </trkpt>
      <trkpt lat="46.57599" lon="5.48156">
        <ele>478.6</ele>
        <time>2022-06-28T13:50:11Z</time>
      </trkpt>
      <trkpt lat="46.5761" lon="5.48169">
        <ele>479</ele>
        <time>2022-06-28T13:50:13Z</time>
      </trkpt>
      <trkpt lat="46.5763" lon="5.48193">
        <ele>479</ele>
        <time>2022-06-28T13:50:17Z</time>
      </trkpt>
      <trkpt lat="46.57639" lon="5.48207">
        <ele>479.2</ele>
        <time>2022-06-28T13:50:19Z</time>
      </trkpt>
      <trkpt lat="46.57642" lon="5.48212">
        <ele>479.2</ele>
        <time>2022-06-28T13:50:20Z</time>
      </trkpt>
      <trkpt lat="46.57663" lon="5.48252">
        <ele>479.8</ele>
        <time>2022-06-28T13:50:26Z</time>
      </trkpt>
      <trkpt lat="46.57666" lon="5.48258">
        <ele>479.8</ele>
        <time>2022-06-28T13:50:27Z</time>
      </trkpt>
      <trkpt lat="46.5767" lon="5.48265">
        <ele>480</ele>
        <time>2022-06-28T13:50:28Z</time>
      </trkpt>
      <trkpt lat="46.57688" lon="5.48293">
        <ele>480.4</ele>
        <time>2022-06-28T13:50:32Z</time>
      </trkpt>
      <trkpt lat="46.57718" lon="5.48343">
        <ele>481</ele>
        <time>2022-06-28T13:50:40Z</time>
      </trkpt>
      <trkpt lat="46.5773" lon="5.48367">
        <ele>481.4</ele>
        <time>2022-06-28T13:50:45Z</time>
      </trkpt>
      <trkpt lat="46.57735" lon="5.48376">
        <ele>482.2</ele>
        <time>2022-06-28T13:50:47Z</time>
      </trkpt>
      <trkpt lat="46.5774" lon="5.48385">
        <ele>482.8</ele>
        <time>2022-06-28T13:50:49Z</time>
      </trkpt>
      <trkpt lat="46.57754" lon="5.48406">
        <ele>483.4</ele>
        <time>2022-06-28T13:50:54Z</time>
      </trkpt>
      <trkpt lat="46.5777" lon="5.48427">
        <ele>484.8</ele>
        <time>2022-06-28T13:50:59Z</time>
      </trkpt>
      <trkpt lat="46.57791" lon="5.48448">
        <ele>485.8</ele>
        <time>2022-06-28T13:51:05Z</time>
      </trkpt>
      <trkpt lat="46.57794" lon="5.48451">
        <ele>485.8</ele>
        <time>2022-06-28T13:51:06Z</time>
      </trkpt>
      <trkpt lat="46.57804" lon="5.48464">
        <ele>487</ele>
        <time>2022-06-28T13:51:10Z</time>
      </trkpt>
      <trkpt lat="46.57807" lon="5.48467">
        <ele>487.2</ele>
        <time>2022-06-28T13:51:11Z</time>
      </trkpt>
      <trkpt lat="46.57818" lon="5.4848">
        <ele>488.2</ele>
        <time>2022-06-28T13:51:15Z</time>
      </trkpt>
      <trkpt lat="46.57824" lon="5.48487">
        <ele>489</ele>
        <time>2022-06-28T13:51:18Z</time>
      </trkpt>
      <trkpt lat="46.57826" lon="5.48489">
        <ele>489.4</ele>
        <time>2022-06-28T13:51:19Z</time>
      </trkpt>
      <trkpt lat="46.57832" lon="5.48497">
        <ele>490</ele>
        <time>2022-06-28T13:51:22Z</time>
      </trkpt>
      <trkpt lat="46.57837" lon="5.48503">
        <ele>490.4</ele>
        <time>2022-06-28T13:51:24Z</time>
      </trkpt>
      <trkpt lat="46.57852" lon="5.48522">
        <ele>491</ele>
        <time>2022-06-28T13:51:29Z</time>
      </trkpt>
      <trkpt lat="46.57858" lon="5.48529">
        <ele>491.8</ele>
        <time>2022-06-28T13:51:31Z</time>
      </trkpt>
      <trkpt lat="46.57869" lon="5.48545">
        <ele>492.2</ele>
        <time>2022-06-28T13:51:34Z</time>
      </trkpt>
      <trkpt lat="46.57876" lon="5.48553">
        <ele>492.8</ele>
        <time>2022-06-28T13:51:36Z</time>
      </trkpt>
      <trkpt lat="46.57878" lon="5.48558">
        <ele>493</ele>
        <time>2022-06-28T13:51:37Z</time>
      </trkpt>
      <trkpt lat="46.57889" lon="5.48574">
        <ele>493.4</ele>
        <time>2022-06-28T13:51:41Z</time>
      </trkpt>
      <trkpt lat="46.57892" lon="5.48578">
        <ele>493.8</ele>
        <time>2022-06-28T13:51:42Z</time>
      </trkpt>
      <trkpt lat="46.57904" lon="5.48593">
        <ele>494.4</ele>
        <time>2022-06-28T13:51:46Z</time>
      </trkpt>
      <trkpt lat="46.57912" lon="5.486">
        <ele>494.8</ele>
        <time>2022-06-28T13:51:48Z</time>
      </trkpt>
      <trkpt lat="46.57923" lon="5.4861">
        <ele>495.6</ele>
        <time>2022-06-28T13:51:51Z</time>
      </trkpt>
      <trkpt lat="46.57931" lon="5.48617">
        <ele>496</ele>
        <time>2022-06-28T13:51:53Z</time>
      </trkpt>
      <trkpt lat="46.57944" lon="5.48631">
        <ele>496.8</ele>
        <time>2022-06-28T13:51:57Z</time>
      </trkpt>
      <trkpt lat="46.57946" lon="5.48634">
        <ele>497</ele>
        <time>2022-06-28T13:51:58Z</time>
      </trkpt>
      <trkpt lat="46.5796" lon="5.48647">
        <ele>497.8</ele>
        <time>2022-06-28T13:52:02Z</time>
      </trkpt>
      <trkpt lat="46.57964" lon="5.4865">
        <ele>498</ele>
        <time>2022-06-28T13:52:03Z</time>
      </trkpt>
      <trkpt lat="46.57975" lon="5.48658">
        <ele>499</ele>
        <time>2022-06-28T13:52:07Z</time>
      </trkpt>
      <trkpt lat="46.57976" lon="5.4866">
        <ele>499.2</ele>
        <time>2022-06-28T13:52:08Z</time>
      </trkpt>
      <trkpt lat="46.57987" lon="5.48672">
        <ele>500.2</ele>
        <time>2022-06-28T13:52:13Z</time>
      </trkpt>
      <trkpt lat="46.57994" lon="5.48679">
        <ele>501.4</ele>
        <time>2022-06-28T13:52:17Z</time>
      </trkpt>
      <trkpt lat="46.58006" lon="5.48693">
        <ele>502.4</ele>
        <time>2022-06-28T13:52:21Z</time>
      </trkpt>
      <trkpt lat="46.58012" lon="5.48699">
        <ele>503</ele>
        <time>2022-06-28T13:52:24Z</time>
      </trkpt>
      <trkpt lat="46.58014" lon="5.48701">
        <ele>503.2</ele>
        <time>2022-06-28T13:52:25Z</time>
      </trkpt>
      <trkpt lat="46.58016" lon="5.48703">
        <ele>503.6</ele>
        <time>2022-06-28T13:52:26Z</time>
      </trkpt>
      <trkpt lat="46.58048" lon="5.4872">
        <ele>504.8</ele>
        <time>2022-06-28T13:52:31Z</time>
      </trkpt>
      <trkpt lat="46.58053" lon="5.48723">
        <ele>504.8</ele>
        <time>2022-06-28T13:52:32Z</time>
      </trkpt>
      <trkpt lat="46.5808" lon="5.48738">
        <ele>506</ele>
        <time>2022-06-28T13:52:37Z</time>
      </trkpt>
      <trkpt lat="46.5809" lon="5.48748">
        <ele>507</ele>
        <time>2022-06-28T13:52:40Z</time>
      </trkpt>
      <trkpt lat="46.58098" lon="5.48753">
        <ele>507.6</ele>
        <time>2022-06-28T13:52:42Z</time>
      </trkpt>
      <trkpt lat="46.58113" lon="5.48761">
        <ele>508.4</ele>
        <time>2022-06-28T13:52:46Z</time>
      </trkpt>
      <trkpt lat="46.58116" lon="5.48763">
        <ele>508.6</ele>
        <time>2022-06-28T13:52:47Z</time>
      </trkpt>
      <trkpt lat="46.58125" lon="5.48772">
        <ele>509.2</ele>
        <time>2022-06-28T13:52:51Z</time>
      </trkpt>
      <trkpt lat="46.58129" lon="5.48777">
        <ele>509.8</ele>
        <time>2022-06-28T13:52:53Z</time>
      </trkpt>
      <trkpt lat="46.58142" lon="5.48787">
        <ele>510.6</ele>
        <time>2022-06-28T13:52:56Z</time>
      </trkpt>
      <trkpt lat="46.58156" lon="5.48798">
        <ele>511</ele>
        <time>2022-06-28T13:52:59Z</time>
      </trkpt>
      <trkpt lat="46.58164" lon="5.48803">
        <ele>511.6</ele>
        <time>2022-06-28T13:53:01Z</time>
      </trkpt>
      <trkpt lat="46.58179" lon="5.48815">
        <ele>512.4</ele>
        <time>2022-06-28T13:53:04Z</time>
      </trkpt>
      <trkpt lat="46.58191" lon="5.48821">
        <ele>512.6</ele>
        <time>2022-06-28T13:53:06Z</time>
      </trkpt>
      <trkpt lat="46.58211" lon="5.48836">
        <ele>513</ele>
        <time>2022-06-28T13:53:10Z</time>
      </trkpt>
      <trkpt lat="46.58228" lon="5.48851">
        <ele>513.6</ele>
        <time>2022-06-28T13:53:13Z</time>
      </trkpt>
      <trkpt lat="46.5823" lon="5.48855">
        <ele>513.8</ele>
        <time>2022-06-28T13:53:14Z</time>
      </trkpt>
      <trkpt lat="46.58233" lon="5.48862">
        <ele>514</ele>
        <time>2022-06-28T13:53:15Z</time>
      </trkpt>
      <trkpt lat="46.58232" lon="5.48876">
        <ele>514.2</ele>
        <time>2022-06-28T13:53:17Z</time>
      </trkpt>
      <trkpt lat="46.5823" lon="5.48881">
        <ele>514.2</ele>
        <time>2022-06-28T13:53:18Z</time>
      </trkpt>
      <trkpt lat="46.58226" lon="5.48885">
        <ele>514.2</ele>
        <time>2022-06-28T13:53:19Z</time>
      </trkpt>
      <trkpt lat="46.58218" lon="5.48888">
        <ele>514.4</ele>
        <time>2022-06-28T13:53:21Z</time>
      </trkpt>
      <trkpt lat="46.58214" lon="5.48888">
        <ele>514.4</ele>
        <time>2022-06-28T13:53:22Z</time>
      </trkpt>
      <trkpt lat="46.58212" lon="5.48886">
        <ele>514.6</ele>
        <time>2022-06-28T13:53:23Z</time>
      </trkpt>
      <trkpt lat="46.58207" lon="5.48876">
        <ele>514.8</ele>
        <time>2022-06-28T13:53:25Z</time>
      </trkpt>
      <trkpt lat="46.58205" lon="5.48871">
        <ele>515</ele>
        <time>2022-06-28T13:53:26Z</time>
      </trkpt>
      <trkpt lat="46.58202" lon="5.48865">
        <ele>515</ele>
        <time>2022-06-28T13:53:27Z</time>
      </trkpt>
      <trkpt lat="46.58196" lon="5.48857">
        <ele>515.4</ele>
        <time>2022-06-28T13:53:29Z</time>
      </trkpt>
      <trkpt lat="46.58192" lon="5.48852">
        <ele>515.6</ele>
        <time>2022-06-28T13:53:30Z</time>
      </trkpt>
      <trkpt lat="46.58182" lon="5.48843">
        <ele>516</ele>
        <time>2022-06-28T13:53:33Z</time>
      </trkpt>
      <trkpt lat="46.5817" lon="5.48833">
        <ele>516.2</ele>
        <time>2022-06-28T13:53:36Z</time>
      </trkpt>
      <trkpt lat="46.58151" lon="5.48817">
        <ele>517</ele>
        <time>2022-06-28T13:53:42Z</time>
      </trkpt>
      <trkpt lat="46.58133" lon="5.48814">
        <ele>518</ele>
        <time>2022-06-28T13:53:47Z</time>
      </trkpt>
      <trkpt lat="46.58126" lon="5.48815">
        <ele>518.2</ele>
        <time>2022-06-28T13:53:49Z</time>
      </trkpt>
      <trkpt lat="46.5811" lon="5.48819">
        <ele>518.8</ele>
        <time>2022-06-28T13:53:53Z</time>
      </trkpt>
      <trkpt lat="46.58106" lon="5.4882">
        <ele>519.2</ele>
        <time>2022-06-28T13:53:54Z</time>
      </trkpt>
      <trkpt lat="46.58091" lon="5.48825">
        <ele>520.2</ele>
        <time>2022-06-28T13:53:58Z</time>
      </trkpt>
      <trkpt lat="46.58083" lon="5.48829">
        <ele>520.6</ele>
        <time>2022-06-28T13:54:00Z</time>
      </trkpt>
      <trkpt lat="46.58072" lon="5.48838">
        <ele>521.4</ele>
        <time>2022-06-28T13:54:03Z</time>
      </trkpt>
      <trkpt lat="46.5806" lon="5.48851">
        <ele>522.4</ele>
        <time>2022-06-28T13:54:07Z</time>
      </trkpt>
      <trkpt lat="46.58057" lon="5.48854">
        <ele>522.8</ele>
        <time>2022-06-28T13:54:08Z</time>
      </trkpt>
      <trkpt lat="46.58045" lon="5.48871">
        <ele>523.8</ele>
        <time>2022-06-28T13:54:12Z</time>
      </trkpt>
      <trkpt lat="46.58039" lon="5.48883">
        <ele>524.2</ele>
        <time>2022-06-28T13:54:14Z</time>
      </trkpt>
      <trkpt lat="46.58029" lon="5.48898">
        <ele>525</ele>
        <time>2022-06-28T13:54:17Z</time>
      </trkpt>
      <trkpt lat="46.58019" lon="5.48907">
        <ele>525.4</ele>
        <time>2022-06-28T13:54:19Z</time>
      </trkpt>
      <trkpt lat="46.58015" lon="5.48909">
        <ele>525.4</ele>
        <time>2022-06-28T13:54:20Z</time>
      </trkpt>
      <trkpt lat="46.58001" lon="5.4891">
        <ele>526.2</ele>
        <time>2022-06-28T13:54:24Z</time>
      </trkpt>
      <trkpt lat="46.57982" lon="5.48909">
        <ele>527.4</ele>
        <time>2022-06-28T13:54:29Z</time>
      </trkpt>
      <trkpt lat="46.57969" lon="5.48907">
        <ele>528.2</ele>
        <time>2022-06-28T13:54:32Z</time>
      </trkpt>
      <trkpt lat="46.57954" lon="5.48906">
        <ele>529.2</ele>
        <time>2022-06-28T13:54:36Z</time>
      </trkpt>
      <trkpt lat="46.57947" lon="5.48905">
        <ele>529.6</ele>
        <time>2022-06-28T13:54:38Z</time>
      </trkpt>
      <trkpt lat="46.57934" lon="5.48903">
        <ele>530.4</ele>
        <time>2022-06-28T13:54:41Z</time>
      </trkpt>
      <trkpt lat="46.57912" lon="5.48903">
        <ele>531.4</ele>
        <time>2022-06-28T13:54:46Z</time>
      </trkpt>
      <trkpt lat="46.57908" lon="5.48903">
        <ele>531.6</ele>
        <time>2022-06-28T13:54:47Z</time>
      </trkpt>
      <trkpt lat="46.57893" lon="5.48909">
        <ele>532.8</ele>
        <time>2022-06-28T13:54:51Z</time>
      </trkpt>
      <trkpt lat="46.57882" lon="5.48914">
        <ele>533.8</ele>
        <time>2022-06-28T13:54:54Z</time>
      </trkpt>
      <trkpt lat="46.57878" lon="5.48915">
        <ele>534</ele>
        <time>2022-06-28T13:54:55Z</time>
      </trkpt>
      <trkpt lat="46.5786" lon="5.48918">
        <ele>535</ele>
        <time>2022-06-28T13:54:59Z</time>
      </trkpt>
      <trkpt lat="46.57855" lon="5.48917">
        <ele>535.2</ele>
        <time>2022-06-28T13:55:00Z</time>
      </trkpt>
      <trkpt lat="46.57842" lon="5.48919">
        <ele>535.8</ele>
        <time>2022-06-28T13:55:03Z</time>
      </trkpt>
      <trkpt lat="46.57831" lon="5.4892">
        <ele>536.2</ele>
        <time>2022-06-28T13:55:05Z</time>
      </trkpt>
      <trkpt lat="46.57812" lon="5.48923">
        <ele>537</ele>
        <time>2022-06-28T13:55:08Z</time>
      </trkpt>
      <trkpt lat="46.57802" lon="5.48924">
        <ele>537.2</ele>
        <time>2022-06-28T13:55:10Z</time>
      </trkpt>
      <trkpt lat="46.57796" lon="5.48925">
        <ele>537.2</ele>
        <time>2022-06-28T13:55:11Z</time>
      </trkpt>
      <trkpt lat="46.57777" lon="5.48926">
        <ele>537.6</ele>
        <time>2022-06-28T13:55:14Z</time>
      </trkpt>
      <trkpt lat="46.57743" lon="5.48929">
        <ele>537.6</ele>
        <time>2022-06-28T13:55:19Z</time>
      </trkpt>
      <trkpt lat="46.57701" lon="5.48932">
        <ele>536.8</ele>
        <time>2022-06-28T13:55:24Z</time>
      </trkpt>
      <trkpt lat="46.57684" lon="5.48933">
        <ele>536</ele>
        <time>2022-06-28T13:55:26Z</time>
      </trkpt>
      <trkpt lat="46.57648" lon="5.48938">
        <ele>535</ele>
        <time>2022-06-28T13:55:30Z</time>
      </trkpt>
      <trkpt lat="46.57639" lon="5.4894">
        <ele>534.6</ele>
        <time>2022-06-28T13:55:31Z</time>
      </trkpt>
      <trkpt lat="46.57619" lon="5.48946">
        <ele>533.6</ele>
        <time>2022-06-28T13:55:33Z</time>
      </trkpt>
      <trkpt lat="46.57609" lon="5.48947">
        <ele>533.4</ele>
        <time>2022-06-28T13:55:34Z</time>
      </trkpt>
      <trkpt lat="46.57599" lon="5.48947">
        <ele>532.8</ele>
        <time>2022-06-28T13:55:35Z</time>
      </trkpt>
      <trkpt lat="46.57589" lon="5.48944">
        <ele>532.6</ele>
        <time>2022-06-28T13:55:36Z</time>
      </trkpt>
      <trkpt lat="46.57568" lon="5.48934">
        <ele>531.4</ele>
        <time>2022-06-28T13:55:38Z</time>
      </trkpt>
      <trkpt lat="46.57541" lon="5.48909">
        <ele>530</ele>
        <time>2022-06-28T13:55:41Z</time>
      </trkpt>
      <trkpt lat="46.57533" lon="5.48901">
        <ele>529.4</ele>
        <time>2022-06-28T13:55:42Z</time>
      </trkpt>
      <trkpt lat="46.57526" lon="5.48895">
        <ele>529.2</ele>
        <time>2022-06-28T13:55:43Z</time>
      </trkpt>
      <trkpt lat="46.57518" lon="5.4889">
        <ele>528.6</ele>
        <time>2022-06-28T13:55:44Z</time>
      </trkpt>
      <trkpt lat="46.5751" lon="5.48889">
        <ele>527.8</ele>
        <time>2022-06-28T13:55:45Z</time>
      </trkpt>
      <trkpt lat="46.57507" lon="5.48895">
        <ele>527.4</ele>
        <time>2022-06-28T13:55:46Z</time>
      </trkpt>
      <trkpt lat="46.57505" lon="5.48903">
        <ele>526.8</ele>
        <time>2022-06-28T13:55:47Z</time>
      </trkpt>
      <trkpt lat="46.57507" lon="5.48913">
        <ele>526.4</ele>
        <time>2022-06-28T13:55:48Z</time>
      </trkpt>
      <trkpt lat="46.57512" lon="5.48923">
        <ele>525.2</ele>
        <time>2022-06-28T13:55:49Z</time>
      </trkpt>
      <trkpt lat="46.57524" lon="5.48945">
        <ele>523.8</ele>
        <time>2022-06-28T13:55:51Z</time>
      </trkpt>
      <trkpt lat="46.57536" lon="5.48968">
        <ele>523.2</ele>
        <time>2022-06-28T13:55:53Z</time>
      </trkpt>
      <trkpt lat="46.57542" lon="5.48981">
        <ele>522.6</ele>
        <time>2022-06-28T13:55:54Z</time>
      </trkpt>
      <trkpt lat="46.57548" lon="5.48994">
        <ele>522.4</ele>
        <time>2022-06-28T13:55:55Z</time>
      </trkpt>
      <trkpt lat="46.57556" lon="5.49023">
        <ele>521.4</ele>
        <time>2022-06-28T13:55:57Z</time>
      </trkpt>
      <trkpt lat="46.57568" lon="5.49083">
        <ele>520</ele>
        <time>2022-06-28T13:56:01Z</time>
      </trkpt>
      <trkpt lat="46.57572" lon="5.49098">
        <ele>519.6</ele>
        <time>2022-06-28T13:56:02Z</time>
      </trkpt>
      <trkpt lat="46.57581" lon="5.49128">
        <ele>519</ele>
        <time>2022-06-28T13:56:04Z</time>
      </trkpt>
      <trkpt lat="46.57587" lon="5.49143">
        <ele>517.6</ele>
        <time>2022-06-28T13:56:05Z</time>
      </trkpt>
      <trkpt lat="46.57592" lon="5.49157">
        <ele>517.4</ele>
        <time>2022-06-28T13:56:06Z</time>
      </trkpt>
      <trkpt lat="46.57598" lon="5.49171">
        <ele>516.6</ele>
        <time>2022-06-28T13:56:07Z</time>
      </trkpt>
      <trkpt lat="46.5761" lon="5.49199">
        <ele>515.4</ele>
        <time>2022-06-28T13:56:09Z</time>
      </trkpt>
      <trkpt lat="46.57623" lon="5.49226">
        <ele>514.2</ele>
        <time>2022-06-28T13:56:11Z</time>
      </trkpt>
      <trkpt lat="46.57629" lon="5.49239">
        <ele>513.8</ele>
        <time>2022-06-28T13:56:12Z</time>
      </trkpt>
      <trkpt lat="46.57641" lon="5.49267">
        <ele>512.8</ele>
        <time>2022-06-28T13:56:14Z</time>
      </trkpt>
      <trkpt lat="46.57646" lon="5.49285">
        <ele>512.2</ele>
        <time>2022-06-28T13:56:15Z</time>
      </trkpt>
      <trkpt lat="46.57648" lon="5.49301">
        <ele>511.8</ele>
        <time>2022-06-28T13:56:16Z</time>
      </trkpt>
      <trkpt lat="46.57648" lon="5.49317">
        <ele>510.6</ele>
        <time>2022-06-28T13:56:17Z</time>
      </trkpt>
      <trkpt lat="46.57645" lon="5.49332">
        <ele>510.2</ele>
        <time>2022-06-28T13:56:18Z</time>
      </trkpt>
      <trkpt lat="46.5764" lon="5.49346">
        <ele>509.6</ele>
        <time>2022-06-28T13:56:19Z</time>
      </trkpt>
      <trkpt lat="46.57626" lon="5.49363">
        <ele>508.4</ele>
        <time>2022-06-28T13:56:21Z</time>
      </trkpt>
      <trkpt lat="46.57608" lon="5.49366">
        <ele>507.4</ele>
        <time>2022-06-28T13:56:23Z</time>
      </trkpt>
      <trkpt lat="46.57594" lon="5.49364">
        <ele>506.4</ele>
        <time>2022-06-28T13:56:24Z</time>
      </trkpt>
      <trkpt lat="46.57581" lon="5.4936">
        <ele>506.2</ele>
        <time>2022-06-28T13:56:25Z</time>
      </trkpt>
      <trkpt lat="46.5756" lon="5.49351">
        <ele>505.4</ele>
        <time>2022-06-28T13:56:27Z</time>
      </trkpt>
      <trkpt lat="46.57524" lon="5.49336">
        <ele>504</ele>
        <time>2022-06-28T13:56:30Z</time>
      </trkpt>
      <trkpt lat="46.57488" lon="5.49329">
        <ele>503.2</ele>
        <time>2022-06-28T13:56:33Z</time>
      </trkpt>
      <trkpt lat="46.57473" lon="5.49329">
        <ele>502.8</ele>
        <time>2022-06-28T13:56:34Z</time>
      </trkpt>
      <trkpt lat="46.57438" lon="5.49331">
        <ele>501.6</ele>
        <time>2022-06-28T13:56:37Z</time>
      </trkpt>
      <trkpt lat="46.57411" lon="5.4933">
        <ele>501</ele>
        <time>2022-06-28T13:56:39Z</time>
      </trkpt>
      <trkpt lat="46.57386" lon="5.49324">
        <ele>500.2</ele>
        <time>2022-06-28T13:56:41Z</time>
      </trkpt>
      <trkpt lat="46.57364" lon="5.49314">
        <ele>499.2</ele>
        <time>2022-06-28T13:56:43Z</time>
      </trkpt>
      <trkpt lat="46.57344" lon="5.49305">
        <ele>498.2</ele>
        <time>2022-06-28T13:56:45Z</time>
      </trkpt>
      <trkpt lat="46.57312" lon="5.49292">
        <ele>497.4</ele>
        <time>2022-06-28T13:56:48Z</time>
      </trkpt>
      <trkpt lat="46.5729" lon="5.49287">
        <ele>497.2</ele>
        <time>2022-06-28T13:56:50Z</time>
      </trkpt>
      <trkpt lat="46.57258" lon="5.49283">
        <ele>496.4</ele>
        <time>2022-06-28T13:56:53Z</time>
      </trkpt>
      <trkpt lat="46.57247" lon="5.49283">
        <ele>496</ele>
        <time>2022-06-28T13:56:54Z</time>
      </trkpt>
      <trkpt lat="46.57203" lon="5.49281">
        <ele>495</ele>
        <time>2022-06-28T13:56:58Z</time>
      </trkpt>
      <trkpt lat="46.5719" lon="5.49278">
        <ele>494.8</ele>
        <time>2022-06-28T13:56:59Z</time>
      </trkpt>
      <trkpt lat="46.57181" lon="5.49275">
        <ele>494.4</ele>
        <time>2022-06-28T13:57:00Z</time>
      </trkpt>
      <trkpt lat="46.57171" lon="5.49269">
        <ele>494</ele>
        <time>2022-06-28T13:57:01Z</time>
      </trkpt>
      <trkpt lat="46.57162" lon="5.49263">
        <ele>493.8</ele>
        <time>2022-06-28T13:57:02Z</time>
      </trkpt>
      <trkpt lat="46.57142" lon="5.49252">
        <ele>493.4</ele>
        <time>2022-06-28T13:57:04Z</time>
      </trkpt>
      <trkpt lat="46.57098" lon="5.49237">
        <ele>492.6</ele>
        <time>2022-06-28T13:57:08Z</time>
      </trkpt>
      <trkpt lat="46.5709" lon="5.49235">
        <ele>492.4</ele>
        <time>2022-06-28T13:57:09Z</time>
      </trkpt>
      <trkpt lat="46.57077" lon="5.49234">
        <ele>491.8</ele>
        <time>2022-06-28T13:57:10Z</time>
      </trkpt>
      <trkpt lat="46.57045" lon="5.49227">
        <ele>491.2</ele>
        <time>2022-06-28T13:57:13Z</time>
      </trkpt>
      <trkpt lat="46.57027" lon="5.49213">
        <ele>490.6</ele>
        <time>2022-06-28T13:57:15Z</time>
      </trkpt>
      <trkpt lat="46.57022" lon="5.49205">
        <ele>490.4</ele>
        <time>2022-06-28T13:57:16Z</time>
      </trkpt>
      <trkpt lat="46.57014" lon="5.49193">
        <ele>490.2</ele>
        <time>2022-06-28T13:57:17Z</time>
      </trkpt>
      <trkpt lat="46.57006" lon="5.49184">
        <ele>490</ele>
        <time>2022-06-28T13:57:18Z</time>
      </trkpt>
      <trkpt lat="46.56998" lon="5.49176">
        <ele>489.6</ele>
        <time>2022-06-28T13:57:19Z</time>
      </trkpt>
      <trkpt lat="46.56968" lon="5.49159">
        <ele>488.8</ele>
        <time>2022-06-28T13:57:22Z</time>
      </trkpt>
      <trkpt lat="46.5694" lon="5.49143">
        <ele>488.2</ele>
        <time>2022-06-28T13:57:25Z</time>
      </trkpt>
      <trkpt lat="46.56918" lon="5.49133">
        <ele>487.6</ele>
        <time>2022-06-28T13:57:27Z</time>
      </trkpt>
      <trkpt lat="46.569" lon="5.49129">
        <ele>486.4</ele>
        <time>2022-06-28T13:57:29Z</time>
      </trkpt>
      <trkpt lat="46.56887" lon="5.49127">
        <ele>486.2</ele>
        <time>2022-06-28T13:57:30Z</time>
      </trkpt>
      <trkpt lat="46.56879" lon="5.49126">
        <ele>486</ele>
        <time>2022-06-28T13:57:31Z</time>
      </trkpt>
      <trkpt lat="46.56858" lon="5.49116">
        <ele>485.6</ele>
        <time>2022-06-28T13:57:33Z</time>
      </trkpt>
      <trkpt lat="46.5685" lon="5.49107">
        <ele>485.4</ele>
        <time>2022-06-28T13:57:34Z</time>
      </trkpt>
      <trkpt lat="46.56844" lon="5.49094">
        <ele>485</ele>
        <time>2022-06-28T13:57:35Z</time>
      </trkpt>
      <trkpt lat="46.56834" lon="5.49068">
        <ele>484.2</ele>
        <time>2022-06-28T13:57:37Z</time>
      </trkpt>
      <trkpt lat="46.56822" lon="5.4904">
        <ele>483.6</ele>
        <time>2022-06-28T13:57:39Z</time>
      </trkpt>
      <trkpt lat="46.56817" lon="5.49031">
        <ele>483.4</ele>
        <time>2022-06-28T13:57:40Z</time>
      </trkpt>
      <trkpt lat="46.56803" lon="5.49011">
        <ele>483.2</ele>
        <time>2022-06-28T13:57:42Z</time>
      </trkpt>
      <trkpt lat="46.56785" lon="5.48995">
        <ele>483</ele>
        <time>2022-06-28T13:57:44Z</time>
      </trkpt>
      <trkpt lat="46.56739" lon="5.48959">
        <ele>482.2</ele>
        <time>2022-06-28T13:57:49Z</time>
      </trkpt>
      <trkpt lat="46.56721" lon="5.48947">
        <ele>481.6</ele>
        <time>2022-06-28T13:57:51Z</time>
      </trkpt>
      <trkpt lat="46.56691" lon="5.48934">
        <ele>480.8</ele>
        <time>2022-06-28T13:57:54Z</time>
      </trkpt>
      <trkpt lat="46.56662" lon="5.48921">
        <ele>480.6</ele>
        <time>2022-06-28T13:57:57Z</time>
      </trkpt>
      <trkpt lat="46.56632" lon="5.48908">
        <ele>479.8</ele>
        <time>2022-06-28T13:58:00Z</time>
      </trkpt>
      <trkpt lat="46.56613" lon="5.48899">
        <ele>479.6</ele>
        <time>2022-06-28T13:58:02Z</time>
      </trkpt>
      <trkpt lat="46.56596" lon="5.48888">
        <ele>479.4</ele>
        <time>2022-06-28T13:58:04Z</time>
      </trkpt>
      <trkpt lat="46.5658" lon="5.48875">
        <ele>479.2</ele>
        <time>2022-06-28T13:58:06Z</time>
      </trkpt>
      <trkpt lat="46.56566" lon="5.48856">
        <ele>479</ele>
        <time>2022-06-28T13:58:08Z</time>
      </trkpt>
      <trkpt lat="46.56557" lon="5.48838">
        <ele>479</ele>
        <time>2022-06-28T13:58:10Z</time>
      </trkpt>
      <trkpt lat="46.56551" lon="5.48814">
        <ele>478.6</ele>
        <time>2022-06-28T13:58:12Z</time>
      </trkpt>
      <trkpt lat="46.56546" lon="5.4879">
        <ele>478.4</ele>
        <time>2022-06-28T13:58:14Z</time>
      </trkpt>
      <trkpt lat="46.56538" lon="5.48769">
        <ele>478.4</ele>
        <time>2022-06-28T13:58:16Z</time>
      </trkpt>
      <trkpt lat="46.56526" lon="5.48752">
        <ele>478.4</ele>
        <time>2022-06-28T13:58:18Z</time>
      </trkpt>
      <trkpt lat="46.56519" lon="5.48746">
        <ele>478.4</ele>
        <time>2022-06-28T13:58:19Z</time>
      </trkpt>
      <trkpt lat="46.56472" lon="5.48722">
        <ele>478.4</ele>
        <time>2022-06-28T13:58:25Z</time>
      </trkpt>
      <trkpt lat="46.56432" lon="5.48713">
        <ele>478.2</ele>
        <time>2022-06-28T13:58:30Z</time>
      </trkpt>
      <trkpt lat="46.56398" lon="5.48717">
        <ele>478.2</ele>
        <time>2022-06-28T13:58:34Z</time>
      </trkpt>
      <trkpt lat="46.56369" lon="5.48737">
        <ele>478</ele>
        <time>2022-06-28T13:58:38Z</time>
      </trkpt>
      <trkpt lat="46.56354" lon="5.48745">
        <ele>478</ele>
        <time>2022-06-28T13:58:40Z</time>
      </trkpt>
      <trkpt lat="46.56337" lon="5.48749">
        <ele>478</ele>
        <time>2022-06-28T13:58:42Z</time>
      </trkpt>
      <trkpt lat="46.56322" lon="5.48743">
        <ele>478</ele>
        <time>2022-06-28T13:58:44Z</time>
      </trkpt>
      <trkpt lat="46.56304" lon="5.48709">
        <ele>478</ele>
        <time>2022-06-28T13:58:47Z</time>
      </trkpt>
      <trkpt lat="46.56278" lon="5.48674">
        <ele>478.2</ele>
        <time>2022-06-28T13:58:51Z</time>
      </trkpt>
      <trkpt lat="46.56272" lon="5.48668">
        <ele>478.2</ele>
        <time>2022-06-28T13:58:52Z</time>
      </trkpt>
      <trkpt lat="46.56234" lon="5.48649">
        <ele>478.6</ele>
        <time>2022-06-28T13:58:57Z</time>
      </trkpt>
      <trkpt lat="46.56189" lon="5.48626">
        <ele>478.4</ele>
        <time>2022-06-28T13:59:03Z</time>
      </trkpt>
      <trkpt lat="46.56176" lon="5.48609">
        <ele>478.4</ele>
        <time>2022-06-28T13:59:05Z</time>
      </trkpt>
      <trkpt lat="46.56171" lon="5.48599">
        <ele>478.4</ele>
        <time>2022-06-28T13:59:06Z</time>
      </trkpt>
      <trkpt lat="46.5616" lon="5.48582">
        <ele>478.4</ele>
        <time>2022-06-28T13:59:08Z</time>
      </trkpt>
      <trkpt lat="46.56147" lon="5.4857">
        <ele>478.4</ele>
        <time>2022-06-28T13:59:10Z</time>
      </trkpt>
      <trkpt lat="46.56116" lon="5.48559">
        <ele>478.8</ele>
        <time>2022-06-28T13:59:14Z</time>
      </trkpt>
      <trkpt lat="46.56061" lon="5.48547">
        <ele>478.6</ele>
        <time>2022-06-28T13:59:21Z</time>
      </trkpt>
      <trkpt lat="46.56038" lon="5.48536">
        <ele>478.6</ele>
        <time>2022-06-28T13:59:24Z</time>
      </trkpt>
      <trkpt lat="46.56023" lon="5.48526">
        <ele>478.6</ele>
        <time>2022-06-28T13:59:26Z</time>
      </trkpt>
      <trkpt lat="46.56" lon="5.48511">
        <ele>478.6</ele>
        <time>2022-06-28T13:59:29Z</time>
      </trkpt>
      <trkpt lat="46.55985" lon="5.48507">
        <ele>478.8</ele>
        <time>2022-06-28T13:59:31Z</time>
      </trkpt>
      <trkpt lat="46.55936" lon="5.48503">
        <ele>479</ele>
        <time>2022-06-28T13:59:37Z</time>
      </trkpt>
      <trkpt lat="46.5591" lon="5.48506">
        <ele>478.8</ele>
        <time>2022-06-28T13:59:40Z</time>
      </trkpt>
      <trkpt lat="46.55901" lon="5.48509">
        <ele>478.6</ele>
        <time>2022-06-28T13:59:41Z</time>
      </trkpt>
      <trkpt lat="46.55875" lon="5.48521">
        <ele>477.6</ele>
        <time>2022-06-28T13:59:44Z</time>
      </trkpt>
      <trkpt lat="46.55865" lon="5.4853">
        <ele>477.2</ele>
        <time>2022-06-28T13:59:45Z</time>
      </trkpt>
      <trkpt lat="46.55857" lon="5.4854">
        <ele>476.8</ele>
        <time>2022-06-28T13:59:46Z</time>
      </trkpt>
      <trkpt lat="46.55849" lon="5.48551">
        <ele>476.4</ele>
        <time>2022-06-28T13:59:47Z</time>
      </trkpt>
      <trkpt lat="46.55835" lon="5.48573">
        <ele>475.6</ele>
        <time>2022-06-28T13:59:49Z</time>
      </trkpt>
      <trkpt lat="46.55828" lon="5.48584">
        <ele>474.8</ele>
        <time>2022-06-28T13:59:50Z</time>
      </trkpt>
      <trkpt lat="46.55808" lon="5.48616">
        <ele>473.8</ele>
        <time>2022-06-28T13:59:53Z</time>
      </trkpt>
      <trkpt lat="46.55784" lon="5.48652">
        <ele>473.2</ele>
        <time>2022-06-28T13:59:57Z</time>
      </trkpt>
      <trkpt lat="46.55778" lon="5.48663">
        <ele>473.2</ele>
        <time>2022-06-28T13:59:58Z</time>
      </trkpt>
      <trkpt lat="46.55771" lon="5.48685">
        <ele>473.2</ele>
        <time>2022-06-28T14:00:00Z</time>
      </trkpt>
      <trkpt lat="46.5577" lon="5.48709">
        <ele>473.2</ele>
        <time>2022-06-28T14:00:02Z</time>
      </trkpt>
      <trkpt lat="46.55772" lon="5.48722">
        <ele>473.2</ele>
        <time>2022-06-28T14:00:03Z</time>
      </trkpt>
      <trkpt lat="46.55778" lon="5.488">
        <ele>473</ele>
        <time>2022-06-28T14:00:09Z</time>
      </trkpt>
      <trkpt lat="46.55779" lon="5.48812">
        <ele>472.8</ele>
        <time>2022-06-28T14:00:10Z</time>
      </trkpt>
      <trkpt lat="46.55781" lon="5.48864">
        <ele>472.6</ele>
        <time>2022-06-28T14:00:15Z</time>
      </trkpt>
      <trkpt lat="46.55783" lon="5.48916">
        <ele>473.8</ele>
        <time>2022-06-28T14:00:21Z</time>
      </trkpt>
      <trkpt lat="46.55783" lon="5.48924">
        <ele>474</ele>
        <time>2022-06-28T14:00:22Z</time>
      </trkpt>
      <trkpt lat="46.55782" lon="5.48932">
        <ele>474.2</ele>
        <time>2022-06-28T14:00:23Z</time>
      </trkpt>
      <trkpt lat="46.55777" lon="5.48956">
        <ele>475</ele>
        <time>2022-06-28T14:00:26Z</time>
      </trkpt>
      <trkpt lat="46.55771" lon="5.48977">
        <ele>476.2</ele>
        <time>2022-06-28T14:00:29Z</time>
      </trkpt>
      <trkpt lat="46.5576" lon="5.4901">
        <ele>477.4</ele>
        <time>2022-06-28T14:00:34Z</time>
      </trkpt>
      <trkpt lat="46.55749" lon="5.49025">
        <ele>478.4</ele>
        <time>2022-06-28T14:00:37Z</time>
      </trkpt>
      <trkpt lat="46.55745" lon="5.49029">
        <ele>478.8</ele>
        <time>2022-06-28T14:00:38Z</time>
      </trkpt>
      <trkpt lat="46.55738" lon="5.49035">
        <ele>479.6</ele>
        <time>2022-06-28T14:00:40Z</time>
      </trkpt>
      <trkpt lat="46.55734" lon="5.49039">
        <ele>480</ele>
        <time>2022-06-28T14:00:41Z</time>
      </trkpt>
      <trkpt lat="46.55714" lon="5.49055">
        <ele>481.2</ele>
        <time>2022-06-28T14:00:46Z</time>
      </trkpt>
      <trkpt lat="46.55707" lon="5.49062">
        <ele>481.8</ele>
        <time>2022-06-28T14:00:48Z</time>
      </trkpt>
      <trkpt lat="46.557" lon="5.49069">
        <ele>482.4</ele>
        <time>2022-06-28T14:00:50Z</time>
      </trkpt>
      <trkpt lat="46.55697" lon="5.49072">
        <ele>482.6</ele>
        <time>2022-06-28T14:00:51Z</time>
      </trkpt>
      <trkpt lat="46.5569" lon="5.49081">
        <ele>483.2</ele>
        <time>2022-06-28T14:00:53Z</time>
      </trkpt>
      <trkpt lat="46.55684" lon="5.49089">
        <ele>483.6</ele>
        <time>2022-06-28T14:00:55Z</time>
      </trkpt>
      <trkpt lat="46.55678" lon="5.49099">
        <ele>484</ele>
        <time>2022-06-28T14:00:57Z</time>
      </trkpt>
      <trkpt lat="46.55672" lon="5.4911">
        <ele>484.6</ele>
        <time>2022-06-28T14:00:59Z</time>
      </trkpt>
      <trkpt lat="46.55667" lon="5.49121">
        <ele>485.2</ele>
        <time>2022-06-28T14:01:01Z</time>
      </trkpt>
      <trkpt lat="46.55665" lon="5.49126">
        <ele>485.4</ele>
        <time>2022-06-28T14:01:02Z</time>
      </trkpt>
      <trkpt lat="46.55663" lon="5.49137">
        <ele>485.6</ele>
        <time>2022-06-28T14:01:04Z</time>
      </trkpt>
      <trkpt lat="46.55661" lon="5.49151">
        <ele>486.2</ele>
        <time>2022-06-28T14:01:06Z</time>
      </trkpt>
      <trkpt lat="46.5566" lon="5.49163">
        <ele>486.8</ele>
        <time>2022-06-28T14:01:08Z</time>
      </trkpt>
      <trkpt lat="46.5566" lon="5.4917">
        <ele>487</ele>
        <time>2022-06-28T14:01:09Z</time>
      </trkpt>
      <trkpt lat="46.55661" lon="5.49183">
        <ele>487.6</ele>
        <time>2022-06-28T14:01:11Z</time>
      </trkpt>
      <trkpt lat="46.55662" lon="5.49195">
        <ele>488</ele>
        <time>2022-06-28T14:01:13Z</time>
      </trkpt>
      <trkpt lat="46.55663" lon="5.49202">
        <ele>488.2</ele>
        <time>2022-06-28T14:01:14Z</time>
      </trkpt>
      <trkpt lat="46.55665" lon="5.49208">
        <ele>488.4</ele>
        <time>2022-06-28T14:01:15Z</time>
      </trkpt>
      <trkpt lat="46.55667" lon="5.49214">
        <ele>488.6</ele>
        <time>2022-06-28T14:01:16Z</time>
      </trkpt>
      <trkpt lat="46.5567" lon="5.49224">
        <ele>489.2</ele>
        <time>2022-06-28T14:01:18Z</time>
      </trkpt>
      <trkpt lat="46.55673" lon="5.49228">
        <ele>489.4</ele>
        <time>2022-06-28T14:01:19Z</time>
      </trkpt>
      <trkpt lat="46.55678" lon="5.49238">
        <ele>490.2</ele>
        <time>2022-06-28T14:01:21Z</time>
      </trkpt>
      <trkpt lat="46.55681" lon="5.49242">
        <ele>490.6</ele>
        <time>2022-06-28T14:01:22Z</time>
      </trkpt>
      <trkpt lat="46.55693" lon="5.49258">
        <ele>491.8</ele>
        <time>2022-06-28T14:01:26Z</time>
      </trkpt>
      <trkpt lat="46.55697" lon="5.49268">
        <ele>492.2</ele>
        <time>2022-06-28T14:01:28Z</time>
      </trkpt>
      <trkpt lat="46.55698" lon="5.49284">
        <ele>493</ele>
        <time>2022-06-28T14:01:31Z</time>
      </trkpt>
      <trkpt lat="46.55692" lon="5.49292">
        <ele>494</ele>
        <time>2022-06-28T14:01:33Z</time>
      </trkpt>
      <trkpt lat="46.55688" lon="5.49292">
        <ele>494.6</ele>
        <time>2022-06-28T14:01:34Z</time>
      </trkpt>
      <trkpt lat="46.55684" lon="5.4929">
        <ele>494.8</ele>
        <time>2022-06-28T14:01:35Z</time>
      </trkpt>
      <trkpt lat="46.55675" lon="5.49283">
        <ele>495.2</ele>
        <time>2022-06-28T14:01:37Z</time>
      </trkpt>
      <trkpt lat="46.55667" lon="5.49277">
        <ele>495.6</ele>
        <time>2022-06-28T14:01:39Z</time>
      </trkpt>
      <trkpt lat="46.55654" lon="5.49269">
        <ele>496.2</ele>
        <time>2022-06-28T14:01:42Z</time>
      </trkpt>
      <trkpt lat="46.55647" lon="5.49265">
        <ele>496.6</ele>
        <time>2022-06-28T14:01:44Z</time>
      </trkpt>
      <trkpt lat="46.55635" lon="5.49257">
        <ele>497.2</ele>
        <time>2022-06-28T14:01:47Z</time>
      </trkpt>
      <trkpt lat="46.55617" lon="5.49248">
        <ele>498.4</ele>
        <time>2022-06-28T14:01:51Z</time>
      </trkpt>
      <trkpt lat="46.55599" lon="5.49238">
        <ele>499.2</ele>
        <time>2022-06-28T14:01:55Z</time>
      </trkpt>
      <trkpt lat="46.55591" lon="5.49234">
        <ele>499.4</ele>
        <time>2022-06-28T14:01:57Z</time>
      </trkpt>
      <trkpt lat="46.55563" lon="5.4922">
        <ele>500.6</ele>
        <time>2022-06-28T14:02:03Z</time>
      </trkpt>
      <trkpt lat="46.55547" lon="5.49212">
        <ele>501.2</ele>
        <time>2022-06-28T14:02:07Z</time>
      </trkpt>
      <trkpt lat="46.55543" lon="5.49211">
        <ele>501.6</ele>
        <time>2022-06-28T14:02:08Z</time>
      </trkpt>
      <trkpt lat="46.5553" lon="5.49204">
        <ele>502.2</ele>
        <time>2022-06-28T14:02:11Z</time>
      </trkpt>
      <trkpt lat="46.5552" lon="5.49197">
        <ele>502.4</ele>
        <time>2022-06-28T14:02:13Z</time>
      </trkpt>
      <trkpt lat="46.55507" lon="5.49186">
        <ele>502.4</ele>
        <time>2022-06-28T14:02:16Z</time>
      </trkpt>
      <trkpt lat="46.55498" lon="5.49179">
        <ele>502.4</ele>
        <time>2022-06-28T14:02:18Z</time>
      </trkpt>
      <trkpt lat="46.55494" lon="5.49175">
        <ele>502.4</ele>
        <time>2022-06-28T14:02:19Z</time>
      </trkpt>
      <trkpt lat="46.55479" lon="5.49155">
        <ele>502.8</ele>
        <time>2022-06-28T14:02:23Z</time>
      </trkpt>
      <trkpt lat="46.55475" lon="5.4915">
        <ele>502.8</ele>
        <time>2022-06-28T14:02:24Z</time>
      </trkpt>
      <trkpt lat="46.5547" lon="5.49144">
        <ele>503</ele>
        <time>2022-06-28T14:02:25Z</time>
      </trkpt>
      <trkpt lat="46.55436" lon="5.49109">
        <ele>503.6</ele>
        <time>2022-06-28T14:02:33Z</time>
      </trkpt>
      <trkpt lat="46.5543" lon="5.49103">
        <ele>503.8</ele>
        <time>2022-06-28T14:02:34Z</time>
      </trkpt>
      <trkpt lat="46.55425" lon="5.49099">
        <ele>503.8</ele>
        <time>2022-06-28T14:02:35Z</time>
      </trkpt>
      <trkpt lat="46.55414" lon="5.49095">
        <ele>503.8</ele>
        <time>2022-06-28T14:02:37Z</time>
      </trkpt>
      <trkpt lat="46.55381" lon="5.49099">
        <ele>503.6</ele>
        <time>2022-06-28T14:02:42Z</time>
      </trkpt>
      <trkpt lat="46.55341" lon="5.49111">
        <ele>502.8</ele>
        <time>2022-06-28T14:02:47Z</time>
      </trkpt>
      <trkpt lat="46.55336" lon="5.49115">
        <ele>502.6</ele>
        <time>2022-06-28T14:02:48Z</time>
      </trkpt>
      <trkpt lat="46.55329" lon="5.49124">
        <ele>502.6</ele>
        <time>2022-06-28T14:02:49Z</time>
      </trkpt>
      <trkpt lat="46.5532" lon="5.49144">
        <ele>501.2</ele>
        <time>2022-06-28T14:02:51Z</time>
      </trkpt>
      <trkpt lat="46.55307" lon="5.49178">
        <ele>500</ele>
        <time>2022-06-28T14:02:54Z</time>
      </trkpt>
      <trkpt lat="46.55298" lon="5.49201">
        <ele>499.4</ele>
        <time>2022-06-28T14:02:56Z</time>
      </trkpt>
      <trkpt lat="46.5527" lon="5.49249">
        <ele>499</ele>
        <time>2022-06-28T14:03:02Z</time>
      </trkpt>
      <trkpt lat="46.55263" lon="5.4926">
        <ele>499.2</ele>
        <time>2022-06-28T14:03:04Z</time>
      </trkpt>
      <trkpt lat="46.55257" lon="5.49271">
        <ele>499.4</ele>
        <time>2022-06-28T14:03:06Z</time>
      </trkpt>
      <trkpt lat="46.55254" lon="5.49277">
        <ele>499.4</ele>
        <time>2022-06-28T14:03:07Z</time>
      </trkpt>
      <trkpt lat="46.55248" lon="5.49287">
        <ele>500</ele>
        <time>2022-06-28T14:03:10Z</time>
      </trkpt>
      <trkpt lat="46.55243" lon="5.49284">
        <ele>500.6</ele>
        <time>2022-06-28T14:03:13Z</time>
      </trkpt>
      <trkpt lat="46.55238" lon="5.4928">
        <ele>500.6</ele>
        <time>2022-06-28T14:03:14Z</time>
      </trkpt>
      <trkpt lat="46.55229" lon="5.49271">
        <ele>500.8</ele>
        <time>2022-06-28T14:03:16Z</time>
      </trkpt>
      <trkpt lat="46.55224" lon="5.49266">
        <ele>500.8</ele>
        <time>2022-06-28T14:03:17Z</time>
      </trkpt>
      <trkpt lat="46.55215" lon="5.49255">
        <ele>501</ele>
        <time>2022-06-28T14:03:19Z</time>
      </trkpt>
      <trkpt lat="46.55192" lon="5.49226">
        <ele>501.4</ele>
        <time>2022-06-28T14:03:24Z</time>
      </trkpt>
      <trkpt lat="46.55179" lon="5.49209">
        <ele>502</ele>
        <time>2022-06-28T14:03:27Z</time>
      </trkpt>
      <trkpt lat="46.5517" lon="5.49196">
        <ele>502.4</ele>
        <time>2022-06-28T14:03:29Z</time>
      </trkpt>
      <trkpt lat="46.55166" lon="5.49189">
        <ele>502.4</ele>
        <time>2022-06-28T14:03:30Z</time>
      </trkpt>
      <trkpt lat="46.55159" lon="5.49173">
        <ele>503.2</ele>
        <time>2022-06-28T14:03:32Z</time>
      </trkpt>
      <trkpt lat="46.55155" lon="5.49158">
        <ele>503.4</ele>
        <time>2022-06-28T14:03:34Z</time>
      </trkpt>
      <trkpt lat="46.55154" lon="5.49147">
        <ele>503.6</ele>
        <time>2022-06-28T14:03:35Z</time>
      </trkpt>
      <trkpt lat="46.55153" lon="5.49102">
        <ele>504.2</ele>
        <time>2022-06-28T14:03:40Z</time>
      </trkpt>
      <trkpt lat="46.55153" lon="5.49051">
        <ele>504.4</ele>
        <time>2022-06-28T14:03:45Z</time>
      </trkpt>
      <trkpt lat="46.55155" lon="5.48983">
        <ele>505.2</ele>
        <time>2022-06-28T14:03:52Z</time>
      </trkpt>
      <trkpt lat="46.55156" lon="5.48957">
        <ele>505.2</ele>
        <time>2022-06-28T14:03:55Z</time>
      </trkpt>
      <trkpt lat="46.55156" lon="5.48934">
        <ele>505.8</ele>
        <time>2022-06-28T14:03:58Z</time>
      </trkpt>
      <trkpt lat="46.55156" lon="5.48893">
        <ele>506.4</ele>
        <time>2022-06-28T14:04:03Z</time>
      </trkpt>
      <trkpt lat="46.55156" lon="5.48884">
        <ele>507</ele>
        <time>2022-06-28T14:04:04Z</time>
      </trkpt>
      <trkpt lat="46.55156" lon="5.4887">
        <ele>507.6</ele>
        <time>2022-06-28T14:04:06Z</time>
      </trkpt>
      <trkpt lat="46.55154" lon="5.48829">
        <ele>508.8</ele>
        <time>2022-06-28T14:04:11Z</time>
      </trkpt>
      <trkpt lat="46.55152" lon="5.4881">
        <ele>509.4</ele>
        <time>2022-06-28T14:04:13Z</time>
      </trkpt>
      <trkpt lat="46.55145" lon="5.48778">
        <ele>510</ele>
        <time>2022-06-28T14:04:17Z</time>
      </trkpt>
      <trkpt lat="46.55138" lon="5.48759">
        <ele>510.4</ele>
        <time>2022-06-28T14:04:19Z</time>
      </trkpt>
      <trkpt lat="46.55124" lon="5.48728">
        <ele>511</ele>
        <time>2022-06-28T14:04:23Z</time>
      </trkpt>
      <trkpt lat="46.55115" lon="5.48714">
        <ele>511.2</ele>
        <time>2022-06-28T14:04:25Z</time>
      </trkpt>
      <trkpt lat="46.55079" lon="5.48675">
        <ele>511.6</ele>
        <time>2022-06-28T14:04:32Z</time>
      </trkpt>
      <trkpt lat="46.55038" lon="5.48642">
        <ele>511.8</ele>
        <time>2022-06-28T14:04:39Z</time>
      </trkpt>
      <trkpt lat="46.5502" lon="5.48628">
        <ele>511.8</ele>
        <time>2022-06-28T14:04:42Z</time>
      </trkpt>
      <trkpt lat="46.54987" lon="5.48595">
        <ele>512.2</ele>
        <time>2022-06-28T14:04:48Z</time>
      </trkpt>
      <trkpt lat="46.54943" lon="5.48541">
        <ele>511.4</ele>
        <time>2022-06-28T14:04:56Z</time>
      </trkpt>
      <trkpt lat="46.54903" lon="5.48501">
        <ele>511.2</ele>
        <time>2022-06-28T14:05:02Z</time>
      </trkpt>
      <trkpt lat="46.54858" lon="5.48467">
        <ele>510.4</ele>
        <time>2022-06-28T14:05:08Z</time>
      </trkpt>
      <trkpt lat="46.54836" lon="5.48454">
        <ele>509.2</ele>
        <time>2022-06-28T14:05:11Z</time>
      </trkpt>
      <trkpt lat="46.54818" lon="5.48445">
        <ele>508.4</ele>
        <time>2022-06-28T14:05:13Z</time>
      </trkpt>
      <trkpt lat="46.54801" lon="5.48437">
        <ele>507.6</ele>
        <time>2022-06-28T14:05:15Z</time>
      </trkpt>
      <trkpt lat="46.54793" lon="5.48433">
        <ele>507.2</ele>
        <time>2022-06-28T14:05:16Z</time>
      </trkpt>
      <trkpt lat="46.54741" lon="5.48409">
        <ele>505.8</ele>
        <time>2022-06-28T14:05:22Z</time>
      </trkpt>
      <trkpt lat="46.54722" lon="5.48401">
        <ele>505</ele>
        <time>2022-06-28T14:05:24Z</time>
      </trkpt>
      <trkpt lat="46.54712" lon="5.48397">
        <ele>504.8</ele>
        <time>2022-06-28T14:05:25Z</time>
      </trkpt>
      <trkpt lat="46.54658" lon="5.48375">
        <ele>504</ele>
        <time>2022-06-28T14:05:30Z</time>
      </trkpt>
      <trkpt lat="46.54647" lon="5.4837">
        <ele>503.4</ele>
        <time>2022-06-28T14:05:31Z</time>
      </trkpt>
      <trkpt lat="46.54603" lon="5.48352">
        <ele>502.4</ele>
        <time>2022-06-28T14:05:35Z</time>
      </trkpt>
      <trkpt lat="46.54592" lon="5.48346">
        <ele>502</ele>
        <time>2022-06-28T14:05:36Z</time>
      </trkpt>
      <trkpt lat="46.54561" lon="5.48327">
        <ele>501.2</ele>
        <time>2022-06-28T14:05:39Z</time>
      </trkpt>
      <trkpt lat="46.54543" lon="5.48313">
        <ele>500.8</ele>
        <time>2022-06-28T14:05:41Z</time>
      </trkpt>
      <trkpt lat="46.54522" lon="5.48295">
        <ele>499.8</ele>
        <time>2022-06-28T14:05:43Z</time>
      </trkpt>
      <trkpt lat="46.5448" lon="5.48259">
        <ele>498.6</ele>
        <time>2022-06-28T14:05:47Z</time>
      </trkpt>
      <trkpt lat="46.5447" lon="5.4825">
        <ele>498</ele>
        <time>2022-06-28T14:05:48Z</time>
      </trkpt>
      <trkpt lat="46.54453" lon="5.48235">
        <ele>497.4</ele>
        <time>2022-06-28T14:05:50Z</time>
      </trkpt>
      <trkpt lat="46.54421" lon="5.4821">
        <ele>496</ele>
        <time>2022-06-28T14:05:53Z</time>
      </trkpt>
      <trkpt lat="46.54412" lon="5.48204">
        <ele>495.8</ele>
        <time>2022-06-28T14:05:54Z</time>
      </trkpt>
      <trkpt lat="46.54381" lon="5.48186">
        <ele>494.8</ele>
        <time>2022-06-28T14:05:57Z</time>
      </trkpt>
      <trkpt lat="46.5435" lon="5.4817">
        <ele>494.2</ele>
        <time>2022-06-28T14:06:00Z</time>
      </trkpt>
      <trkpt lat="46.54307" lon="5.48149">
        <ele>493.6</ele>
        <time>2022-06-28T14:06:04Z</time>
      </trkpt>
      <trkpt lat="46.54266" lon="5.48124">
        <ele>492.4</ele>
        <time>2022-06-28T14:06:08Z</time>
      </trkpt>
      <trkpt lat="46.54223" lon="5.48081">
        <ele>491.4</ele>
        <time>2022-06-28T14:06:13Z</time>
      </trkpt>
      <trkpt lat="46.54195" lon="5.48041">
        <ele>490.4</ele>
        <time>2022-06-28T14:06:17Z</time>
      </trkpt>
      <trkpt lat="46.54178" lon="5.48014">
        <ele>488.6</ele>
        <time>2022-06-28T14:06:20Z</time>
      </trkpt>
      <trkpt lat="46.54159" lon="5.47988">
        <ele>487</ele>
        <time>2022-06-28T14:06:23Z</time>
      </trkpt>
      <trkpt lat="46.54151" lon="5.47978">
        <ele>486.6</ele>
        <time>2022-06-28T14:06:24Z</time>
      </trkpt>
      <trkpt lat="46.54139" lon="5.47963">
        <ele>486</ele>
        <time>2022-06-28T14:06:26Z</time>
      </trkpt>
      <trkpt lat="46.54115" lon="5.47942">
        <ele>485.2</ele>
        <time>2022-06-28T14:06:29Z</time>
      </trkpt>
      <trkpt lat="46.54088" lon="5.47924">
        <ele>484.8</ele>
        <time>2022-06-28T14:06:32Z</time>
      </trkpt>
      <trkpt lat="46.54067" lon="5.47913">
        <ele>484.6</ele>
        <time>2022-06-28T14:06:34Z</time>
      </trkpt>
      <trkpt lat="46.54019" lon="5.47891">
        <ele>483.6</ele>
        <time>2022-06-28T14:06:39Z</time>
      </trkpt>
      <trkpt lat="46.53998" lon="5.47882">
        <ele>482.8</ele>
        <time>2022-06-28T14:06:41Z</time>
      </trkpt>
      <trkpt lat="46.53987" lon="5.47877">
        <ele>482.6</ele>
        <time>2022-06-28T14:06:42Z</time>
      </trkpt>
      <trkpt lat="46.53954" lon="5.47862">
        <ele>481.6</ele>
        <time>2022-06-28T14:06:45Z</time>
      </trkpt>
      <trkpt lat="46.53922" lon="5.47847">
        <ele>480.8</ele>
        <time>2022-06-28T14:06:48Z</time>
      </trkpt>
      <trkpt lat="46.53911" lon="5.47842">
        <ele>480.4</ele>
        <time>2022-06-28T14:06:49Z</time>
      </trkpt>
      <trkpt lat="46.53868" lon="5.47822">
        <ele>479.4</ele>
        <time>2022-06-28T14:06:53Z</time>
      </trkpt>
      <trkpt lat="46.53837" lon="5.47808">
        <ele>478.4</ele>
        <time>2022-06-28T14:06:56Z</time>
      </trkpt>
      <trkpt lat="46.53826" lon="5.47804">
        <ele>478</ele>
        <time>2022-06-28T14:06:57Z</time>
      </trkpt>
      <trkpt lat="46.53785" lon="5.47792">
        <ele>477.4</ele>
        <time>2022-06-28T14:07:01Z</time>
      </trkpt>
      <trkpt lat="46.53753" lon="5.4779">
        <ele>476.8</ele>
        <time>2022-06-28T14:07:04Z</time>
      </trkpt>
      <trkpt lat="46.53721" lon="5.4779">
        <ele>476.2</ele>
        <time>2022-06-28T14:07:07Z</time>
      </trkpt>
      <trkpt lat="46.53687" lon="5.4779">
        <ele>475.8</ele>
        <time>2022-06-28T14:07:10Z</time>
      </trkpt>
      <trkpt lat="46.53629" lon="5.47796">
        <ele>474.4</ele>
        <time>2022-06-28T14:07:15Z</time>
      </trkpt>
      <trkpt lat="46.53606" lon="5.47802">
        <ele>473.4</ele>
        <time>2022-06-28T14:07:17Z</time>
      </trkpt>
      <trkpt lat="46.53574" lon="5.47817">
        <ele>472.4</ele>
        <time>2022-06-28T14:07:20Z</time>
      </trkpt>
      <trkpt lat="46.53555" lon="5.47826">
        <ele>471.2</ele>
        <time>2022-06-28T14:07:22Z</time>
      </trkpt>
      <trkpt lat="46.53531" lon="5.47837">
        <ele>470.2</ele>
        <time>2022-06-28T14:07:24Z</time>
      </trkpt>
      <trkpt lat="46.53501" lon="5.4785">
        <ele>468.8</ele>
        <time>2022-06-28T14:07:27Z</time>
      </trkpt>
      <trkpt lat="46.53478" lon="5.47862">
        <ele>468</ele>
        <time>2022-06-28T14:07:29Z</time>
      </trkpt>
      <trkpt lat="46.53467" lon="5.47867">
        <ele>467.4</ele>
        <time>2022-06-28T14:07:30Z</time>
      </trkpt>
      <trkpt lat="46.53424" lon="5.47887">
        <ele>465.8</ele>
        <time>2022-06-28T14:07:34Z</time>
      </trkpt>
      <trkpt lat="46.53382" lon="5.47907">
        <ele>464.8</ele>
        <time>2022-06-28T14:07:38Z</time>
      </trkpt>
      <trkpt lat="46.53371" lon="5.47912">
        <ele>464.2</ele>
        <time>2022-06-28T14:07:39Z</time>
      </trkpt>
      <trkpt lat="46.53336" lon="5.47928">
        <ele>463.4</ele>
        <time>2022-06-28T14:07:42Z</time>
      </trkpt>
      <trkpt lat="46.53294" lon="5.47949">
        <ele>462.8</ele>
        <time>2022-06-28T14:07:46Z</time>
      </trkpt>
      <trkpt lat="46.53252" lon="5.47968">
        <ele>462.4</ele>
        <time>2022-06-28T14:07:50Z</time>
      </trkpt>
      <trkpt lat="46.53213" lon="5.47981">
        <ele>462</ele>
        <time>2022-06-28T14:07:54Z</time>
      </trkpt>
      <trkpt lat="46.5316" lon="5.47991">
        <ele>461.2</ele>
        <time>2022-06-28T14:07:59Z</time>
      </trkpt>
      <trkpt lat="46.53149" lon="5.47993">
        <ele>461.2</ele>
        <time>2022-06-28T14:08:00Z</time>
      </trkpt>
      <trkpt lat="46.53106" lon="5.47999">
        <ele>460.2</ele>
        <time>2022-06-28T14:08:04Z</time>
      </trkpt>
      <trkpt lat="46.53085" lon="5.48002">
        <ele>460</ele>
        <time>2022-06-28T14:08:06Z</time>
      </trkpt>
      <trkpt lat="46.53024" lon="5.48007">
        <ele>459.6</ele>
        <time>2022-06-28T14:08:12Z</time>
      </trkpt>
      <trkpt lat="46.53015" lon="5.48007">
        <ele>459.6</ele>
        <time>2022-06-28T14:08:13Z</time>
      </trkpt>
      <trkpt lat="46.53004" lon="5.48006">
        <ele>459.6</ele>
        <time>2022-06-28T14:08:14Z</time>
      </trkpt>
      <trkpt lat="46.5298" lon="5.47997">
        <ele>459.6</ele>
        <time>2022-06-28T14:08:17Z</time>
      </trkpt>
      <trkpt lat="46.52944" lon="5.47978">
        <ele>460.2</ele>
        <time>2022-06-28T14:08:22Z</time>
      </trkpt>
      <trkpt lat="46.52927" lon="5.47968">
        <ele>460.4</ele>
        <time>2022-06-28T14:08:25Z</time>
      </trkpt>
      <trkpt lat="46.52917" lon="5.47964">
        <ele>460.4</ele>
        <time>2022-06-28T14:08:27Z</time>
      </trkpt>
      <trkpt lat="46.52878" lon="5.47943">
        <ele>460.4</ele>
        <time>2022-06-28T14:08:34Z</time>
      </trkpt>
      <trkpt lat="46.52839" lon="5.47926">
        <ele>460.4</ele>
        <time>2022-06-28T14:08:40Z</time>
      </trkpt>
      <trkpt lat="46.52791" lon="5.47909">
        <ele>460</ele>
        <time>2022-06-28T14:08:46Z</time>
      </trkpt>
      <trkpt lat="46.5274" lon="5.4789">
        <ele>459.8</ele>
        <time>2022-06-28T14:08:52Z</time>
      </trkpt>
      <trkpt lat="46.52683" lon="5.4787">
        <ele>460.2</ele>
        <time>2022-06-28T14:08:59Z</time>
      </trkpt>
      <trkpt lat="46.52667" lon="5.47863">
        <ele>460.2</ele>
        <time>2022-06-28T14:09:01Z</time>
      </trkpt>
      <trkpt lat="46.52607" lon="5.47841">
        <ele>460</ele>
        <time>2022-06-28T14:09:08Z</time>
      </trkpt>
      <trkpt lat="46.5259" lon="5.47835">
        <ele>460</ele>
        <time>2022-06-28T14:09:10Z</time>
      </trkpt>
      <trkpt lat="46.52556" lon="5.47822">
        <ele>459.4</ele>
        <time>2022-06-28T14:09:14Z</time>
      </trkpt>
      <trkpt lat="46.52522" lon="5.4781">
        <ele>458.6</ele>
        <time>2022-06-28T14:09:18Z</time>
      </trkpt>
      <trkpt lat="46.52469" lon="5.4779">
        <ele>458.4</ele>
        <time>2022-06-28T14:09:24Z</time>
      </trkpt>
      <trkpt lat="46.52451" lon="5.47784">
        <ele>458.4</ele>
        <time>2022-06-28T14:09:26Z</time>
      </trkpt>
      <trkpt lat="46.52443" lon="5.4778">
        <ele>458.2</ele>
        <time>2022-06-28T14:09:27Z</time>
      </trkpt>
      <trkpt lat="46.52382" lon="5.47756">
        <ele>457.2</ele>
        <time>2022-06-28T14:09:34Z</time>
      </trkpt>
      <trkpt lat="46.52374" lon="5.47753">
        <ele>457</ele>
        <time>2022-06-28T14:09:35Z</time>
      </trkpt>
      <trkpt lat="46.52315" lon="5.47725">
        <ele>456.4</ele>
        <time>2022-06-28T14:09:42Z</time>
      </trkpt>
      <trkpt lat="46.52298" lon="5.47718">
        <ele>456</ele>
        <time>2022-06-28T14:09:44Z</time>
      </trkpt>
      <trkpt lat="46.52239" lon="5.4769">
        <ele>455.2</ele>
        <time>2022-06-28T14:09:51Z</time>
      </trkpt>
      <trkpt lat="46.52223" lon="5.47682">
        <ele>455</ele>
        <time>2022-06-28T14:09:53Z</time>
      </trkpt>
      <trkpt lat="46.52215" lon="5.47678">
        <ele>455</ele>
        <time>2022-06-28T14:09:54Z</time>
      </trkpt>
      <trkpt lat="46.5216" lon="5.47649">
        <ele>455</ele>
        <time>2022-06-28T14:10:01Z</time>
      </trkpt>
      <trkpt lat="46.52144" lon="5.47641">
        <ele>455</ele>
        <time>2022-06-28T14:10:03Z</time>
      </trkpt>
      <trkpt lat="46.52091" lon="5.47617">
        <ele>455.2</ele>
        <time>2022-06-28T14:10:10Z</time>
      </trkpt>
      <trkpt lat="46.52037" lon="5.47596">
        <ele>455.4</ele>
        <time>2022-06-28T14:10:17Z</time>
      </trkpt>
      <trkpt lat="46.52029" lon="5.47593">
        <ele>455.2</ele>
        <time>2022-06-28T14:10:18Z</time>
      </trkpt>
      <trkpt lat="46.52005" lon="5.47583">
        <ele>455</ele>
        <time>2022-06-28T14:10:21Z</time>
      </trkpt>
      <trkpt lat="46.51958" lon="5.47563">
        <ele>454.4</ele>
        <time>2022-06-28T14:10:27Z</time>
      </trkpt>
      <trkpt lat="46.51918" lon="5.47546">
        <ele>454.2</ele>
        <time>2022-06-28T14:10:32Z</time>
      </trkpt>
      <trkpt lat="46.51863" lon="5.47524">
        <ele>454.2</ele>
        <time>2022-06-28T14:10:39Z</time>
      </trkpt>
      <trkpt lat="46.5184" lon="5.47515">
        <ele>454</ele>
        <time>2022-06-28T14:10:42Z</time>
      </trkpt>
      <trkpt lat="46.51832" lon="5.47512">
        <ele>454</ele>
        <time>2022-06-28T14:10:43Z</time>
      </trkpt>
      <trkpt lat="46.51777" lon="5.47489">
        <ele>454</ele>
        <time>2022-06-28T14:10:50Z</time>
      </trkpt>
      <trkpt lat="46.51761" lon="5.47483">
        <ele>453.8</ele>
        <time>2022-06-28T14:10:52Z</time>
      </trkpt>
      <trkpt lat="46.51703" lon="5.47461">
        <ele>453.4</ele>
        <time>2022-06-28T14:10:59Z</time>
      </trkpt>
      <trkpt lat="46.51695" lon="5.47457">
        <ele>453.4</ele>
        <time>2022-06-28T14:11:00Z</time>
      </trkpt>
      <trkpt lat="46.51637" lon="5.47434">
        <ele>453</ele>
        <time>2022-06-28T14:11:07Z</time>
      </trkpt>
      <trkpt lat="46.51621" lon="5.47428">
        <ele>452.8</ele>
        <time>2022-06-28T14:11:09Z</time>
      </trkpt>
      <trkpt lat="46.51561" lon="5.47404">
        <ele>452.2</ele>
        <time>2022-06-28T14:11:16Z</time>
      </trkpt>
      <trkpt lat="46.51501" lon="5.4738">
        <ele>452</ele>
        <time>2022-06-28T14:11:23Z</time>
      </trkpt>
      <trkpt lat="46.51484" lon="5.47374">
        <ele>452</ele>
        <time>2022-06-28T14:11:25Z</time>
      </trkpt>
      <trkpt lat="46.51476" lon="5.47371">
        <ele>451.8</ele>
        <time>2022-06-28T14:11:26Z</time>
      </trkpt>
      <trkpt lat="46.51428" lon="5.47353">
        <ele>451.4</ele>
        <time>2022-06-28T14:11:32Z</time>
      </trkpt>
      <trkpt lat="46.5142" lon="5.4735">
        <ele>451.4</ele>
        <time>2022-06-28T14:11:33Z</time>
      </trkpt>
      <trkpt lat="46.51368" lon="5.47328">
        <ele>451.2</ele>
        <time>2022-06-28T14:11:39Z</time>
      </trkpt>
      <trkpt lat="46.51359" lon="5.47325">
        <ele>451.2</ele>
        <time>2022-06-28T14:11:40Z</time>
      </trkpt>
      <trkpt lat="46.51305" lon="5.47303">
        <ele>451.2</ele>
        <time>2022-06-28T14:11:46Z</time>
      </trkpt>
      <trkpt lat="46.51279" lon="5.47293">
        <ele>451</ele>
        <time>2022-06-28T14:11:49Z</time>
      </trkpt>
      <trkpt lat="46.51229" lon="5.47272">
        <ele>451</ele>
        <time>2022-06-28T14:11:55Z</time>
      </trkpt>
      <trkpt lat="46.51169" lon="5.47247">
        <ele>451</ele>
        <time>2022-06-28T14:12:02Z</time>
      </trkpt>
      <trkpt lat="46.5116" lon="5.47244">
        <ele>451</ele>
        <time>2022-06-28T14:12:03Z</time>
      </trkpt>
      <trkpt lat="46.5111" lon="5.47225">
        <ele>451</ele>
        <time>2022-06-28T14:12:09Z</time>
      </trkpt>
      <trkpt lat="46.51051" lon="5.47203">
        <ele>451</ele>
        <time>2022-06-28T14:12:16Z</time>
      </trkpt>
      <trkpt lat="46.51017" lon="5.4719">
        <ele>450.8</ele>
        <time>2022-06-28T14:12:20Z</time>
      </trkpt>
      <trkpt lat="46.51" lon="5.47184">
        <ele>450.8</ele>
        <time>2022-06-28T14:12:22Z</time>
      </trkpt>
      <trkpt lat="46.50992" lon="5.4718">
        <ele>450.8</ele>
        <time>2022-06-28T14:12:23Z</time>
      </trkpt>
      <trkpt lat="46.50959" lon="5.47164">
        <ele>450.8</ele>
        <time>2022-06-28T14:12:27Z</time>
      </trkpt>
      <trkpt lat="46.50901" lon="5.47136">
        <ele>451</ele>
        <time>2022-06-28T14:12:34Z</time>
      </trkpt>
      <trkpt lat="46.50853" lon="5.47114">
        <ele>451.2</ele>
        <time>2022-06-28T14:12:40Z</time>
      </trkpt>
      <trkpt lat="46.50794" lon="5.47089">
        <ele>450.8</ele>
        <time>2022-06-28T14:12:47Z</time>
      </trkpt>
      <trkpt lat="46.50767" lon="5.47079">
        <ele>450.8</ele>
        <time>2022-06-28T14:12:50Z</time>
      </trkpt>
      <trkpt lat="46.50707" lon="5.47055">
        <ele>450.4</ele>
        <time>2022-06-28T14:12:57Z</time>
      </trkpt>
      <trkpt lat="46.50648" lon="5.47035">
        <ele>449.8</ele>
        <time>2022-06-28T14:13:04Z</time>
      </trkpt>
      <trkpt lat="46.5064" lon="5.47032">
        <ele>449.8</ele>
        <time>2022-06-28T14:13:05Z</time>
      </trkpt>
      <trkpt lat="46.50631" lon="5.4703">
        <ele>449.8</ele>
        <time>2022-06-28T14:13:06Z</time>
      </trkpt>
      <trkpt lat="46.50579" lon="5.47014">
        <ele>449.6</ele>
        <time>2022-06-28T14:13:12Z</time>
      </trkpt>
      <trkpt lat="46.50519" lon="5.46994">
        <ele>448.8</ele>
        <time>2022-06-28T14:13:19Z</time>
      </trkpt>
      <trkpt lat="46.50511" lon="5.46992">
        <ele>448.8</ele>
        <time>2022-06-28T14:13:20Z</time>
      </trkpt>
      <trkpt lat="46.50503" lon="5.4699">
        <ele>448.6</ele>
        <time>2022-06-28T14:13:21Z</time>
      </trkpt>
      <trkpt lat="46.50455" lon="5.46974">
        <ele>448.6</ele>
        <time>2022-06-28T14:13:27Z</time>
      </trkpt>
      <trkpt lat="46.504" lon="5.46964">
        <ele>449.2</ele>
        <time>2022-06-28T14:13:34Z</time>
      </trkpt>
      <trkpt lat="46.50383" lon="5.46962">
        <ele>449.8</ele>
        <time>2022-06-28T14:13:36Z</time>
      </trkpt>
      <trkpt lat="46.50326" lon="5.4696">
        <ele>450.6</ele>
        <time>2022-06-28T14:13:43Z</time>
      </trkpt>
      <trkpt lat="46.50309" lon="5.4696">
        <ele>450.8</ele>
        <time>2022-06-28T14:13:45Z</time>
      </trkpt>
      <trkpt lat="46.50269" lon="5.46961">
        <ele>451.6</ele>
        <time>2022-06-28T14:13:50Z</time>
      </trkpt>
      <trkpt lat="46.50232" lon="5.46966">
        <ele>452.2</ele>
        <time>2022-06-28T14:13:54Z</time>
      </trkpt>
      <trkpt lat="46.50205" lon="5.46972">
        <ele>452.4</ele>
        <time>2022-06-28T14:13:57Z</time>
      </trkpt>
      <trkpt lat="46.50152" lon="5.46991">
        <ele>452.4</ele>
        <time>2022-06-28T14:14:03Z</time>
      </trkpt>
      <trkpt lat="46.50143" lon="5.46995">
        <ele>452.4</ele>
        <time>2022-06-28T14:14:04Z</time>
      </trkpt>
      <trkpt lat="46.50085" lon="5.47016">
        <ele>452.2</ele>
        <time>2022-06-28T14:14:11Z</time>
      </trkpt>
      <trkpt lat="46.50068" lon="5.47021">
        <ele>452</ele>
        <time>2022-06-28T14:14:13Z</time>
      </trkpt>
      <trkpt lat="46.50006" lon="5.47023">
        <ele>451.4</ele>
        <time>2022-06-28T14:14:20Z</time>
      </trkpt>
      <trkpt lat="46.49979" lon="5.47018">
        <ele>451.2</ele>
        <time>2022-06-28T14:14:23Z</time>
      </trkpt>
      <trkpt lat="46.49945" lon="5.47008">
        <ele>450.6</ele>
        <time>2022-06-28T14:14:27Z</time>
      </trkpt>
      <trkpt lat="46.4991" lon="5.47">
        <ele>450.2</ele>
        <time>2022-06-28T14:14:31Z</time>
      </trkpt>
      <trkpt lat="46.49855" lon="5.46988">
        <ele>449.6</ele>
        <time>2022-06-28T14:14:37Z</time>
      </trkpt>
      <trkpt lat="46.49816" lon="5.46981">
        <ele>449</ele>
        <time>2022-06-28T14:14:41Z</time>
      </trkpt>
      <trkpt lat="46.49806" lon="5.46979">
        <ele>449</ele>
        <time>2022-06-28T14:14:42Z</time>
      </trkpt>
      <trkpt lat="46.49747" lon="5.46968">
        <ele>448.2</ele>
        <time>2022-06-28T14:14:49Z</time>
      </trkpt>
      <trkpt lat="46.49727" lon="5.46965">
        <ele>448</ele>
        <time>2022-06-28T14:14:51Z</time>
      </trkpt>
      <trkpt lat="46.49666" lon="5.46954">
        <ele>447.2</ele>
        <time>2022-06-28T14:14:57Z</time>
      </trkpt>
      <trkpt lat="46.49646" lon="5.46948">
        <ele>447</ele>
        <time>2022-06-28T14:14:59Z</time>
      </trkpt>
      <trkpt lat="46.49594" lon="5.46934">
        <ele>446</ele>
        <time>2022-06-28T14:15:04Z</time>
      </trkpt>
      <trkpt lat="46.49584" lon="5.46931">
        <ele>445.6</ele>
        <time>2022-06-28T14:15:05Z</time>
      </trkpt>
      <trkpt lat="46.49532" lon="5.46909">
        <ele>444.6</ele>
        <time>2022-06-28T14:15:10Z</time>
      </trkpt>
      <trkpt lat="46.49522" lon="5.46904">
        <ele>444.2</ele>
        <time>2022-06-28T14:15:11Z</time>
      </trkpt>
      <trkpt lat="46.49482" lon="5.46883">
        <ele>443.6</ele>
        <time>2022-06-28T14:15:15Z</time>
      </trkpt>
      <trkpt lat="46.49428" lon="5.46856">
        <ele>442.4</ele>
        <time>2022-06-28T14:15:20Z</time>
      </trkpt>
      <trkpt lat="46.49395" lon="5.46839">
        <ele>441</ele>
        <time>2022-06-28T14:15:23Z</time>
      </trkpt>
      <trkpt lat="46.49372" lon="5.46827">
        <ele>440.4</ele>
        <time>2022-06-28T14:15:25Z</time>
      </trkpt>
      <trkpt lat="46.49348" lon="5.46814">
        <ele>439.8</ele>
        <time>2022-06-28T14:15:27Z</time>
      </trkpt>
      <trkpt lat="46.49311" lon="5.46794">
        <ele>438.8</ele>
        <time>2022-06-28T14:15:30Z</time>
      </trkpt>
      <trkpt lat="46.49298" lon="5.46787">
        <ele>438.4</ele>
        <time>2022-06-28T14:15:31Z</time>
      </trkpt>
      <trkpt lat="46.49272" lon="5.46771">
        <ele>437.4</ele>
        <time>2022-06-28T14:15:33Z</time>
      </trkpt>
      <trkpt lat="46.49217" lon="5.46744">
        <ele>435.6</ele>
        <time>2022-06-28T14:15:37Z</time>
      </trkpt>
      <trkpt lat="46.49203" lon="5.4674">
        <ele>435.2</ele>
        <time>2022-06-28T14:15:38Z</time>
      </trkpt>
      <trkpt lat="46.49188" lon="5.4674">
        <ele>433.8</ele>
        <time>2022-06-28T14:15:39Z</time>
      </trkpt>
      <trkpt lat="46.49174" lon="5.46742">
        <ele>433</ele>
        <time>2022-06-28T14:15:40Z</time>
      </trkpt>
      <trkpt lat="46.49159" lon="5.46747">
        <ele>431.6</ele>
        <time>2022-06-28T14:15:41Z</time>
      </trkpt>
      <trkpt lat="46.49146" lon="5.46754">
        <ele>430.4</ele>
        <time>2022-06-28T14:15:42Z</time>
      </trkpt>
      <trkpt lat="46.49132" lon="5.46762">
        <ele>429.8</ele>
        <time>2022-06-28T14:15:43Z</time>
      </trkpt>
      <trkpt lat="46.4912" lon="5.46772">
        <ele>428.4</ele>
        <time>2022-06-28T14:15:44Z</time>
      </trkpt>
      <trkpt lat="46.49095" lon="5.46794">
        <ele>426.6</ele>
        <time>2022-06-28T14:15:46Z</time>
      </trkpt>
      <trkpt lat="46.4907" lon="5.46815">
        <ele>425.2</ele>
        <time>2022-06-28T14:15:48Z</time>
      </trkpt>
      <trkpt lat="46.49058" lon="5.46826">
        <ele>424</ele>
        <time>2022-06-28T14:15:49Z</time>
      </trkpt>
      <trkpt lat="46.49022" lon="5.46859">
        <ele>423</ele>
        <time>2022-06-28T14:15:52Z</time>
      </trkpt>
      <trkpt lat="46.48997" lon="5.46881">
        <ele>421.8</ele>
        <time>2022-06-28T14:15:54Z</time>
      </trkpt>
      <trkpt lat="46.48972" lon="5.46901">
        <ele>420.6</ele>
        <time>2022-06-28T14:15:56Z</time>
      </trkpt>
      <trkpt lat="46.48959" lon="5.4691">
        <ele>420.2</ele>
        <time>2022-06-28T14:15:57Z</time>
      </trkpt>
      <trkpt lat="46.48945" lon="5.46916">
        <ele>419</ele>
        <time>2022-06-28T14:15:58Z</time>
      </trkpt>
      <trkpt lat="46.48931" lon="5.46919">
        <ele>418.6</ele>
        <time>2022-06-28T14:15:59Z</time>
      </trkpt>
      <trkpt lat="46.48906" lon="5.46918">
        <ele>417.2</ele>
        <time>2022-06-28T14:16:01Z</time>
      </trkpt>
      <trkpt lat="46.48889" lon="5.46915">
        <ele>415.6</ele>
        <time>2022-06-28T14:16:02Z</time>
      </trkpt>
      <trkpt lat="46.48861" lon="5.46907">
        <ele>414.4</ele>
        <time>2022-06-28T14:16:04Z</time>
      </trkpt>
      <trkpt lat="46.48848" lon="5.46901">
        <ele>413.4</ele>
        <time>2022-06-28T14:16:05Z</time>
      </trkpt>
      <trkpt lat="46.48834" lon="5.46894">
        <ele>412.6</ele>
        <time>2022-06-28T14:16:06Z</time>
      </trkpt>
      <trkpt lat="46.48821" lon="5.46887">
        <ele>411.4</ele>
        <time>2022-06-28T14:16:07Z</time>
      </trkpt>
      <trkpt lat="46.48795" lon="5.46871">
        <ele>409.6</ele>
        <time>2022-06-28T14:16:09Z</time>
      </trkpt>
      <trkpt lat="46.48769" lon="5.46856">
        <ele>408.4</ele>
        <time>2022-06-28T14:16:11Z</time>
      </trkpt>
      <trkpt lat="46.48744" lon="5.4684">
        <ele>407</ele>
        <time>2022-06-28T14:16:13Z</time>
      </trkpt>
      <trkpt lat="46.48719" lon="5.46825">
        <ele>405.6</ele>
        <time>2022-06-28T14:16:15Z</time>
      </trkpt>
      <trkpt lat="46.48707" lon="5.46817">
        <ele>405</ele>
        <time>2022-06-28T14:16:16Z</time>
      </trkpt>
      <trkpt lat="46.48695" lon="5.4681">
        <ele>404.4</ele>
        <time>2022-06-28T14:16:17Z</time>
      </trkpt>
      <trkpt lat="46.48671" lon="5.46795">
        <ele>403.2</ele>
        <time>2022-06-28T14:16:19Z</time>
      </trkpt>
      <trkpt lat="46.48647" lon="5.46781">
        <ele>402.2</ele>
        <time>2022-06-28T14:16:21Z</time>
      </trkpt>
      <trkpt lat="46.48626" lon="5.46768">
        <ele>401</ele>
        <time>2022-06-28T14:16:23Z</time>
      </trkpt>
      <trkpt lat="46.48612" lon="5.4676">
        <ele>400.6</ele>
        <time>2022-06-28T14:16:24Z</time>
      </trkpt>
      <trkpt lat="46.486" lon="5.46753">
        <ele>399.6</ele>
        <time>2022-06-28T14:16:25Z</time>
      </trkpt>
      <trkpt lat="46.48568" lon="5.46733">
        <ele>398.4</ele>
        <time>2022-06-28T14:16:28Z</time>
      </trkpt>
      <trkpt lat="46.4851" lon="5.46699">
        <ele>397.2</ele>
        <time>2022-06-28T14:16:33Z</time>
      </trkpt>
      <trkpt lat="46.48481" lon="5.46681">
        <ele>396</ele>
        <time>2022-06-28T14:16:36Z</time>
      </trkpt>
      <trkpt lat="46.48428" lon="5.46648">
        <ele>395.4</ele>
        <time>2022-06-28T14:16:41Z</time>
      </trkpt>
      <trkpt lat="46.48405" lon="5.46634">
        <ele>395</ele>
        <time>2022-06-28T14:16:43Z</time>
      </trkpt>
      <trkpt lat="46.48348" lon="5.46601">
        <ele>394</ele>
        <time>2022-06-28T14:16:49Z</time>
      </trkpt>
      <trkpt lat="46.48329" lon="5.46592">
        <ele>394</ele>
        <time>2022-06-28T14:16:51Z</time>
      </trkpt>
      <trkpt lat="46.4831" lon="5.46587">
        <ele>394</ele>
        <time>2022-06-28T14:16:53Z</time>
      </trkpt>
      <trkpt lat="46.48252" lon="5.46577">
        <ele>393.6</ele>
        <time>2022-06-28T14:16:59Z</time>
      </trkpt>
      <trkpt lat="46.48243" lon="5.46576">
        <ele>393.6</ele>
        <time>2022-06-28T14:17:00Z</time>
      </trkpt>
      <trkpt lat="46.48182" lon="5.46565">
        <ele>393.4</ele>
        <time>2022-06-28T14:17:07Z</time>
      </trkpt>
      <trkpt lat="46.48171" lon="5.46563">
        <ele>393.4</ele>
        <time>2022-06-28T14:17:08Z</time>
      </trkpt>
      <trkpt lat="46.48111" lon="5.46552">
        <ele>393.4</ele>
        <time>2022-06-28T14:17:15Z</time>
      </trkpt>
      <trkpt lat="46.48074" lon="5.46547">
        <ele>393.4</ele>
        <time>2022-06-28T14:17:19Z</time>
      </trkpt>
      <trkpt lat="46.48014" lon="5.46536">
        <ele>393.6</ele>
        <time>2022-06-28T14:17:26Z</time>
      </trkpt>
      <trkpt lat="46.47999" lon="5.46533">
        <ele>393.8</ele>
        <time>2022-06-28T14:17:28Z</time>
      </trkpt>
      <trkpt lat="46.47937" lon="5.46522">
        <ele>394</ele>
        <time>2022-06-28T14:17:35Z</time>
      </trkpt>
      <trkpt lat="46.47894" lon="5.46515">
        <ele>394.2</ele>
        <time>2022-06-28T14:17:40Z</time>
      </trkpt>
      <trkpt lat="46.47834" lon="5.46504">
        <ele>394</ele>
        <time>2022-06-28T14:17:47Z</time>
      </trkpt>
      <trkpt lat="46.47817" lon="5.465">
        <ele>393.8</ele>
        <time>2022-06-28T14:17:49Z</time>
      </trkpt>
      <trkpt lat="46.47756" lon="5.46489">
        <ele>393.6</ele>
        <time>2022-06-28T14:17:56Z</time>
      </trkpt>
      <trkpt lat="46.47731" lon="5.46484">
        <ele>393.6</ele>
        <time>2022-06-28T14:17:59Z</time>
      </trkpt>
      <trkpt lat="46.4767" lon="5.46474">
        <ele>393.2</ele>
        <time>2022-06-28T14:18:06Z</time>
      </trkpt>
      <trkpt lat="46.47662" lon="5.46473">
        <ele>393.2</ele>
        <time>2022-06-28T14:18:07Z</time>
      </trkpt>
      <trkpt lat="46.47644" lon="5.46469">
        <ele>393</ele>
        <time>2022-06-28T14:18:09Z</time>
      </trkpt>
      <trkpt lat="46.47589" lon="5.46459">
        <ele>392.6</ele>
        <time>2022-06-28T14:18:15Z</time>
      </trkpt>
      <trkpt lat="46.47542" lon="5.46451">
        <ele>392.2</ele>
        <time>2022-06-28T14:18:20Z</time>
      </trkpt>
      <trkpt lat="46.47523" lon="5.46447">
        <ele>392</ele>
        <time>2022-06-28T14:18:22Z</time>
      </trkpt>
      <trkpt lat="46.47465" lon="5.46437">
        <ele>391.2</ele>
        <time>2022-06-28T14:18:28Z</time>
      </trkpt>
      <trkpt lat="46.47445" lon="5.46433">
        <ele>391</ele>
        <time>2022-06-28T14:18:30Z</time>
      </trkpt>
      <trkpt lat="46.47386" lon="5.46423">
        <ele>390</ele>
        <time>2022-06-28T14:18:36Z</time>
      </trkpt>
      <trkpt lat="46.47376" lon="5.46421">
        <ele>389.8</ele>
        <time>2022-06-28T14:18:37Z</time>
      </trkpt>
      <trkpt lat="46.47326" lon="5.46412">
        <ele>389</ele>
        <time>2022-06-28T14:18:42Z</time>
      </trkpt>
      <trkpt lat="46.47297" lon="5.46407">
        <ele>388.8</ele>
        <time>2022-06-28T14:18:45Z</time>
      </trkpt>
      <trkpt lat="46.47237" lon="5.46397">
        <ele>388</ele>
        <time>2022-06-28T14:18:51Z</time>
      </trkpt>
      <trkpt lat="46.47227" lon="5.46395">
        <ele>387.8</ele>
        <time>2022-06-28T14:18:52Z</time>
      </trkpt>
      <trkpt lat="46.4717" lon="5.46386">
        <ele>386.6</ele>
        <time>2022-06-28T14:18:58Z</time>
      </trkpt>
      <trkpt lat="46.47152" lon="5.46382">
        <ele>386.2</ele>
        <time>2022-06-28T14:19:00Z</time>
      </trkpt>
      <trkpt lat="46.47117" lon="5.46376">
        <ele>385.4</ele>
        <time>2022-06-28T14:19:04Z</time>
      </trkpt>
      <trkpt lat="46.47083" lon="5.46369">
        <ele>385.4</ele>
        <time>2022-06-28T14:19:08Z</time>
      </trkpt>
      <trkpt lat="46.47023" lon="5.46358">
        <ele>385.2</ele>
        <time>2022-06-28T14:19:15Z</time>
      </trkpt>
      <trkpt lat="46.47015" lon="5.46357">
        <ele>385</ele>
        <time>2022-06-28T14:19:16Z</time>
      </trkpt>
      <trkpt lat="46.46953" lon="5.46346">
        <ele>385</ele>
        <time>2022-06-28T14:19:23Z</time>
      </trkpt>
      <trkpt lat="46.46907" lon="5.46338">
        <ele>385</ele>
        <time>2022-06-28T14:19:28Z</time>
      </trkpt>
      <trkpt lat="46.46851" lon="5.46328">
        <ele>384.6</ele>
        <time>2022-06-28T14:19:34Z</time>
      </trkpt>
      <trkpt lat="46.46817" lon="5.46322">
        <ele>384.6</ele>
        <time>2022-06-28T14:19:38Z</time>
      </trkpt>
      <trkpt lat="46.46799" lon="5.46318">
        <ele>384.6</ele>
        <time>2022-06-28T14:19:40Z</time>
      </trkpt>
      <trkpt lat="46.46746" lon="5.46309">
        <ele>384.8</ele>
        <time>2022-06-28T14:19:46Z</time>
      </trkpt>
      <trkpt lat="46.46684" lon="5.46298">
        <ele>384.8</ele>
        <time>2022-06-28T14:19:53Z</time>
      </trkpt>
      <trkpt lat="46.46624" lon="5.46287">
        <ele>384.2</ele>
        <time>2022-06-28T14:20:00Z</time>
      </trkpt>
      <trkpt lat="46.46615" lon="5.46285">
        <ele>384.2</ele>
        <time>2022-06-28T14:20:01Z</time>
      </trkpt>
      <trkpt lat="46.46554" lon="5.46274">
        <ele>384</ele>
        <time>2022-06-28T14:20:08Z</time>
      </trkpt>
      <trkpt lat="46.46529" lon="5.46269">
        <ele>384</ele>
        <time>2022-06-28T14:20:11Z</time>
      </trkpt>
      <trkpt lat="46.46469" lon="5.46258">
        <ele>384.2</ele>
        <time>2022-06-28T14:20:18Z</time>
      </trkpt>
      <trkpt lat="46.46452" lon="5.46255">
        <ele>384</ele>
        <time>2022-06-28T14:20:20Z</time>
      </trkpt>
      <trkpt lat="46.46393" lon="5.46245">
        <ele>383.8</ele>
        <time>2022-06-28T14:20:27Z</time>
      </trkpt>
      <trkpt lat="46.46368" lon="5.4624">
        <ele>383.8</ele>
        <time>2022-06-28T14:20:30Z</time>
      </trkpt>
      <trkpt lat="46.46307" lon="5.46229">
        <ele>384.2</ele>
        <time>2022-06-28T14:20:37Z</time>
      </trkpt>
      <trkpt lat="46.46282" lon="5.46225">
        <ele>384</ele>
        <time>2022-06-28T14:20:40Z</time>
      </trkpt>
      <trkpt lat="46.46223" lon="5.46214">
        <ele>384</ele>
        <time>2022-06-28T14:20:47Z</time>
      </trkpt>
      <trkpt lat="46.46206" lon="5.46211">
        <ele>384</ele>
        <time>2022-06-28T14:20:49Z</time>
      </trkpt>
      <trkpt lat="46.46148" lon="5.46202">
        <ele>384.2</ele>
        <time>2022-06-28T14:20:56Z</time>
      </trkpt>
      <trkpt lat="46.46106" lon="5.46194">
        <ele>384</ele>
        <time>2022-06-28T14:21:01Z</time>
      </trkpt>
      <trkpt lat="46.46047" lon="5.46184">
        <ele>384</ele>
        <time>2022-06-28T14:21:08Z</time>
      </trkpt>
      <trkpt lat="46.46039" lon="5.46182">
        <ele>384</ele>
        <time>2022-06-28T14:21:09Z</time>
      </trkpt>
      <trkpt lat="46.45981" lon="5.46171">
        <ele>383.8</ele>
        <time>2022-06-28T14:21:16Z</time>
      </trkpt>
      <trkpt lat="46.45947" lon="5.46165">
        <ele>383.8</ele>
        <time>2022-06-28T14:21:20Z</time>
      </trkpt>
      <trkpt lat="46.45888" lon="5.46155">
        <ele>384</ele>
        <time>2022-06-28T14:21:27Z</time>
      </trkpt>
      <trkpt lat="46.45871" lon="5.46152">
        <ele>384</ele>
        <time>2022-06-28T14:21:29Z</time>
      </trkpt>
      <trkpt lat="46.45814" lon="5.46143">
        <ele>384</ele>
        <time>2022-06-28T14:21:36Z</time>
      </trkpt>
      <trkpt lat="46.45773" lon="5.46135">
        <ele>384</ele>
        <time>2022-06-28T14:21:41Z</time>
      </trkpt>
      <trkpt lat="46.45746" lon="5.4613">
        <ele>384</ele>
        <time>2022-06-28T14:21:44Z</time>
      </trkpt>
      <trkpt lat="46.45723" lon="5.46127">
        <ele>384.2</ele>
        <time>2022-06-28T14:21:47Z</time>
      </trkpt>
      <trkpt lat="46.45665" lon="5.46116">
        <ele>384.2</ele>
        <time>2022-06-28T14:21:54Z</time>
      </trkpt>
      <trkpt lat="46.45641" lon="5.46112">
        <ele>384.4</ele>
        <time>2022-06-28T14:21:57Z</time>
      </trkpt>
      <trkpt lat="46.45584" lon="5.46101">
        <ele>384.6</ele>
        <time>2022-06-28T14:22:04Z</time>
      </trkpt>
      <trkpt lat="46.45576" lon="5.461">
        <ele>384.8</ele>
        <time>2022-06-28T14:22:05Z</time>
      </trkpt>
      <trkpt lat="46.45544" lon="5.46094">
        <ele>385</ele>
        <time>2022-06-28T14:22:09Z</time>
      </trkpt>
      <trkpt lat="46.45523" lon="5.4609">
        <ele>385.6</ele>
        <time>2022-06-28T14:22:12Z</time>
      </trkpt>
      <trkpt lat="46.4549" lon="5.46084">
        <ele>386.2</ele>
        <time>2022-06-28T14:22:16Z</time>
      </trkpt>
      <trkpt lat="46.45459" lon="5.46078">
        <ele>387.4</ele>
        <time>2022-06-28T14:22:20Z</time>
      </trkpt>
      <trkpt lat="46.45453" lon="5.46077">
        <ele>387.4</ele>
        <time>2022-06-28T14:22:21Z</time>
      </trkpt>
      <trkpt lat="46.45407" lon="5.4607">
        <ele>388.6</ele>
        <time>2022-06-28T14:22:27Z</time>
      </trkpt>
      <trkpt lat="46.454" lon="5.46069">
        <ele>388.6</ele>
        <time>2022-06-28T14:22:28Z</time>
      </trkpt>
      <trkpt lat="46.45379" lon="5.46065">
        <ele>389.6</ele>
        <time>2022-06-28T14:22:31Z</time>
      </trkpt>
      <trkpt lat="46.45343" lon="5.46059">
        <ele>390.2</ele>
        <time>2022-06-28T14:22:36Z</time>
      </trkpt>
      <trkpt lat="46.45287" lon="5.46051">
        <ele>390.6</ele>
        <time>2022-06-28T14:22:44Z</time>
      </trkpt>
      <trkpt lat="46.4528" lon="5.4605">
        <ele>390.6</ele>
        <time>2022-06-28T14:22:45Z</time>
      </trkpt>
      <trkpt lat="46.45261" lon="5.46047">
        <ele>390.8</ele>
        <time>2022-06-28T14:22:48Z</time>
      </trkpt>
      <trkpt lat="46.45255" lon="5.46046">
        <ele>390.8</ele>
        <time>2022-06-28T14:22:49Z</time>
      </trkpt>
      <trkpt lat="46.4525" lon="5.46042">
        <ele>390.8</ele>
        <time>2022-06-28T14:22:50Z</time>
      </trkpt>
      <trkpt lat="46.45246" lon="5.46029">
        <ele>390.8</ele>
        <time>2022-06-28T14:22:52Z</time>
      </trkpt>
      <trkpt lat="46.4525" lon="5.46021">
        <ele>390.8</ele>
        <time>2022-06-28T14:22:53Z</time>
      </trkpt>
      <trkpt lat="46.45266" lon="5.45988">
        <ele>390.6</ele>
        <time>2022-06-28T14:22:57Z</time>
      </trkpt>
      <trkpt lat="46.45272" lon="5.45967">
        <ele>390</ele>
        <time>2022-06-28T14:22:59Z</time>
      </trkpt>
      <trkpt lat="46.45276" lon="5.45947">
        <ele>389.4</ele>
        <time>2022-06-28T14:23:01Z</time>
      </trkpt>
      <trkpt lat="46.45281" lon="5.4592">
        <ele>388.8</ele>
        <time>2022-06-28T14:23:03Z</time>
      </trkpt>
      <trkpt lat="46.45284" lon="5.45909">
        <ele>388.2</ele>
        <time>2022-06-28T14:23:04Z</time>
      </trkpt>
      <trkpt lat="46.45291" lon="5.45884">
        <ele>387</ele>
        <time>2022-06-28T14:23:06Z</time>
      </trkpt>
      <trkpt lat="46.45304" lon="5.45847">
        <ele>385.8</ele>
        <time>2022-06-28T14:23:09Z</time>
      </trkpt>
      <trkpt lat="46.45311" lon="5.45823">
        <ele>384.8</ele>
        <time>2022-06-28T14:23:11Z</time>
      </trkpt>
      <trkpt lat="46.45314" lon="5.45811">
        <ele>384.6</ele>
        <time>2022-06-28T14:23:12Z</time>
      </trkpt>
      <trkpt lat="46.45326" lon="5.4575">
        <ele>383.8</ele>
        <time>2022-06-28T14:23:17Z</time>
      </trkpt>
      <trkpt lat="46.45328" lon="5.45738">
        <ele>383.8</ele>
        <time>2022-06-28T14:23:18Z</time>
      </trkpt>
      <trkpt lat="46.45341" lon="5.4566">
        <ele>383.4</ele>
        <time>2022-06-28T14:23:25Z</time>
      </trkpt>
      <trkpt lat="46.45349" lon="5.45628">
        <ele>383.4</ele>
        <time>2022-06-28T14:23:28Z</time>
      </trkpt>
      <trkpt lat="46.45353" lon="5.45619">
        <ele>383.2</ele>
        <time>2022-06-28T14:23:29Z</time>
      </trkpt>
      <trkpt lat="46.45358" lon="5.45611">
        <ele>383.2</ele>
        <time>2022-06-28T14:23:30Z</time>
      </trkpt>
      <trkpt lat="46.4537" lon="5.45601">
        <ele>383.2</ele>
        <time>2022-06-28T14:23:32Z</time>
      </trkpt>
      <trkpt lat="46.45391" lon="5.45594">
        <ele>383.2</ele>
        <time>2022-06-28T14:23:35Z</time>
      </trkpt>
      <trkpt lat="46.45398" lon="5.45594">
        <ele>383.2</ele>
        <time>2022-06-28T14:23:36Z</time>
      </trkpt>
      <trkpt lat="46.45404" lon="5.45595">
        <ele>383.2</ele>
        <time>2022-06-28T14:23:37Z</time>
      </trkpt>
      <trkpt lat="46.45422" lon="5.45606">
        <ele>383.4</ele>
        <time>2022-06-28T14:23:40Z</time>
      </trkpt>
      <trkpt lat="46.45458" lon="5.45636">
        <ele>384</ele>
        <time>2022-06-28T14:23:47Z</time>
      </trkpt>
      <trkpt lat="46.45488" lon="5.45658">
        <ele>384.8</ele>
        <time>2022-06-28T14:23:53Z</time>
      </trkpt>
      <trkpt lat="46.45503" lon="5.45667">
        <ele>385.2</ele>
        <time>2022-06-28T14:23:56Z</time>
      </trkpt>
      <trkpt lat="46.45527" lon="5.45679">
        <ele>386</ele>
        <time>2022-06-28T14:24:01Z</time>
      </trkpt>
      <trkpt lat="46.45545" lon="5.45688">
        <ele>386.6</ele>
        <time>2022-06-28T14:24:05Z</time>
      </trkpt>
      <trkpt lat="46.45553" lon="5.45692">
        <ele>387.2</ele>
        <time>2022-06-28T14:24:07Z</time>
      </trkpt>
      <trkpt lat="46.45561" lon="5.45696">
        <ele>388.2</ele>
        <time>2022-06-28T14:24:09Z</time>
      </trkpt>
      <trkpt lat="46.4557" lon="5.45698">
        <ele>389.2</ele>
        <time>2022-06-28T14:24:11Z</time>
      </trkpt>
      <trkpt lat="46.45574" lon="5.45699">
        <ele>389.4</ele>
        <time>2022-06-28T14:24:12Z</time>
      </trkpt>
      <trkpt lat="46.45596" lon="5.457">
        <ele>390.6</ele>
        <time>2022-06-28T14:24:17Z</time>
      </trkpt>
      <trkpt lat="46.456" lon="5.457">
        <ele>390.8</ele>
        <time>2022-06-28T14:24:18Z</time>
      </trkpt>
      <trkpt lat="46.45605" lon="5.457">
        <ele>391</ele>
        <time>2022-06-28T14:24:19Z</time>
      </trkpt>
      <trkpt lat="46.45619" lon="5.45696">
        <ele>391.2</ele>
        <time>2022-06-28T14:24:22Z</time>
      </trkpt>
      <trkpt lat="46.45623" lon="5.45694">
        <ele>391.2</ele>
        <time>2022-06-28T14:24:23Z</time>
      </trkpt>
      <trkpt lat="46.45632" lon="5.4569">
        <ele>391.8</ele>
        <time>2022-06-28T14:24:25Z</time>
      </trkpt>
      <trkpt lat="46.45651" lon="5.45681">
        <ele>392.8</ele>
        <time>2022-06-28T14:24:29Z</time>
      </trkpt>
      <trkpt lat="46.45664" lon="5.45673">
        <ele>393.4</ele>
        <time>2022-06-28T14:24:32Z</time>
      </trkpt>
      <trkpt lat="46.45687" lon="5.4566">
        <ele>394</ele>
        <time>2022-06-28T14:24:37Z</time>
      </trkpt>
      <trkpt lat="46.45714" lon="5.45643">
        <ele>395</ele>
        <time>2022-06-28T14:24:43Z</time>
      </trkpt>
      <trkpt lat="46.45759" lon="5.45617">
        <ele>395.8</ele>
        <time>2022-06-28T14:24:52Z</time>
      </trkpt>
      <trkpt lat="46.45797" lon="5.45596">
        <ele>396</ele>
        <time>2022-06-28T14:24:59Z</time>
      </trkpt>
      <trkpt lat="46.45814" lon="5.45587">
        <ele>396</ele>
        <time>2022-06-28T14:25:02Z</time>
      </trkpt>
      <trkpt lat="46.45853" lon="5.45566">
        <ele>395.8</ele>
        <time>2022-06-28T14:25:08Z</time>
      </trkpt>
      <trkpt lat="46.45905" lon="5.45536">
        <ele>395.4</ele>
        <time>2022-06-28T14:25:15Z</time>
      </trkpt>
      <trkpt lat="46.45913" lon="5.45532">
        <ele>395</ele>
        <time>2022-06-28T14:25:16Z</time>
      </trkpt>
      <trkpt lat="46.4592" lon="5.45528">
        <ele>394.6</ele>
        <time>2022-06-28T14:25:17Z</time>
      </trkpt>
      <trkpt lat="46.45958" lon="5.45506">
        <ele>393.4</ele>
        <time>2022-06-28T14:25:22Z</time>
      </trkpt>
      <trkpt lat="46.45995" lon="5.45485">
        <ele>392.2</ele>
        <time>2022-06-28T14:25:27Z</time>
      </trkpt>
      <trkpt lat="46.46029" lon="5.45464">
        <ele>391.2</ele>
        <time>2022-06-28T14:25:32Z</time>
      </trkpt>
      <trkpt lat="46.46052" lon="5.45451">
        <ele>390.8</ele>
        <time>2022-06-28T14:25:35Z</time>
      </trkpt>
      <trkpt lat="46.4608" lon="5.45434">
        <ele>390.2</ele>
        <time>2022-06-28T14:25:39Z</time>
      </trkpt>
      <trkpt lat="46.46108" lon="5.45416">
        <ele>389.8</ele>
        <time>2022-06-28T14:25:43Z</time>
      </trkpt>
      <trkpt lat="46.46159" lon="5.45383">
        <ele>389.6</ele>
        <time>2022-06-28T14:25:50Z</time>
      </trkpt>
      <trkpt lat="46.46179" lon="5.45368">
        <ele>389.2</ele>
        <time>2022-06-28T14:25:53Z</time>
      </trkpt>
      <trkpt lat="46.46231" lon="5.4533">
        <ele>388.2</ele>
        <time>2022-06-28T14:26:01Z</time>
      </trkpt>
      <trkpt lat="46.46244" lon="5.45321">
        <ele>388</ele>
        <time>2022-06-28T14:26:03Z</time>
      </trkpt>
      <trkpt lat="46.46294" lon="5.4528">
        <ele>387.2</ele>
        <time>2022-06-28T14:26:11Z</time>
      </trkpt>
      <trkpt lat="46.46307" lon="5.4527">
        <ele>387.2</ele>
        <time>2022-06-28T14:26:13Z</time>
      </trkpt>
      <trkpt lat="46.46346" lon="5.4524">
        <ele>387.4</ele>
        <time>2022-06-28T14:26:19Z</time>
      </trkpt>
      <trkpt lat="46.46393" lon="5.45213">
        <ele>387.2</ele>
        <time>2022-06-28T14:26:26Z</time>
      </trkpt>
      <trkpt lat="46.464" lon="5.45208">
        <ele>387.2</ele>
        <time>2022-06-28T14:26:27Z</time>
      </trkpt>
      <trkpt lat="46.46416" lon="5.4519">
        <ele>386.8</ele>
        <time>2022-06-28T14:26:30Z</time>
      </trkpt>
      <trkpt lat="46.46427" lon="5.45169">
        <ele>386.8</ele>
        <time>2022-06-28T14:26:33Z</time>
      </trkpt>
      <trkpt lat="46.4643" lon="5.45162">
        <ele>387</ele>
        <time>2022-06-28T14:26:34Z</time>
      </trkpt>
      <trkpt lat="46.46431" lon="5.45154">
        <ele>387</ele>
        <time>2022-06-28T14:26:35Z</time>
      </trkpt>
      <trkpt lat="46.46432" lon="5.45131">
        <ele>387.2</ele>
        <time>2022-06-28T14:26:38Z</time>
      </trkpt>
      <trkpt lat="46.46426" lon="5.45097">
        <ele>388</ele>
        <time>2022-06-28T14:26:43Z</time>
      </trkpt>
      <trkpt lat="46.46421" lon="5.45073">
        <ele>388.2</ele>
        <time>2022-06-28T14:26:46Z</time>
      </trkpt>
      <trkpt lat="46.46416" lon="5.45055">
        <ele>388.2</ele>
        <time>2022-06-28T14:26:48Z</time>
      </trkpt>
      <trkpt lat="46.46403" lon="5.45007">
        <ele>388.2</ele>
        <time>2022-06-28T14:26:53Z</time>
      </trkpt>
      <trkpt lat="46.46399" lon="5.44986">
        <ele>388</ele>
        <time>2022-06-28T14:26:55Z</time>
      </trkpt>
      <trkpt lat="46.46389" lon="5.44937">
        <ele>388</ele>
        <time>2022-06-28T14:27:00Z</time>
      </trkpt>
      <trkpt lat="46.46386" lon="5.44929">
        <ele>388</ele>
        <time>2022-06-28T14:27:01Z</time>
      </trkpt>
      <trkpt lat="46.46383" lon="5.44921">
        <ele>388</ele>
        <time>2022-06-28T14:27:02Z</time>
      </trkpt>
      <trkpt lat="46.46372" lon="5.44901">
        <ele>388.2</ele>
        <time>2022-06-28T14:27:05Z</time>
      </trkpt>
      <trkpt lat="46.46362" lon="5.44877">
        <ele>388.6</ele>
        <time>2022-06-28T14:27:08Z</time>
      </trkpt>
      <trkpt lat="46.46358" lon="5.44859">
        <ele>389.2</ele>
        <time>2022-06-28T14:27:10Z</time>
      </trkpt>
      <trkpt lat="46.46352" lon="5.44801">
        <ele>389.6</ele>
        <time>2022-06-28T14:27:16Z</time>
      </trkpt>
      <trkpt lat="46.46352" lon="5.44763">
        <ele>390.4</ele>
        <time>2022-06-28T14:27:21Z</time>
      </trkpt>
      <trkpt lat="46.46353" lon="5.44741">
        <ele>391.4</ele>
        <time>2022-06-28T14:27:25Z</time>
      </trkpt>
      <trkpt lat="46.46354" lon="5.44732">
        <ele>391.8</ele>
        <time>2022-06-28T14:27:27Z</time>
      </trkpt>
      <trkpt lat="46.46356" lon="5.44727">
        <ele>392.6</ele>
        <time>2022-06-28T14:27:29Z</time>
      </trkpt>
      <trkpt lat="46.46358" lon="5.44724">
        <ele>393.2</ele>
        <time>2022-06-28T14:27:31Z</time>
      </trkpt>
      <trkpt lat="46.46359" lon="5.44721">
        <ele>393.6</ele>
        <time>2022-06-28T14:27:32Z</time>
      </trkpt>
      <trkpt lat="46.46358" lon="5.44717">
        <ele>393.8</ele>
        <time>2022-06-28T14:27:33Z</time>
      </trkpt>
      <trkpt lat="46.46357" lon="5.44714">
        <ele>394</ele>
        <time>2022-06-28T14:27:34Z</time>
      </trkpt>
      <trkpt lat="46.46355" lon="5.44711">
        <ele>394</ele>
        <time>2022-06-28T14:27:35Z</time>
      </trkpt>
      <trkpt lat="46.46348" lon="5.44708">
        <ele>394.4</ele>
        <time>2022-06-28T14:27:37Z</time>
      </trkpt>
      <trkpt lat="46.46339" lon="5.44703">
        <ele>394.6</ele>
        <time>2022-06-28T14:27:39Z</time>
      </trkpt>
      <trkpt lat="46.4633" lon="5.44699">
        <ele>394.8</ele>
        <time>2022-06-28T14:27:41Z</time>
      </trkpt>
      <trkpt lat="46.46321" lon="5.44695">
        <ele>394.8</ele>
        <time>2022-06-28T14:27:43Z</time>
      </trkpt>
      <trkpt lat="46.46293" lon="5.44681">
        <ele>395.8</ele>
        <time>2022-06-28T14:27:50Z</time>
      </trkpt>
      <trkpt lat="46.46281" lon="5.44676">
        <ele>396.6</ele>
        <time>2022-06-28T14:27:53Z</time>
      </trkpt>
      <trkpt lat="46.46273" lon="5.44672">
        <ele>397</ele>
        <time>2022-06-28T14:27:55Z</time>
      </trkpt>
      <trkpt lat="46.46254" lon="5.44661">
        <ele>398.2</ele>
        <time>2022-06-28T14:28:00Z</time>
      </trkpt>
      <trkpt lat="46.46242" lon="5.44655">
        <ele>398.6</ele>
        <time>2022-06-28T14:28:03Z</time>
      </trkpt>
      <trkpt lat="46.46229" lon="5.44642">
        <ele>399.4</ele>
        <time>2022-06-28T14:28:07Z</time>
      </trkpt>
      <trkpt lat="46.46226" lon="5.44638">
        <ele>399.6</ele>
        <time>2022-06-28T14:28:08Z</time>
      </trkpt>
      <trkpt lat="46.46213" lon="5.44615">
        <ele>400.6</ele>
        <time>2022-06-28T14:28:13Z</time>
      </trkpt>
      <trkpt lat="46.46208" lon="5.44606">
        <ele>401</ele>
        <time>2022-06-28T14:28:15Z</time>
      </trkpt>
      <trkpt lat="46.46202" lon="5.44589">
        <ele>401.8</ele>
        <time>2022-06-28T14:28:18Z</time>
      </trkpt>
      <trkpt lat="46.46198" lon="5.44576">
        <ele>402.4</ele>
        <time>2022-06-28T14:28:20Z</time>
      </trkpt>
      <trkpt lat="46.46197" lon="5.44565">
        <ele>402.8</ele>
        <time>2022-06-28T14:28:22Z</time>
      </trkpt>
      <trkpt lat="46.46195" lon="5.44538">
        <ele>404</ele>
        <time>2022-06-28T14:28:27Z</time>
      </trkpt>
      <trkpt lat="46.46193" lon="5.4451">
        <ele>405</ele>
        <time>2022-06-28T14:28:32Z</time>
      </trkpt>
      <trkpt lat="46.46192" lon="5.44498">
        <ele>405.6</ele>
        <time>2022-06-28T14:28:34Z</time>
      </trkpt>
      <trkpt lat="46.4619" lon="5.44483">
        <ele>406.2</ele>
        <time>2022-06-28T14:28:37Z</time>
      </trkpt>
      <trkpt lat="46.4619" lon="5.44457">
        <ele>407.4</ele>
        <time>2022-06-28T14:28:42Z</time>
      </trkpt>
      <trkpt lat="46.4619" lon="5.44452">
        <ele>407.4</ele>
        <time>2022-06-28T14:28:43Z</time>
      </trkpt>
      <trkpt lat="46.4619" lon="5.44436">
        <ele>408.4</ele>
        <time>2022-06-28T14:28:46Z</time>
      </trkpt>
      <trkpt lat="46.4619" lon="5.44409">
        <ele>409.4</ele>
        <time>2022-06-28T14:28:51Z</time>
      </trkpt>
      <trkpt lat="46.46189" lon="5.44397">
        <ele>409.8</ele>
        <time>2022-06-28T14:28:53Z</time>
      </trkpt>
      <trkpt lat="46.4619" lon="5.44375">
        <ele>410.6</ele>
        <time>2022-06-28T14:28:57Z</time>
      </trkpt>
      <trkpt lat="46.46191" lon="5.44352">
        <ele>411.6</ele>
        <time>2022-06-28T14:29:01Z</time>
      </trkpt>
      <trkpt lat="46.46191" lon="5.44319">
        <ele>412.6</ele>
        <time>2022-06-28T14:29:07Z</time>
      </trkpt>
      <trkpt lat="46.4619" lon="5.44296">
        <ele>413.8</ele>
        <time>2022-06-28T14:29:11Z</time>
      </trkpt>
      <trkpt lat="46.46189" lon="5.44279">
        <ele>414.6</ele>
        <time>2022-06-28T14:29:14Z</time>
      </trkpt>
      <trkpt lat="46.46187" lon="5.44267">
        <ele>414.8</ele>
        <time>2022-06-28T14:29:16Z</time>
      </trkpt>
      <trkpt lat="46.46181" lon="5.44239">
        <ele>415.6</ele>
        <time>2022-06-28T14:29:21Z</time>
      </trkpt>
      <trkpt lat="46.46178" lon="5.44228">
        <ele>416</ele>
        <time>2022-06-28T14:29:23Z</time>
      </trkpt>
      <trkpt lat="46.46168" lon="5.44195">
        <ele>417</ele>
        <time>2022-06-28T14:29:29Z</time>
      </trkpt>
      <trkpt lat="46.46164" lon="5.44183">
        <ele>417.6</ele>
        <time>2022-06-28T14:29:31Z</time>
      </trkpt>
      <trkpt lat="46.4616" lon="5.44173">
        <ele>418.2</ele>
        <time>2022-06-28T14:29:33Z</time>
      </trkpt>
      <trkpt lat="46.46153" lon="5.44151">
        <ele>419.4</ele>
        <time>2022-06-28T14:29:37Z</time>
      </trkpt>
      <trkpt lat="46.46148" lon="5.44134">
        <ele>419.8</ele>
        <time>2022-06-28T14:29:40Z</time>
      </trkpt>
      <trkpt lat="46.46146" lon="5.44128">
        <ele>420</ele>
        <time>2022-06-28T14:29:41Z</time>
      </trkpt>
      <trkpt lat="46.46142" lon="5.44111">
        <ele>420.4</ele>
        <time>2022-06-28T14:29:44Z</time>
      </trkpt>
      <trkpt lat="46.4614" lon="5.441">
        <ele>420.8</ele>
        <time>2022-06-28T14:29:46Z</time>
      </trkpt>
      <trkpt lat="46.46136" lon="5.44083">
        <ele>421.6</ele>
        <time>2022-06-28T14:29:49Z</time>
      </trkpt>
      <trkpt lat="46.46131" lon="5.44056">
        <ele>422.4</ele>
        <time>2022-06-28T14:29:54Z</time>
      </trkpt>
      <trkpt lat="46.4613" lon="5.4405">
        <ele>422.8</ele>
        <time>2022-06-28T14:29:55Z</time>
      </trkpt>
      <trkpt lat="46.46126" lon="5.44025">
        <ele>423.8</ele>
        <time>2022-06-28T14:29:59Z</time>
      </trkpt>
      <trkpt lat="46.46126" lon="5.44019">
        <ele>424</ele>
        <time>2022-06-28T14:30:00Z</time>
      </trkpt>
      <trkpt lat="46.46126" lon="5.44013">
        <ele>424.2</ele>
        <time>2022-06-28T14:30:01Z</time>
      </trkpt>
      <trkpt lat="46.46127" lon="5.43995">
        <ele>425</ele>
        <time>2022-06-28T14:30:04Z</time>
      </trkpt>
      <trkpt lat="46.46132" lon="5.43966">
        <ele>425.6</ele>
        <time>2022-06-28T14:30:09Z</time>
      </trkpt>
      <trkpt lat="46.46133" lon="5.43961">
        <ele>426</ele>
        <time>2022-06-28T14:30:10Z</time>
      </trkpt>
      <trkpt lat="46.46139" lon="5.43939">
        <ele>427</ele>
        <time>2022-06-28T14:30:14Z</time>
      </trkpt>
      <trkpt lat="46.46144" lon="5.43923">
        <ele>427.6</ele>
        <time>2022-06-28T14:30:17Z</time>
      </trkpt>
      <trkpt lat="46.46149" lon="5.43901">
        <ele>428.2</ele>
        <time>2022-06-28T14:30:21Z</time>
      </trkpt>
      <trkpt lat="46.46156" lon="5.43877">
        <ele>429</ele>
        <time>2022-06-28T14:30:25Z</time>
      </trkpt>
      <trkpt lat="46.46158" lon="5.43872">
        <ele>429.4</ele>
        <time>2022-06-28T14:30:26Z</time>
      </trkpt>
      <trkpt lat="46.46164" lon="5.4385">
        <ele>430.4</ele>
        <time>2022-06-28T14:30:30Z</time>
      </trkpt>
      <trkpt lat="46.46171" lon="5.43824">
        <ele>431.4</ele>
        <time>2022-06-28T14:30:35Z</time>
      </trkpt>
      <trkpt lat="46.46172" lon="5.43819">
        <ele>431.4</ele>
        <time>2022-06-28T14:30:36Z</time>
      </trkpt>
      <trkpt lat="46.46179" lon="5.43797">
        <ele>432.6</ele>
        <time>2022-06-28T14:30:40Z</time>
      </trkpt>
      <trkpt lat="46.46183" lon="5.43781">
        <ele>433.4</ele>
        <time>2022-06-28T14:30:43Z</time>
      </trkpt>
      <trkpt lat="46.46185" lon="5.43771">
        <ele>433.8</ele>
        <time>2022-06-28T14:30:45Z</time>
      </trkpt>
      <trkpt lat="46.46189" lon="5.43748">
        <ele>435</ele>
        <time>2022-06-28T14:30:49Z</time>
      </trkpt>
      <trkpt lat="46.46189" lon="5.43742">
        <ele>435.2</ele>
        <time>2022-06-28T14:30:50Z</time>
      </trkpt>
      <trkpt lat="46.4619" lon="5.43718">
        <ele>436</ele>
        <time>2022-06-28T14:30:54Z</time>
      </trkpt>
      <trkpt lat="46.46188" lon="5.43693">
        <ele>437</ele>
        <time>2022-06-28T14:30:58Z</time>
      </trkpt>
      <trkpt lat="46.46187" lon="5.43687">
        <ele>437</ele>
        <time>2022-06-28T14:30:59Z</time>
      </trkpt>
      <trkpt lat="46.46181" lon="5.4366">
        <ele>438.2</ele>
        <time>2022-06-28T14:31:03Z</time>
      </trkpt>
      <trkpt lat="46.46177" lon="5.43648">
        <ele>438.4</ele>
        <time>2022-06-28T14:31:05Z</time>
      </trkpt>
      <trkpt lat="46.46169" lon="5.43629">
        <ele>438.8</ele>
        <time>2022-06-28T14:31:08Z</time>
      </trkpt>
      <trkpt lat="46.46155" lon="5.43607">
        <ele>439.2</ele>
        <time>2022-06-28T14:31:12Z</time>
      </trkpt>
      <trkpt lat="46.46151" lon="5.43602">
        <ele>439.2</ele>
        <time>2022-06-28T14:31:13Z</time>
      </trkpt>
      <trkpt lat="46.46126" lon="5.43579">
        <ele>439.4</ele>
        <time>2022-06-28T14:31:18Z</time>
      </trkpt>
      <trkpt lat="46.4612" lon="5.43575">
        <ele>439.2</ele>
        <time>2022-06-28T14:31:19Z</time>
      </trkpt>
      <trkpt lat="46.46093" lon="5.43566">
        <ele>438.6</ele>
        <time>2022-06-28T14:31:23Z</time>
      </trkpt>
      <trkpt lat="46.46054" lon="5.43563">
        <ele>437.8</ele>
        <time>2022-06-28T14:31:28Z</time>
      </trkpt>
      <trkpt lat="46.46044" lon="5.43562">
        <ele>437.4</ele>
        <time>2022-06-28T14:31:29Z</time>
      </trkpt>
      <trkpt lat="46.46026" lon="5.43559">
        <ele>436.6</ele>
        <time>2022-06-28T14:31:31Z</time>
      </trkpt>
      <trkpt lat="46.46" lon="5.43549">
        <ele>436.2</ele>
        <time>2022-06-28T14:31:34Z</time>
      </trkpt>
      <trkpt lat="46.45973" lon="5.43532">
        <ele>435.4</ele>
        <time>2022-06-28T14:31:37Z</time>
      </trkpt>
      <trkpt lat="46.45953" lon="5.43517">
        <ele>434.8</ele>
        <time>2022-06-28T14:31:39Z</time>
      </trkpt>
      <trkpt lat="46.45944" lon="5.43509">
        <ele>434.2</ele>
        <time>2022-06-28T14:31:40Z</time>
      </trkpt>
      <trkpt lat="46.45906" lon="5.4348">
        <ele>432.6</ele>
        <time>2022-06-28T14:31:44Z</time>
      </trkpt>
      <trkpt lat="46.45886" lon="5.43465">
        <ele>431.6</ele>
        <time>2022-06-28T14:31:46Z</time>
      </trkpt>
      <trkpt lat="46.45876" lon="5.43458">
        <ele>431.2</ele>
        <time>2022-06-28T14:31:47Z</time>
      </trkpt>
      <trkpt lat="46.45838" lon="5.43428">
        <ele>429.8</ele>
        <time>2022-06-28T14:31:51Z</time>
      </trkpt>
      <trkpt lat="46.45808" lon="5.43406">
        <ele>429</ele>
        <time>2022-06-28T14:31:54Z</time>
      </trkpt>
      <trkpt lat="46.45799" lon="5.43399">
        <ele>428.6</ele>
        <time>2022-06-28T14:31:55Z</time>
      </trkpt>
      <trkpt lat="46.4577" lon="5.43375">
        <ele>427.4</ele>
        <time>2022-06-28T14:31:58Z</time>
      </trkpt>
      <trkpt lat="46.45743" lon="5.43348">
        <ele>426.2</ele>
        <time>2022-06-28T14:32:01Z</time>
      </trkpt>
      <trkpt lat="46.45727" lon="5.43326">
        <ele>425</ele>
        <time>2022-06-28T14:32:03Z</time>
      </trkpt>
      <trkpt lat="46.45713" lon="5.43303">
        <ele>423.8</ele>
        <time>2022-06-28T14:32:05Z</time>
      </trkpt>
      <trkpt lat="46.45683" lon="5.43238">
        <ele>422.8</ele>
        <time>2022-06-28T14:32:10Z</time>
      </trkpt>
      <trkpt lat="46.45656" lon="5.43176">
        <ele>421.4</ele>
        <time>2022-06-28T14:32:15Z</time>
      </trkpt>
      <trkpt lat="46.45645" lon="5.43152">
        <ele>420.6</ele>
        <time>2022-06-28T14:32:17Z</time>
      </trkpt>
      <trkpt lat="46.45639" lon="5.4314">
        <ele>420.4</ele>
        <time>2022-06-28T14:32:18Z</time>
      </trkpt>
      <trkpt lat="46.45607" lon="5.43069">
        <ele>419.6</ele>
        <time>2022-06-28T14:32:24Z</time>
      </trkpt>
      <trkpt lat="46.45592" lon="5.43036">
        <ele>419.4</ele>
        <time>2022-06-28T14:32:27Z</time>
      </trkpt>
      <trkpt lat="46.45587" lon="5.43025">
        <ele>419.4</ele>
        <time>2022-06-28T14:32:28Z</time>
      </trkpt>
      <trkpt lat="46.4557" lon="5.42997">
        <ele>419.2</ele>
        <time>2022-06-28T14:32:31Z</time>
      </trkpt>
      <trkpt lat="46.45542" lon="5.42959">
        <ele>419.8</ele>
        <time>2022-06-28T14:32:36Z</time>
      </trkpt>
      <trkpt lat="46.45531" lon="5.42945">
        <ele>420.4</ele>
        <time>2022-06-28T14:32:38Z</time>
      </trkpt>
      <trkpt lat="46.45506" lon="5.42911">
        <ele>421.6</ele>
        <time>2022-06-28T14:32:43Z</time>
      </trkpt>
      <trkpt lat="46.4547" lon="5.42866">
        <ele>422.6</ele>
        <time>2022-06-28T14:32:50Z</time>
      </trkpt>
      <trkpt lat="46.45448" lon="5.42842">
        <ele>423.6</ele>
        <time>2022-06-28T14:32:54Z</time>
      </trkpt>
      <trkpt lat="46.4542" lon="5.42815">
        <ele>424.2</ele>
        <time>2022-06-28T14:32:59Z</time>
      </trkpt>
      <trkpt lat="46.45409" lon="5.42804">
        <ele>424.6</ele>
        <time>2022-06-28T14:33:01Z</time>
      </trkpt>
      <trkpt lat="46.45384" lon="5.42776">
        <ele>426.2</ele>
        <time>2022-06-28T14:33:06Z</time>
      </trkpt>
      <trkpt lat="46.4538" lon="5.4277">
        <ele>426.2</ele>
        <time>2022-06-28T14:33:07Z</time>
      </trkpt>
      <trkpt lat="46.4536" lon="5.4274">
        <ele>427.4</ele>
        <time>2022-06-28T14:33:12Z</time>
      </trkpt>
      <trkpt lat="46.45349" lon="5.42721">
        <ele>427.8</ele>
        <time>2022-06-28T14:33:15Z</time>
      </trkpt>
      <trkpt lat="46.45335" lon="5.42697">
        <ele>428.4</ele>
        <time>2022-06-28T14:33:19Z</time>
      </trkpt>
      <trkpt lat="46.45325" lon="5.42679">
        <ele>429.6</ele>
        <time>2022-06-28T14:33:22Z</time>
      </trkpt>
      <trkpt lat="46.45315" lon="5.42661">
        <ele>430.2</ele>
        <time>2022-06-28T14:33:25Z</time>
      </trkpt>
      <trkpt lat="46.45309" lon="5.42649">
        <ele>430.6</ele>
        <time>2022-06-28T14:33:27Z</time>
      </trkpt>
      <trkpt lat="46.45279" lon="5.42596">
        <ele>431.6</ele>
        <time>2022-06-28T14:33:36Z</time>
      </trkpt>
      <trkpt lat="46.45272" lon="5.42584">
        <ele>431.8</ele>
        <time>2022-06-28T14:33:38Z</time>
      </trkpt>
      <trkpt lat="46.45255" lon="5.42553">
        <ele>432.8</ele>
        <time>2022-06-28T14:33:43Z</time>
      </trkpt>
      <trkpt lat="46.45245" lon="5.42535">
        <ele>433.2</ele>
        <time>2022-06-28T14:33:46Z</time>
      </trkpt>
      <trkpt lat="46.45232" lon="5.42511">
        <ele>434</ele>
        <time>2022-06-28T14:33:50Z</time>
      </trkpt>
      <trkpt lat="46.45211" lon="5.42474">
        <ele>435.2</ele>
        <time>2022-06-28T14:33:56Z</time>
      </trkpt>
      <trkpt lat="46.45208" lon="5.42468">
        <ele>435.4</ele>
        <time>2022-06-28T14:33:57Z</time>
      </trkpt>
      <trkpt lat="46.45184" lon="5.42424">
        <ele>436.4</ele>
        <time>2022-06-28T14:34:04Z</time>
      </trkpt>
      <trkpt lat="46.45177" lon="5.42412">
        <ele>436.6</ele>
        <time>2022-06-28T14:34:06Z</time>
      </trkpt>
      <trkpt lat="46.45163" lon="5.4239">
        <ele>437.4</ele>
        <time>2022-06-28T14:34:10Z</time>
      </trkpt>
      <trkpt lat="46.45149" lon="5.42368">
        <ele>438</ele>
        <time>2022-06-28T14:34:14Z</time>
      </trkpt>
      <trkpt lat="46.45136" lon="5.42352">
        <ele>438.6</ele>
        <time>2022-06-28T14:34:17Z</time>
      </trkpt>
      <trkpt lat="46.45119" lon="5.42329">
        <ele>439.2</ele>
        <time>2022-06-28T14:34:21Z</time>
      </trkpt>
      <trkpt lat="46.45111" lon="5.42317">
        <ele>439.6</ele>
        <time>2022-06-28T14:34:23Z</time>
      </trkpt>
      <trkpt lat="46.45107" lon="5.42312">
        <ele>440</ele>
        <time>2022-06-28T14:34:24Z</time>
      </trkpt>
      <trkpt lat="46.45097" lon="5.42302">
        <ele>440.4</ele>
        <time>2022-06-28T14:34:26Z</time>
      </trkpt>
      <trkpt lat="46.4509" lon="5.42289">
        <ele>441</ele>
        <time>2022-06-28T14:34:28Z</time>
      </trkpt>
      <trkpt lat="46.45086" lon="5.42273">
        <ele>441.4</ele>
        <time>2022-06-28T14:34:30Z</time>
      </trkpt>
      <trkpt lat="46.45083" lon="5.4225">
        <ele>442.2</ele>
        <time>2022-06-28T14:34:33Z</time>
      </trkpt>
      <trkpt lat="46.4508" lon="5.42213">
        <ele>443.6</ele>
        <time>2022-06-28T14:34:38Z</time>
      </trkpt>
      <trkpt lat="46.45079" lon="5.42208">
        <ele>443.8</ele>
        <time>2022-06-28T14:34:39Z</time>
      </trkpt>
      <trkpt lat="46.45074" lon="5.42182">
        <ele>444.8</ele>
        <time>2022-06-28T14:34:43Z</time>
      </trkpt>
      <trkpt lat="46.45071" lon="5.42168">
        <ele>445.2</ele>
        <time>2022-06-28T14:34:45Z</time>
      </trkpt>
      <trkpt lat="46.45069" lon="5.42161">
        <ele>445.2</ele>
        <time>2022-06-28T14:34:46Z</time>
      </trkpt>
      <trkpt lat="46.45062" lon="5.42142">
        <ele>445.8</ele>
        <time>2022-06-28T14:34:49Z</time>
      </trkpt>
      <trkpt lat="46.45046" lon="5.421">
        <ele>446</ele>
        <time>2022-06-28T14:34:55Z</time>
      </trkpt>
      <trkpt lat="46.45021" lon="5.42054">
        <ele>446.8</ele>
        <time>2022-06-28T14:35:02Z</time>
      </trkpt>
      <trkpt lat="46.45014" lon="5.42042">
        <ele>447</ele>
        <time>2022-06-28T14:35:04Z</time>
      </trkpt>
      <trkpt lat="46.44992" lon="5.42007">
        <ele>447.4</ele>
        <time>2022-06-28T14:35:10Z</time>
      </trkpt>
      <trkpt lat="46.44978" lon="5.41984">
        <ele>448</ele>
        <time>2022-06-28T14:35:14Z</time>
      </trkpt>
      <trkpt lat="46.44965" lon="5.4196">
        <ele>448.8</ele>
        <time>2022-06-28T14:35:18Z</time>
      </trkpt>
      <trkpt lat="46.44962" lon="5.41953">
        <ele>448.8</ele>
        <time>2022-06-28T14:35:19Z</time>
      </trkpt>
      <trkpt lat="46.4496" lon="5.41946">
        <ele>449</ele>
        <time>2022-06-28T14:35:20Z</time>
      </trkpt>
      <trkpt lat="46.44956" lon="5.41925">
        <ele>449.4</ele>
        <time>2022-06-28T14:35:23Z</time>
      </trkpt>
      <trkpt lat="46.44956" lon="5.4191">
        <ele>450</ele>
        <time>2022-06-28T14:35:25Z</time>
      </trkpt>
      <trkpt lat="46.44957" lon="5.41901">
        <ele>450.2</ele>
        <time>2022-06-28T14:35:26Z</time>
      </trkpt>
      <trkpt lat="46.4496" lon="5.41885">
        <ele>450.4</ele>
        <time>2022-06-28T14:35:28Z</time>
      </trkpt>
      <trkpt lat="46.44967" lon="5.41861">
        <ele>451</ele>
        <time>2022-06-28T14:35:31Z</time>
      </trkpt>
      <trkpt lat="46.44973" lon="5.41847">
        <ele>451.2</ele>
        <time>2022-06-28T14:35:33Z</time>
      </trkpt>
      <trkpt lat="46.44976" lon="5.41841">
        <ele>451.2</ele>
        <time>2022-06-28T14:35:34Z</time>
      </trkpt>
      <trkpt lat="46.44991" lon="5.41819">
        <ele>452</ele>
        <time>2022-06-28T14:35:38Z</time>
      </trkpt>
      <trkpt lat="46.45001" lon="5.41811">
        <ele>452.2</ele>
        <time>2022-06-28T14:35:40Z</time>
      </trkpt>
      <trkpt lat="46.45005" lon="5.41807">
        <ele>452.4</ele>
        <time>2022-06-28T14:35:41Z</time>
      </trkpt>
      <trkpt lat="46.45023" lon="5.41802">
        <ele>452.6</ele>
        <time>2022-06-28T14:35:44Z</time>
      </trkpt>
      <trkpt lat="46.45029" lon="5.41802">
        <ele>452.8</ele>
        <time>2022-06-28T14:35:45Z</time>
      </trkpt>
      <trkpt lat="46.4504" lon="5.41803">
        <ele>453</ele>
        <time>2022-06-28T14:35:47Z</time>
      </trkpt>
      <trkpt lat="46.45046" lon="5.41804">
        <ele>453.2</ele>
        <time>2022-06-28T14:35:48Z</time>
      </trkpt>
      <trkpt lat="46.4509" lon="5.41812">
        <ele>453.4</ele>
        <time>2022-06-28T14:35:55Z</time>
      </trkpt>
      <trkpt lat="46.45125" lon="5.41806">
        <ele>453</ele>
        <time>2022-06-28T14:36:00Z</time>
      </trkpt>
      <trkpt lat="46.45163" lon="5.41785">
        <ele>452.8</ele>
        <time>2022-06-28T14:36:06Z</time>
      </trkpt>
      <trkpt lat="46.45188" lon="5.41753">
        <ele>452.8</ele>
        <time>2022-06-28T14:36:11Z</time>
      </trkpt>
      <trkpt lat="46.45197" lon="5.41739">
        <ele>453</ele>
        <time>2022-06-28T14:36:13Z</time>
      </trkpt>
      <trkpt lat="46.45209" lon="5.41708">
        <ele>453</ele>
        <time>2022-06-28T14:36:17Z</time>
      </trkpt>
      <trkpt lat="46.45218" lon="5.41682">
        <ele>453.4</ele>
        <time>2022-06-28T14:36:20Z</time>
      </trkpt>
      <trkpt lat="46.45227" lon="5.41651">
        <ele>453.6</ele>
        <time>2022-06-28T14:36:24Z</time>
      </trkpt>
      <trkpt lat="46.45234" lon="5.41621">
        <ele>454.2</ele>
        <time>2022-06-28T14:36:28Z</time>
      </trkpt>
      <trkpt lat="46.45236" lon="5.41606">
        <ele>454.6</ele>
        <time>2022-06-28T14:36:30Z</time>
      </trkpt>
      <trkpt lat="46.4524" lon="5.41584">
        <ele>455</ele>
        <time>2022-06-28T14:36:33Z</time>
      </trkpt>
      <trkpt lat="46.45242" lon="5.41577">
        <ele>455.4</ele>
        <time>2022-06-28T14:36:34Z</time>
      </trkpt>
      <trkpt lat="46.45245" lon="5.41569">
        <ele>455.6</ele>
        <time>2022-06-28T14:36:35Z</time>
      </trkpt>
      <trkpt lat="46.45249" lon="5.41561">
        <ele>455.8</ele>
        <time>2022-06-28T14:36:36Z</time>
      </trkpt>
      <trkpt lat="46.45253" lon="5.41554">
        <ele>456</ele>
        <time>2022-06-28T14:36:37Z</time>
      </trkpt>
      <trkpt lat="46.45268" lon="5.41537">
        <ele>456.4</ele>
        <time>2022-06-28T14:36:40Z</time>
      </trkpt>
      <trkpt lat="46.45273" lon="5.41533">
        <ele>456.4</ele>
        <time>2022-06-28T14:36:41Z</time>
      </trkpt>
      <trkpt lat="46.45279" lon="5.4153">
        <ele>456.6</ele>
        <time>2022-06-28T14:36:42Z</time>
      </trkpt>
      <trkpt lat="46.4529" lon="5.41528">
        <ele>456.8</ele>
        <time>2022-06-28T14:36:44Z</time>
      </trkpt>
      <trkpt lat="46.45318" lon="5.4153">
        <ele>457.6</ele>
        <time>2022-06-28T14:36:49Z</time>
      </trkpt>
      <trkpt lat="46.45348" lon="5.41535">
        <ele>458.6</ele>
        <time>2022-06-28T14:36:55Z</time>
      </trkpt>
      <trkpt lat="46.45359" lon="5.41536">
        <ele>459</ele>
        <time>2022-06-28T14:36:57Z</time>
      </trkpt>
      <trkpt lat="46.45364" lon="5.41536">
        <ele>459.4</ele>
        <time>2022-06-28T14:36:58Z</time>
      </trkpt>
      <trkpt lat="46.45397" lon="5.41531">
        <ele>459.8</ele>
        <time>2022-06-28T14:37:04Z</time>
      </trkpt>
      <trkpt lat="46.45402" lon="5.4153">
        <ele>460</ele>
        <time>2022-06-28T14:37:05Z</time>
      </trkpt>
      <trkpt lat="46.45431" lon="5.41519">
        <ele>461</ele>
        <time>2022-06-28T14:37:11Z</time>
      </trkpt>
      <trkpt lat="46.45441" lon="5.41515">
        <ele>461</ele>
        <time>2022-06-28T14:37:13Z</time>
      </trkpt>
      <trkpt lat="46.45466" lon="5.41505">
        <ele>462</ele>
        <time>2022-06-28T14:37:18Z</time>
      </trkpt>
      <trkpt lat="46.4548" lon="5.41499">
        <ele>462.8</ele>
        <time>2022-06-28T14:37:21Z</time>
      </trkpt>
      <trkpt lat="46.45484" lon="5.41497">
        <ele>463</ele>
        <time>2022-06-28T14:37:22Z</time>
      </trkpt>
      <trkpt lat="46.45512" lon="5.41484">
        <ele>464</ele>
        <time>2022-06-28T14:37:28Z</time>
      </trkpt>
      <trkpt lat="46.45529" lon="5.41475">
        <ele>464.2</ele>
        <time>2022-06-28T14:37:31Z</time>
      </trkpt>
      <trkpt lat="46.45568" lon="5.41449">
        <ele>464.6</ele>
        <time>2022-06-28T14:37:39Z</time>
      </trkpt>
      <trkpt lat="46.45595" lon="5.41417">
        <ele>464.8</ele>
        <time>2022-06-28T14:37:45Z</time>
      </trkpt>
      <trkpt lat="46.4561" lon="5.41391">
        <ele>465.2</ele>
        <time>2022-06-28T14:37:49Z</time>
      </trkpt>
      <trkpt lat="46.45619" lon="5.41371">
        <ele>465.4</ele>
        <time>2022-06-28T14:37:52Z</time>
      </trkpt>
      <trkpt lat="46.45645" lon="5.41323">
        <ele>466.2</ele>
        <time>2022-06-28T14:38:00Z</time>
      </trkpt>
      <trkpt lat="46.45648" lon="5.41319">
        <ele>466.2</ele>
        <time>2022-06-28T14:38:01Z</time>
      </trkpt>
      <trkpt lat="46.45653" lon="5.41312">
        <ele>466.4</ele>
        <time>2022-06-28T14:38:02Z</time>
      </trkpt>
      <trkpt lat="46.45676" lon="5.41282">
        <ele>466.8</ele>
        <time>2022-06-28T14:38:07Z</time>
      </trkpt>
      <trkpt lat="46.45712" lon="5.41241">
        <ele>466.8</ele>
        <time>2022-06-28T14:38:14Z</time>
      </trkpt>
      <trkpt lat="46.45752" lon="5.4119">
        <ele>466.4</ele>
        <time>2022-06-28T14:38:22Z</time>
      </trkpt>
      <trkpt lat="46.45763" lon="5.41166">
        <ele>466.4</ele>
        <time>2022-06-28T14:38:25Z</time>
      </trkpt>
      <trkpt lat="46.45768" lon="5.41149">
        <ele>466.6</ele>
        <time>2022-06-28T14:38:27Z</time>
      </trkpt>
      <trkpt lat="46.45783" lon="5.41088">
        <ele>467</ele>
        <time>2022-06-28T14:38:34Z</time>
      </trkpt>
      <trkpt lat="46.458" lon="5.41022">
        <ele>467.4</ele>
        <time>2022-06-28T14:38:42Z</time>
      </trkpt>
      <trkpt lat="46.45815" lon="5.40972">
        <ele>467.8</ele>
        <time>2022-06-28T14:38:49Z</time>
      </trkpt>
      <trkpt lat="46.45825" lon="5.40927">
        <ele>468.2</ele>
        <time>2022-06-28T14:38:55Z</time>
      </trkpt>
      <trkpt lat="46.4583" lon="5.40901">
        <ele>468.4</ele>
        <time>2022-06-28T14:38:58Z</time>
      </trkpt>
      <trkpt lat="46.45841" lon="5.40832">
        <ele>468.4</ele>
        <time>2022-06-28T14:39:06Z</time>
      </trkpt>
      <trkpt lat="46.45847" lon="5.40765">
        <ele>468.6</ele>
        <time>2022-06-28T14:39:13Z</time>
      </trkpt>
      <trkpt lat="46.45858" lon="5.40704">
        <ele>468.8</ele>
        <time>2022-06-28T14:39:20Z</time>
      </trkpt>
      <trkpt lat="46.45868" lon="5.40678">
        <ele>469.2</ele>
        <time>2022-06-28T14:39:24Z</time>
      </trkpt>
      <trkpt lat="46.4587" lon="5.40672">
        <ele>469.6</ele>
        <time>2022-06-28T14:39:25Z</time>
      </trkpt>
      <trkpt lat="46.45877" lon="5.40654">
        <ele>470.4</ele>
        <time>2022-06-28T14:39:28Z</time>
      </trkpt>
      <trkpt lat="46.45883" lon="5.40639">
        <ele>470.8</ele>
        <time>2022-06-28T14:39:31Z</time>
      </trkpt>
      <trkpt lat="46.45887" lon="5.4063">
        <ele>471.8</ele>
        <time>2022-06-28T14:39:33Z</time>
      </trkpt>
      <trkpt lat="46.45896" lon="5.40612">
        <ele>472.8</ele>
        <time>2022-06-28T14:39:37Z</time>
      </trkpt>
      <trkpt lat="46.45903" lon="5.40598">
        <ele>474</ele>
        <time>2022-06-28T14:39:40Z</time>
      </trkpt>
      <trkpt lat="46.4591" lon="5.40581">
        <ele>475.2</ele>
        <time>2022-06-28T14:39:44Z</time>
      </trkpt>
      <trkpt lat="46.45917" lon="5.40565">
        <ele>476.4</ele>
        <time>2022-06-28T14:39:47Z</time>
      </trkpt>
      <trkpt lat="46.45919" lon="5.4056">
        <ele>476.6</ele>
        <time>2022-06-28T14:39:48Z</time>
      </trkpt>
      <trkpt lat="46.45923" lon="5.4055">
        <ele>477.4</ele>
        <time>2022-06-28T14:39:50Z</time>
      </trkpt>
      <trkpt lat="46.45936" lon="5.40526">
        <ele>478.8</ele>
        <time>2022-06-28T14:39:55Z</time>
      </trkpt>
      <trkpt lat="46.45938" lon="5.40522">
        <ele>479</ele>
        <time>2022-06-28T14:39:56Z</time>
      </trkpt>
      <trkpt lat="46.45945" lon="5.40511">
        <ele>480</ele>
        <time>2022-06-28T14:39:59Z</time>
      </trkpt>
      <trkpt lat="46.45953" lon="5.405">
        <ele>481.4</ele>
        <time>2022-06-28T14:40:02Z</time>
      </trkpt>
      <trkpt lat="46.45961" lon="5.40489">
        <ele>482.4</ele>
        <time>2022-06-28T14:40:05Z</time>
      </trkpt>
      <trkpt lat="46.45971" lon="5.40473">
        <ele>483.4</ele>
        <time>2022-06-28T14:40:09Z</time>
      </trkpt>
      <trkpt lat="46.45982" lon="5.40456">
        <ele>484.6</ele>
        <time>2022-06-28T14:40:13Z</time>
      </trkpt>
      <trkpt lat="46.45991" lon="5.40439">
        <ele>485.8</ele>
        <time>2022-06-28T14:40:17Z</time>
      </trkpt>
      <trkpt lat="46.45995" lon="5.4043">
        <ele>486.2</ele>
        <time>2022-06-28T14:40:19Z</time>
      </trkpt>
      <trkpt lat="46.46004" lon="5.40412">
        <ele>487</ele>
        <time>2022-06-28T14:40:23Z</time>
      </trkpt>
      <trkpt lat="46.46007" lon="5.40402">
        <ele>487.4</ele>
        <time>2022-06-28T14:40:25Z</time>
      </trkpt>
      <trkpt lat="46.46012" lon="5.40394">
        <ele>488</ele>
        <time>2022-06-28T14:40:27Z</time>
      </trkpt>
      <trkpt lat="46.46018" lon="5.40378">
        <ele>489</ele>
        <time>2022-06-28T14:40:31Z</time>
      </trkpt>
      <trkpt lat="46.46022" lon="5.4037">
        <ele>489.4</ele>
        <time>2022-06-28T14:40:33Z</time>
      </trkpt>
      <trkpt lat="46.46028" lon="5.40357">
        <ele>490.2</ele>
        <time>2022-06-28T14:40:36Z</time>
      </trkpt>
      <trkpt lat="46.46039" lon="5.40342">
        <ele>491.4</ele>
        <time>2022-06-28T14:40:40Z</time>
      </trkpt>
      <trkpt lat="46.46042" lon="5.40339">
        <ele>491.6</ele>
        <time>2022-06-28T14:40:41Z</time>
      </trkpt>
      <trkpt lat="46.46055" lon="5.40329">
        <ele>492.6</ele>
        <time>2022-06-28T14:40:45Z</time>
      </trkpt>
      <trkpt lat="46.4607" lon="5.40322">
        <ele>493.6</ele>
        <time>2022-06-28T14:40:49Z</time>
      </trkpt>
      <trkpt lat="46.46077" lon="5.40318">
        <ele>494</ele>
        <time>2022-06-28T14:40:51Z</time>
      </trkpt>
      <trkpt lat="46.46089" lon="5.40313">
        <ele>494.6</ele>
        <time>2022-06-28T14:40:54Z</time>
      </trkpt>
      <trkpt lat="46.46105" lon="5.40303">
        <ele>495.6</ele>
        <time>2022-06-28T14:40:59Z</time>
      </trkpt>
      <trkpt lat="46.46115" lon="5.40296">
        <ele>496.6</ele>
        <time>2022-06-28T14:41:02Z</time>
      </trkpt>
      <trkpt lat="46.46118" lon="5.40293">
        <ele>497</ele>
        <time>2022-06-28T14:41:03Z</time>
      </trkpt>
      <trkpt lat="46.46128" lon="5.40283">
        <ele>497.6</ele>
        <time>2022-06-28T14:41:06Z</time>
      </trkpt>
      <trkpt lat="46.46132" lon="5.40279">
        <ele>498</ele>
        <time>2022-06-28T14:41:07Z</time>
      </trkpt>
      <trkpt lat="46.46135" lon="5.40274">
        <ele>498.2</ele>
        <time>2022-06-28T14:41:08Z</time>
      </trkpt>
      <trkpt lat="46.46149" lon="5.40248">
        <ele>499.2</ele>
        <time>2022-06-28T14:41:13Z</time>
      </trkpt>
      <trkpt lat="46.46157" lon="5.40232">
        <ele>499.6</ele>
        <time>2022-06-28T14:41:16Z</time>
      </trkpt>
      <trkpt lat="46.46171" lon="5.40208">
        <ele>500.2</ele>
        <time>2022-06-28T14:41:21Z</time>
      </trkpt>
      <trkpt lat="46.46183" lon="5.40184">
        <ele>501.4</ele>
        <time>2022-06-28T14:41:26Z</time>
      </trkpt>
      <trkpt lat="46.46198" lon="5.40154">
        <ele>502.4</ele>
        <time>2022-06-28T14:41:32Z</time>
      </trkpt>
      <trkpt lat="46.46209" lon="5.40138">
        <ele>503</ele>
        <time>2022-06-28T14:41:35Z</time>
      </trkpt>
      <trkpt lat="46.46231" lon="5.40113">
        <ele>503.6</ele>
        <time>2022-06-28T14:41:40Z</time>
      </trkpt>
      <trkpt lat="46.4624" lon="5.40103">
        <ele>503.6</ele>
        <time>2022-06-28T14:41:42Z</time>
      </trkpt>
      <trkpt lat="46.46255" lon="5.40093">
        <ele>503.8</ele>
        <time>2022-06-28T14:41:45Z</time>
      </trkpt>
      <trkpt lat="46.46265" lon="5.40089">
        <ele>504</ele>
        <time>2022-06-28T14:41:47Z</time>
      </trkpt>
      <trkpt lat="46.4627" lon="5.40089">
        <ele>504</ele>
        <time>2022-06-28T14:41:48Z</time>
      </trkpt>
      <trkpt lat="46.4628" lon="5.40089">
        <ele>504.4</ele>
        <time>2022-06-28T14:41:50Z</time>
      </trkpt>
      <trkpt lat="46.46284" lon="5.40089">
        <ele>504.6</ele>
        <time>2022-06-28T14:41:51Z</time>
      </trkpt>
      <trkpt lat="46.46294" lon="5.4009">
        <ele>504.8</ele>
        <time>2022-06-28T14:41:53Z</time>
      </trkpt>
      <trkpt lat="46.4631" lon="5.40092">
        <ele>505.6</ele>
        <time>2022-06-28T14:41:57Z</time>
      </trkpt>
      <trkpt lat="46.46315" lon="5.40093">
        <ele>506</ele>
        <time>2022-06-28T14:41:58Z</time>
      </trkpt>
      <trkpt lat="46.46327" lon="5.40094">
        <ele>507.2</ele>
        <time>2022-06-28T14:42:01Z</time>
      </trkpt>
      <trkpt lat="46.46346" lon="5.40093">
        <ele>508.2</ele>
        <time>2022-06-28T14:42:05Z</time>
      </trkpt>
      <trkpt lat="46.46351" lon="5.40092">
        <ele>508.4</ele>
        <time>2022-06-28T14:42:06Z</time>
      </trkpt>
      <trkpt lat="46.4638" lon="5.40087">
        <ele>509.4</ele>
        <time>2022-06-28T14:42:12Z</time>
      </trkpt>
      <trkpt lat="46.46417" lon="5.4008">
        <ele>510.4</ele>
        <time>2022-06-28T14:42:20Z</time>
      </trkpt>
      <trkpt lat="46.46443" lon="5.40075">
        <ele>511.8</ele>
        <time>2022-06-28T14:42:26Z</time>
      </trkpt>
      <trkpt lat="46.46468" lon="5.40071">
        <ele>512.8</ele>
        <time>2022-06-28T14:42:31Z</time>
      </trkpt>
      <trkpt lat="46.46487" lon="5.4007">
        <ele>513.4</ele>
        <time>2022-06-28T14:42:35Z</time>
      </trkpt>
      <trkpt lat="46.46501" lon="5.40073">
        <ele>513.6</ele>
        <time>2022-06-28T14:42:38Z</time>
      </trkpt>
      <trkpt lat="46.46512" lon="5.40075">
        <ele>513.8</ele>
        <time>2022-06-28T14:42:40Z</time>
      </trkpt>
      <trkpt lat="46.46535" lon="5.40087">
        <ele>514.4</ele>
        <time>2022-06-28T14:42:45Z</time>
      </trkpt>
      <trkpt lat="46.46554" lon="5.40096">
        <ele>515.2</ele>
        <time>2022-06-28T14:42:49Z</time>
      </trkpt>
      <trkpt lat="46.46577" lon="5.40108">
        <ele>516</ele>
        <time>2022-06-28T14:42:54Z</time>
      </trkpt>
      <trkpt lat="46.46586" lon="5.40112">
        <ele>516.2</ele>
        <time>2022-06-28T14:42:56Z</time>
      </trkpt>
      <trkpt lat="46.46616" lon="5.40128">
        <ele>517.4</ele>
        <time>2022-06-28T14:43:03Z</time>
      </trkpt>
      <trkpt lat="46.46629" lon="5.40134">
        <ele>518.2</ele>
        <time>2022-06-28T14:43:06Z</time>
      </trkpt>
      <trkpt lat="46.46633" lon="5.40136">
        <ele>518.4</ele>
        <time>2022-06-28T14:43:07Z</time>
      </trkpt>
      <trkpt lat="46.46652" lon="5.40147">
        <ele>519.6</ele>
        <time>2022-06-28T14:43:12Z</time>
      </trkpt>
      <trkpt lat="46.46667" lon="5.40155">
        <ele>520.4</ele>
        <time>2022-06-28T14:43:16Z</time>
      </trkpt>
      <trkpt lat="46.4667" lon="5.40157">
        <ele>520.8</ele>
        <time>2022-06-28T14:43:17Z</time>
      </trkpt>
      <trkpt lat="46.46686" lon="5.40165">
        <ele>521.8</ele>
        <time>2022-06-28T14:43:21Z</time>
      </trkpt>
      <trkpt lat="46.46701" lon="5.40173">
        <ele>523</ele>
        <time>2022-06-28T14:43:25Z</time>
      </trkpt>
      <trkpt lat="46.46716" lon="5.4018">
        <ele>524</ele>
        <time>2022-06-28T14:43:29Z</time>
      </trkpt>
      <trkpt lat="46.46719" lon="5.40181">
        <ele>524</ele>
        <time>2022-06-28T14:43:30Z</time>
      </trkpt>
      <trkpt lat="46.46731" lon="5.40187">
        <ele>524.8</ele>
        <time>2022-06-28T14:43:33Z</time>
      </trkpt>
      <trkpt lat="46.4675" lon="5.40197">
        <ele>525.8</ele>
        <time>2022-06-28T14:43:38Z</time>
      </trkpt>
      <trkpt lat="46.46757" lon="5.40201">
        <ele>526.4</ele>
        <time>2022-06-28T14:43:40Z</time>
      </trkpt>
      <trkpt lat="46.46776" lon="5.4021">
        <ele>527.4</ele>
        <time>2022-06-28T14:43:45Z</time>
      </trkpt>
      <trkpt lat="46.46797" lon="5.40223">
        <ele>528.4</ele>
        <time>2022-06-28T14:43:51Z</time>
      </trkpt>
      <trkpt lat="46.46805" lon="5.40226">
        <ele>529</ele>
        <time>2022-06-28T14:43:53Z</time>
      </trkpt>
      <trkpt lat="46.46808" lon="5.40228">
        <ele>529.4</ele>
        <time>2022-06-28T14:43:54Z</time>
      </trkpt>
      <trkpt lat="46.46833" lon="5.4024">
        <ele>530.6</ele>
        <time>2022-06-28T14:44:00Z</time>
      </trkpt>
      <trkpt lat="46.46849" lon="5.40247">
        <ele>531.8</ele>
        <time>2022-06-28T14:44:04Z</time>
      </trkpt>
      <trkpt lat="46.46868" lon="5.40257">
        <ele>532.8</ele>
        <time>2022-06-28T14:44:09Z</time>
      </trkpt>
      <trkpt lat="46.46877" lon="5.40262">
        <ele>533.4</ele>
        <time>2022-06-28T14:44:11Z</time>
      </trkpt>
      <trkpt lat="46.46896" lon="5.40271">
        <ele>534.2</ele>
        <time>2022-06-28T14:44:15Z</time>
      </trkpt>
      <trkpt lat="46.46915" lon="5.40279">
        <ele>535</ele>
        <time>2022-06-28T14:44:19Z</time>
      </trkpt>
      <trkpt lat="46.46921" lon="5.40282">
        <ele>535.4</ele>
        <time>2022-06-28T14:44:20Z</time>
      </trkpt>
      <trkpt lat="46.46952" lon="5.40299">
        <ele>536.6</ele>
        <time>2022-06-28T14:44:27Z</time>
      </trkpt>
      <trkpt lat="46.46977" lon="5.4031">
        <ele>537.6</ele>
        <time>2022-06-28T14:44:33Z</time>
      </trkpt>
      <trkpt lat="46.46987" lon="5.40314">
        <ele>538.2</ele>
        <time>2022-06-28T14:44:35Z</time>
      </trkpt>
      <trkpt lat="46.47002" lon="5.40318">
        <ele>538.6</ele>
        <time>2022-06-28T14:44:38Z</time>
      </trkpt>
      <trkpt lat="46.47033" lon="5.40323">
        <ele>539.6</ele>
        <time>2022-06-28T14:44:44Z</time>
      </trkpt>
      <trkpt lat="46.47039" lon="5.40323">
        <ele>539.8</ele>
        <time>2022-06-28T14:44:45Z</time>
      </trkpt>
      <trkpt lat="46.47068" lon="5.40326">
        <ele>539.8</ele>
        <time>2022-06-28T14:44:49Z</time>
      </trkpt>
      <trkpt lat="46.47113" lon="5.4033">
        <ele>539.2</ele>
        <time>2022-06-28T14:44:54Z</time>
      </trkpt>
      <trkpt lat="46.4712" lon="5.40331">
        <ele>538.6</ele>
        <time>2022-06-28T14:44:55Z</time>
      </trkpt>
      <trkpt lat="46.47157" lon="5.40339">
        <ele>537.2</ele>
        <time>2022-06-28T14:44:59Z</time>
      </trkpt>
      <trkpt lat="46.47166" lon="5.40342">
        <ele>536.8</ele>
        <time>2022-06-28T14:45:00Z</time>
      </trkpt>
      <trkpt lat="46.47175" lon="5.40345">
        <ele>536.2</ele>
        <time>2022-06-28T14:45:01Z</time>
      </trkpt>
      <trkpt lat="46.47186" lon="5.40351">
        <ele>535.8</ele>
        <time>2022-06-28T14:45:02Z</time>
      </trkpt>
      <trkpt lat="46.47202" lon="5.40363">
        <ele>535</ele>
        <time>2022-06-28T14:45:04Z</time>
      </trkpt>
      <trkpt lat="46.47211" lon="5.40372">
        <ele>534.6</ele>
        <time>2022-06-28T14:45:05Z</time>
      </trkpt>
      <trkpt lat="46.4722" lon="5.40384">
        <ele>534</ele>
        <time>2022-06-28T14:45:06Z</time>
      </trkpt>
      <trkpt lat="46.47228" lon="5.40394">
        <ele>533.4</ele>
        <time>2022-06-28T14:45:07Z</time>
      </trkpt>
      <trkpt lat="46.47245" lon="5.40411">
        <ele>532</ele>
        <time>2022-06-28T14:45:09Z</time>
      </trkpt>
      <trkpt lat="46.47264" lon="5.40425">
        <ele>530.6</ele>
        <time>2022-06-28T14:45:11Z</time>
      </trkpt>
      <trkpt lat="46.47297" lon="5.40438">
        <ele>529.8</ele>
        <time>2022-06-28T14:45:14Z</time>
      </trkpt>
      <trkpt lat="46.47309" lon="5.40441">
        <ele>529.4</ele>
        <time>2022-06-28T14:45:15Z</time>
      </trkpt>
      <trkpt lat="46.47341" lon="5.40446">
        <ele>527.8</ele>
        <time>2022-06-28T14:45:18Z</time>
      </trkpt>
      <trkpt lat="46.47355" lon="5.40447">
        <ele>527.6</ele>
        <time>2022-06-28T14:45:19Z</time>
      </trkpt>
      <trkpt lat="46.47366" lon="5.40447">
        <ele>526.6</ele>
        <time>2022-06-28T14:45:20Z</time>
      </trkpt>
      <trkpt lat="46.47388" lon="5.40447">
        <ele>525.4</ele>
        <time>2022-06-28T14:45:22Z</time>
      </trkpt>
      <trkpt lat="46.47422" lon="5.40446">
        <ele>524.4</ele>
        <time>2022-06-28T14:45:25Z</time>
      </trkpt>
      <trkpt lat="46.47443" lon="5.40446">
        <ele>523.6</ele>
        <time>2022-06-28T14:45:27Z</time>
      </trkpt>
      <trkpt lat="46.47454" lon="5.40448">
        <ele>523.2</ele>
        <time>2022-06-28T14:45:28Z</time>
      </trkpt>
      <trkpt lat="46.47465" lon="5.4045">
        <ele>522.6</ele>
        <time>2022-06-28T14:45:29Z</time>
      </trkpt>
      <trkpt lat="46.47475" lon="5.40453">
        <ele>522.2</ele>
        <time>2022-06-28T14:45:30Z</time>
      </trkpt>
      <trkpt lat="46.47484" lon="5.40455">
        <ele>521</ele>
        <time>2022-06-28T14:45:31Z</time>
      </trkpt>
      <trkpt lat="46.47497" lon="5.4046">
        <ele>520.2</ele>
        <time>2022-06-28T14:45:32Z</time>
      </trkpt>
      <trkpt lat="46.47505" lon="5.40468">
        <ele>519.8</ele>
        <time>2022-06-28T14:45:33Z</time>
      </trkpt>
      <trkpt lat="46.47521" lon="5.40483">
        <ele>518.8</ele>
        <time>2022-06-28T14:45:35Z</time>
      </trkpt>
      <trkpt lat="46.47527" lon="5.40484">
        <ele>518.4</ele>
        <time>2022-06-28T14:45:36Z</time>
      </trkpt>
      <trkpt lat="46.47533" lon="5.40482">
        <ele>518</ele>
        <time>2022-06-28T14:45:37Z</time>
      </trkpt>
      <trkpt lat="46.47536" lon="5.40478">
        <ele>517.2</ele>
        <time>2022-06-28T14:45:38Z</time>
      </trkpt>
      <trkpt lat="46.47539" lon="5.40471">
        <ele>516</ele>
        <time>2022-06-28T14:45:39Z</time>
      </trkpt>
      <trkpt lat="46.47539" lon="5.40437">
        <ele>514.2</ele>
        <time>2022-06-28T14:45:41Z</time>
      </trkpt>
      <trkpt lat="46.47534" lon="5.40418">
        <ele>514</ele>
        <time>2022-06-28T14:45:42Z</time>
      </trkpt>
      <trkpt lat="46.47527" lon="5.40401">
        <ele>513.4</ele>
        <time>2022-06-28T14:45:43Z</time>
      </trkpt>
      <trkpt lat="46.47523" lon="5.40384">
        <ele>513.2</ele>
        <time>2022-06-28T14:45:44Z</time>
      </trkpt>
      <trkpt lat="46.4752" lon="5.40367">
        <ele>512.6</ele>
        <time>2022-06-28T14:45:45Z</time>
      </trkpt>
      <trkpt lat="46.47522" lon="5.40348">
        <ele>511.8</ele>
        <time>2022-06-28T14:45:46Z</time>
      </trkpt>
      <trkpt lat="46.47525" lon="5.40332">
        <ele>511.4</ele>
        <time>2022-06-28T14:45:47Z</time>
      </trkpt>
      <trkpt lat="46.47531" lon="5.40316">
        <ele>510.8</ele>
        <time>2022-06-28T14:45:48Z</time>
      </trkpt>
      <trkpt lat="46.47538" lon="5.40306">
        <ele>510.6</ele>
        <time>2022-06-28T14:45:49Z</time>
      </trkpt>
      <trkpt lat="46.47559" lon="5.40279">
        <ele>509.6</ele>
        <time>2022-06-28T14:45:51Z</time>
      </trkpt>
      <trkpt lat="46.47571" lon="5.40269">
        <ele>509</ele>
        <time>2022-06-28T14:45:52Z</time>
      </trkpt>
      <trkpt lat="46.4758" lon="5.40263">
        <ele>508.4</ele>
        <time>2022-06-28T14:45:53Z</time>
      </trkpt>
      <trkpt lat="46.47603" lon="5.40255">
        <ele>507.4</ele>
        <time>2022-06-28T14:45:55Z</time>
      </trkpt>
      <trkpt lat="46.47616" lon="5.40252">
        <ele>506.8</ele>
        <time>2022-06-28T14:45:56Z</time>
      </trkpt>
      <trkpt lat="46.47628" lon="5.4025">
        <ele>505.6</ele>
        <time>2022-06-28T14:45:57Z</time>
      </trkpt>
      <trkpt lat="46.47653" lon="5.40243">
        <ele>504.2</ele>
        <time>2022-06-28T14:45:59Z</time>
      </trkpt>
      <trkpt lat="46.47665" lon="5.40243">
        <ele>503.2</ele>
        <time>2022-06-28T14:46:00Z</time>
      </trkpt>
      <trkpt lat="46.47676" lon="5.40244">
        <ele>502.8</ele>
        <time>2022-06-28T14:46:01Z</time>
      </trkpt>
      <trkpt lat="46.47696" lon="5.40241">
        <ele>501.8</ele>
        <time>2022-06-28T14:46:03Z</time>
      </trkpt>
      <trkpt lat="46.47708" lon="5.40236">
        <ele>501.2</ele>
        <time>2022-06-28T14:46:04Z</time>
      </trkpt>
      <trkpt lat="46.4772" lon="5.40211">
        <ele>500.6</ele>
        <time>2022-06-28T14:46:06Z</time>
      </trkpt>
      <trkpt lat="46.47726" lon="5.40184">
        <ele>499.8</ele>
        <time>2022-06-28T14:46:08Z</time>
      </trkpt>
      <trkpt lat="46.47735" lon="5.4017">
        <ele>499.2</ele>
        <time>2022-06-28T14:46:09Z</time>
      </trkpt>
      <trkpt lat="46.47743" lon="5.40158">
        <ele>498.8</ele>
        <time>2022-06-28T14:46:10Z</time>
      </trkpt>
      <trkpt lat="46.47752" lon="5.40147">
        <ele>498.4</ele>
        <time>2022-06-28T14:46:11Z</time>
      </trkpt>
      <trkpt lat="46.47757" lon="5.40136">
        <ele>498.2</ele>
        <time>2022-06-28T14:46:12Z</time>
      </trkpt>
      <trkpt lat="46.47763" lon="5.4012">
        <ele>497.8</ele>
        <time>2022-06-28T14:46:13Z</time>
      </trkpt>
      <trkpt lat="46.47768" lon="5.40087">
        <ele>496.8</ele>
        <time>2022-06-28T14:46:15Z</time>
      </trkpt>
      <trkpt lat="46.47767" lon="5.4007">
        <ele>495.6</ele>
        <time>2022-06-28T14:46:16Z</time>
      </trkpt>
      <trkpt lat="46.47765" lon="5.40036">
        <ele>494.2</ele>
        <time>2022-06-28T14:46:18Z</time>
      </trkpt>
      <trkpt lat="46.47767" lon="5.40021">
        <ele>493.8</ele>
        <time>2022-06-28T14:46:19Z</time>
      </trkpt>
      <trkpt lat="46.47772" lon="5.40008">
        <ele>493.2</ele>
        <time>2022-06-28T14:46:20Z</time>
      </trkpt>
      <trkpt lat="46.47785" lon="5.3999">
        <ele>492.2</ele>
        <time>2022-06-28T14:46:22Z</time>
      </trkpt>
      <trkpt lat="46.47797" lon="5.39984">
        <ele>491.6</ele>
        <time>2022-06-28T14:46:23Z</time>
      </trkpt>
      <trkpt lat="46.47817" lon="5.39976">
        <ele>490.4</ele>
        <time>2022-06-28T14:46:25Z</time>
      </trkpt>
      <trkpt lat="46.47828" lon="5.39972">
        <ele>489.8</ele>
        <time>2022-06-28T14:46:26Z</time>
      </trkpt>
      <trkpt lat="46.47839" lon="5.39967">
        <ele>489.2</ele>
        <time>2022-06-28T14:46:27Z</time>
      </trkpt>
      <trkpt lat="46.47873" lon="5.39949">
        <ele>487.4</ele>
        <time>2022-06-28T14:46:30Z</time>
      </trkpt>
      <trkpt lat="46.47895" lon="5.39937">
        <ele>486</ele>
        <time>2022-06-28T14:46:32Z</time>
      </trkpt>
      <trkpt lat="46.47917" lon="5.39925">
        <ele>484.8</ele>
        <time>2022-06-28T14:46:34Z</time>
      </trkpt>
      <trkpt lat="46.4795" lon="5.39907">
        <ele>482.8</ele>
        <time>2022-06-28T14:46:37Z</time>
      </trkpt>
      <trkpt lat="46.47971" lon="5.39896">
        <ele>481.6</ele>
        <time>2022-06-28T14:46:39Z</time>
      </trkpt>
      <trkpt lat="46.48003" lon="5.39882">
        <ele>480.4</ele>
        <time>2022-06-28T14:46:42Z</time>
      </trkpt>
      <trkpt lat="46.48013" lon="5.3988">
        <ele>480.2</ele>
        <time>2022-06-28T14:46:43Z</time>
      </trkpt>
      <trkpt lat="46.48033" lon="5.39883">
        <ele>479.6</ele>
        <time>2022-06-28T14:46:45Z</time>
      </trkpt>
      <trkpt lat="46.48042" lon="5.39888">
        <ele>479</ele>
        <time>2022-06-28T14:46:46Z</time>
      </trkpt>
      <trkpt lat="46.48067" lon="5.39903">
        <ele>478.4</ele>
        <time>2022-06-28T14:46:49Z</time>
      </trkpt>
      <trkpt lat="46.48088" lon="5.39907">
        <ele>477.8</ele>
        <time>2022-06-28T14:46:51Z</time>
      </trkpt>
      <trkpt lat="46.48098" lon="5.39907">
        <ele>477.8</ele>
        <time>2022-06-28T14:46:52Z</time>
      </trkpt>
      <trkpt lat="46.48135" lon="5.39899">
        <ele>477.6</ele>
        <time>2022-06-28T14:46:56Z</time>
      </trkpt>
      <trkpt lat="46.4818" lon="5.39874">
        <ele>477.8</ele>
        <time>2022-06-28T14:47:01Z</time>
      </trkpt>
      <trkpt lat="46.48195" lon="5.39855">
        <ele>477.8</ele>
        <time>2022-06-28T14:47:03Z</time>
      </trkpt>
      <trkpt lat="46.48199" lon="5.39844">
        <ele>477.8</ele>
        <time>2022-06-28T14:47:04Z</time>
      </trkpt>
      <trkpt lat="46.482" lon="5.39832">
        <ele>477.6</ele>
        <time>2022-06-28T14:47:05Z</time>
      </trkpt>
      <trkpt lat="46.48199" lon="5.39819">
        <ele>477.6</ele>
        <time>2022-06-28T14:47:06Z</time>
      </trkpt>
      <trkpt lat="46.48185" lon="5.39745">
        <ele>477.4</ele>
        <time>2022-06-28T14:47:12Z</time>
      </trkpt>
      <trkpt lat="46.4818" lon="5.39682">
        <ele>477</ele>
        <time>2022-06-28T14:47:17Z</time>
      </trkpt>
      <trkpt lat="46.4818" lon="5.39669">
        <ele>476.8</ele>
        <time>2022-06-28T14:47:18Z</time>
      </trkpt>
      <trkpt lat="46.48184" lon="5.39643">
        <ele>476.4</ele>
        <time>2022-06-28T14:47:20Z</time>
      </trkpt>
      <trkpt lat="46.48187" lon="5.39632">
        <ele>476.2</ele>
        <time>2022-06-28T14:47:21Z</time>
      </trkpt>
      <trkpt lat="46.48199" lon="5.39603">
        <ele>475</ele>
        <time>2022-06-28T14:47:23Z</time>
      </trkpt>
      <trkpt lat="46.48208" lon="5.39575">
        <ele>473.4</ele>
        <time>2022-06-28T14:47:25Z</time>
      </trkpt>
      <trkpt lat="46.48212" lon="5.3956">
        <ele>473</ele>
        <time>2022-06-28T14:47:26Z</time>
      </trkpt>
      <trkpt lat="46.48219" lon="5.39528">
        <ele>471.6</ele>
        <time>2022-06-28T14:47:28Z</time>
      </trkpt>
      <trkpt lat="46.48222" lon="5.39513">
        <ele>471.2</ele>
        <time>2022-06-28T14:47:29Z</time>
      </trkpt>
      <trkpt lat="46.48227" lon="5.395">
        <ele>470</ele>
        <time>2022-06-28T14:47:30Z</time>
      </trkpt>
      <trkpt lat="46.48232" lon="5.39488">
        <ele>469.4</ele>
        <time>2022-06-28T14:47:31Z</time>
      </trkpt>
      <trkpt lat="46.48238" lon="5.39477">
        <ele>468.4</ele>
        <time>2022-06-28T14:47:32Z</time>
      </trkpt>
      <trkpt lat="46.48246" lon="5.3947">
        <ele>467.8</ele>
        <time>2022-06-28T14:47:33Z</time>
      </trkpt>
      <trkpt lat="46.48254" lon="5.39465">
        <ele>466.2</ele>
        <time>2022-06-28T14:47:34Z</time>
      </trkpt>
      <trkpt lat="46.48263" lon="5.39464">
        <ele>465.6</ele>
        <time>2022-06-28T14:47:35Z</time>
      </trkpt>
      <trkpt lat="46.48272" lon="5.39465">
        <ele>464.8</ele>
        <time>2022-06-28T14:47:36Z</time>
      </trkpt>
      <trkpt lat="46.48281" lon="5.39465">
        <ele>463.6</ele>
        <time>2022-06-28T14:47:37Z</time>
      </trkpt>
      <trkpt lat="46.48298" lon="5.39457">
        <ele>461.8</ele>
        <time>2022-06-28T14:47:39Z</time>
      </trkpt>
      <trkpt lat="46.48303" lon="5.3945">
        <ele>461.2</ele>
        <time>2022-06-28T14:47:40Z</time>
      </trkpt>
      <trkpt lat="46.48307" lon="5.3944">
        <ele>459.8</ele>
        <time>2022-06-28T14:47:41Z</time>
      </trkpt>
      <trkpt lat="46.48312" lon="5.39416">
        <ele>458.6</ele>
        <time>2022-06-28T14:47:43Z</time>
      </trkpt>
      <trkpt lat="46.48322" lon="5.3939">
        <ele>457.8</ele>
        <time>2022-06-28T14:47:45Z</time>
      </trkpt>
      <trkpt lat="46.48329" lon="5.39376">
        <ele>457.4</ele>
        <time>2022-06-28T14:47:46Z</time>
      </trkpt>
      <trkpt lat="46.48345" lon="5.39351">
        <ele>455.8</ele>
        <time>2022-06-28T14:47:48Z</time>
      </trkpt>
      <trkpt lat="46.48363" lon="5.39334">
        <ele>454.4</ele>
        <time>2022-06-28T14:47:50Z</time>
      </trkpt>
      <trkpt lat="46.48385" lon="5.39327">
        <ele>453</ele>
        <time>2022-06-28T14:47:52Z</time>
      </trkpt>
      <trkpt lat="46.48396" lon="5.39327">
        <ele>451.4</ele>
        <time>2022-06-28T14:47:53Z</time>
      </trkpt>
      <trkpt lat="46.4842" lon="5.39331">
        <ele>450.2</ele>
        <time>2022-06-28T14:47:55Z</time>
      </trkpt>
      <trkpt lat="46.48442" lon="5.39328">
        <ele>448</ele>
        <time>2022-06-28T14:47:57Z</time>
      </trkpt>
      <trkpt lat="46.48471" lon="5.39318">
        <ele>446.4</ele>
        <time>2022-06-28T14:47:59Z</time>
      </trkpt>
      <trkpt lat="46.48485" lon="5.39314">
        <ele>445.4</ele>
        <time>2022-06-28T14:48:00Z</time>
      </trkpt>
      <trkpt lat="46.48498" lon="5.39311">
        <ele>444.8</ele>
        <time>2022-06-28T14:48:01Z</time>
      </trkpt>
      <trkpt lat="46.48512" lon="5.39308">
        <ele>444</ele>
        <time>2022-06-28T14:48:02Z</time>
      </trkpt>
      <trkpt lat="46.48541" lon="5.39299">
        <ele>442.6</ele>
        <time>2022-06-28T14:48:04Z</time>
      </trkpt>
      <trkpt lat="46.48555" lon="5.39296">
        <ele>441.4</ele>
        <time>2022-06-28T14:48:05Z</time>
      </trkpt>
      <trkpt lat="46.4857" lon="5.39293">
        <ele>440</ele>
        <time>2022-06-28T14:48:06Z</time>
      </trkpt>
      <trkpt lat="46.48584" lon="5.3929">
        <ele>438.6</ele>
        <time>2022-06-28T14:48:07Z</time>
      </trkpt>
      <trkpt lat="46.48612" lon="5.39283">
        <ele>437.2</ele>
        <time>2022-06-28T14:48:09Z</time>
      </trkpt>
      <trkpt lat="46.48639" lon="5.39278">
        <ele>435</ele>
        <time>2022-06-28T14:48:11Z</time>
      </trkpt>
      <trkpt lat="46.48653" lon="5.39278">
        <ele>434.4</ele>
        <time>2022-06-28T14:48:12Z</time>
      </trkpt>
      <trkpt lat="46.48666" lon="5.39279">
        <ele>432.8</ele>
        <time>2022-06-28T14:48:13Z</time>
      </trkpt>
      <trkpt lat="46.48691" lon="5.39286">
        <ele>431.6</ele>
        <time>2022-06-28T14:48:15Z</time>
      </trkpt>
      <trkpt lat="46.48702" lon="5.39292">
        <ele>429.8</ele>
        <time>2022-06-28T14:48:16Z</time>
      </trkpt>
      <trkpt lat="46.4872" lon="5.39305">
        <ele>427.4</ele>
        <time>2022-06-28T14:48:18Z</time>
      </trkpt>
      <trkpt lat="46.48734" lon="5.39309">
        <ele>425</ele>
        <time>2022-06-28T14:48:20Z</time>
      </trkpt>
      <trkpt lat="46.48737" lon="5.39301">
        <ele>423.4</ele>
        <time>2022-06-28T14:48:21Z</time>
      </trkpt>
      <trkpt lat="46.48736" lon="5.39291">
        <ele>422.6</ele>
        <time>2022-06-28T14:48:22Z</time>
      </trkpt>
      <trkpt lat="46.48733" lon="5.39279">
        <ele>421.6</ele>
        <time>2022-06-28T14:48:23Z</time>
      </trkpt>
      <trkpt lat="46.48718" lon="5.39256">
        <ele>419.2</ele>
        <time>2022-06-28T14:48:25Z</time>
      </trkpt>
      <trkpt lat="46.48697" lon="5.3923">
        <ele>417.2</ele>
        <time>2022-06-28T14:48:27Z</time>
      </trkpt>
      <trkpt lat="46.48689" lon="5.39218">
        <ele>416.4</ele>
        <time>2022-06-28T14:48:28Z</time>
      </trkpt>
      <trkpt lat="46.48677" lon="5.39201">
        <ele>415.6</ele>
        <time>2022-06-28T14:48:29Z</time>
      </trkpt>
      <trkpt lat="46.48666" lon="5.39186">
        <ele>414.2</ele>
        <time>2022-06-28T14:48:30Z</time>
      </trkpt>
      <trkpt lat="46.48647" lon="5.39158">
        <ele>412.8</ele>
        <time>2022-06-28T14:48:32Z</time>
      </trkpt>
      <trkpt lat="46.48639" lon="5.39148">
        <ele>412.2</ele>
        <time>2022-06-28T14:48:33Z</time>
      </trkpt>
      <trkpt lat="46.48626" lon="5.39137">
        <ele>411.6</ele>
        <time>2022-06-28T14:48:34Z</time>
      </trkpt>
      <trkpt lat="46.48611" lon="5.39124">
        <ele>410.4</ele>
        <time>2022-06-28T14:48:35Z</time>
      </trkpt>
      <trkpt lat="46.48587" lon="5.39105">
        <ele>408.6</ele>
        <time>2022-06-28T14:48:37Z</time>
      </trkpt>
      <trkpt lat="46.48574" lon="5.39096">
        <ele>407.6</ele>
        <time>2022-06-28T14:48:38Z</time>
      </trkpt>
      <trkpt lat="46.48562" lon="5.39087">
        <ele>406</ele>
        <time>2022-06-28T14:48:39Z</time>
      </trkpt>
      <trkpt lat="46.48534" lon="5.3907">
        <ele>403.8</ele>
        <time>2022-06-28T14:48:41Z</time>
      </trkpt>
      <trkpt lat="46.48507" lon="5.39048">
        <ele>401.6</ele>
        <time>2022-06-28T14:48:43Z</time>
      </trkpt>
      <trkpt lat="46.48497" lon="5.3903">
        <ele>400.2</ele>
        <time>2022-06-28T14:48:44Z</time>
      </trkpt>
      <trkpt lat="46.48491" lon="5.39009">
        <ele>399.6</ele>
        <time>2022-06-28T14:48:45Z</time>
      </trkpt>
      <trkpt lat="46.48487" lon="5.38988">
        <ele>398.4</ele>
        <time>2022-06-28T14:48:46Z</time>
      </trkpt>
      <trkpt lat="46.48481" lon="5.38968">
        <ele>397.8</ele>
        <time>2022-06-28T14:48:47Z</time>
      </trkpt>
      <trkpt lat="46.48474" lon="5.3895">
        <ele>396.4</ele>
        <time>2022-06-28T14:48:48Z</time>
      </trkpt>
      <trkpt lat="46.48459" lon="5.38919">
        <ele>393.4</ele>
        <time>2022-06-28T14:48:50Z</time>
      </trkpt>
      <trkpt lat="46.48453" lon="5.38904">
        <ele>392</ele>
        <time>2022-06-28T14:48:51Z</time>
      </trkpt>
      <trkpt lat="46.48456" lon="5.38874">
        <ele>390.8</ele>
        <time>2022-06-28T14:48:53Z</time>
      </trkpt>
      <trkpt lat="46.4847" lon="5.38851">
        <ele>389</ele>
        <time>2022-06-28T14:48:55Z</time>
      </trkpt>
      <trkpt lat="46.48492" lon="5.38837">
        <ele>387.2</ele>
        <time>2022-06-28T14:48:57Z</time>
      </trkpt>
      <trkpt lat="46.48502" lon="5.3883">
        <ele>386.2</ele>
        <time>2022-06-28T14:48:58Z</time>
      </trkpt>
      <trkpt lat="46.48512" lon="5.38823">
        <ele>385.6</ele>
        <time>2022-06-28T14:48:59Z</time>
      </trkpt>
      <trkpt lat="46.48522" lon="5.38816">
        <ele>385.2</ele>
        <time>2022-06-28T14:49:00Z</time>
      </trkpt>
      <trkpt lat="46.48563" lon="5.38788">
        <ele>382.6</ele>
        <time>2022-06-28T14:49:04Z</time>
      </trkpt>
      <trkpt lat="46.48573" lon="5.38781">
        <ele>381.6</ele>
        <time>2022-06-28T14:49:05Z</time>
      </trkpt>
      <trkpt lat="46.48583" lon="5.38775">
        <ele>380.8</ele>
        <time>2022-06-28T14:49:06Z</time>
      </trkpt>
      <trkpt lat="46.48592" lon="5.38773">
        <ele>379.2</ele>
        <time>2022-06-28T14:49:07Z</time>
      </trkpt>
      <trkpt lat="46.48598" lon="5.38774">
        <ele>378.6</ele>
        <time>2022-06-28T14:49:08Z</time>
      </trkpt>
      <trkpt lat="46.48603" lon="5.38777">
        <ele>377.8</ele>
        <time>2022-06-28T14:49:09Z</time>
      </trkpt>
      <trkpt lat="46.48609" lon="5.38783">
        <ele>376.4</ele>
        <time>2022-06-28T14:49:11Z</time>
      </trkpt>
      <trkpt lat="46.48614" lon="5.38781">
        <ele>374.6</ele>
        <time>2022-06-28T14:49:13Z</time>
      </trkpt>
      <trkpt lat="46.48616" lon="5.38776">
        <ele>373.4</ele>
        <time>2022-06-28T14:49:14Z</time>
      </trkpt>
      <trkpt lat="46.48626" lon="5.38756">
        <ele>372</ele>
        <time>2022-06-28T14:49:17Z</time>
      </trkpt>
      <trkpt lat="46.48634" lon="5.38738">
        <ele>371.4</ele>
        <time>2022-06-28T14:49:19Z</time>
      </trkpt>
      <trkpt lat="46.48638" lon="5.38727">
        <ele>371</ele>
        <time>2022-06-28T14:49:20Z</time>
      </trkpt>
      <trkpt lat="46.48641" lon="5.38715">
        <ele>370.2</ele>
        <time>2022-06-28T14:49:21Z</time>
      </trkpt>
      <trkpt lat="46.48642" lon="5.38703">
        <ele>370</ele>
        <time>2022-06-28T14:49:22Z</time>
      </trkpt>
      <trkpt lat="46.48643" lon="5.3869">
        <ele>369.6</ele>
        <time>2022-06-28T14:49:23Z</time>
      </trkpt>
      <trkpt lat="46.48642" lon="5.38662">
        <ele>368.8</ele>
        <time>2022-06-28T14:49:25Z</time>
      </trkpt>
      <trkpt lat="46.48634" lon="5.3862">
        <ele>367</ele>
        <time>2022-06-28T14:49:28Z</time>
      </trkpt>
      <trkpt lat="46.4863" lon="5.38605">
        <ele>366.8</ele>
        <time>2022-06-28T14:49:29Z</time>
      </trkpt>
      <trkpt lat="46.48622" lon="5.38576">
        <ele>366</ele>
        <time>2022-06-28T14:49:31Z</time>
      </trkpt>
      <trkpt lat="46.48613" lon="5.38543">
        <ele>364.8</ele>
        <time>2022-06-28T14:49:33Z</time>
      </trkpt>
      <trkpt lat="46.48609" lon="5.38529">
        <ele>363.8</ele>
        <time>2022-06-28T14:49:34Z</time>
      </trkpt>
      <trkpt lat="46.48606" lon="5.38517">
        <ele>363</ele>
        <time>2022-06-28T14:49:35Z</time>
      </trkpt>
    </trkseg>
  </trk>
</gpx>